<?xml version="1.0" encoding="UTF-8" standalone="no" ?>
<gpx xmlns="http://www.topografix.com/GPX/1/1" xmlns:xsi="http://www.w3.org/2001/XMLSchema-instance" xsi:schemaLocation="http://www.topografix.com/GPX/1/1 http://www.topografix.com/GPX/1/1/gpx.xsd" version="1.1" creator="VisuGPX - https://www.visugpx.com">
  <metadata>
    <name>Nord Toulousain 22 Mai 2022</name>
  </metadata>
  <trk>
    <name><![CDATA[Nord Toulousain 22 Mai 2022]]></name>
    <extensions>
      <line xmlns="http://www.topografix.com/GPX/gpx_style/0/2">
        <color>0000FF</color>
        <opacity>0.3</opacity>
        <width>4</width>
          <extensions>
            <sens>1</sens>
          </extensions>
      </line>
    </extensions>
    <trkseg>
      <trkpt lat="43.65561" lon="1.44603">
        <ele>180.404566</ele>
        <time>2022-05-21T13:14:36.367Z</time>
      </trkpt>
      <trkpt lat="43.65576" lon="1.44628">
        <ele>180.404566</ele>
        <time>2022-05-21T13:15:09.050Z</time>
      </trkpt>
      <trkpt lat="43.65588" lon="1.44634">
        <ele>180.404566</ele>
        <time>2022-05-21T13:15:12.038Z</time>
      </trkpt>
      <trkpt lat="43.65598" lon="1.44638">
        <ele>180.404566</ele>
        <time>2022-05-21T13:15:15.012Z</time>
      </trkpt>
      <trkpt lat="43.65605" lon="1.44645">
        <ele>180.404566</ele>
        <time>2022-05-21T13:15:18.026Z</time>
      </trkpt>
      <trkpt lat="43.65606" lon="1.44661">
        <ele>180.404566</ele>
        <time>2022-05-21T13:15:22.021Z</time>
      </trkpt>
      <trkpt lat="43.65599" lon="1.44673">
        <ele>180.404566</ele>
        <time>2022-05-21T13:15:25.027Z</time>
      </trkpt>
      <trkpt lat="43.65592" lon="1.44688">
        <ele>180.411149</ele>
        <time>2022-05-21T13:15:28.045Z</time>
      </trkpt>
      <trkpt lat="43.65584" lon="1.44703">
        <ele>180.508559</ele>
        <time>2022-05-21T13:15:31.027Z</time>
      </trkpt>
      <trkpt lat="43.65579" lon="1.44713">
        <ele>180.57436</ele>
        <time>2022-05-21T13:15:33.037Z</time>
      </trkpt>
      <trkpt lat="43.65574" lon="1.44724">
        <ele>180.641444</ele>
        <time>2022-05-21T13:15:35.055Z</time>
      </trkpt>
      <trkpt lat="43.65569" lon="1.44734">
        <ele>180.708527</ele>
        <time>2022-05-21T13:15:37.025Z</time>
      </trkpt>
      <trkpt lat="43.65563" lon="1.44745">
        <ele>180.777726</ele>
        <time>2022-05-21T13:15:39.030Z</time>
      </trkpt>
      <trkpt lat="43.65558" lon="1.44756">
        <ele>180.847808</ele>
        <time>2022-05-21T13:15:41.023Z</time>
      </trkpt>
      <trkpt lat="43.65552" lon="1.44767">
        <ele>180.919994</ele>
        <time>2022-05-21T13:15:43.011Z</time>
      </trkpt>
      <trkpt lat="43.65547" lon="1.44778">
        <ele>180.990154</ele>
        <time>2022-05-21T13:15:45.022Z</time>
      </trkpt>
      <trkpt lat="43.65541" lon="1.44789">
        <ele>181.062341</ele>
        <time>2022-05-21T13:15:47.035Z</time>
      </trkpt>
      <trkpt lat="43.65535" lon="1.448">
        <ele>181.134129</ele>
        <time>2022-05-21T13:15:49.037Z</time>
      </trkpt>
      <trkpt lat="43.65528" lon="1.4481">
        <ele>181.207395</ele>
        <time>2022-05-21T13:15:51.038Z</time>
      </trkpt>
      <trkpt lat="43.6552" lon="1.44818">
        <ele>181.279533</ele>
        <time>2022-05-21T13:15:53.037Z</time>
      </trkpt>
      <trkpt lat="43.65514" lon="1.44829">
        <ele>181.353048</ele>
        <time>2022-05-21T13:15:55.037Z</time>
      </trkpt>
      <trkpt lat="43.6551" lon="1.44842">
        <ele>181.426667</ele>
        <time>2022-05-21T13:15:57.042Z</time>
      </trkpt>
      <trkpt lat="43.65506" lon="1.44855">
        <ele>181.502815</ele>
        <time>2022-05-21T13:15:59.029Z</time>
      </trkpt>
      <trkpt lat="43.655" lon="1.44869">
        <ele>181.585678</ele>
        <time>2022-05-21T13:16:01.027Z</time>
      </trkpt>
      <trkpt lat="43.65494" lon="1.44882">
        <ele>181.666926</ele>
        <time>2022-05-21T13:16:03.016Z</time>
      </trkpt>
      <trkpt lat="43.65488" lon="1.44894">
        <ele>181.694416</ele>
        <time>2022-05-21T13:16:05.016Z</time>
      </trkpt>
      <trkpt lat="43.65481" lon="1.44907">
        <ele>181.643766</ele>
        <time>2022-05-21T13:16:07.018Z</time>
      </trkpt>
      <trkpt lat="43.65477" lon="1.4492">
        <ele>181.593733</ele>
        <time>2022-05-21T13:16:09.023Z</time>
      </trkpt>
      <trkpt lat="43.65474" lon="1.44936">
        <ele>181.53953</ele>
        <time>2022-05-21T13:16:11.021Z</time>
      </trkpt>
      <trkpt lat="43.6548" lon="1.44948">
        <ele>181.490782</ele>
        <time>2022-05-21T13:16:13.010Z</time>
      </trkpt>
      <trkpt lat="43.65487" lon="1.44959">
        <ele>181.440037</ele>
        <time>2022-05-21T13:16:15.017Z</time>
      </trkpt>
      <trkpt lat="43.65494" lon="1.4497">
        <ele>181.391963</ele>
        <time>2022-05-21T13:16:17.027Z</time>
      </trkpt>
      <trkpt lat="43.65501" lon="1.4498">
        <ele>181.342999</ele>
        <time>2022-05-21T13:16:19.026Z</time>
      </trkpt>
      <trkpt lat="43.65509" lon="1.4499">
        <ele>181.293295</ele>
        <time>2022-05-21T13:16:21.001Z</time>
      </trkpt>
      <trkpt lat="43.65517" lon="1.45">
        <ele>181.24253</ele>
        <time>2022-05-21T13:16:23.023Z</time>
      </trkpt>
      <trkpt lat="43.65524" lon="1.45011">
        <ele>181.193517</ele>
        <time>2022-05-21T13:16:25.036Z</time>
      </trkpt>
      <trkpt lat="43.65531" lon="1.45022">
        <ele>181.145021</ele>
        <time>2022-05-21T13:16:27.026Z</time>
      </trkpt>
      <trkpt lat="43.65538" lon="1.45032">
        <ele>181.096584</ele>
        <time>2022-05-21T13:16:29.033Z</time>
      </trkpt>
      <trkpt lat="43.65545" lon="1.45042">
        <ele>181.048342</ele>
        <time>2022-05-21T13:16:31.012Z</time>
      </trkpt>
      <trkpt lat="43.65553" lon="1.45052">
        <ele>180.998723</ele>
        <time>2022-05-21T13:16:33.031Z</time>
      </trkpt>
      <trkpt lat="43.6556" lon="1.45063">
        <ele>180.949673</ele>
        <time>2022-05-21T13:16:35.022Z</time>
      </trkpt>
      <trkpt lat="43.65569" lon="1.45076">
        <ele>180.891591</ele>
        <time>2022-05-21T13:16:38.012Z</time>
      </trkpt>
      <trkpt lat="43.65578" lon="1.45088">
        <ele>180.836803</ele>
        <time>2022-05-21T13:16:41.022Z</time>
      </trkpt>
      <trkpt lat="43.65585" lon="1.45098">
        <ele>180.796272</ele>
        <time>2022-05-21T13:16:43.048Z</time>
      </trkpt>
      <trkpt lat="43.65593" lon="1.45108">
        <ele>180.753263</ele>
        <time>2022-05-21T13:16:45.041Z</time>
      </trkpt>
      <trkpt lat="43.65599" lon="1.45121">
        <ele>180.708652</ele>
        <time>2022-05-21T13:16:47.041Z</time>
      </trkpt>
      <trkpt lat="43.65602" lon="1.45136">
        <ele>180.664041</ele>
        <time>2022-05-21T13:16:49.026Z</time>
      </trkpt>
      <trkpt lat="43.656" lon="1.4515">
        <ele>180.620458</ele>
        <time>2022-05-21T13:16:51.021Z</time>
      </trkpt>
      <trkpt lat="43.65592" lon="1.45161">
        <ele>180.578516</ele>
        <time>2022-05-21T13:16:53.034Z</time>
      </trkpt>
      <trkpt lat="43.65584" lon="1.4517">
        <ele>180.534366</ele>
        <time>2022-05-21T13:16:55.021Z</time>
      </trkpt>
      <trkpt lat="43.65576" lon="1.45181">
        <ele>180.490775</ele>
        <time>2022-05-21T13:16:57.031Z</time>
      </trkpt>
      <trkpt lat="43.65568" lon="1.45191">
        <ele>180.446497</ele>
        <time>2022-05-21T13:16:59.029Z</time>
      </trkpt>
      <trkpt lat="43.65559" lon="1.452">
        <ele>180.402127</ele>
        <time>2022-05-21T13:17:01.013Z</time>
      </trkpt>
      <trkpt lat="43.6555" lon="1.45209">
        <ele>180.358569</ele>
        <time>2022-05-21T13:17:03.034Z</time>
      </trkpt>
      <trkpt lat="43.65542" lon="1.45218">
        <ele>180.31501</ele>
        <time>2022-05-21T13:17:05.020Z</time>
      </trkpt>
      <trkpt lat="43.65533" lon="1.45228">
        <ele>180.271408</ele>
        <time>2022-05-21T13:17:07.048Z</time>
      </trkpt>
      <trkpt lat="43.65525" lon="1.45237">
        <ele>180.229599</ele>
        <time>2022-05-21T13:17:09.030Z</time>
      </trkpt>
      <trkpt lat="43.65517" lon="1.45246">
        <ele>180.186125</ele>
        <time>2022-05-21T13:17:11.029Z</time>
      </trkpt>
      <trkpt lat="43.65508" lon="1.45255">
        <ele>180.140927</ele>
        <time>2022-05-21T13:17:13.033Z</time>
      </trkpt>
      <trkpt lat="43.655" lon="1.45264">
        <ele>180.084084</ele>
        <time>2022-05-21T13:17:15.023Z</time>
      </trkpt>
      <trkpt lat="43.65492" lon="1.45273">
        <ele>180.028657</ele>
        <time>2022-05-21T13:17:17.010Z</time>
      </trkpt>
      <trkpt lat="43.65484" lon="1.45281">
        <ele>179.974365</ele>
        <time>2022-05-21T13:17:19.008Z</time>
      </trkpt>
      <trkpt lat="43.65476" lon="1.4529">
        <ele>179.919798</ele>
        <time>2022-05-21T13:17:21.034Z</time>
      </trkpt>
      <trkpt lat="43.65468" lon="1.45298">
        <ele>179.865231</ele>
        <time>2022-05-21T13:17:23.032Z</time>
      </trkpt>
      <trkpt lat="43.6546" lon="1.45307">
        <ele>179.810213</ele>
        <time>2022-05-21T13:17:25.011Z</time>
      </trkpt>
      <trkpt lat="43.65454" lon="1.45319">
        <ele>179.756117</ele>
        <time>2022-05-21T13:17:27.019Z</time>
      </trkpt>
      <trkpt lat="43.65447" lon="1.45327">
        <ele>179.707978</ele>
        <time>2022-05-21T13:17:29.018Z</time>
      </trkpt>
      <trkpt lat="43.65443" lon="1.45339">
        <ele>179.658444</ele>
        <time>2022-05-21T13:17:31.043Z</time>
      </trkpt>
      <trkpt lat="43.65438" lon="1.45354">
        <ele>179.591391</ele>
        <time>2022-05-21T13:17:34.028Z</time>
      </trkpt>
      <trkpt lat="43.65445" lon="1.45367">
        <ele>179.527178</ele>
        <time>2022-05-21T13:17:36.999Z</time>
      </trkpt>
      <trkpt lat="43.65454" lon="1.4537">
        <ele>179.477412</ele>
        <time>2022-05-21T13:17:39.024Z</time>
      </trkpt>
      <trkpt lat="43.65464" lon="1.45373">
        <ele>179.419637</ele>
        <time>2022-05-21T13:17:41.023Z</time>
      </trkpt>
      <trkpt lat="43.65476" lon="1.45377">
        <ele>179.357472</ele>
        <time>2022-05-21T13:17:43.027Z</time>
      </trkpt>
      <trkpt lat="43.65487" lon="1.45382">
        <ele>179.29417</ele>
        <time>2022-05-21T13:17:45.029Z</time>
      </trkpt>
      <trkpt lat="43.65499" lon="1.45386">
        <ele>179.229213</ele>
        <time>2022-05-21T13:17:47.043Z</time>
      </trkpt>
      <trkpt lat="43.6551" lon="1.4539">
        <ele>179.200836</ele>
        <time>2022-05-21T13:17:49.043Z</time>
      </trkpt>
      <trkpt lat="43.65522" lon="1.45394">
        <ele>179.230221</ele>
        <time>2022-05-21T13:17:51.033Z</time>
      </trkpt>
      <trkpt lat="43.65533" lon="1.45399">
        <ele>179.25913</ele>
        <time>2022-05-21T13:17:53.029Z</time>
      </trkpt>
      <trkpt lat="43.65544" lon="1.45403">
        <ele>179.287707</ele>
        <time>2022-05-21T13:17:55.039Z</time>
      </trkpt>
      <trkpt lat="43.65555" lon="1.45406">
        <ele>179.316158</ele>
        <time>2022-05-21T13:17:57.029Z</time>
      </trkpt>
      <trkpt lat="43.65567" lon="1.4541">
        <ele>179.344649</ele>
        <time>2022-05-21T13:17:59.051Z</time>
      </trkpt>
      <trkpt lat="43.65578" lon="1.45414">
        <ele>179.373271</ele>
        <time>2022-05-21T13:18:01.047Z</time>
      </trkpt>
      <trkpt lat="43.65589" lon="1.45418">
        <ele>179.401522</ele>
        <time>2022-05-21T13:18:03.026Z</time>
      </trkpt>
      <trkpt lat="43.656" lon="1.45422">
        <ele>179.429859</ele>
        <time>2022-05-21T13:18:05.031Z</time>
      </trkpt>
      <trkpt lat="43.65611" lon="1.45426">
        <ele>179.458002</ele>
        <time>2022-05-21T13:18:07.004Z</time>
      </trkpt>
      <trkpt lat="43.65622" lon="1.45431">
        <ele>179.48624</ele>
        <time>2022-05-21T13:18:09.024Z</time>
      </trkpt>
      <trkpt lat="43.65632" lon="1.45436">
        <ele>179.514303</ele>
        <time>2022-05-21T13:18:11.024Z</time>
      </trkpt>
      <trkpt lat="43.65643" lon="1.4544">
        <ele>179.541266</ele>
        <time>2022-05-21T13:18:13.032Z</time>
      </trkpt>
      <trkpt lat="43.65653" lon="1.45445">
        <ele>179.567703</ele>
        <time>2022-05-21T13:18:15.031Z</time>
      </trkpt>
      <trkpt lat="43.65663" lon="1.45449">
        <ele>179.594036</ele>
        <time>2022-05-21T13:18:17.026Z</time>
      </trkpt>
      <trkpt lat="43.65673" lon="1.45453">
        <ele>179.620132</ele>
        <time>2022-05-21T13:18:19.028Z</time>
      </trkpt>
      <trkpt lat="43.65683" lon="1.45457">
        <ele>179.710772</ele>
        <time>2022-05-21T13:18:21.035Z</time>
      </trkpt>
      <trkpt lat="43.65694" lon="1.45462">
        <ele>179.888581</ele>
        <time>2022-05-21T13:18:23.021Z</time>
      </trkpt>
      <trkpt lat="43.65704" lon="1.45466">
        <ele>180.07278</ele>
        <time>2022-05-21T13:18:25.037Z</time>
      </trkpt>
      <trkpt lat="43.65715" lon="1.45471">
        <ele>180.256441</ele>
        <time>2022-05-21T13:18:27.032Z</time>
      </trkpt>
      <trkpt lat="43.65724" lon="1.45475">
        <ele>180.425223</ele>
        <time>2022-05-21T13:18:29.008Z</time>
      </trkpt>
      <trkpt lat="43.65734" lon="1.45476">
        <ele>180.584798</ele>
        <time>2022-05-21T13:18:31.020Z</time>
      </trkpt>
      <trkpt lat="43.65743" lon="1.45476">
        <ele>180.744982</ele>
        <time>2022-05-21T13:18:33.028Z</time>
      </trkpt>
      <trkpt lat="43.65753" lon="1.45478">
        <ele>180.90319</ele>
        <time>2022-05-21T13:18:35.026Z</time>
      </trkpt>
      <trkpt lat="43.65766" lon="1.45482">
        <ele>181.124259</ele>
        <time>2022-05-21T13:18:38.027Z</time>
      </trkpt>
      <trkpt lat="43.65776" lon="1.45484">
        <ele>181.293923</ele>
        <time>2022-05-21T13:18:41.027Z</time>
      </trkpt>
      <trkpt lat="43.65785" lon="1.45486">
        <ele>181.45546</ele>
        <time>2022-05-21T13:18:46.035Z</time>
      </trkpt>
      <trkpt lat="43.65797" lon="1.45492">
        <ele>181.663962</ele>
        <time>2022-05-21T13:18:50.029Z</time>
      </trkpt>
      <trkpt lat="43.65807" lon="1.45494">
        <ele>181.834651</ele>
        <time>2022-05-21T13:18:53.026Z</time>
      </trkpt>
      <trkpt lat="43.65819" lon="1.4549">
        <ele>182.041285</ele>
        <time>2022-05-21T13:18:56.023Z</time>
      </trkpt>
      <trkpt lat="43.65832" lon="1.45485">
        <ele>182.261139</ele>
        <time>2022-05-21T13:18:59.047Z</time>
      </trkpt>
      <trkpt lat="43.65845" lon="1.45481">
        <ele>182.476975</ele>
        <time>2022-05-21T13:19:02.018Z</time>
      </trkpt>
      <trkpt lat="43.65857" lon="1.45477">
        <ele>182.59987</ele>
        <time>2022-05-21T13:19:05.018Z</time>
      </trkpt>
      <trkpt lat="43.65869" lon="1.45474">
        <ele>182.46606</ele>
        <time>2022-05-21T13:19:08.011Z</time>
      </trkpt>
      <trkpt lat="43.65881" lon="1.45472">
        <ele>182.336926</ele>
        <time>2022-05-21T13:19:11.018Z</time>
      </trkpt>
      <trkpt lat="43.65892" lon="1.45471">
        <ele>182.218957</ele>
        <time>2022-05-21T13:19:14.033Z</time>
      </trkpt>
      <trkpt lat="43.65901" lon="1.45477">
        <ele>182.113953</ele>
        <time>2022-05-21T13:19:21.011Z</time>
      </trkpt>
      <trkpt lat="43.65908" lon="1.45485">
        <ele>182.014985</ele>
        <time>2022-05-21T13:19:24.019Z</time>
      </trkpt>
      <trkpt lat="43.65921" lon="1.4549">
        <ele>181.877103</ele>
        <time>2022-05-21T13:19:27.034Z</time>
      </trkpt>
      <trkpt lat="43.6593" lon="1.45495">
        <ele>181.771898</ele>
        <time>2022-05-21T13:19:29.023Z</time>
      </trkpt>
      <trkpt lat="43.65938" lon="1.45505">
        <ele>181.655793</ele>
        <time>2022-05-21T13:19:31.014Z</time>
      </trkpt>
      <trkpt lat="43.65948" lon="1.45513">
        <ele>181.532652</ele>
        <time>2022-05-21T13:19:33.028Z</time>
      </trkpt>
      <trkpt lat="43.6596" lon="1.45513">
        <ele>181.406495</ele>
        <time>2022-05-21T13:19:35.022Z</time>
      </trkpt>
      <trkpt lat="43.6597" lon="1.45506">
        <ele>181.281792</ele>
        <time>2022-05-21T13:19:37.025Z</time>
      </trkpt>
      <trkpt lat="43.65981" lon="1.45499">
        <ele>181.153529</ele>
        <time>2022-05-21T13:19:39.013Z</time>
      </trkpt>
      <trkpt lat="43.65994" lon="1.45496">
        <ele>181.01404</ele>
        <time>2022-05-21T13:19:41.009Z</time>
      </trkpt>
      <trkpt lat="43.66007" lon="1.455">
        <ele>180.862554</ele>
        <time>2022-05-21T13:19:43.027Z</time>
      </trkpt>
      <trkpt lat="43.66022" lon="1.45509">
        <ele>180.697607</ele>
        <time>2022-05-21T13:19:45.019Z</time>
      </trkpt>
      <trkpt lat="43.66035" lon="1.4552">
        <ele>180.533622</ele>
        <time>2022-05-21T13:19:47.020Z</time>
      </trkpt>
      <trkpt lat="43.6605" lon="1.45531">
        <ele>180.369194</ele>
        <time>2022-05-21T13:19:49.020Z</time>
      </trkpt>
      <trkpt lat="43.66064" lon="1.4554">
        <ele>180.210808</ele>
        <time>2022-05-21T13:19:51.022Z</time>
      </trkpt>
      <trkpt lat="43.66078" lon="1.45547">
        <ele>180.05925</ele>
        <time>2022-05-21T13:19:53.032Z</time>
      </trkpt>
      <trkpt lat="43.66092" lon="1.45553">
        <ele>179.909497</ele>
        <time>2022-05-21T13:19:55.033Z</time>
      </trkpt>
      <trkpt lat="43.66106" lon="1.45561">
        <ele>179.764224</ele>
        <time>2022-05-21T13:19:57.035Z</time>
      </trkpt>
      <trkpt lat="43.66118" lon="1.45558">
        <ele>179.636213</ele>
        <time>2022-05-21T13:19:59.025Z</time>
      </trkpt>
      <trkpt lat="43.66126" lon="1.4555">
        <ele>179.537307</ele>
        <time>2022-05-21T13:20:01.017Z</time>
      </trkpt>
      <trkpt lat="43.66135" lon="1.4556">
        <ele>179.416614</ele>
        <time>2022-05-21T13:20:04.022Z</time>
      </trkpt>
      <trkpt lat="43.66143" lon="1.45569">
        <ele>179.31539</ele>
        <time>2022-05-21T13:20:06.037Z</time>
      </trkpt>
      <trkpt lat="43.66153" lon="1.45579">
        <ele>179.187315</ele>
        <time>2022-05-21T13:20:09.018Z</time>
      </trkpt>
      <trkpt lat="43.66164" lon="1.45589">
        <ele>179.057175</ele>
        <time>2022-05-21T13:20:12.026Z</time>
      </trkpt>
      <trkpt lat="43.66171" lon="1.45599">
        <ele>178.955322</ele>
        <time>2022-05-21T13:20:14.020Z</time>
      </trkpt>
      <trkpt lat="43.66179" lon="1.4561">
        <ele>178.894575</ele>
        <time>2022-05-21T13:20:16.022Z</time>
      </trkpt>
      <trkpt lat="43.66187" lon="1.4562">
        <ele>178.89533</ele>
        <time>2022-05-21T13:20:18.025Z</time>
      </trkpt>
      <trkpt lat="43.66196" lon="1.45628">
        <ele>178.896097</ele>
        <time>2022-05-21T13:20:20.020Z</time>
      </trkpt>
      <trkpt lat="43.66206" lon="1.45626">
        <ele>178.896837</ele>
        <time>2022-05-21T13:20:22.013Z</time>
      </trkpt>
      <trkpt lat="43.66214" lon="1.45615">
        <ele>178.897587</ele>
        <time>2022-05-21T13:20:24.010Z</time>
      </trkpt>
      <trkpt lat="43.66218" lon="1.456">
        <ele>178.898411</ele>
        <time>2022-05-21T13:20:26.021Z</time>
      </trkpt>
      <trkpt lat="43.66222" lon="1.45583">
        <ele>178.899278</ele>
        <time>2022-05-21T13:20:28.024Z</time>
      </trkpt>
      <trkpt lat="43.66227" lon="1.45568">
        <ele>178.90012</ele>
        <time>2022-05-21T13:20:30.036Z</time>
      </trkpt>
      <trkpt lat="43.66232" lon="1.45552">
        <ele>178.900989</ele>
        <time>2022-05-21T13:20:32.048Z</time>
      </trkpt>
      <trkpt lat="43.66236" lon="1.45537">
        <ele>178.901808</ele>
        <time>2022-05-21T13:20:34.025Z</time>
      </trkpt>
      <trkpt lat="43.6624" lon="1.45521">
        <ele>178.902651</ele>
        <time>2022-05-21T13:20:36.057Z</time>
      </trkpt>
      <trkpt lat="43.66244" lon="1.45505">
        <ele>178.903503</ele>
        <time>2022-05-21T13:20:38.019Z</time>
      </trkpt>
      <trkpt lat="43.66249" lon="1.45489">
        <ele>178.904372</ele>
        <time>2022-05-21T13:20:40.017Z</time>
      </trkpt>
      <trkpt lat="43.66254" lon="1.45474">
        <ele>178.905225</ele>
        <time>2022-05-21T13:20:42.038Z</time>
      </trkpt>
      <trkpt lat="43.66258" lon="1.45457">
        <ele>178.906096</ele>
        <time>2022-05-21T13:20:44.022Z</time>
      </trkpt>
      <trkpt lat="43.66262" lon="1.45441">
        <ele>178.90453</ele>
        <time>2022-05-21T13:20:46.023Z</time>
      </trkpt>
      <trkpt lat="43.66266" lon="1.45425">
        <ele>178.894083</ele>
        <time>2022-05-21T13:20:48.032Z</time>
      </trkpt>
      <trkpt lat="43.66271" lon="1.45409">
        <ele>178.883492</ele>
        <time>2022-05-21T13:20:50.032Z</time>
      </trkpt>
      <trkpt lat="43.66276" lon="1.45393">
        <ele>178.872599</ele>
        <time>2022-05-21T13:20:52.037Z</time>
      </trkpt>
      <trkpt lat="43.6628" lon="1.45377">
        <ele>178.862383</ele>
        <time>2022-05-21T13:20:54.034Z</time>
      </trkpt>
      <trkpt lat="43.66278" lon="1.45361">
        <ele>178.852711</ele>
        <time>2022-05-21T13:20:56.022Z</time>
      </trkpt>
      <trkpt lat="43.66274" lon="1.45347">
        <ele>178.842839</ele>
        <time>2022-05-21T13:20:58.028Z</time>
      </trkpt>
      <trkpt lat="43.66277" lon="1.45331">
        <ele>178.832856</ele>
        <time>2022-05-21T13:21:00.033Z</time>
      </trkpt>
      <trkpt lat="43.6628" lon="1.45315">
        <ele>178.822721</ele>
        <time>2022-05-21T13:21:02.030Z</time>
      </trkpt>
      <trkpt lat="43.66281" lon="1.453">
        <ele>178.813596</ele>
        <time>2022-05-21T13:21:04.009Z</time>
      </trkpt>
      <trkpt lat="43.66282" lon="1.45287">
        <ele>178.805706</ele>
        <time>2022-05-21T13:21:06.013Z</time>
      </trkpt>
      <trkpt lat="43.6629" lon="1.45275">
        <ele>178.795666</ele>
        <time>2022-05-21T13:21:07.997Z</time>
      </trkpt>
      <trkpt lat="43.66298" lon="1.45263">
        <ele>178.785342</ele>
        <time>2022-05-21T13:21:10.011Z</time>
      </trkpt>
      <trkpt lat="43.66306" lon="1.45252">
        <ele>178.775968</ele>
        <time>2022-05-21T13:21:12.024Z</time>
      </trkpt>
      <trkpt lat="43.66315" lon="1.45245">
        <ele>178.767436</ele>
        <time>2022-05-21T13:21:14.004Z</time>
      </trkpt>
      <trkpt lat="43.66324" lon="1.4524">
        <ele>178.759354</ele>
        <time>2022-05-21T13:21:16.001Z</time>
      </trkpt>
      <trkpt lat="43.66334" lon="1.45239">
        <ele>178.762041</ele>
        <time>2022-05-21T13:21:20.001Z</time>
      </trkpt>
      <trkpt lat="43.6634" lon="1.45229">
        <ele>178.77698</ele>
        <time>2022-05-21T13:21:23.006Z</time>
      </trkpt>
      <trkpt lat="43.66347" lon="1.45219">
        <ele>178.792824</ele>
        <time>2022-05-21T13:21:25.011Z</time>
      </trkpt>
      <trkpt lat="43.66354" lon="1.45208">
        <ele>178.810106</ele>
        <time>2022-05-21T13:21:27.001Z</time>
      </trkpt>
      <trkpt lat="43.66359" lon="1.45193">
        <ele>178.829364</ele>
        <time>2022-05-21T13:21:29.011Z</time>
      </trkpt>
      <trkpt lat="43.66364" lon="1.45178">
        <ele>178.849149</ele>
        <time>2022-05-21T13:21:31.003Z</time>
      </trkpt>
      <trkpt lat="43.66361" lon="1.45165">
        <ele>178.864948</ele>
        <time>2022-05-21T13:21:33.035Z</time>
      </trkpt>
      <trkpt lat="43.66361" lon="1.45151">
        <ele>178.881821</ele>
        <time>2022-05-21T13:21:36.051Z</time>
      </trkpt>
      <trkpt lat="43.6636" lon="1.45133">
        <ele>178.902301</ele>
        <time>2022-05-21T13:21:38.999Z</time>
      </trkpt>
      <trkpt lat="43.66364" lon="1.45121">
        <ele>178.917799</ele>
        <time>2022-05-21T13:21:41.037Z</time>
      </trkpt>
      <trkpt lat="43.6637" lon="1.45112">
        <ele>178.933018</ele>
        <time>2022-05-21T13:21:43.000Z</time>
      </trkpt>
      <trkpt lat="43.66377" lon="1.45102">
        <ele>178.949615</ele>
        <time>2022-05-21T13:21:45.017Z</time>
      </trkpt>
      <trkpt lat="43.66383" lon="1.45089">
        <ele>178.967223</ele>
        <time>2022-05-21T13:21:47.032Z</time>
      </trkpt>
      <trkpt lat="43.66388" lon="1.45074">
        <ele>178.985955</ele>
        <time>2022-05-21T13:21:49.018Z</time>
      </trkpt>
      <trkpt lat="43.66391" lon="1.45058">
        <ele>179.005878</ele>
        <time>2022-05-21T13:21:51.041Z</time>
      </trkpt>
      <trkpt lat="43.66393" lon="1.45041">
        <ele>179.026294</ele>
        <time>2022-05-21T13:21:53.030Z</time>
      </trkpt>
      <trkpt lat="43.66395" lon="1.45024">
        <ele>179.045226</ele>
        <time>2022-05-21T13:21:55.037Z</time>
      </trkpt>
      <trkpt lat="43.66402" lon="1.45009">
        <ele>179.038282</ele>
        <time>2022-05-21T13:21:57.018Z</time>
      </trkpt>
      <trkpt lat="43.6641" lon="1.44996">
        <ele>179.031364</ele>
        <time>2022-05-21T13:21:59.019Z</time>
      </trkpt>
      <trkpt lat="43.66415" lon="1.4498">
        <ele>179.024351</ele>
        <time>2022-05-21T13:22:01.026Z</time>
      </trkpt>
      <trkpt lat="43.6642" lon="1.44963">
        <ele>179.017301</ele>
        <time>2022-05-21T13:22:03.009Z</time>
      </trkpt>
      <trkpt lat="43.66426" lon="1.44947">
        <ele>179.010278</ele>
        <time>2022-05-21T13:22:05.039Z</time>
      </trkpt>
      <trkpt lat="43.66431" lon="1.44931">
        <ele>179.003264</ele>
        <time>2022-05-21T13:22:07.052Z</time>
      </trkpt>
      <trkpt lat="43.66435" lon="1.44914">
        <ele>178.996199</ele>
        <time>2022-05-21T13:22:09.028Z</time>
      </trkpt>
      <trkpt lat="43.66443" lon="1.449">
        <ele>178.989095</ele>
        <time>2022-05-21T13:22:11.029Z</time>
      </trkpt>
      <trkpt lat="43.66449" lon="1.44885">
        <ele>178.982166</ele>
        <time>2022-05-21T13:22:13.019Z</time>
      </trkpt>
      <trkpt lat="43.66452" lon="1.44868">
        <ele>178.975456</ele>
        <time>2022-05-21T13:22:15.033Z</time>
      </trkpt>
      <trkpt lat="43.66455" lon="1.44853">
        <ele>178.968927</ele>
        <time>2022-05-21T13:22:17.008Z</time>
      </trkpt>
      <trkpt lat="43.6646" lon="1.44837">
        <ele>178.962366</ele>
        <time>2022-05-21T13:22:19.018Z</time>
      </trkpt>
      <trkpt lat="43.66465" lon="1.44823">
        <ele>178.955938</ele>
        <time>2022-05-21T13:22:21.023Z</time>
      </trkpt>
      <trkpt lat="43.66471" lon="1.44809">
        <ele>178.949526</ele>
        <time>2022-05-21T13:22:23.036Z</time>
      </trkpt>
      <trkpt lat="43.66477" lon="1.44795">
        <ele>178.920681</ele>
        <time>2022-05-21T13:22:25.032Z</time>
      </trkpt>
      <trkpt lat="43.66484" lon="1.44782">
        <ele>178.876722</ele>
        <time>2022-05-21T13:22:27.021Z</time>
      </trkpt>
      <trkpt lat="43.66489" lon="1.44768">
        <ele>178.832186</ele>
        <time>2022-05-21T13:22:29.023Z</time>
      </trkpt>
      <trkpt lat="43.66495" lon="1.44754">
        <ele>178.787122</ele>
        <time>2022-05-21T13:22:31.018Z</time>
      </trkpt>
      <trkpt lat="43.665" lon="1.44739">
        <ele>178.740992</ele>
        <time>2022-05-21T13:22:33.042Z</time>
      </trkpt>
      <trkpt lat="43.66505" lon="1.44724">
        <ele>178.694612</ele>
        <time>2022-05-21T13:22:35.028Z</time>
      </trkpt>
      <trkpt lat="43.6651" lon="1.44711">
        <ele>178.653655</ele>
        <time>2022-05-21T13:22:37.041Z</time>
      </trkpt>
      <trkpt lat="43.66519" lon="1.44709">
        <ele>178.618767</ele>
        <time>2022-05-21T13:22:40.024Z</time>
      </trkpt>
      <trkpt lat="43.66528" lon="1.44715">
        <ele>178.581561</ele>
        <time>2022-05-21T13:22:43.012Z</time>
      </trkpt>
      <trkpt lat="43.66538" lon="1.44722">
        <ele>178.536849</ele>
        <time>2022-05-21T13:22:46.043Z</time>
      </trkpt>
      <trkpt lat="43.66547" lon="1.44728">
        <ele>178.499598</ele>
        <time>2022-05-21T13:22:48.028Z</time>
      </trkpt>
      <trkpt lat="43.66556" lon="1.44737">
        <ele>178.457253</ele>
        <time>2022-05-21T13:22:50.045Z</time>
      </trkpt>
      <trkpt lat="43.66564" lon="1.44748">
        <ele>178.411455</ele>
        <time>2022-05-21T13:22:52.023Z</time>
      </trkpt>
      <trkpt lat="43.66573" lon="1.44761">
        <ele>178.362259</ele>
        <time>2022-05-21T13:22:54.029Z</time>
      </trkpt>
      <trkpt lat="43.66582" lon="1.44774">
        <ele>178.312329</ele>
        <time>2022-05-21T13:22:56.040Z</time>
      </trkpt>
      <trkpt lat="43.66591" lon="1.44788">
        <ele>178.261682</ele>
        <time>2022-05-21T13:22:58.026Z</time>
      </trkpt>
      <trkpt lat="43.66599" lon="1.44802">
        <ele>178.238852</ele>
        <time>2022-05-21T13:23:00.031Z</time>
      </trkpt>
      <trkpt lat="43.66608" lon="1.44815">
        <ele>178.219281</ele>
        <time>2022-05-21T13:23:02.029Z</time>
      </trkpt>
      <trkpt lat="43.66616" lon="1.44828">
        <ele>178.200934</ele>
        <time>2022-05-21T13:23:04.061Z</time>
      </trkpt>
      <trkpt lat="43.66624" lon="1.44841">
        <ele>178.182669</ele>
        <time>2022-05-21T13:23:06.030Z</time>
      </trkpt>
      <trkpt lat="43.66634" lon="1.44852">
        <ele>178.164213</ele>
        <time>2022-05-21T13:23:08.011Z</time>
      </trkpt>
      <trkpt lat="43.66645" lon="1.44856">
        <ele>178.146199</ele>
        <time>2022-05-21T13:23:10.000Z</time>
      </trkpt>
      <trkpt lat="43.66657" lon="1.44859">
        <ele>178.128069</ele>
        <time>2022-05-21T13:23:12.017Z</time>
      </trkpt>
      <trkpt lat="43.66668" lon="1.44861">
        <ele>178.111238</ele>
        <time>2022-05-21T13:23:14.020Z</time>
      </trkpt>
      <trkpt lat="43.6668" lon="1.44858">
        <ele>178.093201</ele>
        <time>2022-05-21T13:23:16.045Z</time>
      </trkpt>
      <trkpt lat="43.66692" lon="1.44852">
        <ele>178.075178</ele>
        <time>2022-05-21T13:23:18.026Z</time>
      </trkpt>
      <trkpt lat="43.66703" lon="1.44844">
        <ele>178.056458</ele>
        <time>2022-05-21T13:23:20.026Z</time>
      </trkpt>
      <trkpt lat="43.66714" lon="1.44835">
        <ele>178.037543</ele>
        <time>2022-05-21T13:23:22.033Z</time>
      </trkpt>
      <trkpt lat="43.66724" lon="1.44825">
        <ele>178.018756</ele>
        <time>2022-05-21T13:23:24.033Z</time>
      </trkpt>
      <trkpt lat="43.66736" lon="1.44819">
        <ele>178.000062</ele>
        <time>2022-05-21T13:23:26.038Z</time>
      </trkpt>
      <trkpt lat="43.66747" lon="1.44821">
        <ele>177.983712</ele>
        <time>2022-05-21T13:23:28.035Z</time>
      </trkpt>
      <trkpt lat="43.66754" lon="1.44834">
        <ele>177.96894</ele>
        <time>2022-05-21T13:23:30.036Z</time>
      </trkpt>
      <trkpt lat="43.66757" lon="1.44849">
        <ele>177.95435</ele>
        <time>2022-05-21T13:23:32.024Z</time>
      </trkpt>
      <trkpt lat="43.6676" lon="1.44866">
        <ele>177.939022</ele>
        <time>2022-05-21T13:23:34.022Z</time>
      </trkpt>
      <trkpt lat="43.66767" lon="1.44878">
        <ele>177.924466</ele>
        <time>2022-05-21T13:23:36.028Z</time>
      </trkpt>
      <trkpt lat="43.66776" lon="1.44888">
        <ele>177.909833</ele>
        <time>2022-05-21T13:23:38.017Z</time>
      </trkpt>
      <trkpt lat="43.66786" lon="1.44897">
        <ele>177.894828</ele>
        <time>2022-05-21T13:23:40.020Z</time>
      </trkpt>
      <trkpt lat="43.66796" lon="1.44904">
        <ele>177.880272</ele>
        <time>2022-05-21T13:23:42.019Z</time>
      </trkpt>
      <trkpt lat="43.66807" lon="1.44909">
        <ele>177.865803</ele>
        <time>2022-05-21T13:23:44.027Z</time>
      </trkpt>
      <trkpt lat="43.66819" lon="1.44914">
        <ele>177.850735</ele>
        <time>2022-05-21T13:23:46.016Z</time>
      </trkpt>
      <trkpt lat="43.6683" lon="1.44919">
        <ele>177.8356</ele>
        <time>2022-05-21T13:23:48.029Z</time>
      </trkpt>
      <trkpt lat="43.66842" lon="1.44923">
        <ele>177.819864</ele>
        <time>2022-05-21T13:23:50.020Z</time>
      </trkpt>
      <trkpt lat="43.66855" lon="1.44926">
        <ele>177.803937</ele>
        <time>2022-05-21T13:23:52.040Z</time>
      </trkpt>
      <trkpt lat="43.66866" lon="1.44928">
        <ele>177.788897</ele>
        <time>2022-05-21T13:23:54.029Z</time>
      </trkpt>
      <trkpt lat="43.66878" lon="1.44931">
        <ele>177.773781</ele>
        <time>2022-05-21T13:23:56.034Z</time>
      </trkpt>
      <trkpt lat="43.6689" lon="1.44935">
        <ele>177.764164</ele>
        <time>2022-05-21T13:23:58.016Z</time>
      </trkpt>
      <trkpt lat="43.66902" lon="1.44937">
        <ele>177.781574</ele>
        <time>2022-05-21T13:24:00.040Z</time>
      </trkpt>
      <trkpt lat="43.66913" lon="1.44941">
        <ele>177.798711</ele>
        <time>2022-05-21T13:24:02.022Z</time>
      </trkpt>
      <trkpt lat="43.66924" lon="1.4495">
        <ele>177.816641</ele>
        <time>2022-05-21T13:24:04.040Z</time>
      </trkpt>
      <trkpt lat="43.66931" lon="1.44962">
        <ele>177.833928</ele>
        <time>2022-05-21T13:24:06.040Z</time>
      </trkpt>
      <trkpt lat="43.66937" lon="1.44976">
        <ele>177.850652</ele>
        <time>2022-05-21T13:24:08.020Z</time>
      </trkpt>
      <trkpt lat="43.66942" lon="1.44991">
        <ele>177.867882</ele>
        <time>2022-05-21T13:24:10.030Z</time>
      </trkpt>
      <trkpt lat="43.66947" lon="1.45005">
        <ele>177.884891</ele>
        <time>2022-05-21T13:24:12.045Z</time>
      </trkpt>
      <trkpt lat="43.66952" lon="1.4502">
        <ele>177.90228</ele>
        <time>2022-05-21T13:24:14.088Z</time>
      </trkpt>
      <trkpt lat="43.66958" lon="1.45034">
        <ele>177.919679</ele>
        <time>2022-05-21T13:24:16.005Z</time>
      </trkpt>
      <trkpt lat="43.66964" lon="1.45048">
        <ele>177.936825</ele>
        <time>2022-05-21T13:24:18.030Z</time>
      </trkpt>
      <trkpt lat="43.66971" lon="1.45061">
        <ele>177.954136</ele>
        <time>2022-05-21T13:24:20.014Z</time>
      </trkpt>
      <trkpt lat="43.66978" lon="1.45074">
        <ele>177.971188</ele>
        <time>2022-05-21T13:24:22.022Z</time>
      </trkpt>
      <trkpt lat="43.66984" lon="1.45087">
        <ele>177.988241</ele>
        <time>2022-05-21T13:24:24.037Z</time>
      </trkpt>
      <trkpt lat="43.66991" lon="1.45099">
        <ele>178.004431</ele>
        <time>2022-05-21T13:24:26.028Z</time>
      </trkpt>
      <trkpt lat="43.66997" lon="1.45112">
        <ele>178.021222</ele>
        <time>2022-05-21T13:24:28.015Z</time>
      </trkpt>
      <trkpt lat="43.67003" lon="1.45125">
        <ele>178.124609</ele>
        <time>2022-05-21T13:24:30.024Z</time>
      </trkpt>
      <trkpt lat="43.67008" lon="1.45139">
        <ele>178.262913</ele>
        <time>2022-05-21T13:24:32.012Z</time>
      </trkpt>
      <trkpt lat="43.67013" lon="1.45152">
        <ele>178.396413</ele>
        <time>2022-05-21T13:24:33.998Z</time>
      </trkpt>
      <trkpt lat="43.67022" lon="1.4516">
        <ele>178.528097</ele>
        <time>2022-05-21T13:24:36.029Z</time>
      </trkpt>
      <trkpt lat="43.67032" lon="1.45156">
        <ele>178.657259</ele>
        <time>2022-05-21T13:24:38.017Z</time>
      </trkpt>
      <trkpt lat="43.67041" lon="1.45151">
        <ele>178.789117</ele>
        <time>2022-05-21T13:24:40.038Z</time>
      </trkpt>
      <trkpt lat="43.67052" lon="1.45144">
        <ele>178.926799</ele>
        <time>2022-05-21T13:24:42.017Z</time>
      </trkpt>
      <trkpt lat="43.67062" lon="1.45139">
        <ele>179.059476</ele>
        <time>2022-05-21T13:24:44.034Z</time>
      </trkpt>
      <trkpt lat="43.67072" lon="1.45142">
        <ele>179.185937</ele>
        <time>2022-05-21T13:24:46.029Z</time>
      </trkpt>
      <trkpt lat="43.67076" lon="1.45154">
        <ele>179.305762</ele>
        <time>2022-05-21T13:24:48.025Z</time>
      </trkpt>
      <trkpt lat="43.67085" lon="1.45159">
        <ele>179.425861</ele>
        <time>2022-05-21T13:24:50.033Z</time>
      </trkpt>
      <trkpt lat="43.67097" lon="1.45156">
        <ele>179.581239</ele>
        <time>2022-05-21T13:24:53.017Z</time>
      </trkpt>
      <trkpt lat="43.67109" lon="1.4515">
        <ele>179.741876</ele>
        <time>2022-05-21T13:24:56.035Z</time>
      </trkpt>
      <trkpt lat="43.67121" lon="1.45142">
        <ele>179.896065</ele>
        <time>2022-05-21T13:24:59.040Z</time>
      </trkpt>
      <trkpt lat="43.6713" lon="1.45133">
        <ele>180.04196</ele>
        <time>2022-05-21T13:25:02.038Z</time>
      </trkpt>
      <trkpt lat="43.67142" lon="1.45129">
        <ele>180.192324</ele>
        <time>2022-05-21T13:25:05.028Z</time>
      </trkpt>
      <trkpt lat="43.67152" lon="1.45141">
        <ele>180.279112</ele>
        <time>2022-05-21T13:25:08.021Z</time>
      </trkpt>
      <trkpt lat="43.6716" lon="1.45145">
        <ele>180.314835</ele>
        <time>2022-05-21T13:25:10.026Z</time>
      </trkpt>
      <trkpt lat="43.6717" lon="1.45141">
        <ele>180.354773</ele>
        <time>2022-05-21T13:25:12.009Z</time>
      </trkpt>
      <trkpt lat="43.6718" lon="1.45135">
        <ele>180.396376</ele>
        <time>2022-05-21T13:25:14.022Z</time>
      </trkpt>
      <trkpt lat="43.6719" lon="1.45129">
        <ele>180.436458</ele>
        <time>2022-05-21T13:25:16.018Z</time>
      </trkpt>
      <trkpt lat="43.67198" lon="1.45121">
        <ele>180.475053</ele>
        <time>2022-05-21T13:25:18.012Z</time>
      </trkpt>
      <trkpt lat="43.67211" lon="1.4512">
        <ele>180.523111</ele>
        <time>2022-05-21T13:25:21.028Z</time>
      </trkpt>
      <trkpt lat="43.67216" lon="1.45134">
        <ele>180.564703</ele>
        <time>2022-05-21T13:25:24.036Z</time>
      </trkpt>
      <trkpt lat="43.67218" lon="1.45147">
        <ele>180.602439</ele>
        <time>2022-05-21T13:25:27.002Z</time>
      </trkpt>
      <trkpt lat="43.67222" lon="1.45163">
        <ele>180.649827</ele>
        <time>2022-05-21T13:25:30.049Z</time>
      </trkpt>
      <trkpt lat="43.67225" lon="1.45176">
        <ele>180.686186</ele>
        <time>2022-05-21T13:25:32.034Z</time>
      </trkpt>
      <trkpt lat="43.67228" lon="1.45189">
        <ele>180.724089</ele>
        <time>2022-05-21T13:25:34.024Z</time>
      </trkpt>
      <trkpt lat="43.67231" lon="1.45202">
        <ele>180.76249</ele>
        <time>2022-05-21T13:25:36.014Z</time>
      </trkpt>
      <trkpt lat="43.67234" lon="1.45216">
        <ele>180.801035</ele>
        <time>2022-05-21T13:25:38.020Z</time>
      </trkpt>
      <trkpt lat="43.67238" lon="1.45228">
        <ele>180.838691</ele>
        <time>2022-05-21T13:25:40.036Z</time>
      </trkpt>
      <trkpt lat="43.67243" lon="1.4524">
        <ele>180.877602</ele>
        <time>2022-05-21T13:25:42.024Z</time>
      </trkpt>
      <trkpt lat="43.6725" lon="1.4525">
        <ele>180.915934</ele>
        <time>2022-05-21T13:25:44.021Z</time>
      </trkpt>
      <trkpt lat="43.67254" lon="1.45263">
        <ele>180.948165</ele>
        <time>2022-05-21T13:25:46.020Z</time>
      </trkpt>
      <trkpt lat="43.67257" lon="1.45276">
        <ele>180.973953</ele>
        <time>2022-05-21T13:25:48.030Z</time>
      </trkpt>
      <trkpt lat="43.67261" lon="1.4529">
        <ele>181.000358</ele>
        <time>2022-05-21T13:25:50.034Z</time>
      </trkpt>
      <trkpt lat="43.67265" lon="1.45302">
        <ele>181.024675</ele>
        <time>2022-05-21T13:25:52.020Z</time>
      </trkpt>
      <trkpt lat="43.67274" lon="1.45312">
        <ele>181.055833</ele>
        <time>2022-05-21T13:25:55.004Z</time>
      </trkpt>
      <trkpt lat="43.67285" lon="1.45309">
        <ele>181.086881</ele>
        <time>2022-05-21T13:25:58.016Z</time>
      </trkpt>
      <trkpt lat="43.67294" lon="1.45304">
        <ele>181.111335</ele>
        <time>2022-05-21T13:26:00.012Z</time>
      </trkpt>
      <trkpt lat="43.67303" lon="1.45299">
        <ele>181.136563</ele>
        <time>2022-05-21T13:26:02.037Z</time>
      </trkpt>
      <trkpt lat="43.67313" lon="1.45294">
        <ele>181.163531</ele>
        <time>2022-05-21T13:26:04.030Z</time>
      </trkpt>
      <trkpt lat="43.67324" lon="1.45294">
        <ele>181.192256</ele>
        <time>2022-05-21T13:26:06.020Z</time>
      </trkpt>
      <trkpt lat="43.67335" lon="1.45298">
        <ele>181.221942</ele>
        <time>2022-05-21T13:26:08.035Z</time>
      </trkpt>
      <trkpt lat="43.67346" lon="1.45304">
        <ele>181.252576</ele>
        <time>2022-05-21T13:26:10.025Z</time>
      </trkpt>
      <trkpt lat="43.67358" lon="1.45307">
        <ele>181.283383</ele>
        <time>2022-05-21T13:26:12.019Z</time>
      </trkpt>
      <trkpt lat="43.6737" lon="1.45309">
        <ele>181.314776</ele>
        <time>2022-05-21T13:26:14.054Z</time>
      </trkpt>
      <trkpt lat="43.67382" lon="1.45306">
        <ele>181.345791</ele>
        <time>2022-05-21T13:26:16.028Z</time>
      </trkpt>
      <trkpt lat="43.67393" lon="1.453">
        <ele>181.376633</ele>
        <time>2022-05-21T13:26:18.025Z</time>
      </trkpt>
      <trkpt lat="43.67404" lon="1.45292">
        <ele>181.408444</ele>
        <time>2022-05-21T13:26:20.022Z</time>
      </trkpt>
      <trkpt lat="43.67414" lon="1.45285">
        <ele>181.440509</ele>
        <time>2022-05-21T13:26:22.041Z</time>
      </trkpt>
      <trkpt lat="43.67426" lon="1.45281">
        <ele>181.472855</ele>
        <time>2022-05-21T13:26:24.047Z</time>
      </trkpt>
      <trkpt lat="43.67436" lon="1.4529">
        <ele>181.50461</ele>
        <time>2022-05-21T13:26:26.001Z</time>
      </trkpt>
      <trkpt lat="43.67441" lon="1.45305">
        <ele>181.536103</ele>
        <time>2022-05-21T13:26:28.040Z</time>
      </trkpt>
      <trkpt lat="43.67446" lon="1.4532">
        <ele>181.567258</ele>
        <time>2022-05-21T13:26:29.999Z</time>
      </trkpt>
      <trkpt lat="43.67451" lon="1.45334">
        <ele>181.597706</ele>
        <time>2022-05-21T13:26:32.002Z</time>
      </trkpt>
      <trkpt lat="43.67458" lon="1.45346">
        <ele>181.627312</ele>
        <time>2022-05-21T13:26:34.023Z</time>
      </trkpt>
      <trkpt lat="43.67465" lon="1.45357">
        <ele>181.655979</ele>
        <time>2022-05-21T13:26:36.018Z</time>
      </trkpt>
      <trkpt lat="43.67471" lon="1.45369">
        <ele>181.684725</ele>
        <time>2022-05-21T13:26:38.011Z</time>
      </trkpt>
      <trkpt lat="43.6748" lon="1.45377">
        <ele>181.713607</ele>
        <time>2022-05-21T13:26:40.015Z</time>
      </trkpt>
      <trkpt lat="43.67489" lon="1.45385">
        <ele>181.742462</ele>
        <time>2022-05-21T13:26:42.035Z</time>
      </trkpt>
      <trkpt lat="43.67499" lon="1.45385">
        <ele>181.7698</ele>
        <time>2022-05-21T13:26:44.047Z</time>
      </trkpt>
      <trkpt lat="43.67509" lon="1.45375">
        <ele>181.801006</ele>
        <time>2022-05-21T13:26:46.032Z</time>
      </trkpt>
      <trkpt lat="43.67517" lon="1.45364">
        <ele>181.832689</ele>
        <time>2022-05-21T13:26:48.023Z</time>
      </trkpt>
      <trkpt lat="43.67526" lon="1.45354">
        <ele>181.864208</ele>
        <time>2022-05-21T13:26:50.026Z</time>
      </trkpt>
      <trkpt lat="43.67536" lon="1.45346">
        <ele>181.880587</ele>
        <time>2022-05-21T13:26:52.006Z</time>
      </trkpt>
      <trkpt lat="43.67547" lon="1.45341">
        <ele>181.878225</ele>
        <time>2022-05-21T13:26:54.020Z</time>
      </trkpt>
      <trkpt lat="43.67559" lon="1.45341">
        <ele>181.875545</ele>
        <time>2022-05-21T13:26:57.010Z</time>
      </trkpt>
      <trkpt lat="43.67571" lon="1.45333">
        <ele>181.872774</ele>
        <time>2022-05-21T13:27:00.004Z</time>
      </trkpt>
      <trkpt lat="43.67579" lon="1.45327">
        <ele>181.870735</ele>
        <time>2022-05-21T13:27:02.018Z</time>
      </trkpt>
      <trkpt lat="43.67589" lon="1.45322">
        <ele>181.868571</ele>
        <time>2022-05-21T13:27:04.030Z</time>
      </trkpt>
      <trkpt lat="43.67599" lon="1.45318">
        <ele>181.86632</ele>
        <time>2022-05-21T13:27:06.038Z</time>
      </trkpt>
      <trkpt lat="43.67609" lon="1.45315">
        <ele>181.864102</ele>
        <time>2022-05-21T13:27:08.016Z</time>
      </trkpt>
      <trkpt lat="43.67619" lon="1.45314">
        <ele>181.861867</ele>
        <time>2022-05-21T13:27:10.006Z</time>
      </trkpt>
      <trkpt lat="43.6763" lon="1.45313">
        <ele>181.859579</ele>
        <time>2022-05-21T13:27:12.021Z</time>
      </trkpt>
      <trkpt lat="43.67639" lon="1.45313">
        <ele>181.857528</ele>
        <time>2022-05-21T13:27:14.036Z</time>
      </trkpt>
      <trkpt lat="43.67648" lon="1.45313">
        <ele>181.855558</ele>
        <time>2022-05-21T13:27:16.025Z</time>
      </trkpt>
      <trkpt lat="43.67658" lon="1.45313">
        <ele>181.853398</ele>
        <time>2022-05-21T13:27:19.039Z</time>
      </trkpt>
      <trkpt lat="43.67669" lon="1.45316">
        <ele>181.850907</ele>
        <time>2022-05-21T13:27:22.028Z</time>
      </trkpt>
      <trkpt lat="43.67683" lon="1.4532">
        <ele>181.848033</ele>
        <time>2022-05-21T13:27:25.022Z</time>
      </trkpt>
      <trkpt lat="43.67692" lon="1.45323">
        <ele>181.845981</ele>
        <time>2022-05-21T13:27:27.018Z</time>
      </trkpt>
      <trkpt lat="43.67701" lon="1.45327">
        <ele>181.843879</ele>
        <time>2022-05-21T13:27:29.033Z</time>
      </trkpt>
      <trkpt lat="43.6771" lon="1.45331">
        <ele>181.875307</ele>
        <time>2022-05-21T13:27:31.011Z</time>
      </trkpt>
      <trkpt lat="43.67719" lon="1.45335">
        <ele>181.942184</ele>
        <time>2022-05-21T13:27:33.009Z</time>
      </trkpt>
      <trkpt lat="43.67728" lon="1.45341">
        <ele>182.005394</ele>
        <time>2022-05-21T13:27:35.031Z</time>
      </trkpt>
      <trkpt lat="43.67736" lon="1.45347">
        <ele>182.067916</ele>
        <time>2022-05-21T13:27:37.017Z</time>
      </trkpt>
      <trkpt lat="43.67744" lon="1.45354">
        <ele>182.131611</ele>
        <time>2022-05-21T13:27:39.031Z</time>
      </trkpt>
      <trkpt lat="43.67753" lon="1.45359">
        <ele>182.196316</ele>
        <time>2022-05-21T13:27:41.048Z</time>
      </trkpt>
      <trkpt lat="43.67761" lon="1.45365">
        <ele>182.258129</ele>
        <time>2022-05-21T13:27:43.032Z</time>
      </trkpt>
      <trkpt lat="43.67769" lon="1.45372">
        <ele>182.324579</ele>
        <time>2022-05-21T13:27:45.010Z</time>
      </trkpt>
      <trkpt lat="43.67778" lon="1.45379">
        <ele>182.393538</ele>
        <time>2022-05-21T13:27:47.025Z</time>
      </trkpt>
      <trkpt lat="43.67787" lon="1.45386">
        <ele>182.462933</ele>
        <time>2022-05-21T13:27:49.035Z</time>
      </trkpt>
      <trkpt lat="43.67795" lon="1.45393">
        <ele>182.531391</ele>
        <time>2022-05-21T13:27:51.042Z</time>
      </trkpt>
      <trkpt lat="43.67804" lon="1.45398">
        <ele>182.595228</ele>
        <time>2022-05-21T13:27:53.019Z</time>
      </trkpt>
      <trkpt lat="43.67815" lon="1.45406">
        <ele>182.681191</ele>
        <time>2022-05-21T13:27:56.023Z</time>
      </trkpt>
      <trkpt lat="43.67826" lon="1.45416">
        <ele>182.766802</ele>
        <time>2022-05-21T13:27:59.031Z</time>
      </trkpt>
      <trkpt lat="43.67837" lon="1.45425">
        <ele>182.858358</ele>
        <time>2022-05-21T13:28:02.033Z</time>
      </trkpt>
      <trkpt lat="43.67848" lon="1.45434">
        <ele>182.943718</ele>
        <time>2022-05-21T13:28:05.013Z</time>
      </trkpt>
      <trkpt lat="43.6786" lon="1.45433">
        <ele>183.025479</ele>
        <time>2022-05-21T13:28:08.027Z</time>
      </trkpt>
      <trkpt lat="43.67871" lon="1.45424">
        <ele>183.092502</ele>
        <time>2022-05-21T13:28:11.002Z</time>
      </trkpt>
      <trkpt lat="43.67882" lon="1.45414">
        <ele>183.146171</ele>
        <time>2022-05-21T13:28:14.019Z</time>
      </trkpt>
      <trkpt lat="43.67894" lon="1.45403">
        <ele>183.201471</ele>
        <time>2022-05-21T13:28:17.023Z</time>
      </trkpt>
      <trkpt lat="43.67902" lon="1.45397">
        <ele>183.239688</ele>
        <time>2022-05-21T13:28:19.021Z</time>
      </trkpt>
      <trkpt lat="43.67911" lon="1.45391">
        <ele>183.278221</ele>
        <time>2022-05-21T13:28:21.012Z</time>
      </trkpt>
      <trkpt lat="43.67924" lon="1.4539">
        <ele>183.332042</ele>
        <time>2022-05-21T13:28:24.030Z</time>
      </trkpt>
      <trkpt lat="43.67934" lon="1.45384">
        <ele>183.374693</ele>
        <time>2022-05-21T13:28:26.005Z</time>
      </trkpt>
      <trkpt lat="43.67943" lon="1.45378">
        <ele>183.41662</ele>
        <time>2022-05-21T13:28:28.020Z</time>
      </trkpt>
      <trkpt lat="43.67954" lon="1.45373">
        <ele>183.461483</ele>
        <time>2022-05-21T13:28:30.031Z</time>
      </trkpt>
      <trkpt lat="43.67963" lon="1.45368">
        <ele>183.503212</ele>
        <time>2022-05-21T13:28:32.025Z</time>
      </trkpt>
      <trkpt lat="43.67973" lon="1.45362">
        <ele>183.544662</ele>
        <time>2022-05-21T13:28:34.018Z</time>
      </trkpt>
      <trkpt lat="43.67981" lon="1.45353">
        <ele>183.587314</ele>
        <time>2022-05-21T13:28:36.023Z</time>
      </trkpt>
      <trkpt lat="43.67991" lon="1.45346">
        <ele>183.632076</ele>
        <time>2022-05-21T13:28:38.034Z</time>
      </trkpt>
      <trkpt lat="43.68001" lon="1.45339">
        <ele>183.677463</ele>
        <time>2022-05-21T13:28:40.023Z</time>
      </trkpt>
      <trkpt lat="43.68011" lon="1.45332">
        <ele>183.722808</ele>
        <time>2022-05-21T13:28:42.023Z</time>
      </trkpt>
      <trkpt lat="43.68021" lon="1.45325">
        <ele>183.765938</ele>
        <time>2022-05-21T13:28:44.040Z</time>
      </trkpt>
      <trkpt lat="43.68031" lon="1.45317">
        <ele>183.777259</ele>
        <time>2022-05-21T13:28:46.047Z</time>
      </trkpt>
      <trkpt lat="43.68041" lon="1.45309">
        <ele>183.755646</ele>
        <time>2022-05-21T13:28:48.025Z</time>
      </trkpt>
      <trkpt lat="43.68051" lon="1.453">
        <ele>183.733874</ele>
        <time>2022-05-21T13:28:50.040Z</time>
      </trkpt>
      <trkpt lat="43.68061" lon="1.45291">
        <ele>183.71137</ele>
        <time>2022-05-21T13:28:52.022Z</time>
      </trkpt>
      <trkpt lat="43.68071" lon="1.45282">
        <ele>183.688682</ele>
        <time>2022-05-21T13:28:54.016Z</time>
      </trkpt>
      <trkpt lat="43.68081" lon="1.45273">
        <ele>183.666251</ele>
        <time>2022-05-21T13:28:56.020Z</time>
      </trkpt>
      <trkpt lat="43.68091" lon="1.45264">
        <ele>183.643751</ele>
        <time>2022-05-21T13:28:58.020Z</time>
      </trkpt>
      <trkpt lat="43.68101" lon="1.45255">
        <ele>183.621538</ele>
        <time>2022-05-21T13:29:00.014Z</time>
      </trkpt>
      <trkpt lat="43.68111" lon="1.45246">
        <ele>183.599575</ele>
        <time>2022-05-21T13:29:02.032Z</time>
      </trkpt>
      <trkpt lat="43.68121" lon="1.45237">
        <ele>183.577675</ele>
        <time>2022-05-21T13:29:04.036Z</time>
      </trkpt>
      <trkpt lat="43.68131" lon="1.45228">
        <ele>183.556078</ele>
        <time>2022-05-21T13:29:06.025Z</time>
      </trkpt>
      <trkpt lat="43.6814" lon="1.45219">
        <ele>183.534342</ele>
        <time>2022-05-21T13:29:08.044Z</time>
      </trkpt>
      <trkpt lat="43.6815" lon="1.4521">
        <ele>183.512297</ele>
        <time>2022-05-21T13:29:10.037Z</time>
      </trkpt>
      <trkpt lat="43.68159" lon="1.45203">
        <ele>183.493083</ele>
        <time>2022-05-21T13:29:12.033Z</time>
      </trkpt>
      <trkpt lat="43.68167" lon="1.45217">
        <ele>183.468396</ele>
        <time>2022-05-21T13:29:15.012Z</time>
      </trkpt>
      <trkpt lat="43.6817" lon="1.45231">
        <ele>183.468026</ele>
        <time>2022-05-21T13:29:17.034Z</time>
      </trkpt>
      <trkpt lat="43.68174" lon="1.45245">
        <ele>183.532357</ele>
        <time>2022-05-21T13:29:19.021Z</time>
      </trkpt>
      <trkpt lat="43.68178" lon="1.45259">
        <ele>183.598719</ele>
        <time>2022-05-21T13:29:21.022Z</time>
      </trkpt>
      <trkpt lat="43.68182" lon="1.45275">
        <ele>183.671855</ele>
        <time>2022-05-21T13:29:23.045Z</time>
      </trkpt>
      <trkpt lat="43.68185" lon="1.4529">
        <ele>183.742564</ele>
        <time>2022-05-21T13:29:25.023Z</time>
      </trkpt>
      <trkpt lat="43.68189" lon="1.45306">
        <ele>183.814876</ele>
        <time>2022-05-21T13:29:27.029Z</time>
      </trkpt>
      <trkpt lat="43.68193" lon="1.45321">
        <ele>183.883695</ele>
        <time>2022-05-21T13:29:29.037Z</time>
      </trkpt>
      <trkpt lat="43.68197" lon="1.45335">
        <ele>183.951283</ele>
        <time>2022-05-21T13:29:31.017Z</time>
      </trkpt>
      <trkpt lat="43.68199" lon="1.45349">
        <ele>184.012019</ele>
        <time>2022-05-21T13:29:33.021Z</time>
      </trkpt>
      <trkpt lat="43.68203" lon="1.45362">
        <ele>184.073055</ele>
        <time>2022-05-21T13:29:35.033Z</time>
      </trkpt>
      <trkpt lat="43.68207" lon="1.45374">
        <ele>184.129585</ele>
        <time>2022-05-21T13:29:37.011Z</time>
      </trkpt>
      <trkpt lat="43.6821" lon="1.45386">
        <ele>184.188593</ele>
        <time>2022-05-21T13:29:39.031Z</time>
      </trkpt>
      <trkpt lat="43.68214" lon="1.45399">
        <ele>184.249198</ele>
        <time>2022-05-21T13:29:41.026Z</time>
      </trkpt>
      <trkpt lat="43.68217" lon="1.45413">
        <ele>184.310725</ele>
        <time>2022-05-21T13:29:43.028Z</time>
      </trkpt>
      <trkpt lat="43.6822" lon="1.45425">
        <ele>184.369511</ele>
        <time>2022-05-21T13:29:45.024Z</time>
      </trkpt>
      <trkpt lat="43.68224" lon="1.45438">
        <ele>184.431297</ele>
        <time>2022-05-21T13:29:47.028Z</time>
      </trkpt>
      <trkpt lat="43.68229" lon="1.45451">
        <ele>184.49492</ele>
        <time>2022-05-21T13:29:49.007Z</time>
      </trkpt>
      <trkpt lat="43.68233" lon="1.45465">
        <ele>184.572423</ele>
        <time>2022-05-21T13:29:51.020Z</time>
      </trkpt>
      <trkpt lat="43.68237" lon="1.45479">
        <ele>184.677802</ele>
        <time>2022-05-21T13:29:53.016Z</time>
      </trkpt>
      <trkpt lat="43.68241" lon="1.45493">
        <ele>184.787097</ele>
        <time>2022-05-21T13:29:55.032Z</time>
      </trkpt>
      <trkpt lat="43.68245" lon="1.45507">
        <ele>184.897596</ele>
        <time>2022-05-21T13:29:57.011Z</time>
      </trkpt>
      <trkpt lat="43.6825" lon="1.45522">
        <ele>185.007831</ele>
        <time>2022-05-21T13:29:59.033Z</time>
      </trkpt>
      <trkpt lat="43.68253" lon="1.45537">
        <ele>185.120349</ele>
        <time>2022-05-21T13:30:01.014Z</time>
      </trkpt>
      <trkpt lat="43.68257" lon="1.45552">
        <ele>185.236192</ele>
        <time>2022-05-21T13:30:03.014Z</time>
      </trkpt>
      <trkpt lat="43.68261" lon="1.45567">
        <ele>185.350727</ele>
        <time>2022-05-21T13:30:05.036Z</time>
      </trkpt>
      <trkpt lat="43.68264" lon="1.45583">
        <ele>185.464078</ele>
        <time>2022-05-21T13:30:07.032Z</time>
      </trkpt>
      <trkpt lat="43.68268" lon="1.45599">
        <ele>185.581112</ele>
        <time>2022-05-21T13:30:09.028Z</time>
      </trkpt>
      <trkpt lat="43.68271" lon="1.45614">
        <ele>185.697465</ele>
        <time>2022-05-21T13:30:11.015Z</time>
      </trkpt>
      <trkpt lat="43.68274" lon="1.4563">
        <ele>185.814336</ele>
        <time>2022-05-21T13:30:13.028Z</time>
      </trkpt>
      <trkpt lat="43.68276" lon="1.45647">
        <ele>185.931712</ele>
        <time>2022-05-21T13:30:15.033Z</time>
      </trkpt>
      <trkpt lat="43.68277" lon="1.45663">
        <ele>186.049902</ele>
        <time>2022-05-21T13:30:17.007Z</time>
      </trkpt>
      <trkpt lat="43.68278" lon="1.45679">
        <ele>186.162593</ele>
        <time>2022-05-21T13:30:19.044Z</time>
      </trkpt>
      <trkpt lat="43.68278" lon="1.45695">
        <ele>186.277622</ele>
        <time>2022-05-21T13:30:21.031Z</time>
      </trkpt>
      <trkpt lat="43.68278" lon="1.45711">
        <ele>186.535786</ele>
        <time>2022-05-21T13:30:23.030Z</time>
      </trkpt>
      <trkpt lat="43.68277" lon="1.45727">
        <ele>186.838883</ele>
        <time>2022-05-21T13:30:25.045Z</time>
      </trkpt>
      <trkpt lat="43.68276" lon="1.45743">
        <ele>187.142213</ele>
        <time>2022-05-21T13:30:27.016Z</time>
      </trkpt>
      <trkpt lat="43.68274" lon="1.45758">
        <ele>187.421854</ele>
        <time>2022-05-21T13:30:29.050Z</time>
      </trkpt>
      <trkpt lat="43.68273" lon="1.45774">
        <ele>187.715196</ele>
        <time>2022-05-21T13:30:31.045Z</time>
      </trkpt>
      <trkpt lat="43.68273" lon="1.4579">
        <ele>188.017582</ele>
        <time>2022-05-21T13:30:33.019Z</time>
      </trkpt>
      <trkpt lat="43.68272" lon="1.45806">
        <ele>188.316728</ele>
        <time>2022-05-21T13:30:35.055Z</time>
      </trkpt>
      <trkpt lat="43.68271" lon="1.45821">
        <ele>188.608395</ele>
        <time>2022-05-21T13:30:37.032Z</time>
      </trkpt>
      <trkpt lat="43.6827" lon="1.45837">
        <ele>188.909623</ele>
        <time>2022-05-21T13:30:39.018Z</time>
      </trkpt>
      <trkpt lat="43.68269" lon="1.45853">
        <ele>189.205246</ele>
        <time>2022-05-21T13:30:41.006Z</time>
      </trkpt>
      <trkpt lat="43.68269" lon="1.45868">
        <ele>189.479403</ele>
        <time>2022-05-21T13:30:43.012Z</time>
      </trkpt>
      <trkpt lat="43.68268" lon="1.4588">
        <ele>189.715294</ele>
        <time>2022-05-21T13:30:45.037Z</time>
      </trkpt>
      <trkpt lat="43.68266" lon="1.45894">
        <ele>189.983767</ele>
        <time>2022-05-21T13:30:49.042Z</time>
      </trkpt>
      <trkpt lat="43.68266" lon="1.4591">
        <ele>190.278353</ele>
        <time>2022-05-21T13:30:53.025Z</time>
      </trkpt>
      <trkpt lat="43.68265" lon="1.45929">
        <ele>190.630723</ele>
        <time>2022-05-21T13:30:56.027Z</time>
      </trkpt>
      <trkpt lat="43.68264" lon="1.45943">
        <ele>190.903932</ele>
        <time>2022-05-21T13:30:58.029Z</time>
      </trkpt>
      <trkpt lat="43.68262" lon="1.45958">
        <ele>191.251843</ele>
        <time>2022-05-21T13:31:00.011Z</time>
      </trkpt>
      <trkpt lat="43.68262" lon="1.45973">
        <ele>191.614714</ele>
        <time>2022-05-21T13:31:02.012Z</time>
      </trkpt>
      <trkpt lat="43.68262" lon="1.45988">
        <ele>191.965333</ele>
        <time>2022-05-21T13:31:04.016Z</time>
      </trkpt>
      <trkpt lat="43.68264" lon="1.46002">
        <ele>192.301743</ele>
        <time>2022-05-21T13:31:06.012Z</time>
      </trkpt>
      <trkpt lat="43.68267" lon="1.46015">
        <ele>192.632199</ele>
        <time>2022-05-21T13:31:08.028Z</time>
      </trkpt>
      <trkpt lat="43.6827" lon="1.46027">
        <ele>192.945831</ele>
        <time>2022-05-21T13:31:10.025Z</time>
      </trkpt>
      <trkpt lat="43.68274" lon="1.46038">
        <ele>193.250066</ele>
        <time>2022-05-21T13:31:12.010Z</time>
      </trkpt>
      <trkpt lat="43.68277" lon="1.46056">
        <ele>193.679658</ele>
        <time>2022-05-21T13:31:15.028Z</time>
      </trkpt>
      <trkpt lat="43.68278" lon="1.46073">
        <ele>194.104022</ele>
        <time>2022-05-21T13:31:18.011Z</time>
      </trkpt>
      <trkpt lat="43.68279" lon="1.46091">
        <ele>194.535028</ele>
        <time>2022-05-21T13:31:21.030Z</time>
      </trkpt>
      <trkpt lat="43.6828" lon="1.46109">
        <ele>194.965789</ele>
        <time>2022-05-21T13:31:24.046Z</time>
      </trkpt>
      <trkpt lat="43.68283" lon="1.46125">
        <ele>195.374417</ele>
        <time>2022-05-21T13:31:27.013Z</time>
      </trkpt>
      <trkpt lat="43.68291" lon="1.46137">
        <ele>195.745638</ele>
        <time>2022-05-21T13:31:30.032Z</time>
      </trkpt>
      <trkpt lat="43.683" lon="1.46149">
        <ele>196.18842</ele>
        <time>2022-05-21T13:31:33.017Z</time>
      </trkpt>
      <trkpt lat="43.68306" lon="1.46161">
        <ele>196.53078</ele>
        <time>2022-05-21T13:31:35.038Z</time>
      </trkpt>
      <trkpt lat="43.68313" lon="1.46173">
        <ele>196.892817</ele>
        <time>2022-05-21T13:31:37.030Z</time>
      </trkpt>
      <trkpt lat="43.6832" lon="1.46186">
        <ele>196.860265</ele>
        <time>2022-05-21T13:31:39.014Z</time>
      </trkpt>
      <trkpt lat="43.68329" lon="1.46201">
        <ele>196.702413</ele>
        <time>2022-05-21T13:31:41.036Z</time>
      </trkpt>
      <trkpt lat="43.68337" lon="1.46216">
        <ele>196.545008</ele>
        <time>2022-05-21T13:31:43.026Z</time>
      </trkpt>
      <trkpt lat="43.68347" lon="1.46229">
        <ele>196.389008</ele>
        <time>2022-05-21T13:31:45.007Z</time>
      </trkpt>
      <trkpt lat="43.68354" lon="1.46238">
        <ele>196.280592</ele>
        <time>2022-05-21T13:31:47.020Z</time>
      </trkpt>
      <trkpt lat="43.68362" lon="1.46249">
        <ele>196.151011</ele>
        <time>2022-05-21T13:31:49.991Z</time>
      </trkpt>
      <trkpt lat="43.68371" lon="1.46256">
        <ele>196.029972</ele>
        <time>2022-05-21T13:31:52.995Z</time>
      </trkpt>
      <trkpt lat="43.68382" lon="1.46261">
        <ele>195.901534</ele>
        <time>2022-05-21T13:31:55.997Z</time>
      </trkpt>
      <trkpt lat="43.68392" lon="1.46261">
        <ele>195.777174</ele>
        <time>2022-05-21T13:32:00.032Z</time>
      </trkpt>
      <trkpt lat="43.68403" lon="1.46262">
        <ele>195.660894</ele>
        <time>2022-05-21T13:32:05.038Z</time>
      </trkpt>
      <trkpt lat="43.68393" lon="1.46262">
        <ele>195.54814</ele>
        <time>2022-05-21T13:33:21.020Z</time>
      </trkpt>
      <trkpt lat="43.68384" lon="1.46263">
        <ele>195.442794</ele>
        <time>2022-05-21T13:33:26.009Z</time>
      </trkpt>
      <trkpt lat="43.68374" lon="1.46257">
        <ele>195.325761</ele>
        <time>2022-05-21T13:33:30.005Z</time>
      </trkpt>
      <trkpt lat="43.68377" lon="1.46245">
        <ele>195.219605</ele>
        <time>2022-05-21T13:33:41.016Z</time>
      </trkpt>
      <trkpt lat="43.68395" lon="1.46243">
        <ele>195.017702</ele>
        <time>2022-05-21T13:34:28.997Z</time>
      </trkpt>
      <trkpt lat="43.68404" lon="1.46243">
        <ele>194.909538</ele>
        <time>2022-05-21T13:34:32.994Z</time>
      </trkpt>
      <trkpt lat="43.68415" lon="1.46245">
        <ele>194.973235</ele>
        <time>2022-05-21T13:34:39.043Z</time>
      </trkpt>
      <trkpt lat="43.68425" lon="1.46251">
        <ele>195.042337</ele>
        <time>2022-05-21T13:34:43.032Z</time>
      </trkpt>
      <trkpt lat="43.68434" lon="1.46252">
        <ele>195.101279</ele>
        <time>2022-05-21T13:34:48.026Z</time>
      </trkpt>
      <trkpt lat="43.68443" lon="1.46245">
        <ele>195.168708</ele>
        <time>2022-05-21T13:34:50.995Z</time>
      </trkpt>
      <trkpt lat="43.68451" lon="1.46236">
        <ele>195.231639</ele>
        <time>2022-05-21T13:34:53.028Z</time>
      </trkpt>
      <trkpt lat="43.68463" lon="1.46242">
        <ele>195.313388</ele>
        <time>2022-05-21T13:34:56.012Z</time>
      </trkpt>
      <trkpt lat="43.6847" lon="1.46257">
        <ele>195.39582</ele>
        <time>2022-05-21T13:34:59.027Z</time>
      </trkpt>
      <trkpt lat="43.68479" lon="1.46268">
        <ele>195.473284</ele>
        <time>2022-05-21T13:35:02.012Z</time>
      </trkpt>
      <trkpt lat="43.68491" lon="1.46274">
        <ele>195.550847</ele>
        <time>2022-05-21T13:35:05.033Z</time>
      </trkpt>
      <trkpt lat="43.68504" lon="1.46276">
        <ele>195.635069</ele>
        <time>2022-05-21T13:35:08.007Z</time>
      </trkpt>
      <trkpt lat="43.68513" lon="1.46275">
        <ele>195.694551</ele>
        <time>2022-05-21T13:35:10.031Z</time>
      </trkpt>
      <trkpt lat="43.68522" lon="1.46272">
        <ele>195.754477</ele>
        <time>2022-05-21T13:35:12.028Z</time>
      </trkpt>
      <trkpt lat="43.68532" lon="1.46268">
        <ele>195.820503</ele>
        <time>2022-05-21T13:35:14.012Z</time>
      </trkpt>
      <trkpt lat="43.68542" lon="1.46265">
        <ele>195.88271</ele>
        <time>2022-05-21T13:35:16.012Z</time>
      </trkpt>
      <trkpt lat="43.68552" lon="1.46267">
        <ele>195.949497</ele>
        <time>2022-05-21T13:35:18.015Z</time>
      </trkpt>
      <trkpt lat="43.68561" lon="1.46266">
        <ele>196.011221</ele>
        <time>2022-05-21T13:35:20.005Z</time>
      </trkpt>
      <trkpt lat="43.68572" lon="1.4626">
        <ele>196.114162</ele>
        <time>2022-05-21T13:35:23.008Z</time>
      </trkpt>
      <trkpt lat="43.68583" lon="1.46265">
        <ele>196.244568</ele>
        <time>2022-05-21T13:35:28.035Z</time>
      </trkpt>
      <trkpt lat="43.6859" lon="1.46273">
        <ele>196.359663</ele>
        <time>2022-05-21T13:35:33.021Z</time>
      </trkpt>
      <trkpt lat="43.68597" lon="1.46283">
        <ele>196.475918</ele>
        <time>2022-05-21T13:35:37.038Z</time>
      </trkpt>
      <trkpt lat="43.68607" lon="1.46292">
        <ele>196.616979</ele>
        <time>2022-05-21T13:35:41.017Z</time>
      </trkpt>
      <trkpt lat="43.68616" lon="1.46297">
        <ele>196.732006</ele>
        <time>2022-05-21T13:35:44.025Z</time>
      </trkpt>
      <trkpt lat="43.68626" lon="1.46303">
        <ele>196.858512</ele>
        <time>2022-05-21T13:35:47.033Z</time>
      </trkpt>
      <trkpt lat="43.68636" lon="1.4631">
        <ele>196.992336</ele>
        <time>2022-05-21T13:35:50.027Z</time>
      </trkpt>
      <trkpt lat="43.68647" lon="1.46317">
        <ele>197.140174</ele>
        <time>2022-05-21T13:35:53.010Z</time>
      </trkpt>
      <trkpt lat="43.68658" lon="1.46324">
        <ele>197.282221</ele>
        <time>2022-05-21T13:35:56.033Z</time>
      </trkpt>
      <trkpt lat="43.68668" lon="1.4633">
        <ele>197.419977</ele>
        <time>2022-05-21T13:35:59.005Z</time>
      </trkpt>
      <trkpt lat="43.68679" lon="1.46335">
        <ele>197.555423</ele>
        <time>2022-05-21T13:36:02.021Z</time>
      </trkpt>
      <trkpt lat="43.6869" lon="1.46336">
        <ele>197.690963</ele>
        <time>2022-05-21T13:36:05.038Z</time>
      </trkpt>
      <trkpt lat="43.68701" lon="1.46334">
        <ele>197.815126</ele>
        <time>2022-05-21T13:36:08.023Z</time>
      </trkpt>
      <trkpt lat="43.68711" lon="1.46329">
        <ele>197.939824</ele>
        <time>2022-05-21T13:36:11.022Z</time>
      </trkpt>
      <trkpt lat="43.68721" lon="1.46331">
        <ele>198.060464</ele>
        <time>2022-05-21T13:36:14.006Z</time>
      </trkpt>
      <trkpt lat="43.68731" lon="1.46336">
        <ele>198.196449</ele>
        <time>2022-05-21T13:36:17.035Z</time>
      </trkpt>
      <trkpt lat="43.68742" lon="1.46341">
        <ele>198.521961</ele>
        <time>2022-05-21T13:36:20.041Z</time>
      </trkpt>
      <trkpt lat="43.68753" lon="1.46345">
        <ele>198.868203</ele>
        <time>2022-05-21T13:36:23.035Z</time>
      </trkpt>
      <trkpt lat="43.68763" lon="1.46347">
        <ele>199.167162</ele>
        <time>2022-05-21T13:36:26.017Z</time>
      </trkpt>
      <trkpt lat="43.68772" lon="1.46352">
        <ele>199.458414</ele>
        <time>2022-05-21T13:36:28.011Z</time>
      </trkpt>
      <trkpt lat="43.68782" lon="1.46356">
        <ele>199.766095</ele>
        <time>2022-05-21T13:36:30.014Z</time>
      </trkpt>
      <trkpt lat="43.68792" lon="1.4636">
        <ele>200.076664</ele>
        <time>2022-05-21T13:36:31.996Z</time>
      </trkpt>
      <trkpt lat="43.68802" lon="1.46364">
        <ele>200.39365</ele>
        <time>2022-05-21T13:36:34.012Z</time>
      </trkpt>
      <trkpt lat="43.68812" lon="1.46363">
        <ele>200.697974</ele>
        <time>2022-05-21T13:36:35.998Z</time>
      </trkpt>
      <trkpt lat="43.68822" lon="1.46362">
        <ele>201.014515</ele>
        <time>2022-05-21T13:36:38.003Z</time>
      </trkpt>
      <trkpt lat="43.68833" lon="1.46367">
        <ele>201.351281</ele>
        <time>2022-05-21T13:36:40.014Z</time>
      </trkpt>
      <trkpt lat="43.68842" lon="1.46374">
        <ele>201.669161</ele>
        <time>2022-05-21T13:36:42.017Z</time>
      </trkpt>
      <trkpt lat="43.68852" lon="1.46381">
        <ele>201.9837</ele>
        <time>2022-05-21T13:36:45.032Z</time>
      </trkpt>
      <trkpt lat="43.68863" lon="1.46385">
        <ele>202.335512</ele>
        <time>2022-05-21T13:36:48.020Z</time>
      </trkpt>
      <trkpt lat="43.68872" lon="1.46389">
        <ele>202.617029</ele>
        <time>2022-05-21T13:36:51.034Z</time>
      </trkpt>
      <trkpt lat="43.68878" lon="1.46398">
        <ele>202.895673</ele>
        <time>2022-05-21T13:36:57.008Z</time>
      </trkpt>
      <trkpt lat="43.68886" lon="1.46415">
        <ele>203.33774</ele>
        <time>2022-05-21T13:37:22.021Z</time>
      </trkpt>
      <trkpt lat="43.68896" lon="1.46413">
        <ele>203.659919</ele>
        <time>2022-05-21T13:37:27.033Z</time>
      </trkpt>
      <trkpt lat="43.68904" lon="1.46418">
        <ele>204.159087</ele>
        <time>2022-05-21T13:37:32.022Z</time>
      </trkpt>
      <trkpt lat="43.68915" lon="1.46424">
        <ele>204.749805</ele>
        <time>2022-05-21T13:37:38.013Z</time>
      </trkpt>
      <trkpt lat="43.68926" lon="1.46442">
        <ele>205.689777</ele>
        <time>2022-05-21T13:38:02.031Z</time>
      </trkpt>
      <trkpt lat="43.68932" lon="1.46453">
        <ele>206.233092</ele>
        <time>2022-05-21T13:38:06.019Z</time>
      </trkpt>
      <trkpt lat="43.68938" lon="1.46463">
        <ele>206.741556</ele>
        <time>2022-05-21T13:38:10.035Z</time>
      </trkpt>
      <trkpt lat="43.68949" lon="1.46463">
        <ele>207.329244</ele>
        <time>2022-05-21T13:38:15.004Z</time>
      </trkpt>
      <trkpt lat="43.68958" lon="1.46463">
        <ele>207.830329</ele>
        <time>2022-05-21T13:38:18.012Z</time>
      </trkpt>
      <trkpt lat="43.68967" lon="1.46467">
        <ele>208.362516</ele>
        <time>2022-05-21T13:38:21.008Z</time>
      </trkpt>
      <trkpt lat="43.68978" lon="1.46471">
        <ele>208.95247</ele>
        <time>2022-05-21T13:38:23.994Z</time>
      </trkpt>
      <trkpt lat="43.68986" lon="1.46478">
        <ele>209.450376</ele>
        <time>2022-05-21T13:38:27.015Z</time>
      </trkpt>
      <trkpt lat="43.68996" lon="1.46483">
        <ele>210.006721</ele>
        <time>2022-05-21T13:38:31.025Z</time>
      </trkpt>
      <trkpt lat="43.69004" lon="1.46489">
        <ele>210.513207</ele>
        <time>2022-05-21T13:38:34.000Z</time>
      </trkpt>
      <trkpt lat="43.69011" lon="1.46501">
        <ele>211.123758</ele>
        <time>2022-05-21T13:38:38.003Z</time>
      </trkpt>
      <trkpt lat="43.69008" lon="1.46512">
        <ele>211.60981</ele>
        <time>2022-05-21T13:38:44.020Z</time>
      </trkpt>
      <trkpt lat="43.69002" lon="1.46524">
        <ele>212.169451</ele>
        <time>2022-05-21T13:38:48.992Z</time>
      </trkpt>
      <trkpt lat="43.68998" lon="1.46538">
        <ele>212.745004</ele>
        <time>2022-05-21T13:38:53.008Z</time>
      </trkpt>
      <trkpt lat="43.68993" lon="1.46556">
        <ele>213.299279</ele>
        <time>2022-05-21T13:38:56.020Z</time>
      </trkpt>
      <trkpt lat="43.68988" lon="1.4657">
        <ele>213.262933</ele>
        <time>2022-05-21T13:38:59.010Z</time>
      </trkpt>
      <trkpt lat="43.68978" lon="1.46573">
        <ele>213.232083</ele>
        <time>2022-05-21T13:39:02.005Z</time>
      </trkpt>
      <trkpt lat="43.68969" lon="1.46573">
        <ele>213.203543</ele>
        <time>2022-05-21T13:39:05.012Z</time>
      </trkpt>
      <trkpt lat="43.68958" lon="1.46578">
        <ele>213.16941</ele>
        <time>2022-05-21T13:39:08.008Z</time>
      </trkpt>
      <trkpt lat="43.68953" lon="1.46588">
        <ele>213.140664</ele>
        <time>2022-05-21T13:39:11.035Z</time>
      </trkpt>
      <trkpt lat="43.68954" lon="1.46606">
        <ele>213.099323</ele>
        <time>2022-05-21T13:39:14.030Z</time>
      </trkpt>
      <trkpt lat="43.68955" lon="1.4662">
        <ele>213.068772</ele>
        <time>2022-05-21T13:39:16.031Z</time>
      </trkpt>
      <trkpt lat="43.68957" lon="1.46633">
        <ele>213.038707</ele>
        <time>2022-05-21T13:39:18.004Z</time>
      </trkpt>
      <trkpt lat="43.68961" lon="1.46645">
        <ele>213.009099</ele>
        <time>2022-05-21T13:39:22.015Z</time>
      </trkpt>
      <trkpt lat="43.68972" lon="1.46642">
        <ele>212.974221</ele>
        <time>2022-05-21T13:39:26.010Z</time>
      </trkpt>
      <trkpt lat="43.68981" lon="1.46636">
        <ele>212.945045</ele>
        <time>2022-05-21T13:39:30.025Z</time>
      </trkpt>
      <trkpt lat="43.68989" lon="1.46629">
        <ele>212.913131</ele>
        <time>2022-05-21T13:39:35.002Z</time>
      </trkpt>
      <trkpt lat="43.68998" lon="1.4662">
        <ele>212.880245</ele>
        <time>2022-05-21T13:39:38.023Z</time>
      </trkpt>
      <trkpt lat="43.69009" lon="1.46609">
        <ele>212.839155</ele>
        <time>2022-05-21T13:39:40.015Z</time>
      </trkpt>
      <trkpt lat="43.69017" lon="1.466">
        <ele>212.807129</ele>
        <time>2022-05-21T13:39:42.010Z</time>
      </trkpt>
      <trkpt lat="43.69027" lon="1.4659">
        <ele>212.767593</ele>
        <time>2022-05-21T13:39:44.037Z</time>
      </trkpt>
      <trkpt lat="43.69036" lon="1.4658">
        <ele>212.481265</ele>
        <time>2022-05-21T13:39:46.039Z</time>
      </trkpt>
      <trkpt lat="43.69048" lon="1.46567">
        <ele>211.905449</ele>
        <time>2022-05-21T13:39:48.038Z</time>
      </trkpt>
      <trkpt lat="43.69055" lon="1.46558">
        <ele>211.510515</ele>
        <time>2022-05-21T13:39:50.007Z</time>
      </trkpt>
      <trkpt lat="43.69072" lon="1.46572">
        <ele>210.718837</ele>
        <time>2022-05-21T13:40:08.013Z</time>
      </trkpt>
      <trkpt lat="43.69081" lon="1.46576">
        <ele>210.330403</ele>
        <time>2022-05-21T13:40:16.010Z</time>
      </trkpt>
      <trkpt lat="43.69093" lon="1.4658">
        <ele>209.862719</ele>
        <time>2022-05-21T13:40:20.040Z</time>
      </trkpt>
      <trkpt lat="43.69102" lon="1.46587">
        <ele>209.460414</ele>
        <time>2022-05-21T13:40:23.002Z</time>
      </trkpt>
      <trkpt lat="43.69112" lon="1.46583">
        <ele>209.038741</ele>
        <time>2022-05-21T13:40:25.013Z</time>
      </trkpt>
      <trkpt lat="43.69122" lon="1.46584">
        <ele>208.618772</ele>
        <time>2022-05-21T13:40:27.024Z</time>
      </trkpt>
      <trkpt lat="43.69131" lon="1.46596">
        <ele>208.126679</ele>
        <time>2022-05-21T13:40:30.009Z</time>
      </trkpt>
      <trkpt lat="43.69135" lon="1.46613">
        <ele>207.633093</ele>
        <time>2022-05-21T13:40:33.018Z</time>
      </trkpt>
      <trkpt lat="43.69141" lon="1.46626">
        <ele>207.200198</ele>
        <time>2022-05-21T13:40:38.008Z</time>
      </trkpt>
      <trkpt lat="43.69142" lon="1.4664">
        <ele>206.781192</ele>
        <time>2022-05-21T13:40:41.006Z</time>
      </trkpt>
      <trkpt lat="43.69146" lon="1.46656">
        <ele>206.286934</ele>
        <time>2022-05-21T13:40:44.009Z</time>
      </trkpt>
      <trkpt lat="43.69149" lon="1.46673">
        <ele>205.775352</ele>
        <time>2022-05-21T13:40:47.007Z</time>
      </trkpt>
      <trkpt lat="43.69152" lon="1.46686">
        <ele>205.619006</ele>
        <time>2022-05-21T13:40:49.024Z</time>
      </trkpt>
      <trkpt lat="43.69155" lon="1.46698">
        <ele>205.70089</ele>
        <time>2022-05-21T13:40:51.006Z</time>
      </trkpt>
      <trkpt lat="43.69158" lon="1.4671">
        <ele>205.781556</ele>
        <time>2022-05-21T13:40:53.016Z</time>
      </trkpt>
      <trkpt lat="43.69161" lon="1.46722">
        <ele>205.861822</ele>
        <time>2022-05-21T13:40:55.012Z</time>
      </trkpt>
      <trkpt lat="43.69163" lon="1.46734">
        <ele>205.943358</ele>
        <time>2022-05-21T13:40:57.014Z</time>
      </trkpt>
      <trkpt lat="43.69163" lon="1.46747">
        <ele>206.026186</ele>
        <time>2022-05-21T13:40:59.010Z</time>
      </trkpt>
      <trkpt lat="43.69164" lon="1.46761">
        <ele>206.112915</ele>
        <time>2022-05-21T13:41:01.022Z</time>
      </trkpt>
      <trkpt lat="43.69163" lon="1.46774">
        <ele>206.19973</ele>
        <time>2022-05-21T13:41:03.013Z</time>
      </trkpt>
      <trkpt lat="43.69162" lon="1.46788">
        <ele>206.288454</ele>
        <time>2022-05-21T13:41:05.006Z</time>
      </trkpt>
      <trkpt lat="43.69162" lon="1.46803">
        <ele>206.382511</ele>
        <time>2022-05-21T13:41:07.009Z</time>
      </trkpt>
      <trkpt lat="43.69161" lon="1.46817">
        <ele>206.476178</ele>
        <time>2022-05-21T13:41:08.999Z</time>
      </trkpt>
      <trkpt lat="43.6916" lon="1.46832">
        <ele>206.56711</ele>
        <time>2022-05-21T13:41:11.020Z</time>
      </trkpt>
      <trkpt lat="43.69158" lon="1.46846">
        <ele>206.662269</ele>
        <time>2022-05-21T13:41:13.007Z</time>
      </trkpt>
      <trkpt lat="43.69154" lon="1.46861">
        <ele>206.765454</ele>
        <time>2022-05-21T13:41:15.003Z</time>
      </trkpt>
      <trkpt lat="43.69148" lon="1.46876">
        <ele>206.873232</ele>
        <time>2022-05-21T13:41:17.025Z</time>
      </trkpt>
      <trkpt lat="43.69143" lon="1.46891">
        <ele>206.980427</ele>
        <time>2022-05-21T13:41:19.013Z</time>
      </trkpt>
      <trkpt lat="43.69138" lon="1.46906">
        <ele>207.086082</ele>
        <time>2022-05-21T13:41:21.007Z</time>
      </trkpt>
      <trkpt lat="43.69133" lon="1.46921">
        <ele>207.187361</ele>
        <time>2022-05-21T13:41:23.018Z</time>
      </trkpt>
      <trkpt lat="43.6913" lon="1.46936">
        <ele>207.282039</ele>
        <time>2022-05-21T13:41:25.010Z</time>
      </trkpt>
      <trkpt lat="43.69128" lon="1.46951">
        <ele>207.377045</ele>
        <time>2022-05-21T13:41:27.031Z</time>
      </trkpt>
      <trkpt lat="43.69126" lon="1.46967">
        <ele>207.475744</ele>
        <time>2022-05-21T13:41:29.017Z</time>
      </trkpt>
      <trkpt lat="43.69123" lon="1.46983">
        <ele>207.575497</ele>
        <time>2022-05-21T13:41:31.012Z</time>
      </trkpt>
      <trkpt lat="43.69119" lon="1.46999">
        <ele>207.67886</ele>
        <time>2022-05-21T13:41:33.002Z</time>
      </trkpt>
      <trkpt lat="43.69117" lon="1.47015">
        <ele>207.779978</ele>
        <time>2022-05-21T13:41:35.035Z</time>
      </trkpt>
      <trkpt lat="43.69114" lon="1.4703">
        <ele>207.874476</ele>
        <time>2022-05-21T13:41:37.040Z</time>
      </trkpt>
      <trkpt lat="43.69113" lon="1.47046">
        <ele>207.970477</ele>
        <time>2022-05-21T13:41:39.011Z</time>
      </trkpt>
      <trkpt lat="43.69109" lon="1.4706">
        <ele>208.064404</ele>
        <time>2022-05-21T13:41:41.020Z</time>
      </trkpt>
      <trkpt lat="43.69105" lon="1.47075">
        <ele>208.157724</ele>
        <time>2022-05-21T13:41:42.993Z</time>
      </trkpt>
      <trkpt lat="43.69105" lon="1.47089">
        <ele>208.246895</ele>
        <time>2022-05-21T13:41:45.014Z</time>
      </trkpt>
      <trkpt lat="43.69106" lon="1.47102">
        <ele>208.325513</ele>
        <time>2022-05-21T13:41:47.006Z</time>
      </trkpt>
      <trkpt lat="43.69103" lon="1.4712">
        <ele>208.439296</ele>
        <time>2022-05-21T13:41:50.006Z</time>
      </trkpt>
      <trkpt lat="43.69098" lon="1.47133">
        <ele>208.529752</ele>
        <time>2022-05-21T13:41:52.026Z</time>
      </trkpt>
      <trkpt lat="43.69093" lon="1.47148">
        <ele>208.627185</ele>
        <time>2022-05-21T13:41:54.004Z</time>
      </trkpt>
      <trkpt lat="43.69087" lon="1.47161">
        <ele>208.730657</ele>
        <time>2022-05-21T13:41:56.029Z</time>
      </trkpt>
      <trkpt lat="43.6908" lon="1.47175">
        <ele>208.851718</ele>
        <time>2022-05-21T13:41:58.007Z</time>
      </trkpt>
      <trkpt lat="43.69074" lon="1.47188">
        <ele>208.969904</ele>
        <time>2022-05-21T13:42:00.027Z</time>
      </trkpt>
      <trkpt lat="43.69069" lon="1.47202">
        <ele>209.084802</ele>
        <time>2022-05-21T13:42:02.060Z</time>
      </trkpt>
      <trkpt lat="43.69064" lon="1.47215">
        <ele>209.196034</ele>
        <time>2022-05-21T13:42:04.012Z</time>
      </trkpt>
      <trkpt lat="43.69061" lon="1.4723">
        <ele>209.312627</ele>
        <time>2022-05-21T13:42:05.998Z</time>
      </trkpt>
      <trkpt lat="43.69058" lon="1.47245">
        <ele>209.431873</ele>
        <time>2022-05-21T13:42:08.002Z</time>
      </trkpt>
      <trkpt lat="43.69058" lon="1.47261">
        <ele>209.54942</ele>
        <time>2022-05-21T13:42:10.011Z</time>
      </trkpt>
      <trkpt lat="43.69058" lon="1.47277">
        <ele>209.665183</ele>
        <time>2022-05-21T13:42:12.012Z</time>
      </trkpt>
      <trkpt lat="43.69058" lon="1.47292">
        <ele>209.779457</ele>
        <time>2022-05-21T13:42:14.022Z</time>
      </trkpt>
      <trkpt lat="43.69058" lon="1.47307">
        <ele>209.896008</ele>
        <time>2022-05-21T13:42:16.024Z</time>
      </trkpt>
      <trkpt lat="43.69059" lon="1.47323">
        <ele>210.013428</ele>
        <time>2022-05-21T13:42:18.023Z</time>
      </trkpt>
      <trkpt lat="43.6906" lon="1.47339">
        <ele>210.12882</ele>
        <time>2022-05-21T13:42:20.039Z</time>
      </trkpt>
      <trkpt lat="43.69061" lon="1.47354">
        <ele>210.241532</ele>
        <time>2022-05-21T13:42:22.019Z</time>
      </trkpt>
      <trkpt lat="43.69061" lon="1.47367">
        <ele>210.33937</ele>
        <time>2022-05-21T13:42:24.036Z</time>
      </trkpt>
      <trkpt lat="43.69062" lon="1.47381">
        <ele>210.449551</ele>
        <time>2022-05-21T13:42:28.029Z</time>
      </trkpt>
      <trkpt lat="43.69064" lon="1.47394">
        <ele>210.543487</ele>
        <time>2022-05-21T13:42:31.026Z</time>
      </trkpt>
      <trkpt lat="43.69062" lon="1.47408">
        <ele>210.841609</ele>
        <time>2022-05-21T13:42:35.018Z</time>
      </trkpt>
      <trkpt lat="43.69064" lon="1.4742">
        <ele>211.113869</ele>
        <time>2022-05-21T13:42:38.022Z</time>
      </trkpt>
      <trkpt lat="43.6907" lon="1.47433">
        <ele>211.445152</ele>
        <time>2022-05-21T13:42:42.020Z</time>
      </trkpt>
      <trkpt lat="43.69075" lon="1.47447">
        <ele>211.78574</ele>
        <time>2022-05-21T13:42:46.021Z</time>
      </trkpt>
      <trkpt lat="43.69077" lon="1.47461">
        <ele>212.091595</ele>
        <time>2022-05-21T13:42:50.036Z</time>
      </trkpt>
      <trkpt lat="43.69079" lon="1.47474">
        <ele>212.383403</ele>
        <time>2022-05-21T13:42:53.040Z</time>
      </trkpt>
      <trkpt lat="43.69078" lon="1.47487">
        <ele>212.672644</ele>
        <time>2022-05-21T13:42:57.006Z</time>
      </trkpt>
      <trkpt lat="43.69081" lon="1.475">
        <ele>212.968955</ele>
        <time>2022-05-21T13:43:00.014Z</time>
      </trkpt>
      <trkpt lat="43.69083" lon="1.47514">
        <ele>213.273617</ele>
        <time>2022-05-21T13:43:03.018Z</time>
      </trkpt>
      <trkpt lat="43.6908" lon="1.47528">
        <ele>213.58229</ele>
        <time>2022-05-21T13:43:07.009Z</time>
      </trkpt>
      <trkpt lat="43.69078" lon="1.4754">
        <ele>213.867085</ele>
        <time>2022-05-21T13:43:10.017Z</time>
      </trkpt>
      <trkpt lat="43.69078" lon="1.47557">
        <ele>214.219935</ele>
        <time>2022-05-21T13:43:14.010Z</time>
      </trkpt>
      <trkpt lat="43.69079" lon="1.47569">
        <ele>214.49289</ele>
        <time>2022-05-21T13:43:16.014Z</time>
      </trkpt>
      <trkpt lat="43.69078" lon="1.47589">
        <ele>214.913098</ele>
        <time>2022-05-21T13:43:21.016Z</time>
      </trkpt>
      <trkpt lat="43.69068" lon="1.47621">
        <ele>215.690043</ele>
        <time>2022-05-21T13:43:40.021Z</time>
      </trkpt>
      <trkpt lat="43.69065" lon="1.47633">
        <ele>215.961092</ele>
        <time>2022-05-21T13:43:44.006Z</time>
      </trkpt>
      <trkpt lat="43.69062" lon="1.47646">
        <ele>216.249015</ele>
        <time>2022-05-21T13:43:47.998Z</time>
      </trkpt>
      <trkpt lat="43.69061" lon="1.47662">
        <ele>216.581295</ele>
        <time>2022-05-21T13:43:52.016Z</time>
      </trkpt>
      <trkpt lat="43.69063" lon="1.47677">
        <ele>216.904076</ele>
        <time>2022-05-21T13:43:56.011Z</time>
      </trkpt>
      <trkpt lat="43.69067" lon="1.4769">
        <ele>217.193012</ele>
        <time>2022-05-21T13:43:59.031Z</time>
      </trkpt>
      <trkpt lat="43.69071" lon="1.47702">
        <ele>217.482845</ele>
        <time>2022-05-21T13:44:02.041Z</time>
      </trkpt>
      <trkpt lat="43.69077" lon="1.47716">
        <ele>217.833267</ele>
        <time>2022-05-21T13:44:05.045Z</time>
      </trkpt>
      <trkpt lat="43.69082" lon="1.47729">
        <ele>218.13949</ele>
        <time>2022-05-21T13:44:08.015Z</time>
      </trkpt>
      <trkpt lat="43.69077" lon="1.47744">
        <ele>218.491347</ele>
        <time>2022-05-21T13:44:12.021Z</time>
      </trkpt>
      <trkpt lat="43.69075" lon="1.47756">
        <ele>218.763779</ele>
        <time>2022-05-21T13:44:15.017Z</time>
      </trkpt>
      <trkpt lat="43.69075" lon="1.4777">
        <ele>219.07205</ele>
        <time>2022-05-21T13:44:19.014Z</time>
      </trkpt>
      <trkpt lat="43.69074" lon="1.47784">
        <ele>219.355178</ele>
        <time>2022-05-21T13:44:22.020Z</time>
      </trkpt>
      <trkpt lat="43.69073" lon="1.47798">
        <ele>219.658486</ele>
        <time>2022-05-21T13:44:26.018Z</time>
      </trkpt>
      <trkpt lat="43.69068" lon="1.47809">
        <ele>219.941669</ele>
        <time>2022-05-21T13:44:29.017Z</time>
      </trkpt>
      <trkpt lat="43.69065" lon="1.47822">
        <ele>220.225591</ele>
        <time>2022-05-21T13:44:32.017Z</time>
      </trkpt>
      <trkpt lat="43.69062" lon="1.47835">
        <ele>220.518505</ele>
        <time>2022-05-21T13:44:35.003Z</time>
      </trkpt>
      <trkpt lat="43.6906" lon="1.47849">
        <ele>220.817728</ele>
        <time>2022-05-21T13:44:38.023Z</time>
      </trkpt>
      <trkpt lat="43.69056" lon="1.47864">
        <ele>221.159689</ele>
        <time>2022-05-21T13:44:43.018Z</time>
      </trkpt>
      <trkpt lat="43.69054" lon="1.47877">
        <ele>221.375012</ele>
        <time>2022-05-21T13:44:46.016Z</time>
      </trkpt>
      <trkpt lat="43.6905" lon="1.47889">
        <ele>221.57498</ele>
        <time>2022-05-21T13:44:49.014Z</time>
      </trkpt>
      <trkpt lat="43.69046" lon="1.47902">
        <ele>221.80217</ele>
        <time>2022-05-21T13:44:54.017Z</time>
      </trkpt>
      <trkpt lat="43.6905" lon="1.47916">
        <ele>222.036645</ele>
        <time>2022-05-21T13:45:02.018Z</time>
      </trkpt>
      <trkpt lat="43.69054" lon="1.4793">
        <ele>222.261032</ele>
        <time>2022-05-21T13:45:08.014Z</time>
      </trkpt>
      <trkpt lat="43.6905" lon="1.47945">
        <ele>222.508424</ele>
        <time>2022-05-21T13:45:15.002Z</time>
      </trkpt>
      <trkpt lat="43.69046" lon="1.47959">
        <ele>222.739105</ele>
        <time>2022-05-21T13:45:22.004Z</time>
      </trkpt>
      <trkpt lat="43.69042" lon="1.47971">
        <ele>222.933232</ele>
        <time>2022-05-21T13:45:32.020Z</time>
      </trkpt>
      <trkpt lat="43.69042" lon="1.47985">
        <ele>223.150345</ele>
        <time>2022-05-21T13:45:39.024Z</time>
      </trkpt>
      <trkpt lat="43.69036" lon="1.47997">
        <ele>223.366782</ele>
        <time>2022-05-21T13:45:44.037Z</time>
      </trkpt>
      <trkpt lat="43.69035" lon="1.4801">
        <ele>223.562814</ele>
        <time>2022-05-21T13:45:50.025Z</time>
      </trkpt>
      <trkpt lat="43.69031" lon="1.48027">
        <ele>223.84883</ele>
        <time>2022-05-21T13:46:04.023Z</time>
      </trkpt>
      <trkpt lat="43.69041" lon="1.48029">
        <ele>224.068077</ele>
        <time>2022-05-21T13:46:32.999Z</time>
      </trkpt>
      <trkpt lat="43.69048" lon="1.48019">
        <ele>224.28011</ele>
        <time>2022-05-21T13:46:37.024Z</time>
      </trkpt>
      <trkpt lat="43.69058" lon="1.48009">
        <ele>224.549825</ele>
        <time>2022-05-21T13:46:39.998Z</time>
      </trkpt>
      <trkpt lat="43.6907" lon="1.48004">
        <ele>224.811586</ele>
        <time>2022-05-21T13:46:43.026Z</time>
      </trkpt>
      <trkpt lat="43.6908" lon="1.48">
        <ele>225.047564</ele>
        <time>2022-05-21T13:46:46.025Z</time>
      </trkpt>
      <trkpt lat="43.69091" lon="1.47995">
        <ele>225.397084</ele>
        <time>2022-05-21T13:46:49.008Z</time>
      </trkpt>
      <trkpt lat="43.69102" lon="1.4799">
        <ele>225.766377</ele>
        <time>2022-05-21T13:46:52.012Z</time>
      </trkpt>
      <trkpt lat="43.69114" lon="1.47985">
        <ele>226.168929</ele>
        <time>2022-05-21T13:46:55.035Z</time>
      </trkpt>
      <trkpt lat="43.69125" lon="1.47984">
        <ele>226.524332</ele>
        <time>2022-05-21T13:46:58.019Z</time>
      </trkpt>
      <trkpt lat="43.69132" lon="1.47992">
        <ele>226.848317</ele>
        <time>2022-05-21T13:47:02.023Z</time>
      </trkpt>
      <trkpt lat="43.69142" lon="1.48002">
        <ele>227.23702</ele>
        <time>2022-05-21T13:47:05.011Z</time>
      </trkpt>
      <trkpt lat="43.69152" lon="1.4801">
        <ele>227.604187</ele>
        <time>2022-05-21T13:47:08.020Z</time>
      </trkpt>
      <trkpt lat="43.6916" lon="1.48003">
        <ele>227.897156</ele>
        <time>2022-05-21T13:47:11.003Z</time>
      </trkpt>
      <trkpt lat="43.69165" lon="1.47993">
        <ele>228.204961</ele>
        <time>2022-05-21T13:47:13.011Z</time>
      </trkpt>
      <trkpt lat="43.69173" lon="1.47984">
        <ele>228.517436</ele>
        <time>2022-05-21T13:47:15.011Z</time>
      </trkpt>
      <trkpt lat="43.69182" lon="1.47984">
        <ele>228.817166</ele>
        <time>2022-05-21T13:47:17.018Z</time>
      </trkpt>
      <trkpt lat="43.69194" lon="1.4799">
        <ele>229.223763</ele>
        <time>2022-05-21T13:47:19.994Z</time>
      </trkpt>
      <trkpt lat="43.69206" lon="1.47994">
        <ele>229.62522</ele>
        <time>2022-05-21T13:47:23.009Z</time>
      </trkpt>
      <trkpt lat="43.69217" lon="1.47998">
        <ele>230.000548</ele>
        <time>2022-05-21T13:47:26.020Z</time>
      </trkpt>
      <trkpt lat="43.69228" lon="1.48001">
        <ele>230.349723</ele>
        <time>2022-05-21T13:47:29.025Z</time>
      </trkpt>
      <trkpt lat="43.69241" lon="1.47999">
        <ele>230.785769</ele>
        <time>2022-05-21T13:47:32.035Z</time>
      </trkpt>
      <trkpt lat="43.69252" lon="1.47993">
        <ele>231.166222</ele>
        <time>2022-05-21T13:47:34.016Z</time>
      </trkpt>
      <trkpt lat="43.69264" lon="1.47988">
        <ele>231.587308</ele>
        <time>2022-05-21T13:47:36.010Z</time>
      </trkpt>
      <trkpt lat="43.69274" lon="1.47976">
        <ele>232.018067</ele>
        <time>2022-05-21T13:47:38.033Z</time>
      </trkpt>
      <trkpt lat="43.69278" lon="1.47958">
        <ele>232.483803</ele>
        <time>2022-05-21T13:47:39.999Z</time>
      </trkpt>
      <trkpt lat="43.69279" lon="1.47939">
        <ele>232.947138</ele>
        <time>2022-05-21T13:47:42.009Z</time>
      </trkpt>
      <trkpt lat="43.6928" lon="1.47921">
        <ele>233.374469</ele>
        <time>2022-05-21T13:47:44.032Z</time>
      </trkpt>
      <trkpt lat="43.69281" lon="1.47906">
        <ele>233.740488</ele>
        <time>2022-05-21T13:47:45.995Z</time>
      </trkpt>
      <trkpt lat="43.69284" lon="1.47892">
        <ele>234.080157</ele>
        <time>2022-05-21T13:47:48.005Z</time>
      </trkpt>
      <trkpt lat="43.69289" lon="1.47881">
        <ele>234.391197</ele>
        <time>2022-05-21T13:47:50.040Z</time>
      </trkpt>
      <trkpt lat="43.69297" lon="1.47866">
        <ele>234.830061</ele>
        <time>2022-05-21T13:47:53.013Z</time>
      </trkpt>
      <trkpt lat="43.69305" lon="1.47852">
        <ele>235.261637</ele>
        <time>2022-05-21T13:47:56.034Z</time>
      </trkpt>
      <trkpt lat="43.69313" lon="1.47838">
        <ele>235.702672</ele>
        <time>2022-05-21T13:47:59.030Z</time>
      </trkpt>
      <trkpt lat="43.6932" lon="1.47823">
        <ele>236.135695</ele>
        <time>2022-05-21T13:48:02.034Z</time>
      </trkpt>
      <trkpt lat="43.69328" lon="1.47808">
        <ele>236.578622</ele>
        <time>2022-05-21T13:48:05.051Z</time>
      </trkpt>
      <trkpt lat="43.69336" lon="1.47793">
        <ele>237.052639</ele>
        <time>2022-05-21T13:48:08.033Z</time>
      </trkpt>
      <trkpt lat="43.69342" lon="1.47781">
        <ele>237.476108</ele>
        <time>2022-05-21T13:48:11.015Z</time>
      </trkpt>
      <trkpt lat="43.69352" lon="1.47778">
        <ele>237.876235</ele>
        <time>2022-05-21T13:48:13.993Z</time>
      </trkpt>
      <trkpt lat="43.69362" lon="1.47776">
        <ele>238.234925</ele>
        <time>2022-05-21T13:48:16.007Z</time>
      </trkpt>
      <trkpt lat="43.69372" lon="1.47776">
        <ele>238.631363</ele>
        <time>2022-05-21T13:48:18.028Z</time>
      </trkpt>
      <trkpt lat="43.69383" lon="1.47775">
        <ele>239.054525</ele>
        <time>2022-05-21T13:48:20.037Z</time>
      </trkpt>
      <trkpt lat="43.69394" lon="1.47775">
        <ele>239.477248</ele>
        <time>2022-05-21T13:48:22.015Z</time>
      </trkpt>
      <trkpt lat="43.69406" lon="1.47775">
        <ele>239.919256</ele>
        <time>2022-05-21T13:48:24.013Z</time>
      </trkpt>
      <trkpt lat="43.69417" lon="1.47775">
        <ele>240.361499</ele>
        <time>2022-05-21T13:48:26.010Z</time>
      </trkpt>
      <trkpt lat="43.69428" lon="1.47777">
        <ele>240.787497</ele>
        <time>2022-05-21T13:48:28.011Z</time>
      </trkpt>
      <trkpt lat="43.69439" lon="1.47771">
        <ele>241.223027</ele>
        <time>2022-05-21T13:48:30.013Z</time>
      </trkpt>
      <trkpt lat="43.69447" lon="1.47761">
        <ele>241.644943</ele>
        <time>2022-05-21T13:48:32.026Z</time>
      </trkpt>
      <trkpt lat="43.69453" lon="1.47748">
        <ele>242.077652</ele>
        <time>2022-05-21T13:48:34.050Z</time>
      </trkpt>
      <trkpt lat="43.69458" lon="1.47735">
        <ele>242.487459</ele>
        <time>2022-05-21T13:48:36.046Z</time>
      </trkpt>
      <trkpt lat="43.69464" lon="1.47722">
        <ele>242.918329</ele>
        <time>2022-05-21T13:48:37.996Z</time>
      </trkpt>
      <trkpt lat="43.69469" lon="1.47709">
        <ele>243.324549</ele>
        <time>2022-05-21T13:48:40.018Z</time>
      </trkpt>
      <trkpt lat="43.69474" lon="1.47698">
        <ele>243.692315</ele>
        <time>2022-05-21T13:48:42.014Z</time>
      </trkpt>
      <trkpt lat="43.6948" lon="1.47684">
        <ele>244.236071</ele>
        <time>2022-05-21T13:48:44.025Z</time>
      </trkpt>
      <trkpt lat="43.69482" lon="1.4767">
        <ele>244.737059</ele>
        <time>2022-05-21T13:48:46.010Z</time>
      </trkpt>
      <trkpt lat="43.69484" lon="1.47656">
        <ele>245.236336</ele>
        <time>2022-05-21T13:48:47.988Z</time>
      </trkpt>
      <trkpt lat="43.69485" lon="1.47642">
        <ele>245.727339</ele>
        <time>2022-05-21T13:48:50.002Z</time>
      </trkpt>
      <trkpt lat="43.69488" lon="1.47623">
        <ele>246.411108</ele>
        <time>2022-05-21T13:48:53.019Z</time>
      </trkpt>
      <trkpt lat="43.6949" lon="1.47605">
        <ele>247.035181</ele>
        <time>2022-05-21T13:48:56.008Z</time>
      </trkpt>
      <trkpt lat="43.69495" lon="1.4759">
        <ele>247.591116</ele>
        <time>2022-05-21T13:48:58.016Z</time>
      </trkpt>
      <trkpt lat="43.69499" lon="1.47576">
        <ele>248.107631</ele>
        <time>2022-05-21T13:48:59.995Z</time>
      </trkpt>
      <trkpt lat="43.69505" lon="1.47565">
        <ele>248.586236</ele>
        <time>2022-05-21T13:49:02.019Z</time>
      </trkpt>
      <trkpt lat="43.69512" lon="1.47554">
        <ele>249.101719</ele>
        <time>2022-05-21T13:49:04.010Z</time>
      </trkpt>
      <trkpt lat="43.69519" lon="1.47544">
        <ele>249.610287</ele>
        <time>2022-05-21T13:49:06.006Z</time>
      </trkpt>
      <trkpt lat="43.69526" lon="1.47534">
        <ele>250.079664</ele>
        <time>2022-05-21T13:49:08.031Z</time>
      </trkpt>
      <trkpt lat="43.69535" lon="1.4752">
        <ele>250.713714</ele>
        <time>2022-05-21T13:49:11.033Z</time>
      </trkpt>
      <trkpt lat="43.69544" lon="1.47516">
        <ele>251.171464</ele>
        <time>2022-05-21T13:49:15.026Z</time>
      </trkpt>
      <trkpt lat="43.69552" lon="1.47524">
        <ele>251.669418</ele>
        <time>2022-05-21T13:49:19.010Z</time>
      </trkpt>
      <trkpt lat="43.69567" lon="1.47535">
        <ele>252.408926</ele>
        <time>2022-05-21T13:50:00.038Z</time>
      </trkpt>
      <trkpt lat="43.69574" lon="1.47544">
        <ele>252.574176</ele>
        <time>2022-05-21T13:50:02.017Z</time>
      </trkpt>
      <trkpt lat="43.69579" lon="1.47556">
        <ele>252.756528</ele>
        <time>2022-05-21T13:50:04.014Z</time>
      </trkpt>
      <trkpt lat="43.6958" lon="1.4757">
        <ele>252.934425</ele>
        <time>2022-05-21T13:50:06.032Z</time>
      </trkpt>
      <trkpt lat="43.69582" lon="1.47584">
        <ele>253.127966</ele>
        <time>2022-05-21T13:50:08.008Z</time>
      </trkpt>
      <trkpt lat="43.69585" lon="1.47599">
        <ele>253.326406</ele>
        <time>2022-05-21T13:50:10.029Z</time>
      </trkpt>
      <trkpt lat="43.69589" lon="1.47614">
        <ele>253.537424</ele>
        <time>2022-05-21T13:50:12.008Z</time>
      </trkpt>
      <trkpt lat="43.69595" lon="1.47628">
        <ele>253.751534</ele>
        <time>2022-05-21T13:50:14.028Z</time>
      </trkpt>
      <trkpt lat="43.696" lon="1.47643">
        <ele>253.965645</ele>
        <time>2022-05-21T13:50:16.003Z</time>
      </trkpt>
      <trkpt lat="43.69606" lon="1.47657">
        <ele>254.178065</ele>
        <time>2022-05-21T13:50:18.004Z</time>
      </trkpt>
      <trkpt lat="43.69612" lon="1.47671">
        <ele>254.390036</ele>
        <time>2022-05-21T13:50:20.020Z</time>
      </trkpt>
      <trkpt lat="43.69618" lon="1.47685">
        <ele>254.604251</ele>
        <time>2022-05-21T13:50:22.009Z</time>
      </trkpt>
      <trkpt lat="43.69624" lon="1.47699">
        <ele>254.815538</ele>
        <time>2022-05-21T13:50:24.037Z</time>
      </trkpt>
      <trkpt lat="43.6963" lon="1.47713">
        <ele>255.023438</ele>
        <time>2022-05-21T13:50:26.021Z</time>
      </trkpt>
      <trkpt lat="43.69635" lon="1.47726">
        <ele>255.220974</ele>
        <time>2022-05-21T13:50:28.015Z</time>
      </trkpt>
      <trkpt lat="43.69639" lon="1.47737">
        <ele>255.38216</ele>
        <time>2022-05-21T13:50:30.022Z</time>
      </trkpt>
      <trkpt lat="43.6964" lon="1.47752">
        <ele>255.570136</ele>
        <time>2022-05-21T13:50:33.021Z</time>
      </trkpt>
      <trkpt lat="43.69653" lon="1.47767">
        <ele>255.499238</ele>
        <time>2022-05-21T13:50:51.021Z</time>
      </trkpt>
      <trkpt lat="43.69664" lon="1.4778">
        <ele>255.408809</ele>
        <time>2022-05-21T13:50:54.008Z</time>
      </trkpt>
      <trkpt lat="43.69672" lon="1.4779">
        <ele>255.334911</ele>
        <time>2022-05-21T13:50:56.025Z</time>
      </trkpt>
      <trkpt lat="43.69682" lon="1.478">
        <ele>255.257051</ele>
        <time>2022-05-21T13:50:58.017Z</time>
      </trkpt>
      <trkpt lat="43.69691" lon="1.47811">
        <ele>255.179504</ele>
        <time>2022-05-21T13:51:00.033Z</time>
      </trkpt>
      <trkpt lat="43.697" lon="1.47822">
        <ele>255.102256</ele>
        <time>2022-05-21T13:51:02.015Z</time>
      </trkpt>
      <trkpt lat="43.69711" lon="1.4783">
        <ele>255.024431</ele>
        <time>2022-05-21T13:51:04.044Z</time>
      </trkpt>
      <trkpt lat="43.69723" lon="1.47835">
        <ele>254.945455</ele>
        <time>2022-05-21T13:51:06.031Z</time>
      </trkpt>
      <trkpt lat="43.69735" lon="1.47835">
        <ele>254.86769</ele>
        <time>2022-05-21T13:51:08.017Z</time>
      </trkpt>
      <trkpt lat="43.69747" lon="1.47836">
        <ele>254.785885</ele>
        <time>2022-05-21T13:51:10.025Z</time>
      </trkpt>
      <trkpt lat="43.69761" lon="1.47834">
        <ele>254.701284</ele>
        <time>2022-05-21T13:51:12.019Z</time>
      </trkpt>
      <trkpt lat="43.69775" lon="1.47831">
        <ele>254.609598</ele>
        <time>2022-05-21T13:51:14.021Z</time>
      </trkpt>
      <trkpt lat="43.69789" lon="1.47826">
        <ele>254.514072</ele>
        <time>2022-05-21T13:51:16.015Z</time>
      </trkpt>
      <trkpt lat="43.69804" lon="1.47819">
        <ele>254.230399</ele>
        <time>2022-05-21T13:51:18.020Z</time>
      </trkpt>
      <trkpt lat="43.69819" lon="1.47814">
        <ele>253.442691</ele>
        <time>2022-05-21T13:51:20.043Z</time>
      </trkpt>
      <trkpt lat="43.69835" lon="1.47808">
        <ele>252.620567</ele>
        <time>2022-05-21T13:51:22.031Z</time>
      </trkpt>
      <trkpt lat="43.69852" lon="1.47802">
        <ele>251.767113</ele>
        <time>2022-05-21T13:51:24.048Z</time>
      </trkpt>
      <trkpt lat="43.69869" lon="1.47797">
        <ele>250.892726</ele>
        <time>2022-05-21T13:51:26.019Z</time>
      </trkpt>
      <trkpt lat="43.69885" lon="1.47786">
        <ele>250.032549</ele>
        <time>2022-05-21T13:51:28.017Z</time>
      </trkpt>
      <trkpt lat="43.69891" lon="1.47777">
        <ele>249.575036</ele>
        <time>2022-05-21T13:51:29.038Z</time>
      </trkpt>
      <trkpt lat="43.69898" lon="1.47768">
        <ele>249.117971</ele>
        <time>2022-05-21T13:51:30.030Z</time>
      </trkpt>
      <trkpt lat="43.69904" lon="1.47759">
        <ele>248.659548</ele>
        <time>2022-05-21T13:51:31.034Z</time>
      </trkpt>
      <trkpt lat="43.6991" lon="1.47749">
        <ele>248.197526</ele>
        <time>2022-05-21T13:51:32.023Z</time>
      </trkpt>
      <trkpt lat="43.69916" lon="1.47739">
        <ele>247.731178</ele>
        <time>2022-05-21T13:51:33.020Z</time>
      </trkpt>
      <trkpt lat="43.69923" lon="1.4773">
        <ele>247.25396</ele>
        <time>2022-05-21T13:51:34.026Z</time>
      </trkpt>
      <trkpt lat="43.6993" lon="1.4772">
        <ele>246.774865</ele>
        <time>2022-05-21T13:51:35.056Z</time>
      </trkpt>
      <trkpt lat="43.69937" lon="1.47711">
        <ele>246.281192</ele>
        <time>2022-05-21T13:51:36.017Z</time>
      </trkpt>
      <trkpt lat="43.69944" lon="1.47701">
        <ele>245.773903</ele>
        <time>2022-05-21T13:51:37.014Z</time>
      </trkpt>
      <trkpt lat="43.69952" lon="1.47691">
        <ele>245.319825</ele>
        <time>2022-05-21T13:51:38.022Z</time>
      </trkpt>
      <trkpt lat="43.6996" lon="1.47681">
        <ele>244.90891</ele>
        <time>2022-05-21T13:51:39.026Z</time>
      </trkpt>
      <trkpt lat="43.69968" lon="1.4767">
        <ele>244.488634</ele>
        <time>2022-05-21T13:51:40.023Z</time>
      </trkpt>
      <trkpt lat="43.69976" lon="1.4766">
        <ele>244.067465</ele>
        <time>2022-05-21T13:51:41.032Z</time>
      </trkpt>
      <trkpt lat="43.69985" lon="1.4765">
        <ele>243.644358</ele>
        <time>2022-05-21T13:51:42.028Z</time>
      </trkpt>
      <trkpt lat="43.69993" lon="1.4764">
        <ele>243.228353</ele>
        <time>2022-05-21T13:51:43.026Z</time>
      </trkpt>
      <trkpt lat="43.70002" lon="1.47631">
        <ele>242.817047</ele>
        <time>2022-05-21T13:51:44.020Z</time>
      </trkpt>
      <trkpt lat="43.70012" lon="1.47626">
        <ele>242.403398</ele>
        <time>2022-05-21T13:51:45.030Z</time>
      </trkpt>
      <trkpt lat="43.70022" lon="1.47622">
        <ele>242.005929</ele>
        <time>2022-05-21T13:51:46.015Z</time>
      </trkpt>
      <trkpt lat="43.70032" lon="1.4762">
        <ele>241.608331</ele>
        <time>2022-05-21T13:51:47.026Z</time>
      </trkpt>
      <trkpt lat="43.70042" lon="1.47619">
        <ele>241.214646</ele>
        <time>2022-05-21T13:51:48.017Z</time>
      </trkpt>
      <trkpt lat="43.70053" lon="1.47618">
        <ele>240.816942</ele>
        <time>2022-05-21T13:51:49.031Z</time>
      </trkpt>
      <trkpt lat="43.70063" lon="1.47619">
        <ele>240.426045</ele>
        <time>2022-05-21T13:51:50.018Z</time>
      </trkpt>
      <trkpt lat="43.70073" lon="1.47621">
        <ele>240.044362</ele>
        <time>2022-05-21T13:51:51.019Z</time>
      </trkpt>
      <trkpt lat="43.70083" lon="1.47623">
        <ele>239.669318</ele>
        <time>2022-05-21T13:51:52.027Z</time>
      </trkpt>
      <trkpt lat="43.70092" lon="1.47626">
        <ele>239.302694</ele>
        <time>2022-05-21T13:51:53.014Z</time>
      </trkpt>
      <trkpt lat="43.70102" lon="1.47628">
        <ele>238.931867</ele>
        <time>2022-05-21T13:51:54.020Z</time>
      </trkpt>
      <trkpt lat="43.70111" lon="1.47629">
        <ele>238.693432</ele>
        <time>2022-05-21T13:51:55.020Z</time>
      </trkpt>
      <trkpt lat="43.70121" lon="1.47629">
        <ele>238.700513</ele>
        <time>2022-05-21T13:51:56.026Z</time>
      </trkpt>
      <trkpt lat="43.70131" lon="1.47627">
        <ele>238.707659</ele>
        <time>2022-05-21T13:51:57.022Z</time>
      </trkpt>
      <trkpt lat="43.7014" lon="1.47624">
        <ele>238.715002</ele>
        <time>2022-05-21T13:51:58.032Z</time>
      </trkpt>
      <trkpt lat="43.7015" lon="1.47621">
        <ele>238.722202</ele>
        <time>2022-05-21T13:51:59.009Z</time>
      </trkpt>
      <trkpt lat="43.70159" lon="1.47617">
        <ele>238.729128</ele>
        <time>2022-05-21T13:52:00.015Z</time>
      </trkpt>
      <trkpt lat="43.70167" lon="1.47612">
        <ele>238.736009</ele>
        <time>2022-05-21T13:52:01.017Z</time>
      </trkpt>
      <trkpt lat="43.70177" lon="1.47608">
        <ele>238.743102</ele>
        <time>2022-05-21T13:52:02.040Z</time>
      </trkpt>
      <trkpt lat="43.70186" lon="1.47606">
        <ele>238.749935</ele>
        <time>2022-05-21T13:52:03.013Z</time>
      </trkpt>
      <trkpt lat="43.70203" lon="1.47608">
        <ele>238.762667</ele>
        <time>2022-05-21T13:52:05.015Z</time>
      </trkpt>
      <trkpt lat="43.70216" lon="1.47617">
        <ele>238.773768</ele>
        <time>2022-05-21T13:52:07.029Z</time>
      </trkpt>
      <trkpt lat="43.70227" lon="1.47626">
        <ele>238.783195</ele>
        <time>2022-05-21T13:52:09.006Z</time>
      </trkpt>
      <trkpt lat="43.70238" lon="1.47633">
        <ele>238.791781</ele>
        <time>2022-05-21T13:52:11.020Z</time>
      </trkpt>
      <trkpt lat="43.70248" lon="1.47642">
        <ele>238.800265</ele>
        <time>2022-05-21T13:52:13.023Z</time>
      </trkpt>
      <trkpt lat="43.70258" lon="1.47649">
        <ele>238.808836</ele>
        <time>2022-05-21T13:52:15.019Z</time>
      </trkpt>
      <trkpt lat="43.70268" lon="1.47657">
        <ele>238.81757</ele>
        <time>2022-05-21T13:52:17.021Z</time>
      </trkpt>
      <trkpt lat="43.70279" lon="1.47664">
        <ele>238.719879</ele>
        <time>2022-05-21T13:52:19.035Z</time>
      </trkpt>
      <trkpt lat="43.7029" lon="1.4767">
        <ele>238.395366</ele>
        <time>2022-05-21T13:52:21.030Z</time>
      </trkpt>
      <trkpt lat="43.70301" lon="1.47677">
        <ele>238.072291</ele>
        <time>2022-05-21T13:52:23.030Z</time>
      </trkpt>
      <trkpt lat="43.70312" lon="1.47683">
        <ele>237.73311</ele>
        <time>2022-05-21T13:52:25.026Z</time>
      </trkpt>
      <trkpt lat="43.70325" lon="1.47689">
        <ele>237.362957</ele>
        <time>2022-05-21T13:52:27.043Z</time>
      </trkpt>
      <trkpt lat="43.70338" lon="1.47696">
        <ele>236.958036</ele>
        <time>2022-05-21T13:52:29.016Z</time>
      </trkpt>
      <trkpt lat="43.70353" lon="1.47702">
        <ele>236.526968</ele>
        <time>2022-05-21T13:52:31.021Z</time>
      </trkpt>
      <trkpt lat="43.70368" lon="1.47712">
        <ele>236.068559</ele>
        <time>2022-05-21T13:52:33.021Z</time>
      </trkpt>
      <trkpt lat="43.70384" lon="1.47719">
        <ele>235.61159</ele>
        <time>2022-05-21T13:52:35.038Z</time>
      </trkpt>
      <trkpt lat="43.704" lon="1.47727">
        <ele>235.150002</ele>
        <time>2022-05-21T13:52:37.022Z</time>
      </trkpt>
      <trkpt lat="43.70415" lon="1.47735">
        <ele>234.689763</ele>
        <time>2022-05-21T13:52:39.046Z</time>
      </trkpt>
      <trkpt lat="43.70431" lon="1.47742">
        <ele>234.2354</ele>
        <time>2022-05-21T13:52:41.018Z</time>
      </trkpt>
      <trkpt lat="43.70447" lon="1.47749">
        <ele>233.823575</ele>
        <time>2022-05-21T13:52:43.050Z</time>
      </trkpt>
      <trkpt lat="43.70461" lon="1.47757">
        <ele>233.636004</ele>
        <time>2022-05-21T13:52:45.034Z</time>
      </trkpt>
      <trkpt lat="43.70476" lon="1.47764">
        <ele>233.44998</ele>
        <time>2022-05-21T13:52:47.037Z</time>
      </trkpt>
      <trkpt lat="43.70491" lon="1.47768">
        <ele>233.270249</ele>
        <time>2022-05-21T13:52:49.022Z</time>
      </trkpt>
      <trkpt lat="43.70506" lon="1.47771">
        <ele>233.095809</ele>
        <time>2022-05-21T13:52:51.034Z</time>
      </trkpt>
      <trkpt lat="43.70521" lon="1.47773">
        <ele>232.921735</ele>
        <time>2022-05-21T13:52:53.015Z</time>
      </trkpt>
      <trkpt lat="43.70535" lon="1.47775">
        <ele>232.751762</ele>
        <time>2022-05-21T13:52:55.018Z</time>
      </trkpt>
      <trkpt lat="43.70549" lon="1.47777">
        <ele>232.58393</ele>
        <time>2022-05-21T13:52:57.042Z</time>
      </trkpt>
      <trkpt lat="43.70563" lon="1.47779">
        <ele>232.418064</ele>
        <time>2022-05-21T13:52:59.021Z</time>
      </trkpt>
      <trkpt lat="43.70577" lon="1.4778">
        <ele>232.252582</ele>
        <time>2022-05-21T13:53:01.046Z</time>
      </trkpt>
      <trkpt lat="43.70591" lon="1.47782">
        <ele>232.087798</ele>
        <time>2022-05-21T13:53:03.028Z</time>
      </trkpt>
      <trkpt lat="43.70605" lon="1.47785">
        <ele>231.921094</ele>
        <time>2022-05-21T13:53:05.042Z</time>
      </trkpt>
      <trkpt lat="43.70619" lon="1.47787">
        <ele>231.754056</ele>
        <time>2022-05-21T13:53:07.019Z</time>
      </trkpt>
      <trkpt lat="43.70634" lon="1.4779">
        <ele>231.64245</ele>
        <time>2022-05-21T13:53:09.056Z</time>
      </trkpt>
      <trkpt lat="43.70648" lon="1.47793">
        <ele>231.537768</ele>
        <time>2022-05-21T13:53:11.024Z</time>
      </trkpt>
      <trkpt lat="43.70663" lon="1.47796">
        <ele>231.435187</ele>
        <time>2022-05-21T13:53:13.033Z</time>
      </trkpt>
      <trkpt lat="43.70677" lon="1.47799">
        <ele>231.334507</ele>
        <time>2022-05-21T13:53:15.028Z</time>
      </trkpt>
      <trkpt lat="43.7069" lon="1.47802">
        <ele>231.240319</ele>
        <time>2022-05-21T13:53:17.038Z</time>
      </trkpt>
      <trkpt lat="43.70703" lon="1.47805">
        <ele>231.144275</ele>
        <time>2022-05-21T13:53:19.030Z</time>
      </trkpt>
      <trkpt lat="43.70716" lon="1.47809">
        <ele>231.051208</ele>
        <time>2022-05-21T13:53:21.031Z</time>
      </trkpt>
      <trkpt lat="43.70728" lon="1.47814">
        <ele>230.959439</ele>
        <time>2022-05-21T13:53:23.028Z</time>
      </trkpt>
      <trkpt lat="43.7074" lon="1.47821">
        <ele>230.871006</ele>
        <time>2022-05-21T13:53:25.038Z</time>
      </trkpt>
      <trkpt lat="43.70751" lon="1.47828">
        <ele>230.78473</ele>
        <time>2022-05-21T13:53:27.019Z</time>
      </trkpt>
      <trkpt lat="43.70762" lon="1.47834">
        <ele>230.699425</ele>
        <time>2022-05-21T13:53:29.027Z</time>
      </trkpt>
      <trkpt lat="43.70773" lon="1.4784">
        <ele>230.61478</ele>
        <time>2022-05-21T13:53:31.031Z</time>
      </trkpt>
      <trkpt lat="43.70785" lon="1.47846">
        <ele>230.530205</ele>
        <time>2022-05-21T13:53:33.042Z</time>
      </trkpt>
      <trkpt lat="43.70796" lon="1.47851">
        <ele>230.408633</ele>
        <time>2022-05-21T13:53:35.026Z</time>
      </trkpt>
      <trkpt lat="43.70808" lon="1.47856">
        <ele>230.110599</ele>
        <time>2022-05-21T13:53:37.018Z</time>
      </trkpt>
      <trkpt lat="43.70821" lon="1.4786">
        <ele>229.819785</ele>
        <time>2022-05-21T13:53:39.015Z</time>
      </trkpt>
      <trkpt lat="43.70833" lon="1.4786">
        <ele>229.540375</ele>
        <time>2022-05-21T13:53:41.013Z</time>
      </trkpt>
      <trkpt lat="43.70844" lon="1.47854">
        <ele>229.257057</ele>
        <time>2022-05-21T13:53:43.015Z</time>
      </trkpt>
      <trkpt lat="43.70855" lon="1.47844">
        <ele>228.957237</ele>
        <time>2022-05-21T13:53:45.012Z</time>
      </trkpt>
      <trkpt lat="43.70865" lon="1.47833">
        <ele>228.649708</ele>
        <time>2022-05-21T13:53:47.045Z</time>
      </trkpt>
      <trkpt lat="43.70877" lon="1.47824">
        <ele>228.343104</ele>
        <time>2022-05-21T13:53:49.025Z</time>
      </trkpt>
      <trkpt lat="43.70888" lon="1.47814">
        <ele>228.032353</ele>
        <time>2022-05-21T13:53:51.045Z</time>
      </trkpt>
      <trkpt lat="43.70901" lon="1.47806">
        <ele>227.700939</ele>
        <time>2022-05-21T13:53:53.025Z</time>
      </trkpt>
      <trkpt lat="43.70915" lon="1.47801">
        <ele>227.353959</ele>
        <time>2022-05-21T13:53:55.026Z</time>
      </trkpt>
      <trkpt lat="43.70931" lon="1.47798">
        <ele>226.994825</ele>
        <time>2022-05-21T13:53:57.018Z</time>
      </trkpt>
      <trkpt lat="43.70945" lon="1.47799">
        <ele>226.654609</ele>
        <time>2022-05-21T13:53:59.006Z</time>
      </trkpt>
      <trkpt lat="43.70959" lon="1.478">
        <ele>226.332161</ele>
        <time>2022-05-21T13:54:01.021Z</time>
      </trkpt>
      <trkpt lat="43.70972" lon="1.47803">
        <ele>226.226117</ele>
        <time>2022-05-21T13:54:03.013Z</time>
      </trkpt>
      <trkpt lat="43.70985" lon="1.47809">
        <ele>226.172554</ele>
        <time>2022-05-21T13:54:05.025Z</time>
      </trkpt>
      <trkpt lat="43.70996" lon="1.47817">
        <ele>226.120437</ele>
        <time>2022-05-21T13:54:07.009Z</time>
      </trkpt>
      <trkpt lat="43.71006" lon="1.47826">
        <ele>226.070023</ele>
        <time>2022-05-21T13:54:09.020Z</time>
      </trkpt>
      <trkpt lat="43.71015" lon="1.47833">
        <ele>226.023834</ele>
        <time>2022-05-21T13:54:11.008Z</time>
      </trkpt>
      <trkpt lat="43.71026" lon="1.4784">
        <ele>225.974874</ele>
        <time>2022-05-21T13:54:14.021Z</time>
      </trkpt>
      <trkpt lat="43.71036" lon="1.47841">
        <ele>225.932511</ele>
        <time>2022-05-21T13:54:17.024Z</time>
      </trkpt>
      <trkpt lat="43.71045" lon="1.47849">
        <ele>225.890148</ele>
        <time>2022-05-21T13:54:20.009Z</time>
      </trkpt>
      <trkpt lat="43.71053" lon="1.47859">
        <ele>225.844796</ele>
        <time>2022-05-21T13:54:22.990Z</time>
      </trkpt>
      <trkpt lat="43.71063" lon="1.4787">
        <ele>225.793747</ele>
        <time>2022-05-21T13:54:26.023Z</time>
      </trkpt>
      <trkpt lat="43.7107" lon="1.47877">
        <ele>225.755162</ele>
        <time>2022-05-21T13:54:28.020Z</time>
      </trkpt>
      <trkpt lat="43.71078" lon="1.47884">
        <ele>225.714142</ele>
        <time>2022-05-21T13:54:30.026Z</time>
      </trkpt>
      <trkpt lat="43.71088" lon="1.47892">
        <ele>225.669644</ele>
        <time>2022-05-21T13:54:32.012Z</time>
      </trkpt>
      <trkpt lat="43.71098" lon="1.479">
        <ele>225.621806</ele>
        <time>2022-05-21T13:54:34.029Z</time>
      </trkpt>
      <trkpt lat="43.71107" lon="1.47907">
        <ele>225.575846</ele>
        <time>2022-05-21T13:54:36.032Z</time>
      </trkpt>
      <trkpt lat="43.71117" lon="1.47914">
        <ele>225.53017</ele>
        <time>2022-05-21T13:54:38.041Z</time>
      </trkpt>
      <trkpt lat="43.71127" lon="1.47923">
        <ele>225.316563</ele>
        <time>2022-05-21T13:54:40.030Z</time>
      </trkpt>
      <trkpt lat="43.71137" lon="1.47931">
        <ele>225.057045</ele>
        <time>2022-05-21T13:54:42.021Z</time>
      </trkpt>
      <trkpt lat="43.71149" lon="1.47937">
        <ele>224.802274</ele>
        <time>2022-05-21T13:54:44.018Z</time>
      </trkpt>
      <trkpt lat="43.71161" lon="1.47939">
        <ele>224.536935</ele>
        <time>2022-05-21T13:54:46.019Z</time>
      </trkpt>
      <trkpt lat="43.71173" lon="1.47934">
        <ele>224.271613</ele>
        <time>2022-05-21T13:54:48.017Z</time>
      </trkpt>
      <trkpt lat="43.71184" lon="1.47925">
        <ele>223.999248</ele>
        <time>2022-05-21T13:54:50.009Z</time>
      </trkpt>
      <trkpt lat="43.71193" lon="1.47912">
        <ele>223.723919</ele>
        <time>2022-05-21T13:54:52.036Z</time>
      </trkpt>
      <trkpt lat="43.71202" lon="1.479">
        <ele>223.457866</ele>
        <time>2022-05-21T13:54:54.001Z</time>
      </trkpt>
      <trkpt lat="43.71211" lon="1.47889">
        <ele>223.19925</ele>
        <time>2022-05-21T13:54:56.025Z</time>
      </trkpt>
      <trkpt lat="43.71218" lon="1.47874">
        <ele>222.931222</ele>
        <time>2022-05-21T13:54:58.010Z</time>
      </trkpt>
      <trkpt lat="43.71224" lon="1.47857">
        <ele>222.642199</ele>
        <time>2022-05-21T13:55:00.028Z</time>
      </trkpt>
      <trkpt lat="43.71229" lon="1.4784">
        <ele>222.350701</ele>
        <time>2022-05-21T13:55:02.033Z</time>
      </trkpt>
      <trkpt lat="43.71233" lon="1.47821">
        <ele>222.054995</ele>
        <time>2022-05-21T13:55:04.024Z</time>
      </trkpt>
      <trkpt lat="43.71238" lon="1.47802">
        <ele>221.746958</ele>
        <time>2022-05-21T13:55:06.033Z</time>
      </trkpt>
      <trkpt lat="43.71244" lon="1.47783">
        <ele>221.545344</ele>
        <time>2022-05-21T13:55:08.024Z</time>
      </trkpt>
      <trkpt lat="43.71252" lon="1.47766">
        <ele>221.36558</ele>
        <time>2022-05-21T13:55:10.021Z</time>
      </trkpt>
      <trkpt lat="43.7126" lon="1.47748">
        <ele>221.184111</ele>
        <time>2022-05-21T13:55:12.026Z</time>
      </trkpt>
      <trkpt lat="43.71269" lon="1.4773">
        <ele>221.001531</ele>
        <time>2022-05-21T13:55:14.017Z</time>
      </trkpt>
      <trkpt lat="43.71275" lon="1.47712">
        <ele>220.82049</ele>
        <time>2022-05-21T13:55:16.022Z</time>
      </trkpt>
      <trkpt lat="43.71283" lon="1.47697">
        <ele>220.664564</ele>
        <time>2022-05-21T13:55:18.026Z</time>
      </trkpt>
      <trkpt lat="43.71288" lon="1.47683">
        <ele>220.531979</ele>
        <time>2022-05-21T13:55:21.041Z</time>
      </trkpt>
      <trkpt lat="43.71299" lon="1.47686">
        <ele>220.406054</ele>
        <time>2022-05-21T13:55:26.042Z</time>
      </trkpt>
      <trkpt lat="43.71309" lon="1.47693">
        <ele>220.273812</ele>
        <time>2022-05-21T13:55:31.043Z</time>
      </trkpt>
      <trkpt lat="43.71319" lon="1.47702">
        <ele>220.127086</ele>
        <time>2022-05-21T13:55:34.020Z</time>
      </trkpt>
      <trkpt lat="43.71328" lon="1.47711">
        <ele>219.996537</ele>
        <time>2022-05-21T13:55:36.022Z</time>
      </trkpt>
      <trkpt lat="43.71338" lon="1.47721">
        <ele>219.850842</ele>
        <time>2022-05-21T13:55:38.022Z</time>
      </trkpt>
      <trkpt lat="43.71348" lon="1.4773">
        <ele>219.704638</ele>
        <time>2022-05-21T13:55:40.035Z</time>
      </trkpt>
      <trkpt lat="43.71358" lon="1.4774">
        <ele>219.556984</ele>
        <time>2022-05-21T13:55:42.028Z</time>
      </trkpt>
      <trkpt lat="43.71369" lon="1.47749">
        <ele>219.764457</ele>
        <time>2022-05-21T13:55:44.034Z</time>
      </trkpt>
      <trkpt lat="43.71379" lon="1.47759">
        <ele>219.988234</ele>
        <time>2022-05-21T13:55:46.025Z</time>
      </trkpt>
      <trkpt lat="43.7139" lon="1.47766">
        <ele>220.207441</ele>
        <time>2022-05-21T13:55:48.011Z</time>
      </trkpt>
      <trkpt lat="43.714" lon="1.47773">
        <ele>220.412543</ele>
        <time>2022-05-21T13:55:50.029Z</time>
      </trkpt>
      <trkpt lat="43.71411" lon="1.4778">
        <ele>220.623437</ele>
        <time>2022-05-21T13:55:52.031Z</time>
      </trkpt>
      <trkpt lat="43.71421" lon="1.47789">
        <ele>220.835944</ele>
        <time>2022-05-21T13:55:54.025Z</time>
      </trkpt>
      <trkpt lat="43.7143" lon="1.47798">
        <ele>221.038295</ele>
        <time>2022-05-21T13:55:56.022Z</time>
      </trkpt>
      <trkpt lat="43.71439" lon="1.47807">
        <ele>221.243543</ele>
        <time>2022-05-21T13:55:58.012Z</time>
      </trkpt>
      <trkpt lat="43.71449" lon="1.47816">
        <ele>221.452437</ele>
        <time>2022-05-21T13:56:00.033Z</time>
      </trkpt>
      <trkpt lat="43.71457" lon="1.47824">
        <ele>221.640613</ele>
        <time>2022-05-21T13:56:02.036Z</time>
      </trkpt>
      <trkpt lat="43.71467" lon="1.47833">
        <ele>221.858442</ele>
        <time>2022-05-21T13:56:05.052Z</time>
      </trkpt>
      <trkpt lat="43.71475" lon="1.47841">
        <ele>222.031032</ele>
        <time>2022-05-21T13:56:07.024Z</time>
      </trkpt>
      <trkpt lat="43.71484" lon="1.4785">
        <ele>222.231069</ele>
        <time>2022-05-21T13:56:09.037Z</time>
      </trkpt>
      <trkpt lat="43.71493" lon="1.47859">
        <ele>222.430346</ele>
        <time>2022-05-21T13:56:11.016Z</time>
      </trkpt>
      <trkpt lat="43.71503" lon="1.47868">
        <ele>222.634788</ele>
        <time>2022-05-21T13:56:13.025Z</time>
      </trkpt>
      <trkpt lat="43.71512" lon="1.47877">
        <ele>222.752606</ele>
        <time>2022-05-21T13:56:15.041Z</time>
      </trkpt>
      <trkpt lat="43.71521" lon="1.47886">
        <ele>222.598001</ele>
        <time>2022-05-21T13:56:17.015Z</time>
      </trkpt>
      <trkpt lat="43.71529" lon="1.47895">
        <ele>222.447646</ele>
        <time>2022-05-21T13:56:19.020Z</time>
      </trkpt>
      <trkpt lat="43.71537" lon="1.47903">
        <ele>222.30856</ele>
        <time>2022-05-21T13:56:21.029Z</time>
      </trkpt>
      <trkpt lat="43.71549" lon="1.47903">
        <ele>222.151982</ele>
        <time>2022-05-21T13:56:24.027Z</time>
      </trkpt>
      <trkpt lat="43.71556" lon="1.47894">
        <ele>222.024448</ele>
        <time>2022-05-21T13:56:26.027Z</time>
      </trkpt>
      <trkpt lat="43.71562" lon="1.47883">
        <ele>221.87784</ele>
        <time>2022-05-21T13:56:28.018Z</time>
      </trkpt>
      <trkpt lat="43.71569" lon="1.47871">
        <ele>221.724606</ele>
        <time>2022-05-21T13:56:30.036Z</time>
      </trkpt>
      <trkpt lat="43.71578" lon="1.47861">
        <ele>221.561839</ele>
        <time>2022-05-21T13:56:32.016Z</time>
      </trkpt>
      <trkpt lat="43.71586" lon="1.47849">
        <ele>221.391323</ele>
        <time>2022-05-21T13:56:34.027Z</time>
      </trkpt>
      <trkpt lat="43.71595" lon="1.47836">
        <ele>221.213363</ele>
        <time>2022-05-21T13:56:36.031Z</time>
      </trkpt>
      <trkpt lat="43.71604" lon="1.47822">
        <ele>221.032017</ele>
        <time>2022-05-21T13:56:38.024Z</time>
      </trkpt>
      <trkpt lat="43.71613" lon="1.4781">
        <ele>220.848958</ele>
        <time>2022-05-21T13:56:40.031Z</time>
      </trkpt>
      <trkpt lat="43.71622" lon="1.47795">
        <ele>220.658339</ele>
        <time>2022-05-21T13:56:42.022Z</time>
      </trkpt>
      <trkpt lat="43.71631" lon="1.47781">
        <ele>220.463274</ele>
        <time>2022-05-21T13:56:44.029Z</time>
      </trkpt>
      <trkpt lat="43.7164" lon="1.47766">
        <ele>220.253934</ele>
        <time>2022-05-21T13:56:46.044Z</time>
      </trkpt>
      <trkpt lat="43.7165" lon="1.4775">
        <ele>219.960007</ele>
        <time>2022-05-21T13:56:48.008Z</time>
      </trkpt>
      <trkpt lat="43.71659" lon="1.47735">
        <ele>219.661007</ele>
        <time>2022-05-21T13:56:50.016Z</time>
      </trkpt>
      <trkpt lat="43.71669" lon="1.47719">
        <ele>219.358236</ele>
        <time>2022-05-21T13:56:52.040Z</time>
      </trkpt>
      <trkpt lat="43.71679" lon="1.47704">
        <ele>219.057404</ele>
        <time>2022-05-21T13:56:54.040Z</time>
      </trkpt>
      <trkpt lat="43.71689" lon="1.47688">
        <ele>218.748896</ele>
        <time>2022-05-21T13:56:56.016Z</time>
      </trkpt>
      <trkpt lat="43.71699" lon="1.47672">
        <ele>218.434417</ele>
        <time>2022-05-21T13:56:58.016Z</time>
      </trkpt>
      <trkpt lat="43.71709" lon="1.47655">
        <ele>218.118537</ele>
        <time>2022-05-21T13:57:00.018Z</time>
      </trkpt>
      <trkpt lat="43.71719" lon="1.47639">
        <ele>217.807596</ele>
        <time>2022-05-21T13:57:02.027Z</time>
      </trkpt>
      <trkpt lat="43.71729" lon="1.47624">
        <ele>217.508266</ele>
        <time>2022-05-21T13:57:04.025Z</time>
      </trkpt>
      <trkpt lat="43.71739" lon="1.47609">
        <ele>217.215003</ele>
        <time>2022-05-21T13:57:06.035Z</time>
      </trkpt>
      <trkpt lat="43.71748" lon="1.47594">
        <ele>216.928524</ele>
        <time>2022-05-21T13:57:08.039Z</time>
      </trkpt>
      <trkpt lat="43.71757" lon="1.47579">
        <ele>216.640978</ele>
        <time>2022-05-21T13:57:10.024Z</time>
      </trkpt>
      <trkpt lat="43.71767" lon="1.47565">
        <ele>216.337966</ele>
        <time>2022-05-21T13:57:12.040Z</time>
      </trkpt>
      <trkpt lat="43.71776" lon="1.4755">
        <ele>216.0369</ele>
        <time>2022-05-21T13:57:14.028Z</time>
      </trkpt>
      <trkpt lat="43.71786" lon="1.47535">
        <ele>215.730962</ele>
        <time>2022-05-21T13:57:16.030Z</time>
      </trkpt>
      <trkpt lat="43.71795" lon="1.47519">
        <ele>215.423058</ele>
        <time>2022-05-21T13:57:18.018Z</time>
      </trkpt>
      <trkpt lat="43.71804" lon="1.47503">
        <ele>215.116842</ele>
        <time>2022-05-21T13:57:20.026Z</time>
      </trkpt>
      <trkpt lat="43.71814" lon="1.4749">
        <ele>214.808745</ele>
        <time>2022-05-21T13:57:22.022Z</time>
      </trkpt>
      <trkpt lat="43.71824" lon="1.47475">
        <ele>214.504876</ele>
        <time>2022-05-21T13:57:24.014Z</time>
      </trkpt>
      <trkpt lat="43.71833" lon="1.47459">
        <ele>214.192065</ele>
        <time>2022-05-21T13:57:26.026Z</time>
      </trkpt>
      <trkpt lat="43.71843" lon="1.47444">
        <ele>213.875392</ele>
        <time>2022-05-21T13:57:28.018Z</time>
      </trkpt>
      <trkpt lat="43.71853" lon="1.47428">
        <ele>213.548753</ele>
        <time>2022-05-21T13:57:30.010Z</time>
      </trkpt>
      <trkpt lat="43.71863" lon="1.47412">
        <ele>213.217768</ele>
        <time>2022-05-21T13:57:32.058Z</time>
      </trkpt>
      <trkpt lat="43.71874" lon="1.47395">
        <ele>212.883485</ele>
        <time>2022-05-21T13:57:34.024Z</time>
      </trkpt>
      <trkpt lat="43.71884" lon="1.47379">
        <ele>212.295066</ele>
        <time>2022-05-21T13:57:36.019Z</time>
      </trkpt>
      <trkpt lat="43.71894" lon="1.47361">
        <ele>211.637748</ele>
        <time>2022-05-21T13:57:38.029Z</time>
      </trkpt>
      <trkpt lat="43.71904" lon="1.47346">
        <ele>210.989429</ele>
        <time>2022-05-21T13:57:40.032Z</time>
      </trkpt>
      <trkpt lat="43.71915" lon="1.4733">
        <ele>210.359713</ele>
        <time>2022-05-21T13:57:42.030Z</time>
      </trkpt>
      <trkpt lat="43.71924" lon="1.47316">
        <ele>209.802393</ele>
        <time>2022-05-21T13:57:44.038Z</time>
      </trkpt>
      <trkpt lat="43.71932" lon="1.47304">
        <ele>209.295761</ele>
        <time>2022-05-21T13:57:46.024Z</time>
      </trkpt>
      <trkpt lat="43.71939" lon="1.47291">
        <ele>208.801487</ele>
        <time>2022-05-21T13:57:48.042Z</time>
      </trkpt>
      <trkpt lat="43.71947" lon="1.4728">
        <ele>208.350449</ele>
        <time>2022-05-21T13:57:50.013Z</time>
      </trkpt>
      <trkpt lat="43.71954" lon="1.4727">
        <ele>207.928313</ele>
        <time>2022-05-21T13:57:52.016Z</time>
      </trkpt>
      <trkpt lat="43.7196" lon="1.47261">
        <ele>207.536927</ele>
        <time>2022-05-21T13:57:54.024Z</time>
      </trkpt>
      <trkpt lat="43.71951" lon="1.47269">
        <ele>207.094573</ele>
        <time>2022-05-21T13:58:04.030Z</time>
      </trkpt>
      <trkpt lat="43.71943" lon="1.47272">
        <ele>206.717496</ele>
        <time>2022-05-21T13:58:08.015Z</time>
      </trkpt>
      <trkpt lat="43.71933" lon="1.47279">
        <ele>206.273349</ele>
        <time>2022-05-21T13:58:13.027Z</time>
      </trkpt>
      <trkpt lat="43.71928" lon="1.4726">
        <ele>205.676313</ele>
        <time>2022-05-21T13:58:23.026Z</time>
      </trkpt>
      <trkpt lat="43.71922" lon="1.4725">
        <ele>205.297336</ele>
        <time>2022-05-21T13:58:29.014Z</time>
      </trkpt>
      <trkpt lat="43.71921" lon="1.47236">
        <ele>204.926207</ele>
        <time>2022-05-21T13:58:34.003Z</time>
      </trkpt>
      <trkpt lat="43.71928" lon="1.47225">
        <ele>204.526051</ele>
        <time>2022-05-21T13:58:37.991Z</time>
      </trkpt>
      <trkpt lat="43.71933" lon="1.47213">
        <ele>204.16021</ele>
        <time>2022-05-21T13:58:41.006Z</time>
      </trkpt>
      <trkpt lat="43.7194" lon="1.47199">
        <ele>203.734426</ele>
        <time>2022-05-21T13:58:44.004Z</time>
      </trkpt>
      <trkpt lat="43.71947" lon="1.47188">
        <ele>203.322315</ele>
        <time>2022-05-21T13:58:47.005Z</time>
      </trkpt>
      <trkpt lat="43.71954" lon="1.47178">
        <ele>202.952137</ele>
        <time>2022-05-21T13:58:48.997Z</time>
      </trkpt>
      <trkpt lat="43.71965" lon="1.47165">
        <ele>202.437128</ele>
        <time>2022-05-21T13:58:52.014Z</time>
      </trkpt>
      <trkpt lat="43.71974" lon="1.47154">
        <ele>201.988284</ele>
        <time>2022-05-21T13:58:55.025Z</time>
      </trkpt>
      <trkpt lat="43.71983" lon="1.47144">
        <ele>201.552143</ele>
        <time>2022-05-21T13:58:58.021Z</time>
      </trkpt>
      <trkpt lat="43.7199" lon="1.47135">
        <ele>201.200845</ele>
        <time>2022-05-21T13:59:00.028Z</time>
      </trkpt>
      <trkpt lat="43.71998" lon="1.47127">
        <ele>200.821989</ele>
        <time>2022-05-21T13:59:03.007Z</time>
      </trkpt>
      <trkpt lat="43.72007" lon="1.47119">
        <ele>200.453715</ele>
        <time>2022-05-21T13:59:06.018Z</time>
      </trkpt>
      <trkpt lat="43.72029" lon="1.47095">
        <ele>199.427441</ele>
        <time>2022-05-21T13:59:29.024Z</time>
      </trkpt>
      <trkpt lat="43.72037" lon="1.47087">
        <ele>199.06677</ele>
        <time>2022-05-21T13:59:32.008Z</time>
      </trkpt>
      <trkpt lat="43.72046" lon="1.47076">
        <ele>198.690164</ele>
        <time>2022-05-21T13:59:35.020Z</time>
      </trkpt>
      <trkpt lat="43.72054" lon="1.47066">
        <ele>198.591652</ele>
        <time>2022-05-21T13:59:37.015Z</time>
      </trkpt>
      <trkpt lat="43.72064" lon="1.47056">
        <ele>198.485861</ele>
        <time>2022-05-21T13:59:39.022Z</time>
      </trkpt>
      <trkpt lat="43.72072" lon="1.47048">
        <ele>198.397208</ele>
        <time>2022-05-21T13:59:41.035Z</time>
      </trkpt>
      <trkpt lat="43.7208" lon="1.4704">
        <ele>198.312888</ele>
        <time>2022-05-21T13:59:45.020Z</time>
      </trkpt>
      <trkpt lat="43.72086" lon="1.47031">
        <ele>198.232215</ele>
        <time>2022-05-21T13:59:47.001Z</time>
      </trkpt>
      <trkpt lat="43.72096" lon="1.47018">
        <ele>198.110495</ele>
        <time>2022-05-21T13:59:50.021Z</time>
      </trkpt>
      <trkpt lat="43.72105" lon="1.47011">
        <ele>198.017992</ele>
        <time>2022-05-21T13:59:52.007Z</time>
      </trkpt>
      <trkpt lat="43.72117" lon="1.47002">
        <ele>197.903419</ele>
        <time>2022-05-21T13:59:54.031Z</time>
      </trkpt>
      <trkpt lat="43.72127" lon="1.46995">
        <ele>197.800436</ele>
        <time>2022-05-21T13:59:56.026Z</time>
      </trkpt>
      <trkpt lat="43.72137" lon="1.46986">
        <ele>197.692151</ele>
        <time>2022-05-21T13:59:58.003Z</time>
      </trkpt>
      <trkpt lat="43.72147" lon="1.46975">
        <ele>197.584319</ele>
        <time>2022-05-21T13:59:59.998Z</time>
      </trkpt>
      <trkpt lat="43.72157" lon="1.46966">
        <ele>197.473818</ele>
        <time>2022-05-21T14:00:02.029Z</time>
      </trkpt>
      <trkpt lat="43.72168" lon="1.46956">
        <ele>197.358261</ele>
        <time>2022-05-21T14:00:04.011Z</time>
      </trkpt>
      <trkpt lat="43.72178" lon="1.46946">
        <ele>197.249616</ele>
        <time>2022-05-21T14:00:06.000Z</time>
      </trkpt>
      <trkpt lat="43.72188" lon="1.46936">
        <ele>197.140252</ele>
        <time>2022-05-21T14:00:08.010Z</time>
      </trkpt>
      <trkpt lat="43.722" lon="1.46927">
        <ele>196.99574</ele>
        <time>2022-05-21T14:00:10.010Z</time>
      </trkpt>
      <trkpt lat="43.7221" lon="1.46918">
        <ele>196.85701</ele>
        <time>2022-05-21T14:00:12.016Z</time>
      </trkpt>
      <trkpt lat="43.7222" lon="1.46909">
        <ele>196.713089</ele>
        <time>2022-05-21T14:00:14.030Z</time>
      </trkpt>
      <trkpt lat="43.72232" lon="1.46899">
        <ele>196.548228</ele>
        <time>2022-05-21T14:00:16.036Z</time>
      </trkpt>
      <trkpt lat="43.72242" lon="1.46891">
        <ele>196.414817</ele>
        <time>2022-05-21T14:00:18.017Z</time>
      </trkpt>
      <trkpt lat="43.72253" lon="1.46884">
        <ele>196.281119</ele>
        <time>2022-05-21T14:00:19.998Z</time>
      </trkpt>
      <trkpt lat="43.72262" lon="1.46874">
        <ele>196.151289</ele>
        <time>2022-05-21T14:00:22.027Z</time>
      </trkpt>
      <trkpt lat="43.7227" lon="1.46866">
        <ele>196.029328</ele>
        <time>2022-05-21T14:00:24.002Z</time>
      </trkpt>
      <trkpt lat="43.72279" lon="1.46857">
        <ele>195.896387</ele>
        <time>2022-05-21T14:00:26.026Z</time>
      </trkpt>
      <trkpt lat="43.72288" lon="1.46849">
        <ele>195.775308</ele>
        <time>2022-05-21T14:00:28.023Z</time>
      </trkpt>
      <trkpt lat="43.72299" lon="1.4684">
        <ele>195.629099</ele>
        <time>2022-05-21T14:00:30.035Z</time>
      </trkpt>
      <trkpt lat="43.7231" lon="1.46832">
        <ele>195.486925</ele>
        <time>2022-05-21T14:00:32.016Z</time>
      </trkpt>
      <trkpt lat="43.72322" lon="1.46826">
        <ele>195.343447</ele>
        <time>2022-05-21T14:00:34.009Z</time>
      </trkpt>
      <trkpt lat="43.72333" lon="1.46819">
        <ele>195.200347</ele>
        <time>2022-05-21T14:00:36.034Z</time>
      </trkpt>
      <trkpt lat="43.72344" lon="1.46814">
        <ele>195.062656</ele>
        <time>2022-05-21T14:00:38.036Z</time>
      </trkpt>
      <trkpt lat="43.72356" lon="1.46809">
        <ele>194.951381</ele>
        <time>2022-05-21T14:00:40.007Z</time>
      </trkpt>
      <trkpt lat="43.72367" lon="1.46802">
        <ele>194.85034</ele>
        <time>2022-05-21T14:00:42.015Z</time>
      </trkpt>
      <trkpt lat="43.72378" lon="1.46797">
        <ele>194.755164</ele>
        <time>2022-05-21T14:00:44.031Z</time>
      </trkpt>
      <trkpt lat="43.72387" lon="1.46792">
        <ele>194.669068</ele>
        <time>2022-05-21T14:00:45.999Z</time>
      </trkpt>
      <trkpt lat="43.72396" lon="1.46784">
        <ele>194.579295</ele>
        <time>2022-05-21T14:00:48.019Z</time>
      </trkpt>
      <trkpt lat="43.72402" lon="1.46771">
        <ele>194.486689</ele>
        <time>2022-05-21T14:00:51.017Z</time>
      </trkpt>
      <trkpt lat="43.72396" lon="1.46761">
        <ele>194.410076</ele>
        <time>2022-05-21T14:01:06.025Z</time>
      </trkpt>
      <trkpt lat="43.72397" lon="1.46747">
        <ele>194.322675</ele>
        <time>2022-05-21T14:01:10.024Z</time>
      </trkpt>
      <trkpt lat="43.72387" lon="1.46756">
        <ele>194.220157</ele>
        <time>2022-05-21T14:01:23.030Z</time>
      </trkpt>
      <trkpt lat="43.72376" lon="1.46762">
        <ele>194.124482</ele>
        <time>2022-05-21T14:01:26.037Z</time>
      </trkpt>
      <trkpt lat="43.72365" lon="1.46769">
        <ele>194.021932</ele>
        <time>2022-05-21T14:01:29.050Z</time>
      </trkpt>
      <trkpt lat="43.72354" lon="1.46776">
        <ele>193.919383</ele>
        <time>2022-05-21T14:01:32.019Z</time>
      </trkpt>
      <trkpt lat="43.72346" lon="1.46782">
        <ele>193.841494</ele>
        <time>2022-05-21T14:01:34.016Z</time>
      </trkpt>
      <trkpt lat="43.72333" lon="1.46784">
        <ele>193.731194</ele>
        <time>2022-05-21T14:01:37.017Z</time>
      </trkpt>
      <trkpt lat="43.72321" lon="1.46788">
        <ele>193.626069</ele>
        <time>2022-05-21T14:01:40.022Z</time>
      </trkpt>
      <trkpt lat="43.72312" lon="1.46791">
        <ele>193.548052</ele>
        <time>2022-05-21T14:01:42.016Z</time>
      </trkpt>
      <trkpt lat="43.723" lon="1.46798">
        <ele>193.729083</ele>
        <time>2022-05-21T14:01:45.014Z</time>
      </trkpt>
      <trkpt lat="43.72291" lon="1.46806">
        <ele>193.942723</ele>
        <time>2022-05-21T14:01:48.019Z</time>
      </trkpt>
      <trkpt lat="43.72276" lon="1.46828">
        <ele>194.353557</ele>
        <time>2022-05-21T14:02:09.007Z</time>
      </trkpt>
      <trkpt lat="43.72269" lon="1.46839">
        <ele>194.559931</ele>
        <time>2022-05-21T14:02:15.020Z</time>
      </trkpt>
      <trkpt lat="43.72261" lon="1.46846">
        <ele>194.743401</ele>
        <time>2022-05-21T14:02:18.029Z</time>
      </trkpt>
      <trkpt lat="43.72253" lon="1.46852">
        <ele>194.916963</ele>
        <time>2022-05-21T14:02:21.014Z</time>
      </trkpt>
      <trkpt lat="43.72242" lon="1.46862">
        <ele>195.158659</ele>
        <time>2022-05-21T14:02:24.018Z</time>
      </trkpt>
      <trkpt lat="43.72235" lon="1.4687">
        <ele>195.338941</ele>
        <time>2022-05-21T14:02:26.029Z</time>
      </trkpt>
      <trkpt lat="43.72225" lon="1.46877">
        <ele>195.545729</ele>
        <time>2022-05-21T14:02:29.005Z</time>
      </trkpt>
      <trkpt lat="43.72216" lon="1.46885">
        <ele>195.748774</ele>
        <time>2022-05-21T14:02:33.031Z</time>
      </trkpt>
      <trkpt lat="43.72207" lon="1.46891">
        <ele>195.943143</ele>
        <time>2022-05-21T14:02:38.008Z</time>
      </trkpt>
      <trkpt lat="43.72197" lon="1.46898">
        <ele>196.151959</ele>
        <time>2022-05-21T14:02:43.024Z</time>
      </trkpt>
      <trkpt lat="43.72189" lon="1.46906">
        <ele>196.3535</ele>
        <time>2022-05-21T14:02:46.013Z</time>
      </trkpt>
      <trkpt lat="43.72179" lon="1.46916">
        <ele>196.578004</ele>
        <time>2022-05-21T14:02:49.015Z</time>
      </trkpt>
      <trkpt lat="43.72169" lon="1.46929">
        <ele>196.840305</ele>
        <time>2022-05-21T14:02:52.014Z</time>
      </trkpt>
      <trkpt lat="43.72161" lon="1.46937">
        <ele>197.11106</ele>
        <time>2022-05-21T14:02:54.018Z</time>
      </trkpt>
      <trkpt lat="43.72153" lon="1.46944">
        <ele>197.545621</ele>
        <time>2022-05-21T14:02:56.019Z</time>
      </trkpt>
      <trkpt lat="43.72143" lon="1.46951">
        <ele>198.057615</ele>
        <time>2022-05-21T14:02:59.027Z</time>
      </trkpt>
      <trkpt lat="43.72133" lon="1.46954">
        <ele>198.536672</ele>
        <time>2022-05-21T14:03:02.019Z</time>
      </trkpt>
      <trkpt lat="43.72123" lon="1.46962">
        <ele>199.058796</ele>
        <time>2022-05-21T14:03:05.014Z</time>
      </trkpt>
      <trkpt lat="43.72114" lon="1.46968">
        <ele>199.498813</ele>
        <time>2022-05-21T14:03:07.021Z</time>
      </trkpt>
      <trkpt lat="43.72105" lon="1.46975">
        <ele>200.000151</ele>
        <time>2022-05-21T14:03:09.028Z</time>
      </trkpt>
      <trkpt lat="43.72096" lon="1.46981">
        <ele>200.438692</ele>
        <time>2022-05-21T14:03:12.028Z</time>
      </trkpt>
      <trkpt lat="43.72087" lon="1.46985">
        <ele>200.879086</ele>
        <time>2022-05-21T14:03:15.025Z</time>
      </trkpt>
      <trkpt lat="43.72078" lon="1.46985">
        <ele>201.303977</ele>
        <time>2022-05-21T14:03:18.018Z</time>
      </trkpt>
      <trkpt lat="43.72068" lon="1.46987">
        <ele>201.758971</ele>
        <time>2022-05-21T14:03:21.021Z</time>
      </trkpt>
      <trkpt lat="43.72057" lon="1.46991">
        <ele>202.262844</ele>
        <time>2022-05-21T14:03:25.017Z</time>
      </trkpt>
      <trkpt lat="43.72043" lon="1.47002">
        <ele>202.996224</ele>
        <time>2022-05-21T14:03:28.029Z</time>
      </trkpt>
      <trkpt lat="43.72033" lon="1.47008">
        <ele>203.48428</ele>
        <time>2022-05-21T14:03:31.036Z</time>
      </trkpt>
      <trkpt lat="43.72023" lon="1.47015">
        <ele>204.024724</ele>
        <time>2022-05-21T14:03:34.033Z</time>
      </trkpt>
      <trkpt lat="43.72014" lon="1.47019">
        <ele>204.460631</ele>
        <time>2022-05-21T14:03:36.046Z</time>
      </trkpt>
      <trkpt lat="43.72005" lon="1.47014">
        <ele>204.903248</ele>
        <time>2022-05-21T14:03:41.040Z</time>
      </trkpt>
      <trkpt lat="43.72004" lon="1.47002">
        <ele>205.206704</ele>
        <time>2022-05-21T14:03:46.036Z</time>
      </trkpt>
      <trkpt lat="43.72007" lon="1.46988">
        <ele>205.275637</ele>
        <time>2022-05-21T14:03:51.019Z</time>
      </trkpt>
      <trkpt lat="43.72011" lon="1.46976">
        <ele>205.336802</ele>
        <time>2022-05-21T14:03:54.034Z</time>
      </trkpt>
      <trkpt lat="43.72015" lon="1.46963">
        <ele>205.400386</ele>
        <time>2022-05-21T14:03:58.031Z</time>
      </trkpt>
      <trkpt lat="43.72034" lon="1.46946">
        <ele>205.552941</ele>
        <time>2022-05-21T14:04:38.035Z</time>
      </trkpt>
      <trkpt lat="43.72043" lon="1.4694">
        <ele>205.614254</ele>
        <time>2022-05-21T14:04:44.029Z</time>
      </trkpt>
      <trkpt lat="43.72052" lon="1.46934">
        <ele>205.678241</ele>
        <time>2022-05-21T14:04:48.033Z</time>
      </trkpt>
      <trkpt lat="43.72063" lon="1.46931">
        <ele>205.752533</ele>
        <time>2022-05-21T14:04:53.022Z</time>
      </trkpt>
      <trkpt lat="43.72073" lon="1.46931">
        <ele>205.817923</ele>
        <time>2022-05-21T14:04:56.032Z</time>
      </trkpt>
      <trkpt lat="43.72085" lon="1.46934">
        <ele>205.894049</ele>
        <time>2022-05-21T14:04:59.045Z</time>
      </trkpt>
      <trkpt lat="43.72095" lon="1.46933">
        <ele>205.959494</ele>
        <time>2022-05-21T14:05:02.021Z</time>
      </trkpt>
      <trkpt lat="43.72104" lon="1.46932">
        <ele>206.019986</ele>
        <time>2022-05-21T14:05:06.032Z</time>
      </trkpt>
      <trkpt lat="43.72112" lon="1.46927">
        <ele>206.07895</ele>
        <time>2022-05-21T14:05:11.042Z</time>
      </trkpt>
      <trkpt lat="43.72118" lon="1.46917">
        <ele>206.139089</ele>
        <time>2022-05-21T14:05:15.014Z</time>
      </trkpt>
      <trkpt lat="43.72126" lon="1.46905">
        <ele>206.210186</ele>
        <time>2022-05-21T14:05:19.029Z</time>
      </trkpt>
      <trkpt lat="43.72133" lon="1.46896">
        <ele>206.272818</ele>
        <time>2022-05-21T14:05:22.019Z</time>
      </trkpt>
      <trkpt lat="43.72141" lon="1.46887">
        <ele>206.343168</ele>
        <time>2022-05-21T14:05:26.034Z</time>
      </trkpt>
      <trkpt lat="43.72148" lon="1.46876">
        <ele>206.215785</ele>
        <time>2022-05-21T14:05:30.036Z</time>
      </trkpt>
      <trkpt lat="43.72157" lon="1.46867">
        <ele>206.063108</ele>
        <time>2022-05-21T14:05:34.025Z</time>
      </trkpt>
      <trkpt lat="43.72164" lon="1.4686">
        <ele>205.933004</ele>
        <time>2022-05-21T14:05:37.036Z</time>
      </trkpt>
      <trkpt lat="43.72172" lon="1.4685">
        <ele>205.786064</ele>
        <time>2022-05-21T14:05:40.037Z</time>
      </trkpt>
      <trkpt lat="43.72179" lon="1.4684">
        <ele>205.641062</ele>
        <time>2022-05-21T14:05:43.013Z</time>
      </trkpt>
      <trkpt lat="43.72187" lon="1.46831">
        <ele>205.48776</ele>
        <time>2022-05-21T14:05:48.034Z</time>
      </trkpt>
      <trkpt lat="43.72195" lon="1.46823">
        <ele>205.352197</ele>
        <time>2022-05-21T14:05:52.009Z</time>
      </trkpt>
      <trkpt lat="43.72202" lon="1.46812">
        <ele>205.194963</ele>
        <time>2022-05-21T14:05:56.026Z</time>
      </trkpt>
      <trkpt lat="43.72211" lon="1.46806">
        <ele>205.059481</ele>
        <time>2022-05-21T14:05:59.022Z</time>
      </trkpt>
      <trkpt lat="43.72221" lon="1.46801">
        <ele>204.904195</ele>
        <time>2022-05-21T14:06:03.034Z</time>
      </trkpt>
      <trkpt lat="43.72231" lon="1.46797">
        <ele>204.750943</ele>
        <time>2022-05-21T14:06:07.019Z</time>
      </trkpt>
      <trkpt lat="43.72239" lon="1.4679">
        <ele>204.611686</ele>
        <time>2022-05-21T14:06:10.035Z</time>
      </trkpt>
      <trkpt lat="43.72248" lon="1.46783">
        <ele>204.471193</ele>
        <time>2022-05-21T14:06:13.032Z</time>
      </trkpt>
      <trkpt lat="43.72257" lon="1.46782">
        <ele>204.338777</ele>
        <time>2022-05-21T14:06:17.034Z</time>
      </trkpt>
      <trkpt lat="43.72266" lon="1.46773">
        <ele>204.175664</ele>
        <time>2022-05-21T14:06:21.036Z</time>
      </trkpt>
      <trkpt lat="43.72274" lon="1.46766">
        <ele>204.039514</ele>
        <time>2022-05-21T14:06:24.030Z</time>
      </trkpt>
      <trkpt lat="43.72283" lon="1.46756">
        <ele>203.872201</ele>
        <time>2022-05-21T14:06:27.035Z</time>
      </trkpt>
      <trkpt lat="43.7229" lon="1.46743">
        <ele>203.92961</ele>
        <time>2022-05-21T14:06:31.024Z</time>
      </trkpt>
      <trkpt lat="43.72305" lon="1.46715">
        <ele>204.845061</ele>
        <time>2022-05-21T14:06:55.050Z</time>
      </trkpt>
      <trkpt lat="43.72301" lon="1.46704">
        <ele>205.172769</ele>
        <time>2022-05-21T14:07:02.998Z</time>
      </trkpt>
      <trkpt lat="43.72309" lon="1.46688">
        <ele>205.704728</ele>
        <time>2022-05-21T14:07:28.012Z</time>
      </trkpt>
      <trkpt lat="43.72308" lon="1.4666">
        <ele>206.418118</ele>
        <time>2022-05-21T14:08:45.027Z</time>
      </trkpt>
      <trkpt lat="43.72298" lon="1.46653">
        <ele>206.813837</ele>
        <time>2022-05-21T14:08:48.025Z</time>
      </trkpt>
      <trkpt lat="43.72287" lon="1.46647">
        <ele>207.239746</ele>
        <time>2022-05-21T14:08:52.037Z</time>
      </trkpt>
      <trkpt lat="43.72278" lon="1.4664">
        <ele>207.620807</ele>
        <time>2022-05-21T14:08:55.031Z</time>
      </trkpt>
      <trkpt lat="43.72269" lon="1.46635">
        <ele>207.980003</ele>
        <time>2022-05-21T14:08:58.030Z</time>
      </trkpt>
      <trkpt lat="43.7226" lon="1.4663">
        <ele>208.341858</ele>
        <time>2022-05-21T14:09:01.042Z</time>
      </trkpt>
      <trkpt lat="43.7225" lon="1.46625">
        <ele>208.701649</ele>
        <time>2022-05-21T14:09:04.026Z</time>
      </trkpt>
      <trkpt lat="43.72242" lon="1.46619">
        <ele>209.047711</ele>
        <time>2022-05-21T14:09:07.019Z</time>
      </trkpt>
      <trkpt lat="43.7223" lon="1.46614">
        <ele>209.477648</ele>
        <time>2022-05-21T14:09:10.032Z</time>
      </trkpt>
      <trkpt lat="43.72219" lon="1.46613">
        <ele>209.885205</ele>
        <time>2022-05-21T14:09:13.024Z</time>
      </trkpt>
      <trkpt lat="43.72208" lon="1.4661">
        <ele>210.272937</ele>
        <time>2022-05-21T14:09:16.064Z</time>
      </trkpt>
      <trkpt lat="43.72197" lon="1.46608">
        <ele>210.282178</ele>
        <time>2022-05-21T14:09:19.022Z</time>
      </trkpt>
      <trkpt lat="43.72186" lon="1.46604">
        <ele>210.291375</ele>
        <time>2022-05-21T14:09:22.014Z</time>
      </trkpt>
      <trkpt lat="43.72175" lon="1.46601">
        <ele>210.301455</ele>
        <time>2022-05-21T14:09:25.040Z</time>
      </trkpt>
      <trkpt lat="43.72169" lon="1.46591">
        <ele>210.309186</ele>
        <time>2022-05-21T14:09:29.029Z</time>
      </trkpt>
      <trkpt lat="43.7217" lon="1.46575">
        <ele>210.319378</ele>
        <time>2022-05-21T14:09:32.018Z</time>
      </trkpt>
      <trkpt lat="43.72175" lon="1.4656">
        <ele>210.329326</ele>
        <time>2022-05-21T14:09:34.035Z</time>
      </trkpt>
      <trkpt lat="43.72181" lon="1.46547">
        <ele>210.338781</ele>
        <time>2022-05-21T14:09:36.036Z</time>
      </trkpt>
      <trkpt lat="43.72187" lon="1.46534">
        <ele>210.348481</ele>
        <time>2022-05-21T14:09:38.040Z</time>
      </trkpt>
      <trkpt lat="43.72194" lon="1.4652">
        <ele>210.358444</ele>
        <time>2022-05-21T14:09:40.039Z</time>
      </trkpt>
      <trkpt lat="43.722" lon="1.46506">
        <ele>210.368464</ele>
        <time>2022-05-21T14:09:42.038Z</time>
      </trkpt>
      <trkpt lat="43.72206" lon="1.46493">
        <ele>210.378336</ele>
        <time>2022-05-21T14:09:44.034Z</time>
      </trkpt>
      <trkpt lat="43.72212" lon="1.4648">
        <ele>210.387702</ele>
        <time>2022-05-21T14:09:46.029Z</time>
      </trkpt>
      <trkpt lat="43.72224" lon="1.46478">
        <ele>210.397871</ele>
        <time>2022-05-21T14:09:49.026Z</time>
      </trkpt>
      <trkpt lat="43.72234" lon="1.4648">
        <ele>210.406541</ele>
        <time>2022-05-21T14:09:51.022Z</time>
      </trkpt>
      <trkpt lat="43.72244" lon="1.46487">
        <ele>210.416305</ele>
        <time>2022-05-21T14:09:53.037Z</time>
      </trkpt>
      <trkpt lat="43.72255" lon="1.46492">
        <ele>210.373324</ele>
        <time>2022-05-21T14:09:55.038Z</time>
      </trkpt>
      <trkpt lat="43.72264" lon="1.46498">
        <ele>209.809209</ele>
        <time>2022-05-21T14:09:57.028Z</time>
      </trkpt>
      <trkpt lat="43.72272" lon="1.4651">
        <ele>209.198744</ele>
        <time>2022-05-21T14:09:59.035Z</time>
      </trkpt>
      <trkpt lat="43.7228" lon="1.46522">
        <ele>208.554496</ele>
        <time>2022-05-21T14:10:01.028Z</time>
      </trkpt>
      <trkpt lat="43.72292" lon="1.46532">
        <ele>207.794026</ele>
        <time>2022-05-21T14:10:03.029Z</time>
      </trkpt>
      <trkpt lat="43.72306" lon="1.46545">
        <ele>206.909165</ele>
        <time>2022-05-21T14:10:05.036Z</time>
      </trkpt>
      <trkpt lat="43.72316" lon="1.46556">
        <ele>206.200896</ele>
        <time>2022-05-21T14:10:07.025Z</time>
      </trkpt>
      <trkpt lat="43.72324" lon="1.46566">
        <ele>205.598774</ele>
        <time>2022-05-21T14:10:09.010Z</time>
      </trkpt>
      <trkpt lat="43.72336" lon="1.46565">
        <ele>204.969853</ele>
        <time>2022-05-21T14:10:12.016Z</time>
      </trkpt>
      <trkpt lat="43.72349" lon="1.46567">
        <ele>204.295854</ele>
        <time>2022-05-21T14:10:15.025Z</time>
      </trkpt>
      <trkpt lat="43.72356" lon="1.46559">
        <ele>203.777454</ele>
        <time>2022-05-21T14:10:18.022Z</time>
      </trkpt>
      <trkpt lat="43.72363" lon="1.46548">
        <ele>203.214339</ele>
        <time>2022-05-21T14:10:21.016Z</time>
      </trkpt>
      <trkpt lat="43.72368" lon="1.46536">
        <ele>202.674124</ele>
        <time>2022-05-21T14:10:25.015Z</time>
      </trkpt>
      <trkpt lat="43.7237" lon="1.46521">
        <ele>202.094378</ele>
        <time>2022-05-21T14:10:29.012Z</time>
      </trkpt>
      <trkpt lat="43.72369" lon="1.46508">
        <ele>201.578651</ele>
        <time>2022-05-21T14:10:32.026Z</time>
      </trkpt>
      <trkpt lat="43.72369" lon="1.46493">
        <ele>201.020309</ele>
        <time>2022-05-21T14:10:35.015Z</time>
      </trkpt>
      <trkpt lat="43.72367" lon="1.46478">
        <ele>200.821724</ele>
        <time>2022-05-21T14:10:38.989Z</time>
      </trkpt>
      <trkpt lat="43.72365" lon="1.46462">
        <ele>200.89404</ele>
        <time>2022-05-21T14:10:42.005Z</time>
      </trkpt>
      <trkpt lat="43.72361" lon="1.46448">
        <ele>200.963121</ele>
        <time>2022-05-21T14:10:45.025Z</time>
      </trkpt>
      <trkpt lat="43.72357" lon="1.4643">
        <ele>201.046474</ele>
        <time>2022-05-21T14:10:48.006Z</time>
      </trkpt>
      <trkpt lat="43.72353" lon="1.46417">
        <ele>201.112373</ele>
        <time>2022-05-21T14:10:51.030Z</time>
      </trkpt>
      <trkpt lat="43.72348" lon="1.46404">
        <ele>201.176736</ele>
        <time>2022-05-21T14:10:54.040Z</time>
      </trkpt>
      <trkpt lat="43.72344" lon="1.4639">
        <ele>201.249345</ele>
        <time>2022-05-21T14:10:57.004Z</time>
      </trkpt>
      <trkpt lat="43.72338" lon="1.46374">
        <ele>201.326803</ele>
        <time>2022-05-21T14:11:01.028Z</time>
      </trkpt>
      <trkpt lat="43.72335" lon="1.46361">
        <ele>201.39224</ele>
        <time>2022-05-21T14:11:04.032Z</time>
      </trkpt>
      <trkpt lat="43.72333" lon="1.46346">
        <ele>201.459271</ele>
        <time>2022-05-21T14:11:08.019Z</time>
      </trkpt>
      <trkpt lat="43.7233" lon="1.46332">
        <ele>201.524932</ele>
        <time>2022-05-21T14:11:11.021Z</time>
      </trkpt>
      <trkpt lat="43.72329" lon="1.4632">
        <ele>201.58158</ele>
        <time>2022-05-21T14:11:13.017Z</time>
      </trkpt>
      <trkpt lat="43.72324" lon="1.46305">
        <ele>201.65672</ele>
        <time>2022-05-21T14:11:17.013Z</time>
      </trkpt>
      <trkpt lat="43.72322" lon="1.46286">
        <ele>201.74125</ele>
        <time>2022-05-21T14:11:19.001Z</time>
      </trkpt>
      <trkpt lat="43.72314" lon="1.4626">
        <ele>201.870835</ele>
        <time>2022-05-21T14:11:22.018Z</time>
      </trkpt>
      <trkpt lat="43.72314" lon="1.46243">
        <ele>201.831212</ele>
        <time>2022-05-21T14:11:26.008Z</time>
      </trkpt>
      <trkpt lat="43.72316" lon="1.46229">
        <ele>201.704181</ele>
        <time>2022-05-21T14:11:29.010Z</time>
      </trkpt>
      <trkpt lat="43.72319" lon="1.46217">
        <ele>201.596647</ele>
        <time>2022-05-21T14:11:31.025Z</time>
      </trkpt>
      <trkpt lat="43.72318" lon="1.46204">
        <ele>201.484009</ele>
        <time>2022-05-21T14:11:35.017Z</time>
      </trkpt>
      <trkpt lat="43.72315" lon="1.46189">
        <ele>201.345577</ele>
        <time>2022-05-21T14:11:39.008Z</time>
      </trkpt>
      <trkpt lat="43.72313" lon="1.46172">
        <ele>201.193472</ele>
        <time>2022-05-21T14:11:41.005Z</time>
      </trkpt>
      <trkpt lat="43.72309" lon="1.46156">
        <ele>201.045689</ele>
        <time>2022-05-21T14:11:44.026Z</time>
      </trkpt>
      <trkpt lat="43.72309" lon="1.4614">
        <ele>200.90163</ele>
        <time>2022-05-21T14:11:47.014Z</time>
      </trkpt>
      <trkpt lat="43.72306" lon="1.46125">
        <ele>200.769443</ele>
        <time>2022-05-21T14:11:50.007Z</time>
      </trkpt>
      <trkpt lat="43.72304" lon="1.46113">
        <ele>200.657294</ele>
        <time>2022-05-21T14:11:52.998Z</time>
      </trkpt>
      <trkpt lat="43.72304" lon="1.46099">
        <ele>200.540161</ele>
        <time>2022-05-21T14:11:57.010Z</time>
      </trkpt>
      <trkpt lat="43.72314" lon="1.46072">
        <ele>200.2742</ele>
        <time>2022-05-21T14:12:17.018Z</time>
      </trkpt>
      <trkpt lat="43.72327" lon="1.46097">
        <ele>200.010284</ele>
        <time>2022-05-21T14:12:38.019Z</time>
      </trkpt>
      <trkpt lat="43.72325" lon="1.46112">
        <ele>199.873056</ele>
        <time>2022-05-21T14:12:41.019Z</time>
      </trkpt>
      <trkpt lat="43.72327" lon="1.46127">
        <ele>199.745906</ele>
        <time>2022-05-21T14:12:44.017Z</time>
      </trkpt>
      <trkpt lat="43.7233" lon="1.4614">
        <ele>199.67091</ele>
        <time>2022-05-21T14:12:48.014Z</time>
      </trkpt>
      <trkpt lat="43.72332" lon="1.46157">
        <ele>199.587142</ele>
        <time>2022-05-21T14:12:52.011Z</time>
      </trkpt>
      <trkpt lat="43.72338" lon="1.46171">
        <ele>199.509925</ele>
        <time>2022-05-21T14:12:55.022Z</time>
      </trkpt>
      <trkpt lat="43.72341" lon="1.46182">
        <ele>199.447798</ele>
        <time>2022-05-21T14:12:58.015Z</time>
      </trkpt>
      <trkpt lat="43.72342" lon="1.46195">
        <ele>199.384998</ele>
        <time>2022-05-21T14:13:02.018Z</time>
      </trkpt>
      <trkpt lat="43.72347" lon="1.46207">
        <ele>199.314059</ele>
        <time>2022-05-21T14:13:05.021Z</time>
      </trkpt>
      <trkpt lat="43.72356" lon="1.46219">
        <ele>199.231181</ele>
        <time>2022-05-21T14:13:08.037Z</time>
      </trkpt>
      <trkpt lat="43.72359" lon="1.46231">
        <ele>199.168718</ele>
        <time>2022-05-21T14:13:09.017Z</time>
      </trkpt>
      <trkpt lat="43.72366" lon="1.4624">
        <ele>199.10242</ele>
        <time>2022-05-21T14:13:13.039Z</time>
      </trkpt>
      <trkpt lat="43.72368" lon="1.46253">
        <ele>199.038243</ele>
        <time>2022-05-21T14:13:14.018Z</time>
      </trkpt>
      <trkpt lat="43.72369" lon="1.46267">
        <ele>198.966286</ele>
        <time>2022-05-21T14:13:17.011Z</time>
      </trkpt>
      <trkpt lat="43.72373" lon="1.46282">
        <ele>198.887391</ele>
        <time>2022-05-21T14:13:21.023Z</time>
      </trkpt>
      <trkpt lat="43.72375" lon="1.46297">
        <ele>198.813604</ele>
        <time>2022-05-21T14:13:24.003Z</time>
      </trkpt>
      <trkpt lat="43.72379" lon="1.46311">
        <ele>198.739584</ele>
        <time>2022-05-21T14:13:27.036Z</time>
      </trkpt>
      <trkpt lat="43.72381" lon="1.46323">
        <ele>198.675503</ele>
        <time>2022-05-21T14:13:29.001Z</time>
      </trkpt>
      <trkpt lat="43.72387" lon="1.46338">
        <ele>198.593392</ele>
        <time>2022-05-21T14:13:31.005Z</time>
      </trkpt>
      <trkpt lat="43.7239" lon="1.46352">
        <ele>198.518507</ele>
        <time>2022-05-21T14:13:32.994Z</time>
      </trkpt>
      <trkpt lat="43.72392" lon="1.46367">
        <ele>198.770302</ele>
        <time>2022-05-21T14:13:36.000Z</time>
      </trkpt>
      <trkpt lat="43.72392" lon="1.46383">
        <ele>199.124633</ele>
        <time>2022-05-21T14:13:38.989Z</time>
      </trkpt>
      <trkpt lat="43.72395" lon="1.46398">
        <ele>199.48911</ele>
        <time>2022-05-21T14:13:41.000Z</time>
      </trkpt>
      <trkpt lat="43.72396" lon="1.46415">
        <ele>199.875216</ele>
        <time>2022-05-21T14:13:43.039Z</time>
      </trkpt>
      <trkpt lat="43.72397" lon="1.46428">
        <ele>200.179951</ele>
        <time>2022-05-21T14:13:44.990Z</time>
      </trkpt>
      <trkpt lat="43.72396" lon="1.46447">
        <ele>200.602757</ele>
        <time>2022-05-21T14:13:48.008Z</time>
      </trkpt>
      <trkpt lat="43.72397" lon="1.46461">
        <ele>200.925216</ele>
        <time>2022-05-21T14:13:50.017Z</time>
      </trkpt>
      <trkpt lat="43.72399" lon="1.46476">
        <ele>201.281703</ele>
        <time>2022-05-21T14:13:52.018Z</time>
      </trkpt>
      <trkpt lat="43.72399" lon="1.46489">
        <ele>201.569636</ele>
        <time>2022-05-21T14:13:54.010Z</time>
      </trkpt>
      <trkpt lat="43.72402" lon="1.46502">
        <ele>201.885634</ele>
        <time>2022-05-21T14:13:58.026Z</time>
      </trkpt>
      <trkpt lat="43.72408" lon="1.46516">
        <ele>202.261334</ele>
        <time>2022-05-21T14:14:02.039Z</time>
      </trkpt>
      <trkpt lat="43.72413" lon="1.46528">
        <ele>202.577165</ele>
        <time>2022-05-21T14:14:05.057Z</time>
      </trkpt>
      <trkpt lat="43.7242" lon="1.46549">
        <ele>203.096646</ele>
        <time>2022-05-21T14:14:06.021Z</time>
      </trkpt>
      <trkpt lat="43.72424" lon="1.46563">
        <ele>203.452696</ele>
        <time>2022-05-21T14:14:08.013Z</time>
      </trkpt>
      <trkpt lat="43.7243" lon="1.46578">
        <ele>203.829895</ele>
        <time>2022-05-21T14:14:09.032Z</time>
      </trkpt>
      <trkpt lat="43.72435" lon="1.46594">
        <ele>204.236209</ele>
        <time>2022-05-21T14:14:12.011Z</time>
      </trkpt>
      <trkpt lat="43.72442" lon="1.46604">
        <ele>204.71422</ele>
        <time>2022-05-21T14:14:15.034Z</time>
      </trkpt>
      <trkpt lat="43.72447" lon="1.46614">
        <ele>205.126403</ele>
        <time>2022-05-21T14:14:17.019Z</time>
      </trkpt>
      <trkpt lat="43.72454" lon="1.46625">
        <ele>205.593372</ele>
        <time>2022-05-21T14:14:20.019Z</time>
      </trkpt>
      <trkpt lat="43.72452" lon="1.4664">
        <ele>206.098403</ele>
        <time>2022-05-21T14:14:23.023Z</time>
      </trkpt>
      <trkpt lat="43.72453" lon="1.46657">
        <ele>206.654947</ele>
        <time>2022-05-21T14:14:25.011Z</time>
      </trkpt>
      <trkpt lat="43.72455" lon="1.4667">
        <ele>207.084587</ele>
        <time>2022-05-21T14:14:27.013Z</time>
      </trkpt>
      <trkpt lat="43.72458" lon="1.46682">
        <ele>207.507667</ele>
        <time>2022-05-21T14:14:28.997Z</time>
      </trkpt>
      <trkpt lat="43.72468" lon="1.46689">
        <ele>208.004954</ele>
        <time>2022-05-21T14:14:31.008Z</time>
      </trkpt>
      <trkpt lat="43.72477" lon="1.46689">
        <ele>208.427165</ele>
        <time>2022-05-21T14:14:33.006Z</time>
      </trkpt>
      <trkpt lat="43.72491" lon="1.46687">
        <ele>209.048405</ele>
        <time>2022-05-21T14:14:35.994Z</time>
      </trkpt>
      <trkpt lat="43.72503" lon="1.46684">
        <ele>209.61848</ele>
        <time>2022-05-21T14:14:39.018Z</time>
      </trkpt>
      <trkpt lat="43.72516" lon="1.46677">
        <ele>210.251756</ele>
        <time>2022-05-21T14:14:41.005Z</time>
      </trkpt>
      <trkpt lat="43.72521" lon="1.46665">
        <ele>210.698572</ele>
        <time>2022-05-21T14:14:45.033Z</time>
      </trkpt>
      <trkpt lat="43.72529" lon="1.46658">
        <ele>211.122417</ele>
        <time>2022-05-21T14:14:49.019Z</time>
      </trkpt>
      <trkpt lat="43.72537" lon="1.46652">
        <ele>211.546935</ele>
        <time>2022-05-21T14:14:52.009Z</time>
      </trkpt>
      <trkpt lat="43.72545" lon="1.46642">
        <ele>212.006389</ele>
        <time>2022-05-21T14:14:55.026Z</time>
      </trkpt>
      <trkpt lat="43.72548" lon="1.46628">
        <ele>212.439821</ele>
        <time>2022-05-21T14:15:00.033Z</time>
      </trkpt>
      <trkpt lat="43.72555" lon="1.46617">
        <ele>212.74112</ele>
        <time>2022-05-21T14:15:05.030Z</time>
      </trkpt>
      <trkpt lat="43.72552" lon="1.46602">
        <ele>213.050133</ele>
        <time>2022-05-21T14:15:10.025Z</time>
      </trkpt>
      <trkpt lat="43.72546" lon="1.46593">
        <ele>213.312489</ele>
        <time>2022-05-21T14:15:13.016Z</time>
      </trkpt>
      <trkpt lat="43.7254" lon="1.46582">
        <ele>213.572817</ele>
        <time>2022-05-21T14:15:17.035Z</time>
      </trkpt>
      <trkpt lat="43.72531" lon="1.46577">
        <ele>213.857135</ele>
        <time>2022-05-21T14:15:20.012Z</time>
      </trkpt>
      <trkpt lat="43.72521" lon="1.46573">
        <ele>214.135695</ele>
        <time>2022-05-21T14:15:23.033Z</time>
      </trkpt>
      <trkpt lat="43.72512" lon="1.46571">
        <ele>214.386833</ele>
        <time>2022-05-21T14:15:26.017Z</time>
      </trkpt>
      <trkpt lat="43.72503" lon="1.46569">
        <ele>214.637549</ele>
        <time>2022-05-21T14:15:28.011Z</time>
      </trkpt>
      <trkpt lat="43.72496" lon="1.46561">
        <ele>214.894126</ele>
        <time>2022-05-21T14:15:30.008Z</time>
      </trkpt>
      <trkpt lat="43.72489" lon="1.4655">
        <ele>215.19919</ele>
        <time>2022-05-21T14:15:33.018Z</time>
      </trkpt>
      <trkpt lat="43.72482" lon="1.46541">
        <ele>215.474505</ele>
        <time>2022-05-21T14:15:35.039Z</time>
      </trkpt>
      <trkpt lat="43.72475" lon="1.46523">
        <ele>215.865169</ele>
        <time>2022-05-21T14:15:37.030Z</time>
      </trkpt>
      <trkpt lat="43.72469" lon="1.46502">
        <ele>216.32321</ele>
        <time>2022-05-21T14:15:39.032Z</time>
      </trkpt>
      <trkpt lat="43.72468" lon="1.46482">
        <ele>216.724585</ele>
        <time>2022-05-21T14:15:41.013Z</time>
      </trkpt>
      <trkpt lat="43.72464" lon="1.46468">
        <ele>217.048685</ele>
        <time>2022-05-21T14:15:43.001Z</time>
      </trkpt>
      <trkpt lat="43.72458" lon="1.46452">
        <ele>217.403259</ele>
        <time>2022-05-21T14:15:46.002Z</time>
      </trkpt>
      <trkpt lat="43.72458" lon="1.46437">
        <ele>217.688499</ele>
        <time>2022-05-21T14:15:49.037Z</time>
      </trkpt>
      <trkpt lat="43.72457" lon="1.46419">
        <ele>218.024842</ele>
        <time>2022-05-21T14:15:52.021Z</time>
      </trkpt>
      <trkpt lat="43.72456" lon="1.46403">
        <ele>218.327467</ele>
        <time>2022-05-21T14:15:55.026Z</time>
      </trkpt>
      <trkpt lat="43.72454" lon="1.46388">
        <ele>218.608399</ele>
        <time>2022-05-21T14:15:57.014Z</time>
      </trkpt>
      <trkpt lat="43.72452" lon="1.46373">
        <ele>218.897446</ele>
        <time>2022-05-21T14:15:59.034Z</time>
      </trkpt>
      <trkpt lat="43.72452" lon="1.46356">
        <ele>219.225834</ele>
        <time>2022-05-21T14:16:02.006Z</time>
      </trkpt>
      <trkpt lat="43.72452" lon="1.46341">
        <ele>219.501755</ele>
        <time>2022-05-21T14:16:05.021Z</time>
      </trkpt>
      <trkpt lat="43.7245" lon="1.46325">
        <ele>219.801012</ele>
        <time>2022-05-21T14:16:08.015Z</time>
      </trkpt>
      <trkpt lat="43.72447" lon="1.46312">
        <ele>220.064906</ele>
        <time>2022-05-21T14:16:11.037Z</time>
      </trkpt>
      <trkpt lat="43.72442" lon="1.46298">
        <ele>220.354816</ele>
        <time>2022-05-21T14:16:15.002Z</time>
      </trkpt>
      <trkpt lat="43.72434" lon="1.46283">
        <ele>220.707709</ele>
        <time>2022-05-21T14:16:18.021Z</time>
      </trkpt>
      <trkpt lat="43.72429" lon="1.46264">
        <ele>221.082058</ele>
        <time>2022-05-21T14:16:21.030Z</time>
      </trkpt>
      <trkpt lat="43.72428" lon="1.46249">
        <ele>221.357271</ele>
        <time>2022-05-21T14:16:24.023Z</time>
      </trkpt>
      <trkpt lat="43.72426" lon="1.46235">
        <ele>221.634339</ele>
        <time>2022-05-21T14:16:27.054Z</time>
      </trkpt>
      <trkpt lat="43.72424" lon="1.46216">
        <ele>221.99237</ele>
        <time>2022-05-21T14:16:30.014Z</time>
      </trkpt>
      <trkpt lat="43.72433" lon="1.46223">
        <ele>222.247107</ele>
        <time>2022-05-21T14:16:41.021Z</time>
      </trkpt>
      <trkpt lat="43.72437" lon="1.46235">
        <ele>222.483845</ele>
        <time>2022-05-21T14:16:45.011Z</time>
      </trkpt>
      <trkpt lat="43.72441" lon="1.46247">
        <ele>222.727188</ele>
        <time>2022-05-21T14:16:48.031Z</time>
      </trkpt>
      <trkpt lat="43.72445" lon="1.4626">
        <ele>222.974856</ele>
        <time>2022-05-21T14:16:51.033Z</time>
      </trkpt>
      <trkpt lat="43.72448" lon="1.46272">
        <ele>223.19978</ele>
        <time>2022-05-21T14:16:54.039Z</time>
      </trkpt>
      <trkpt lat="43.72453" lon="1.46284">
        <ele>223.447628</ele>
        <time>2022-05-21T14:16:57.033Z</time>
      </trkpt>
      <trkpt lat="43.72458" lon="1.46295">
        <ele>223.676852</ele>
        <time>2022-05-21T14:17:00.044Z</time>
      </trkpt>
      <trkpt lat="43.72464" lon="1.46306">
        <ele>223.919386</ele>
        <time>2022-05-21T14:17:03.019Z</time>
      </trkpt>
      <trkpt lat="43.72472" lon="1.46322">
        <ele>224.26205</ele>
        <time>2022-05-21T14:17:06.012Z</time>
      </trkpt>
      <trkpt lat="43.72478" lon="1.46335">
        <ele>224.548596</ele>
        <time>2022-05-21T14:17:09.024Z</time>
      </trkpt>
      <trkpt lat="43.72482" lon="1.46349">
        <ele>224.812887</ele>
        <time>2022-05-21T14:17:12.022Z</time>
      </trkpt>
      <trkpt lat="43.72485" lon="1.46361">
        <ele>225.045232</ele>
        <time>2022-05-21T14:17:14.019Z</time>
      </trkpt>
      <trkpt lat="43.72487" lon="1.46376">
        <ele>225.322155</ele>
        <time>2022-05-21T14:17:17.036Z</time>
      </trkpt>
      <trkpt lat="43.7249" lon="1.4639">
        <ele>225.581331</ele>
        <time>2022-05-21T14:17:22.035Z</time>
      </trkpt>
      <trkpt lat="43.72494" lon="1.46407">
        <ele>225.89767</ele>
        <time>2022-05-21T14:17:26.023Z</time>
      </trkpt>
      <trkpt lat="43.72495" lon="1.4642">
        <ele>226.129583</ele>
        <time>2022-05-21T14:17:29.015Z</time>
      </trkpt>
      <trkpt lat="43.72499" lon="1.46435">
        <ele>226.416019</ele>
        <time>2022-05-21T14:17:32.014Z</time>
      </trkpt>
      <trkpt lat="43.725" lon="1.46448">
        <ele>226.390804</ele>
        <time>2022-05-21T14:17:35.026Z</time>
      </trkpt>
      <trkpt lat="43.72498" lon="1.46463">
        <ele>226.150586</ele>
        <time>2022-05-21T14:17:39.028Z</time>
      </trkpt>
      <trkpt lat="43.72497" lon="1.46482">
        <ele>225.858369</ele>
        <time>2022-05-21T14:17:42.025Z</time>
      </trkpt>
      <trkpt lat="43.72496" lon="1.46499">
        <ele>225.596949</ele>
        <time>2022-05-21T14:17:45.023Z</time>
      </trkpt>
      <trkpt lat="43.72496" lon="1.46513">
        <ele>225.379429</ele>
        <time>2022-05-21T14:17:47.023Z</time>
      </trkpt>
      <trkpt lat="43.72503" lon="1.46526">
        <ele>225.121514</ele>
        <time>2022-05-21T14:17:50.026Z</time>
      </trkpt>
      <trkpt lat="43.72511" lon="1.46533">
        <ele>224.920075</ele>
        <time>2022-05-21T14:17:52.029Z</time>
      </trkpt>
      <trkpt lat="43.7252" lon="1.46538">
        <ele>224.715204</ele>
        <time>2022-05-21T14:17:55.005Z</time>
      </trkpt>
      <trkpt lat="43.7253" lon="1.46541">
        <ele>224.487079</ele>
        <time>2022-05-21T14:17:59.028Z</time>
      </trkpt>
      <trkpt lat="43.7254" lon="1.46547">
        <ele>224.262248</ele>
        <time>2022-05-21T14:18:02.036Z</time>
      </trkpt>
      <trkpt lat="43.72549" lon="1.46552">
        <ele>224.043694</ele>
        <time>2022-05-21T14:18:04.031Z</time>
      </trkpt>
      <trkpt lat="43.72565" lon="1.46553">
        <ele>223.710725</ele>
        <time>2022-05-21T14:18:06.999Z</time>
      </trkpt>
      <trkpt lat="43.72574" lon="1.46555">
        <ele>223.511502</ele>
        <time>2022-05-21T14:18:11.009Z</time>
      </trkpt>
      <trkpt lat="43.72585" lon="1.4656">
        <ele>223.265399</ele>
        <time>2022-05-21T14:18:19.013Z</time>
      </trkpt>
      <trkpt lat="43.72595" lon="1.46566">
        <ele>223.017673</ele>
        <time>2022-05-21T14:18:26.029Z</time>
      </trkpt>
      <trkpt lat="43.72605" lon="1.4657">
        <ele>222.805561</ele>
        <time>2022-05-21T14:18:30.021Z</time>
      </trkpt>
      <trkpt lat="43.72607" lon="1.46568">
        <ele>220.999826</ele>
        <time>2022-05-21T14:19:40.053Z</time>
      </trkpt>
      <trkpt lat="43.726" lon="1.46579">
        <ele>220.007279</ele>
        <time>2022-05-21T14:19:45.022Z</time>
      </trkpt>
      <trkpt lat="43.72593" lon="1.46588">
        <ele>219.160442</ele>
        <time>2022-05-21T14:19:49.041Z</time>
      </trkpt>
      <trkpt lat="43.72585" lon="1.46598">
        <ele>218.204348</ele>
        <time>2022-05-21T14:19:53.012Z</time>
      </trkpt>
      <trkpt lat="43.72579" lon="1.46609">
        <ele>217.278257</ele>
        <time>2022-05-21T14:19:57.029Z</time>
      </trkpt>
      <trkpt lat="43.72574" lon="1.4662">
        <ele>216.443174</ele>
        <time>2022-05-21T14:20:00.039Z</time>
      </trkpt>
      <trkpt lat="43.72565" lon="1.46626">
        <ele>215.522037</ele>
        <time>2022-05-21T14:20:06.024Z</time>
      </trkpt>
      <trkpt lat="43.72559" lon="1.46637">
        <ele>214.64177</ele>
        <time>2022-05-21T14:20:10.007Z</time>
      </trkpt>
      <trkpt lat="43.72557" lon="1.46658">
        <ele>213.207651</ele>
        <time>2022-05-21T14:20:21.039Z</time>
      </trkpt>
      <trkpt lat="43.72563" lon="1.46668">
        <ele>212.323023</ele>
        <time>2022-05-21T14:20:26.030Z</time>
      </trkpt>
      <trkpt lat="43.72574" lon="1.46668">
        <ele>211.32579</ele>
        <time>2022-05-21T14:20:32.030Z</time>
      </trkpt>
      <trkpt lat="43.72583" lon="1.46662">
        <ele>210.446021</ele>
        <time>2022-05-21T14:20:36.001Z</time>
      </trkpt>
      <trkpt lat="43.72593" lon="1.46664">
        <ele>209.477369</ele>
        <time>2022-05-21T14:20:39.016Z</time>
      </trkpt>
      <trkpt lat="43.72604" lon="1.46666">
        <ele>208.464268</ele>
        <time>2022-05-21T14:20:42.010Z</time>
      </trkpt>
      <trkpt lat="43.72616" lon="1.4667">
        <ele>207.361241</ele>
        <time>2022-05-21T14:20:45.032Z</time>
      </trkpt>
      <trkpt lat="43.72625" lon="1.46675">
        <ele>206.457924</ele>
        <time>2022-05-21T14:20:47.020Z</time>
      </trkpt>
      <trkpt lat="43.72635" lon="1.46682">
        <ele>206.784727</ele>
        <time>2022-05-21T14:20:50.029Z</time>
      </trkpt>
      <trkpt lat="43.72646" lon="1.46688">
        <ele>207.588788</ele>
        <time>2022-05-21T14:20:53.030Z</time>
      </trkpt>
      <trkpt lat="43.72656" lon="1.46691">
        <ele>208.245466</ele>
        <time>2022-05-21T14:20:57.012Z</time>
      </trkpt>
      <trkpt lat="43.72665" lon="1.46691">
        <ele>208.870211</ele>
        <time>2022-05-21T14:21:01.015Z</time>
      </trkpt>
      <trkpt lat="43.72678" lon="1.46693">
        <ele>209.789761</ele>
        <time>2022-05-21T14:21:05.016Z</time>
      </trkpt>
      <trkpt lat="43.7269" lon="1.46697">
        <ele>210.604757</ele>
        <time>2022-05-21T14:21:08.013Z</time>
      </trkpt>
      <trkpt lat="43.72702" lon="1.46702">
        <ele>211.432069</ele>
        <time>2022-05-21T14:21:11.017Z</time>
      </trkpt>
      <trkpt lat="43.72714" lon="1.46705">
        <ele>212.265883</ele>
        <time>2022-05-21T14:21:14.003Z</time>
      </trkpt>
      <trkpt lat="43.72723" lon="1.46709">
        <ele>212.904861</ele>
        <time>2022-05-21T14:21:18.003Z</time>
      </trkpt>
      <trkpt lat="43.72734" lon="1.46709">
        <ele>213.651903</ele>
        <time>2022-05-21T14:21:23.018Z</time>
      </trkpt>
      <trkpt lat="43.72743" lon="1.46712">
        <ele>214.284949</ele>
        <time>2022-05-21T14:21:26.010Z</time>
      </trkpt>
      <trkpt lat="43.72752" lon="1.46719">
        <ele>215.006723</ele>
        <time>2022-05-21T14:21:29.988Z</time>
      </trkpt>
      <trkpt lat="43.72759" lon="1.46728">
        <ele>215.643075</ele>
        <time>2022-05-21T14:21:33.037Z</time>
      </trkpt>
      <trkpt lat="43.72789" lon="1.46731">
        <ele>217.687108</ele>
        <time>2022-05-21T14:23:11.040Z</time>
      </trkpt>
      <trkpt lat="43.72794" lon="1.4672">
        <ele>218.298068</ele>
        <time>2022-05-21T14:23:32.023Z</time>
      </trkpt>
      <trkpt lat="43.72802" lon="1.4671">
        <ele>218.574451</ele>
        <time>2022-05-21T14:23:37.049Z</time>
      </trkpt>
      <trkpt lat="43.7281" lon="1.46703">
        <ele>218.729583</ele>
        <time>2022-05-21T14:23:41.043Z</time>
      </trkpt>
      <trkpt lat="43.7282" lon="1.46695">
        <ele>218.918494</ele>
        <time>2022-05-21T14:23:45.012Z</time>
      </trkpt>
      <trkpt lat="43.72826" lon="1.46685">
        <ele>219.077912</ele>
        <time>2022-05-21T14:23:49.041Z</time>
      </trkpt>
      <trkpt lat="43.72836" lon="1.46687">
        <ele>219.252338</ele>
        <time>2022-05-21T14:23:54.036Z</time>
      </trkpt>
      <trkpt lat="43.72846" lon="1.46686">
        <ele>219.418897</ele>
        <time>2022-05-21T14:23:57.030Z</time>
      </trkpt>
      <trkpt lat="43.72855" lon="1.4668">
        <ele>219.584879</ele>
        <time>2022-05-21T14:24:03.036Z</time>
      </trkpt>
      <trkpt lat="43.7286" lon="1.46667">
        <ele>219.758961</ele>
        <time>2022-05-21T14:24:08.012Z</time>
      </trkpt>
      <trkpt lat="43.72866" lon="1.46656">
        <ele>219.922843</ele>
        <time>2022-05-21T14:24:11.034Z</time>
      </trkpt>
      <trkpt lat="43.72877" lon="1.46657">
        <ele>220.10791</ele>
        <time>2022-05-21T14:24:18.027Z</time>
      </trkpt>
      <trkpt lat="43.72887" lon="1.46665">
        <ele>220.295593</ele>
        <time>2022-05-21T14:24:22.019Z</time>
      </trkpt>
      <trkpt lat="43.72896" lon="1.46674">
        <ele>220.470895</ele>
        <time>2022-05-21T14:24:25.007Z</time>
      </trkpt>
      <trkpt lat="43.72905" lon="1.46677">
        <ele>220.622961</ele>
        <time>2022-05-21T14:24:29.023Z</time>
      </trkpt>
      <trkpt lat="43.72912" lon="1.46684">
        <ele>220.773202</ele>
        <time>2022-05-21T14:24:33.043Z</time>
      </trkpt>
      <trkpt lat="43.72922" lon="1.46691">
        <ele>220.953532</ele>
        <time>2022-05-21T14:24:36.023Z</time>
      </trkpt>
      <trkpt lat="43.72929" lon="1.46704">
        <ele>221.146309</ele>
        <time>2022-05-21T14:24:39.003Z</time>
      </trkpt>
      <trkpt lat="43.72934" lon="1.46717">
        <ele>221.326692</ele>
        <time>2022-05-21T14:24:42.006Z</time>
      </trkpt>
      <trkpt lat="43.72943" lon="1.46729">
        <ele>220.812837</ele>
        <time>2022-05-21T14:24:45.017Z</time>
      </trkpt>
      <trkpt lat="43.72952" lon="1.46742">
        <ele>219.954283</ele>
        <time>2022-05-21T14:24:48.020Z</time>
      </trkpt>
      <trkpt lat="43.72964" lon="1.46747">
        <ele>219.072136</ele>
        <time>2022-05-21T14:24:51.009Z</time>
      </trkpt>
      <trkpt lat="43.72974" lon="1.46754">
        <ele>218.324896</ele>
        <time>2022-05-21T14:24:53.016Z</time>
      </trkpt>
      <trkpt lat="43.72986" lon="1.46759">
        <ele>217.458752</ele>
        <time>2022-05-21T14:24:56.027Z</time>
      </trkpt>
      <trkpt lat="43.72996" lon="1.46765">
        <ele>216.684871</ele>
        <time>2022-05-21T14:24:58.030Z</time>
      </trkpt>
      <trkpt lat="43.73005" lon="1.46771">
        <ele>216.02684</ele>
        <time>2022-05-21T14:25:00.019Z</time>
      </trkpt>
      <trkpt lat="43.73014" lon="1.4678">
        <ele>215.259482</ele>
        <time>2022-05-21T14:25:03.014Z</time>
      </trkpt>
      <trkpt lat="43.73023" lon="1.46791">
        <ele>214.430445</ele>
        <time>2022-05-21T14:25:06.008Z</time>
      </trkpt>
      <trkpt lat="43.7303" lon="1.46799">
        <ele>213.803411</ele>
        <time>2022-05-21T14:25:08.013Z</time>
      </trkpt>
      <trkpt lat="43.73039" lon="1.46807">
        <ele>213.083248</ele>
        <time>2022-05-21T14:25:11.004Z</time>
      </trkpt>
      <trkpt lat="43.73048" lon="1.46814">
        <ele>212.399868</ele>
        <time>2022-05-21T14:25:23.012Z</time>
      </trkpt>
      <trkpt lat="43.73054" lon="1.46823">
        <ele>211.758413</ele>
        <time>2022-05-21T14:25:26.021Z</time>
      </trkpt>
      <trkpt lat="43.73065" lon="1.46835">
        <ele>210.819074</ele>
        <time>2022-05-21T14:25:31.017Z</time>
      </trkpt>
      <trkpt lat="43.73075" lon="1.4684">
        <ele>210.120684</ele>
        <time>2022-05-21T14:25:34.018Z</time>
      </trkpt>
      <trkpt lat="43.7308" lon="1.46854">
        <ele>209.323514</ele>
        <time>2022-05-21T14:25:37.007Z</time>
      </trkpt>
      <trkpt lat="43.7308" lon="1.46868">
        <ele>209.314205</ele>
        <time>2022-05-21T14:25:42.019Z</time>
      </trkpt>
      <trkpt lat="43.73073" lon="1.46878">
        <ele>209.639593</ele>
        <time>2022-05-21T14:25:46.032Z</time>
      </trkpt>
      <trkpt lat="43.73063" lon="1.46879">
        <ele>210.001165</ele>
        <time>2022-05-21T14:25:52.014Z</time>
      </trkpt>
      <trkpt lat="43.73054" lon="1.46873">
        <ele>210.347511</ele>
        <time>2022-05-21T14:25:56.035Z</time>
      </trkpt>
      <trkpt lat="43.73046" lon="1.46865">
        <ele>210.689536</ele>
        <time>2022-05-21T14:26:00.016Z</time>
      </trkpt>
      <trkpt lat="43.73036" lon="1.46859">
        <ele>211.046155</ele>
        <time>2022-05-21T14:26:04.031Z</time>
      </trkpt>
      <trkpt lat="43.73027" lon="1.46855">
        <ele>211.378774</ele>
        <time>2022-05-21T14:26:07.000Z</time>
      </trkpt>
      <trkpt lat="43.73015" lon="1.46853">
        <ele>211.80894</ele>
        <time>2022-05-21T14:26:11.017Z</time>
      </trkpt>
      <trkpt lat="43.73004" lon="1.46861">
        <ele>212.233594</ele>
        <time>2022-05-21T14:26:16.020Z</time>
      </trkpt>
      <trkpt lat="43.72995" lon="1.4687">
        <ele>212.599508</ele>
        <time>2022-05-21T14:26:21.023Z</time>
      </trkpt>
      <trkpt lat="43.72983" lon="1.46871">
        <ele>213.008094</ele>
        <time>2022-05-21T14:26:27.028Z</time>
      </trkpt>
      <trkpt lat="43.72974" lon="1.46872">
        <ele>213.327197</ele>
        <time>2022-05-21T14:26:31.020Z</time>
      </trkpt>
      <trkpt lat="43.72972" lon="1.46856">
        <ele>213.726709</ele>
        <time>2022-05-21T14:26:37.018Z</time>
      </trkpt>
      <trkpt lat="43.72978" lon="1.46844">
        <ele>214.089676</ele>
        <time>2022-05-21T14:26:41.027Z</time>
      </trkpt>
      <trkpt lat="43.72978" lon="1.4683">
        <ele>214.431019</ele>
        <time>2022-05-21T14:26:45.024Z</time>
      </trkpt>
      <trkpt lat="43.72974" lon="1.46815">
        <ele>214.833521</ele>
        <time>2022-05-21T14:26:49.025Z</time>
      </trkpt>
      <trkpt lat="43.72965" lon="1.46808">
        <ele>215.200073</ele>
        <time>2022-05-21T14:26:53.030Z</time>
      </trkpt>
      <trkpt lat="43.72954" lon="1.46806">
        <ele>215.423481</ele>
        <time>2022-05-21T14:26:56.036Z</time>
      </trkpt>
      <trkpt lat="43.72944" lon="1.46803">
        <ele>215.634489</ele>
        <time>2022-05-21T14:27:00.030Z</time>
      </trkpt>
      <trkpt lat="43.72934" lon="1.46802">
        <ele>215.835837</ele>
        <time>2022-05-21T14:27:04.029Z</time>
      </trkpt>
      <trkpt lat="43.72925" lon="1.46798">
        <ele>216.018481</ele>
        <time>2022-05-21T14:27:07.028Z</time>
      </trkpt>
      <trkpt lat="43.72916" lon="1.46793">
        <ele>216.21327</ele>
        <time>2022-05-21T14:27:10.026Z</time>
      </trkpt>
      <trkpt lat="43.7291" lon="1.46782">
        <ele>216.404058</ele>
        <time>2022-05-21T14:27:13.024Z</time>
      </trkpt>
      <trkpt lat="43.72906" lon="1.46771">
        <ele>216.586826</ele>
        <time>2022-05-21T14:27:15.030Z</time>
      </trkpt>
      <trkpt lat="43.72901" lon="1.46759">
        <ele>216.782942</ele>
        <time>2022-05-21T14:27:18.016Z</time>
      </trkpt>
      <trkpt lat="43.7289" lon="1.46759">
        <ele>217.003419</ele>
        <time>2022-05-21T14:27:22.027Z</time>
      </trkpt>
      <trkpt lat="43.72878" lon="1.46759">
        <ele>217.241836</ele>
        <time>2022-05-21T14:27:26.028Z</time>
      </trkpt>
      <trkpt lat="43.72867" lon="1.46763">
        <ele>217.470027</ele>
        <time>2022-05-21T14:27:29.017Z</time>
      </trkpt>
      <trkpt lat="43.72857" lon="1.46768">
        <ele>217.680734</ele>
        <time>2022-05-21T14:27:32.054Z</time>
      </trkpt>
      <trkpt lat="43.7285" lon="1.46777">
        <ele>217.869031</ele>
        <time>2022-05-21T14:27:35.029Z</time>
      </trkpt>
      <trkpt lat="43.72843" lon="1.46788">
        <ele>218.08157</ele>
        <time>2022-05-21T14:27:38.039Z</time>
      </trkpt>
      <trkpt lat="43.7283" lon="1.46792">
        <ele>218.338662</ele>
        <time>2022-05-21T14:27:41.028Z</time>
      </trkpt>
      <trkpt lat="43.7282" lon="1.46795">
        <ele>218.533529</ele>
        <time>2022-05-21T14:27:44.030Z</time>
      </trkpt>
      <trkpt lat="43.72817" lon="1.46807">
        <ele>218.725334</ele>
        <time>2022-05-21T14:27:49.031Z</time>
      </trkpt>
      <trkpt lat="43.72824" lon="1.46822">
        <ele>218.547603</ele>
        <time>2022-05-21T14:27:54.025Z</time>
      </trkpt>
      <trkpt lat="43.72831" lon="1.46836">
        <ele>218.131965</ele>
        <time>2022-05-21T14:27:57.038Z</time>
      </trkpt>
      <trkpt lat="43.72835" lon="1.4685">
        <ele>217.768131</ele>
        <time>2022-05-21T14:28:00.027Z</time>
      </trkpt>
      <trkpt lat="43.72838" lon="1.46864">
        <ele>217.398836</ele>
        <time>2022-05-21T14:28:03.026Z</time>
      </trkpt>
      <trkpt lat="43.7284" lon="1.46881">
        <ele>216.98562</ele>
        <time>2022-05-21T14:28:06.046Z</time>
      </trkpt>
      <trkpt lat="43.72842" lon="1.46893">
        <ele>216.677873</ele>
        <time>2022-05-21T14:28:09.019Z</time>
      </trkpt>
      <trkpt lat="43.7285" lon="1.46905">
        <ele>216.311369</ele>
        <time>2022-05-21T14:28:14.023Z</time>
      </trkpt>
      <trkpt lat="43.72853" lon="1.46917">
        <ele>215.996396</ele>
        <time>2022-05-21T14:28:17.034Z</time>
      </trkpt>
      <trkpt lat="43.72864" lon="1.46914">
        <ele>215.622028</ele>
        <time>2022-05-21T14:28:23.020Z</time>
      </trkpt>
      <trkpt lat="43.72873" lon="1.46918">
        <ele>215.299591</ele>
        <time>2022-05-21T14:28:27.024Z</time>
      </trkpt>
      <trkpt lat="43.72883" lon="1.46924">
        <ele>214.924284</ele>
        <time>2022-05-21T14:28:30.025Z</time>
      </trkpt>
      <trkpt lat="43.72892" lon="1.4693">
        <ele>214.595641</ele>
        <time>2022-05-21T14:28:33.028Z</time>
      </trkpt>
      <trkpt lat="43.72902" lon="1.46931">
        <ele>214.269737</ele>
        <time>2022-05-21T14:28:37.013Z</time>
      </trkpt>
      <trkpt lat="43.72911" lon="1.4694">
        <ele>165.6</ele>
        <time>2022-05-21T14:28:40.012Z</time>
      </trkpt>
      <trkpt lat="43.72934" lon="1.46947">
        <ele>163.1</ele>
      </trkpt>
      <trkpt lat="43.72963" lon="1.46956">
        <ele>158.9</ele>
      </trkpt>
      <trkpt lat="43.72979" lon="1.46984">
        <ele>155.3</ele>
      </trkpt>
      <trkpt lat="43.72991" lon="1.46984">
        <ele>153.9</ele>
      </trkpt>
      <trkpt lat="43.72992" lon="1.46995">
        <ele>152.6</ele>
      </trkpt>
      <trkpt lat="43.72977" lon="1.47007">
        <ele>153.9</ele>
      </trkpt>
      <trkpt lat="43.72963" lon="1.47009">
        <ele>155.7</ele>
      </trkpt>
      <trkpt lat="43.72944" lon="1.47004">
        <ele>158.8</ele>
      </trkpt>
      <trkpt lat="43.72923" lon="1.46987">
        <ele>162.2</ele>
      </trkpt>
      <trkpt lat="43.72884" lon="1.47018">
        <ele>157.9</ele>
      </trkpt>
      <trkpt lat="43.72911" lon="1.47062">
        <ele>154.4</ele>
      </trkpt>
      <trkpt lat="43.72929" lon="1.47131">
        <ele>147</ele>
      </trkpt>
      <trkpt lat="43.72945" lon="1.47143">
        <ele>149</ele>
      </trkpt>
      <trkpt lat="43.72995" lon="1.47154">
        <ele>147.6</ele>
      </trkpt>
      <trkpt lat="43.73007" lon="1.47161">
        <ele>146.9</ele>
      </trkpt>
      <trkpt lat="43.73015" lon="1.47144">
        <ele>147.3</ele>
      </trkpt>
      <trkpt lat="43.73015" lon="1.47113">
        <ele>147.9</ele>
      </trkpt>
      <trkpt lat="43.73039" lon="1.47062">
        <ele>147.6</ele>
      </trkpt>
      <trkpt lat="43.73044" lon="1.47044">
        <ele>147.6</ele>
        <time>2022-05-21T14:30:43.051Z</time>
      </trkpt>
      <trkpt lat="43.73046" lon="1.47026">
        <ele>147.7</ele>
        <time>2022-05-21T14:30:48.018Z</time>
      </trkpt>
      <trkpt lat="43.73047" lon="1.46985">
        <ele>148.4</ele>
        <time>2022-05-21T14:31:18.021Z</time>
      </trkpt>
      <trkpt lat="43.73064" lon="1.46969">
        <ele>199.957109</ele>
        <time>2022-05-21T14:31:22.020Z</time>
      </trkpt>
      <trkpt lat="43.73068" lon="1.46954">
        <ele>199.853201</ele>
        <time>2022-05-21T14:31:25.017Z</time>
      </trkpt>
      <trkpt lat="43.73071" lon="1.46941">
        <ele>199.762988</ele>
        <time>2022-05-21T14:31:30.023Z</time>
      </trkpt>
      <trkpt lat="43.73066" lon="1.46915">
        <ele>199.591845</ele>
        <time>2022-05-21T14:31:33.023Z</time>
      </trkpt>
      <trkpt lat="43.73067" lon="1.469">
        <ele>199.498895</ele>
        <time>2022-05-21T14:31:39.020Z</time>
      </trkpt>
      <trkpt lat="43.73079" lon="1.46874">
        <ele>199.297956</ele>
        <time>2022-05-21T14:31:46.015Z</time>
      </trkpt>
      <trkpt lat="43.73084" lon="1.46862">
        <ele>199.212306</ele>
        <time>2022-05-21T14:31:49.033Z</time>
      </trkpt>
      <trkpt lat="43.73089" lon="1.46852">
        <ele>199.13137</ele>
        <time>2022-05-21T14:31:53.024Z</time>
      </trkpt>
      <trkpt lat="43.73092" lon="1.4684">
        <ele>199.046112</ele>
        <time>2022-05-21T14:31:56.014Z</time>
      </trkpt>
      <trkpt lat="43.73099" lon="1.4683">
        <ele>198.957642</ele>
        <time>2022-05-21T14:32:00.032Z</time>
      </trkpt>
      <trkpt lat="43.73109" lon="1.46819">
        <ele>198.840586</ele>
        <time>2022-05-21T14:32:05.026Z</time>
      </trkpt>
      <trkpt lat="43.7312" lon="1.46807">
        <ele>198.719742</ele>
        <time>2022-05-21T14:32:09.041Z</time>
      </trkpt>
      <trkpt lat="43.73127" lon="1.46798">
        <ele>198.632362</ele>
        <time>2022-05-21T14:32:12.037Z</time>
      </trkpt>
      <trkpt lat="43.73131" lon="1.46787">
        <ele>198.549584</ele>
        <time>2022-05-21T14:32:15.022Z</time>
      </trkpt>
      <trkpt lat="43.73141" lon="1.46771">
        <ele>198.456734</ele>
        <time>2022-05-21T14:32:17.022Z</time>
      </trkpt>
      <trkpt lat="43.73144" lon="1.46753">
        <ele>198.454461</ele>
        <time>2022-05-21T14:32:21.033Z</time>
      </trkpt>
      <trkpt lat="43.73147" lon="1.46739">
        <ele>198.4527</ele>
        <time>2022-05-21T14:32:25.032Z</time>
      </trkpt>
      <trkpt lat="43.73149" lon="1.46719">
        <ele>198.450165</ele>
        <time>2022-05-21T14:32:27.012Z</time>
      </trkpt>
      <trkpt lat="43.73149" lon="1.46705">
        <ele>198.448553</ele>
        <time>2022-05-21T14:32:32.019Z</time>
      </trkpt>
      <trkpt lat="43.73156" lon="1.46693">
        <ele>198.446607</ele>
        <time>2022-05-21T14:32:42.020Z</time>
      </trkpt>
      <trkpt lat="43.73165" lon="1.46682">
        <ele>198.444484</ele>
        <time>2022-05-21T14:32:50.014Z</time>
      </trkpt>
      <trkpt lat="43.73171" lon="1.46672">
        <ele>198.442938</ele>
        <time>2022-05-21T14:32:56.031Z</time>
      </trkpt>
      <trkpt lat="43.73174" lon="1.46659">
        <ele>198.441259</ele>
        <time>2022-05-21T14:33:02.013Z</time>
      </trkpt>
      <trkpt lat="43.73181" lon="1.46649">
        <ele>198.439587</ele>
        <time>2022-05-21T14:33:04.034Z</time>
      </trkpt>
      <trkpt lat="43.73185" lon="1.46636">
        <ele>198.437824</ele>
        <time>2022-05-21T14:33:08.043Z</time>
      </trkpt>
      <trkpt lat="43.7319" lon="1.46623">
        <ele>198.436086</ele>
        <time>2022-05-21T14:33:13.032Z</time>
      </trkpt>
      <trkpt lat="43.73195" lon="1.46611">
        <ele>198.434366</ele>
        <time>2022-05-21T14:33:16.051Z</time>
      </trkpt>
      <trkpt lat="43.73202" lon="1.46593">
        <ele>198.431873</ele>
        <time>2022-05-21T14:33:21.002Z</time>
      </trkpt>
      <trkpt lat="43.73209" lon="1.46583">
        <ele>198.430221</ele>
        <time>2022-05-21T14:33:25.010Z</time>
      </trkpt>
      <trkpt lat="43.73216" lon="1.46572">
        <ele>198.428349</ele>
        <time>2022-05-21T14:33:27.044Z</time>
      </trkpt>
      <trkpt lat="43.73226" lon="1.46557">
        <ele>198.477801</ele>
        <time>2022-05-21T14:33:31.021Z</time>
      </trkpt>
      <trkpt lat="43.73232" lon="1.46548">
        <ele>198.553907</ele>
        <time>2022-05-21T14:33:34.025Z</time>
      </trkpt>
      <trkpt lat="43.73236" lon="1.46535">
        <ele>198.639653</ele>
        <time>2022-05-21T14:33:36.017Z</time>
      </trkpt>
      <trkpt lat="43.73245" lon="1.46519">
        <ele>198.761228</ele>
        <time>2022-05-21T14:33:40.042Z</time>
      </trkpt>
      <trkpt lat="43.73252" lon="1.46497">
        <ele>198.907574</ele>
        <time>2022-05-21T14:33:45.056Z</time>
      </trkpt>
      <trkpt lat="43.73259" lon="1.46487">
        <ele>198.99073</ele>
        <time>2022-05-21T14:33:48.054Z</time>
      </trkpt>
      <trkpt lat="43.73267" lon="1.46475">
        <ele>199.089348</ele>
        <time>2022-05-21T14:33:51.051Z</time>
      </trkpt>
      <trkpt lat="43.73274" lon="1.46464">
        <ele>199.172873</ele>
        <time>2022-05-21T14:33:52.019Z</time>
      </trkpt>
      <trkpt lat="43.73278" lon="1.46451">
        <ele>199.258316</ele>
        <time>2022-05-21T14:33:56.031Z</time>
      </trkpt>
      <trkpt lat="43.73286" lon="1.46442">
        <ele>199.347796</ele>
        <time>2022-05-21T14:34:01.031Z</time>
      </trkpt>
      <trkpt lat="43.73307" lon="1.46427">
        <ele>199.544902</ele>
        <time>2022-05-21T14:34:25.058Z</time>
      </trkpt>
      <trkpt lat="43.73314" lon="1.46412">
        <ele>199.646304</ele>
        <time>2022-05-21T14:34:29.023Z</time>
      </trkpt>
      <trkpt lat="43.7332" lon="1.46399">
        <ele>199.741705</ele>
        <time>2022-05-21T14:34:32.035Z</time>
      </trkpt>
      <trkpt lat="43.73327" lon="1.46384">
        <ele>199.854513</ele>
        <time>2022-05-21T14:34:35.028Z</time>
      </trkpt>
      <trkpt lat="43.73332" lon="1.46373">
        <ele>199.928387</ele>
        <time>2022-05-21T14:34:37.040Z</time>
      </trkpt>
      <trkpt lat="43.73339" lon="1.46357">
        <ele>199.990668</ele>
        <time>2022-05-21T14:34:40.019Z</time>
      </trkpt>
      <trkpt lat="43.73345" lon="1.46345">
        <ele>200.041781</ele>
        <time>2022-05-21T14:34:43.021Z</time>
      </trkpt>
      <trkpt lat="43.73351" lon="1.46331">
        <ele>200.098605</ele>
        <time>2022-05-21T14:34:46.034Z</time>
      </trkpt>
      <trkpt lat="43.73357" lon="1.4632">
        <ele>200.143109</ele>
        <time>2022-05-21T14:34:48.032Z</time>
      </trkpt>
      <trkpt lat="43.73363" lon="1.46302">
        <ele>200.210339</ele>
        <time>2022-05-21T14:34:51.043Z</time>
      </trkpt>
      <trkpt lat="43.73365" lon="1.4629">
        <ele>200.254295</ele>
        <time>2022-05-21T14:34:53.034Z</time>
      </trkpt>
      <trkpt lat="43.73359" lon="1.46278">
        <ele>200.303487</ele>
        <time>2022-05-21T14:34:55.030Z</time>
      </trkpt>
      <trkpt lat="43.73349" lon="1.46271">
        <ele>200.355589</ele>
        <time>2022-05-21T14:34:57.004Z</time>
      </trkpt>
      <trkpt lat="43.73338" lon="1.46269">
        <ele>200.408621</ele>
        <time>2022-05-21T14:34:59.012Z</time>
      </trkpt>
      <trkpt lat="43.73327" lon="1.46268">
        <ele>200.459687</ele>
        <time>2022-05-21T14:35:01.029Z</time>
      </trkpt>
      <trkpt lat="43.73317" lon="1.46266">
        <ele>200.505519</ele>
        <time>2022-05-21T14:35:03.066Z</time>
      </trkpt>
      <trkpt lat="43.73307" lon="1.46262">
        <ele>200.55622</ele>
        <time>2022-05-21T14:35:05.036Z</time>
      </trkpt>
      <trkpt lat="43.73297" lon="1.46257">
        <ele>200.606481</ele>
        <time>2022-05-21T14:35:07.023Z</time>
      </trkpt>
      <trkpt lat="43.73289" lon="1.46247">
        <ele>200.65684</ele>
        <time>2022-05-21T14:35:09.033Z</time>
      </trkpt>
      <trkpt lat="43.73282" lon="1.46238">
        <ele>200.70317</ele>
        <time>2022-05-21T14:35:11.024Z</time>
      </trkpt>
      <trkpt lat="43.73277" lon="1.46226">
        <ele>200.751327</ele>
        <time>2022-05-21T14:35:13.014Z</time>
      </trkpt>
      <trkpt lat="43.73273" lon="1.46214">
        <ele>200.841778</ele>
        <time>2022-05-21T14:35:15.019Z</time>
      </trkpt>
      <trkpt lat="43.7327" lon="1.46202">
        <ele>200.987938</ele>
        <time>2022-05-21T14:35:17.028Z</time>
      </trkpt>
      <trkpt lat="43.73264" lon="1.46193">
        <ele>201.136033</ele>
        <time>2022-05-21T14:35:26.042Z</time>
      </trkpt>
      <trkpt lat="43.73254" lon="1.46188">
        <ele>201.298929</ele>
        <time>2022-05-21T14:35:31.052Z</time>
      </trkpt>
      <trkpt lat="43.73246" lon="1.46198">
        <ele>201.47712</ele>
        <time>2022-05-21T14:35:35.024Z</time>
      </trkpt>
      <trkpt lat="43.7324" lon="1.46211">
        <ele>201.656774</ele>
        <time>2022-05-21T14:35:38.025Z</time>
      </trkpt>
      <trkpt lat="43.73235" lon="1.46225">
        <ele>201.84175</ele>
        <time>2022-05-21T14:35:41.038Z</time>
      </trkpt>
      <trkpt lat="43.73228" lon="1.46239">
        <ele>202.034353</ele>
        <time>2022-05-21T14:35:44.038Z</time>
      </trkpt>
      <trkpt lat="43.73219" lon="1.46249">
        <ele>202.223026</ele>
        <time>2022-05-21T14:35:47.028Z</time>
      </trkpt>
      <trkpt lat="43.73208" lon="1.46248">
        <ele>202.400948</ele>
        <time>2022-05-21T14:35:50.034Z</time>
      </trkpt>
      <trkpt lat="43.73199" lon="1.4624">
        <ele>202.571809</ele>
        <time>2022-05-21T14:35:56.048Z</time>
      </trkpt>
      <trkpt lat="43.73194" lon="1.46227">
        <ele>202.749492</ele>
        <time>2022-05-21T14:35:59.039Z</time>
      </trkpt>
      <trkpt lat="43.73185" lon="1.46214">
        <ele>202.959869</ele>
        <time>2022-05-21T14:36:02.010Z</time>
      </trkpt>
      <trkpt lat="43.73176" lon="1.462">
        <ele>203.169751</ele>
        <time>2022-05-21T14:36:05.040Z</time>
      </trkpt>
      <trkpt lat="43.73165" lon="1.46188">
        <ele>203.388591</ele>
        <time>2022-05-21T14:36:08.030Z</time>
      </trkpt>
      <trkpt lat="43.73156" lon="1.46176">
        <ele>203.596952</ele>
        <time>2022-05-21T14:36:11.030Z</time>
      </trkpt>
      <trkpt lat="43.73151" lon="1.46165">
        <ele>203.896379</ele>
        <time>2022-05-21T14:36:14.043Z</time>
      </trkpt>
      <trkpt lat="43.73144" lon="1.46151">
        <ele>204.392776</ele>
        <time>2022-05-21T14:36:18.027Z</time>
      </trkpt>
      <trkpt lat="43.73135" lon="1.46142">
        <ele>204.908553</ele>
        <time>2022-05-21T14:36:21.038Z</time>
      </trkpt>
      <trkpt lat="43.73126" lon="1.4613">
        <ele>205.457274</ele>
        <time>2022-05-21T14:36:24.028Z</time>
      </trkpt>
      <trkpt lat="43.73117" lon="1.46117">
        <ele>206.00765</ele>
        <time>2022-05-21T14:36:27.053Z</time>
      </trkpt>
      <trkpt lat="43.73108" lon="1.46105">
        <ele>206.539171</ele>
        <time>2022-05-21T14:36:30.043Z</time>
      </trkpt>
      <trkpt lat="43.731" lon="1.46092">
        <ele>207.09033</ele>
        <time>2022-05-21T14:36:33.051Z</time>
      </trkpt>
      <trkpt lat="43.73094" lon="1.46077">
        <ele>207.629584</ele>
        <time>2022-05-21T14:36:36.016Z</time>
      </trkpt>
      <trkpt lat="43.73094" lon="1.46064">
        <ele>208.043783</ele>
        <time>2022-05-21T14:36:38.024Z</time>
      </trkpt>
      <trkpt lat="43.73088" lon="1.46054">
        <ele>208.433179</ele>
        <time>2022-05-21T14:36:40.042Z</time>
      </trkpt>
      <trkpt lat="43.73078" lon="1.46044">
        <ele>208.964993</ele>
        <time>2022-05-21T14:36:43.027Z</time>
      </trkpt>
      <trkpt lat="43.73068" lon="1.46039">
        <ele>209.461513</ele>
        <time>2022-05-21T14:36:46.019Z</time>
      </trkpt>
      <trkpt lat="43.73064" lon="1.4602">
        <ele>155.6</ele>
      </trkpt>
      <trkpt lat="43.7308" lon="1.45976">
        <ele>155.4</ele>
      </trkpt>
      <trkpt lat="43.7313" lon="1.45885">
        <ele>155.1</ele>
      </trkpt>
      <trkpt lat="43.73139" lon="1.45865">
        <ele>154.9</ele>
      </trkpt>
      <trkpt lat="43.73132" lon="1.45844">
        <ele>156.6</ele>
      </trkpt>
      <trkpt lat="43.73121" lon="1.45819">
        <ele>159.3</ele>
      </trkpt>
      <trkpt lat="43.73116" lon="1.45768">
        <ele>161.8</ele>
      </trkpt>
      <trkpt lat="43.73101" lon="1.45742">
        <ele>165.4</ele>
      </trkpt>
      <trkpt lat="43.73126" lon="1.45692">
        <ele>164.4</ele>
      </trkpt>
      <trkpt lat="43.73126" lon="1.45662">
        <ele>164.5</ele>
      </trkpt>
      <trkpt lat="43.7315" lon="1.45614">
        <ele>162.8</ele>
      </trkpt>
      <trkpt lat="43.73173" lon="1.45609">
        <ele>160.1</ele>
      </trkpt>
      <trkpt lat="43.73196" lon="1.45572">
        <ele>157.8</ele>
      </trkpt>
      <trkpt lat="43.73211" lon="1.45566">
        <ele>156.3</ele>
      </trkpt>
      <trkpt lat="43.73222" lon="1.45551">
        <ele>155.2</ele>
      </trkpt>
      <trkpt lat="43.73217" lon="1.45533">
        <ele>156.3</ele>
      </trkpt>
      <trkpt lat="43.73206" lon="1.45526">
        <ele>157.2</ele>
      </trkpt>
      <trkpt lat="43.73181" lon="1.45499">
        <ele>160</ele>
      </trkpt>
      <trkpt lat="43.73159" lon="1.45488">
        <ele>162</ele>
      </trkpt>
      <trkpt lat="43.73152" lon="1.45447">
        <ele>163.6</ele>
      </trkpt>
      <trkpt lat="43.73138" lon="1.45427">
        <ele>166.7</ele>
      </trkpt>
      <trkpt lat="43.7309" lon="1.45365">
        <ele>175.3</ele>
      </trkpt>
      <trkpt lat="43.73088" lon="1.4536">
        <ele>175.5</ele>
      </trkpt>
      <trkpt lat="43.7306" lon="1.45389">
        <ele>177.7</ele>
      </trkpt>
      <trkpt lat="43.73046" lon="1.4539">
        <ele>178.3</ele>
      </trkpt>
      <trkpt lat="43.73029" lon="1.45379">
        <ele>178.6</ele>
      </trkpt>
      <trkpt lat="43.73018" lon="1.45379">
        <ele>178.8</ele>
      </trkpt>
      <trkpt lat="43.73012" lon="1.45382">
        <ele>178.9</ele>
      </trkpt>
      <trkpt lat="43.72998" lon="1.45395">
        <ele>179.1</ele>
      </trkpt>
      <trkpt lat="43.73014" lon="1.45407">
        <ele>178.7</ele>
      </trkpt>
      <trkpt lat="43.73041" lon="1.45439">
        <ele>177.2</ele>
      </trkpt>
      <trkpt lat="43.73055" lon="1.45453">
        <ele>174.9</ele>
      </trkpt>
      <trkpt lat="43.73057" lon="1.45482">
        <ele>172.2</ele>
      </trkpt>
      <trkpt lat="43.73053" lon="1.45493">
        <ele>173</ele>
      </trkpt>
      <trkpt lat="43.73052" lon="1.45507">
        <ele>173.1</ele>
      </trkpt>
      <trkpt lat="43.73079" lon="1.45565">
        <ele>171.1</ele>
      </trkpt>
      <trkpt lat="43.73092" lon="1.45612">
        <ele>169.8</ele>
      </trkpt>
      <trkpt lat="43.73096" lon="1.45713">
        <ele>167.5</ele>
      </trkpt>
      <trkpt lat="43.7309" lon="1.45731">
        <ele>167.6</ele>
      </trkpt>
      <trkpt lat="43.73086" lon="1.45741">
        <ele>167.8</ele>
      </trkpt>
      <trkpt lat="43.73078" lon="1.4575">
        <ele>168.9</ele>
      </trkpt>
      <trkpt lat="43.73078" lon="1.45757">
        <ele>168.5</ele>
      </trkpt>
      <trkpt lat="43.73056" lon="1.45751">
        <ele>172.9</ele>
      </trkpt>
      <trkpt lat="43.73033" lon="1.45736">
        <ele>176.7</ele>
      </trkpt>
      <trkpt lat="43.73056" lon="1.45666">
        <ele>174.9</ele>
      </trkpt>
      <trkpt lat="43.73056" lon="1.45648">
        <ele>175</ele>
      </trkpt>
      <trkpt lat="43.73053" lon="1.4564">
        <ele>175.2</ele>
      </trkpt>
      <trkpt lat="43.73001" lon="1.45584">
        <ele>178</ele>
      </trkpt>
      <trkpt lat="43.72955" lon="1.45544">
        <ele>179.6</ele>
      </trkpt>
      <trkpt lat="43.72955" lon="1.45536">
        <ele>179.6</ele>
      </trkpt>
      <trkpt lat="43.72975" lon="1.45483">
        <ele>179.8</ele>
      </trkpt>
      <trkpt lat="43.72975" lon="1.45473">
        <ele>179.8</ele>
      </trkpt>
      <trkpt lat="43.72972" lon="1.45467">
        <ele>180</ele>
      </trkpt>
      <trkpt lat="43.72956" lon="1.45456">
        <ele>180</ele>
      </trkpt>
      <trkpt lat="43.72937" lon="1.45449">
        <ele>180.3</ele>
      </trkpt>
      <trkpt lat="43.72933" lon="1.45442">
        <ele>180.4</ele>
      </trkpt>
      <trkpt lat="43.72934" lon="1.45434">
        <ele>180.2</ele>
      </trkpt>
      <trkpt lat="43.72944" lon="1.45414">
        <ele>180</ele>
        <time>2022-05-21T14:40:34.026Z</time>
      </trkpt>
      <trkpt lat="43.72929" lon="1.4541">
        <ele>179.9</ele>
        <time>2022-05-21T14:41:09.025Z</time>
      </trkpt>
      <trkpt lat="43.72919" lon="1.45403">
        <ele>229.401511</ele>
        <time>2022-05-21T14:41:12.022Z</time>
      </trkpt>
      <trkpt lat="43.7291" lon="1.454">
        <ele>229.296829</ele>
        <time>2022-05-21T14:41:15.013Z</time>
      </trkpt>
      <trkpt lat="43.72897" lon="1.45398">
        <ele>229.166003</ele>
        <time>2022-05-21T14:41:18.014Z</time>
      </trkpt>
      <trkpt lat="43.72887" lon="1.45394">
        <ele>229.050538</ele>
        <time>2022-05-21T14:41:21.017Z</time>
      </trkpt>
      <trkpt lat="43.72876" lon="1.45394">
        <ele>228.94108</ele>
        <time>2022-05-21T14:41:25.024Z</time>
      </trkpt>
      <trkpt lat="43.72867" lon="1.45396">
        <ele>228.839576</ele>
        <time>2022-05-21T14:41:29.007Z</time>
      </trkpt>
      <trkpt lat="43.72857" lon="1.45393">
        <ele>228.734262</ele>
        <time>2022-05-21T14:41:33.019Z</time>
      </trkpt>
      <trkpt lat="43.72848" lon="1.45386">
        <ele>228.623324</ele>
        <time>2022-05-21T14:41:39.021Z</time>
      </trkpt>
      <trkpt lat="43.72837" lon="1.45377">
        <ele>228.484667</ele>
        <time>2022-05-21T14:41:43.014Z</time>
      </trkpt>
      <trkpt lat="43.72827" lon="1.45368">
        <ele>228.362175</ele>
        <time>2022-05-21T14:41:47.006Z</time>
      </trkpt>
      <trkpt lat="43.72819" lon="1.45357">
        <ele>228.255054</ele>
        <time>2022-05-21T14:41:51.027Z</time>
      </trkpt>
      <trkpt lat="43.72817" lon="1.45341">
        <ele>228.232983</ele>
        <time>2022-05-21T14:41:55.040Z</time>
      </trkpt>
      <trkpt lat="43.72812" lon="1.45326">
        <ele>228.208625</ele>
        <time>2022-05-21T14:41:59.034Z</time>
      </trkpt>
      <trkpt lat="43.72805" lon="1.45312">
        <ele>228.185203</ele>
        <time>2022-05-21T14:42:01.023Z</time>
      </trkpt>
      <trkpt lat="43.728" lon="1.45299">
        <ele>228.163509</ele>
        <time>2022-05-21T14:42:04.034Z</time>
      </trkpt>
      <trkpt lat="43.72793" lon="1.45282">
        <ele>228.135622</ele>
        <time>2022-05-21T14:42:08.035Z</time>
      </trkpt>
      <trkpt lat="43.72791" lon="1.45268">
        <ele>228.114483</ele>
        <time>2022-05-21T14:42:12.027Z</time>
      </trkpt>
      <trkpt lat="43.72789" lon="1.45253">
        <ele>228.093688</ele>
        <time>2022-05-21T14:42:18.024Z</time>
      </trkpt>
      <trkpt lat="43.72788" lon="1.45235">
        <ele>228.067568</ele>
        <time>2022-05-21T14:42:21.034Z</time>
      </trkpt>
      <trkpt lat="43.72792" lon="1.45224">
        <ele>228.049394</ele>
        <time>2022-05-21T14:42:24.015Z</time>
      </trkpt>
      <trkpt lat="43.72797" lon="1.45209">
        <ele>228.025385</ele>
        <time>2022-05-21T14:42:27.040Z</time>
      </trkpt>
      <trkpt lat="43.72801" lon="1.45197">
        <ele>228.006538</ele>
        <time>2022-05-21T14:42:30.024Z</time>
      </trkpt>
      <trkpt lat="43.72802" lon="1.45179">
        <ele>227.981824</ele>
        <time>2022-05-21T14:42:34.030Z</time>
      </trkpt>
      <trkpt lat="43.72808" lon="1.45166">
        <ele>227.959339</ele>
        <time>2022-05-21T14:42:36.010Z</time>
      </trkpt>
      <trkpt lat="43.72813" lon="1.45153">
        <ele>227.938714</ele>
        <time>2022-05-21T14:42:39.042Z</time>
      </trkpt>
      <trkpt lat="43.72816" lon="1.45139">
        <ele>227.918067</ele>
        <time>2022-05-21T14:42:42.023Z</time>
      </trkpt>
      <trkpt lat="43.72822" lon="1.45126">
        <ele>227.887753</ele>
        <time>2022-05-21T14:42:45.026Z</time>
      </trkpt>
      <trkpt lat="43.72828" lon="1.45116">
        <ele>227.849656</ele>
        <time>2022-05-21T14:42:48.034Z</time>
      </trkpt>
      <trkpt lat="43.72836" lon="1.45107">
        <ele>227.807088</ele>
        <time>2022-05-21T14:42:52.027Z</time>
      </trkpt>
      <trkpt lat="43.72849" lon="1.45068">
        <ele>177.4</ele>
      </trkpt>
      <trkpt lat="43.72852" lon="1.45039">
        <ele>177.3</ele>
      </trkpt>
      <trkpt lat="43.72864" lon="1.4501">
        <ele>177</ele>
      </trkpt>
      <trkpt lat="43.72881" lon="1.44967">
        <ele>178.2</ele>
      </trkpt>
      <trkpt lat="43.72894" lon="1.44909">
        <ele>179.2</ele>
      </trkpt>
      <trkpt lat="43.72885" lon="1.449">
        <ele>179.5</ele>
      </trkpt>
      <trkpt lat="43.72865" lon="1.44895">
        <ele>179.1</ele>
      </trkpt>
      <trkpt lat="43.72841" lon="1.44824">
        <ele>179.4</ele>
      </trkpt>
      <trkpt lat="43.72819" lon="1.44818">
        <ele>178.6</ele>
      </trkpt>
      <trkpt lat="43.7281" lon="1.44798">
        <ele>175.6</ele>
      </trkpt>
      <trkpt lat="43.72809" lon="1.44741">
        <ele>166</ele>
      </trkpt>
      <trkpt lat="43.72824" lon="1.44721">
        <ele>164.3</ele>
      </trkpt>
      <trkpt lat="43.72845" lon="1.44706">
        <ele>164.2</ele>
      </trkpt>
      <trkpt lat="43.72868" lon="1.44692">
        <ele>163.7</ele>
      </trkpt>
      <trkpt lat="43.72883" lon="1.44718">
        <ele>168</ele>
      </trkpt>
      <trkpt lat="43.72913" lon="1.4478">
        <ele>176.2</ele>
      </trkpt>
      <trkpt lat="43.72915" lon="1.44827">
        <ele>179.8</ele>
      </trkpt>
      <trkpt lat="43.72928" lon="1.44878">
        <ele>179.6</ele>
      </trkpt>
      <trkpt lat="43.72925" lon="1.44957">
        <ele>177.6</ele>
      </trkpt>
      <trkpt lat="43.72911" lon="1.44998">
        <ele>176.3</ele>
      </trkpt>
      <trkpt lat="43.72911" lon="1.45045">
        <ele>175.2</ele>
      </trkpt>
      <trkpt lat="43.72903" lon="1.45079">
        <ele>175.5</ele>
      </trkpt>
      <trkpt lat="43.72887" lon="1.4511">
        <ele>225.568459</ele>
        <time>2022-05-21T14:47:53.029Z</time>
      </trkpt>
      <trkpt lat="43.7289" lon="1.45122">
        <ele>225.305665</ele>
        <time>2022-05-21T14:47:56.023Z</time>
      </trkpt>
      <trkpt lat="43.72893" lon="1.45136">
        <ele>224.99665</ele>
        <time>2022-05-21T14:48:00.021Z</time>
      </trkpt>
      <trkpt lat="43.72895" lon="1.45148">
        <ele>224.734731</ele>
        <time>2022-05-21T14:48:03.014Z</time>
      </trkpt>
      <trkpt lat="43.72899" lon="1.45167">
        <ele>224.331571</ele>
        <time>2022-05-21T14:48:06.035Z</time>
      </trkpt>
      <trkpt lat="43.72903" lon="1.45183">
        <ele>223.992222</ele>
        <time>2022-05-21T14:48:10.075Z</time>
      </trkpt>
      <trkpt lat="43.72901" lon="1.45199">
        <ele>223.649472</ele>
        <time>2022-05-21T14:48:13.052Z</time>
      </trkpt>
      <trkpt lat="43.72903" lon="1.45219">
        <ele>223.235238</ele>
        <time>2022-05-21T14:48:16.032Z</time>
      </trkpt>
      <trkpt lat="43.72908" lon="1.45231">
        <ele>222.955732</ele>
        <time>2022-05-21T14:48:23.020Z</time>
      </trkpt>
      <trkpt lat="43.72915" lon="1.45239">
        <ele>222.68032</ele>
        <time>2022-05-21T14:48:31.027Z</time>
      </trkpt>
      <trkpt lat="43.7293" lon="1.45241">
        <ele>222.245366</ele>
        <time>2022-05-21T14:48:40.000Z</time>
      </trkpt>
      <trkpt lat="43.72946" lon="1.45235">
        <ele>221.839877</ele>
        <time>2022-05-21T14:48:47.030Z</time>
      </trkpt>
      <trkpt lat="43.72957" lon="1.45234">
        <ele>221.5921</ele>
        <time>2022-05-21T14:48:51.050Z</time>
      </trkpt>
      <trkpt lat="43.72966" lon="1.45233">
        <ele>221.379225</ele>
        <time>2022-05-21T14:48:55.020Z</time>
      </trkpt>
      <trkpt lat="43.72976" lon="1.45231">
        <ele>221.141675</ele>
        <time>2022-05-21T14:48:59.029Z</time>
      </trkpt>
      <trkpt lat="43.72986" lon="1.45228">
        <ele>220.903592</ele>
        <time>2022-05-21T14:49:01.025Z</time>
      </trkpt>
      <trkpt lat="43.73002" lon="1.45226">
        <ele>220.54608</ele>
        <time>2022-05-21T14:49:09.048Z</time>
      </trkpt>
      <trkpt lat="43.73012" lon="1.45224">
        <ele>220.299783</ele>
        <time>2022-05-21T14:49:15.021Z</time>
      </trkpt>
      <trkpt lat="43.73024" lon="1.45225">
        <ele>220.020457</ele>
        <time>2022-05-21T14:49:20.007Z</time>
      </trkpt>
      <trkpt lat="43.73035" lon="1.45228">
        <ele>219.767789</ele>
        <time>2022-05-21T14:49:23.989Z</time>
      </trkpt>
      <trkpt lat="43.73045" lon="1.4523">
        <ele>219.524152</ele>
        <time>2022-05-21T14:49:28.001Z</time>
      </trkpt>
      <trkpt lat="43.73057" lon="1.45234">
        <ele>219.256135</ele>
        <time>2022-05-21T14:49:32.029Z</time>
      </trkpt>
      <trkpt lat="43.73069" lon="1.45237">
        <ele>218.974067</ele>
        <time>2022-05-21T14:49:35.029Z</time>
      </trkpt>
      <trkpt lat="43.73079" lon="1.45243">
        <ele>218.720171</ele>
        <time>2022-05-21T14:49:37.024Z</time>
      </trkpt>
      <trkpt lat="43.73091" lon="1.45248">
        <ele>218.432637</ele>
        <time>2022-05-21T14:49:39.028Z</time>
      </trkpt>
      <trkpt lat="43.73101" lon="1.4526">
        <ele>218.119716</ele>
        <time>2022-05-21T14:49:42.027Z</time>
      </trkpt>
      <trkpt lat="43.73112" lon="1.45274">
        <ele>217.480167</ele>
        <time>2022-05-21T14:49:45.030Z</time>
      </trkpt>
      <trkpt lat="43.73119" lon="1.45282">
        <ele>216.848099</ele>
        <time>2022-05-21T14:49:48.007Z</time>
      </trkpt>
      <trkpt lat="43.73132" lon="1.45282">
        <ele>216.038527</ele>
        <time>2022-05-21T14:49:53.034Z</time>
      </trkpt>
      <trkpt lat="43.73142" lon="1.45278">
        <ele>215.325377</ele>
        <time>2022-05-21T14:49:58.025Z</time>
      </trkpt>
      <trkpt lat="43.73153" lon="1.45274">
        <ele>214.576709</ele>
        <time>2022-05-21T14:50:01.037Z</time>
      </trkpt>
      <trkpt lat="43.73162" lon="1.45272">
        <ele>213.950742</ele>
        <time>2022-05-21T14:50:05.041Z</time>
      </trkpt>
      <trkpt lat="43.73172" lon="1.45272">
        <ele>213.32539</ele>
        <time>2022-05-21T14:50:10.031Z</time>
      </trkpt>
      <trkpt lat="43.73181" lon="1.45269">
        <ele>212.721206</ele>
        <time>2022-05-21T14:50:14.024Z</time>
      </trkpt>
      <trkpt lat="43.73192" lon="1.45265">
        <ele>211.945947</ele>
        <time>2022-05-21T14:50:17.013Z</time>
      </trkpt>
      <trkpt lat="43.73202" lon="1.45261">
        <ele>211.309792</ele>
        <time>2022-05-21T14:50:21.020Z</time>
      </trkpt>
      <trkpt lat="43.73211" lon="1.45257">
        <ele>210.634842</ele>
        <time>2022-05-21T14:50:23.030Z</time>
      </trkpt>
      <trkpt lat="43.7322" lon="1.45254">
        <ele>210.018225</ele>
        <time>2022-05-21T14:50:26.006Z</time>
      </trkpt>
      <trkpt lat="43.73231" lon="1.45248">
        <ele>209.263591</ele>
        <time>2022-05-21T14:50:29.034Z</time>
      </trkpt>
      <trkpt lat="43.7324" lon="1.45245">
        <ele>208.644418</ele>
        <time>2022-05-21T14:50:31.027Z</time>
      </trkpt>
      <trkpt lat="43.73252" lon="1.45242">
        <ele>207.86136</ele>
        <time>2022-05-21T14:50:33.033Z</time>
      </trkpt>
      <trkpt lat="43.73262" lon="1.45245">
        <ele>207.17047</ele>
        <time>2022-05-21T14:50:35.026Z</time>
      </trkpt>
      <trkpt lat="43.73275" lon="1.45246">
        <ele>206.306932</ele>
        <time>2022-05-21T14:50:38.009Z</time>
      </trkpt>
      <trkpt lat="43.73286" lon="1.45246">
        <ele>205.890647</ele>
        <time>2022-05-21T14:50:40.012Z</time>
      </trkpt>
      <trkpt lat="43.73299" lon="1.45246">
        <ele>205.488554</ele>
        <time>2022-05-21T14:50:43.030Z</time>
      </trkpt>
      <trkpt lat="43.73312" lon="1.45248">
        <ele>205.093942</ele>
        <time>2022-05-21T14:50:46.002Z</time>
      </trkpt>
      <trkpt lat="43.73322" lon="1.45248">
        <ele>204.808872</ele>
        <time>2022-05-21T14:50:48.019Z</time>
      </trkpt>
      <trkpt lat="43.73332" lon="1.45248">
        <ele>204.514736</ele>
        <time>2022-05-21T14:50:50.010Z</time>
      </trkpt>
      <trkpt lat="43.73342" lon="1.45247">
        <ele>204.193199</ele>
        <time>2022-05-21T14:50:52.018Z</time>
      </trkpt>
      <trkpt lat="43.73354" lon="1.45246">
        <ele>203.853786</ele>
        <time>2022-05-21T14:50:54.016Z</time>
      </trkpt>
      <trkpt lat="43.73365" lon="1.45245">
        <ele>203.504195</ele>
        <time>2022-05-21T14:50:56.019Z</time>
      </trkpt>
      <trkpt lat="43.73377" lon="1.45244">
        <ele>203.144012</ele>
        <time>2022-05-21T14:50:57.995Z</time>
      </trkpt>
      <trkpt lat="43.7339" lon="1.45244">
        <ele>202.765924</ele>
        <time>2022-05-21T14:51:00.010Z</time>
      </trkpt>
      <trkpt lat="43.73403" lon="1.45244">
        <ele>202.369833</ele>
        <time>2022-05-21T14:51:02.023Z</time>
      </trkpt>
      <trkpt lat="43.73417" lon="1.45243">
        <ele>201.963766</ele>
        <time>2022-05-21T14:51:04.010Z</time>
      </trkpt>
      <trkpt lat="43.7343" lon="1.45242">
        <ele>201.5464</ele>
        <time>2022-05-21T14:51:06.009Z</time>
      </trkpt>
      <trkpt lat="43.73444" lon="1.45241">
        <ele>201.131743</ele>
        <time>2022-05-21T14:51:08.032Z</time>
      </trkpt>
      <trkpt lat="43.73458" lon="1.4524">
        <ele>200.723189</ele>
        <time>2022-05-21T14:51:10.023Z</time>
      </trkpt>
      <trkpt lat="43.73472" lon="1.45239">
        <ele>200.423248</ele>
        <time>2022-05-21T14:51:12.026Z</time>
      </trkpt>
      <trkpt lat="43.73485" lon="1.45237">
        <ele>200.121535</ele>
        <time>2022-05-21T14:51:14.028Z</time>
      </trkpt>
      <trkpt lat="43.73499" lon="1.45236">
        <ele>199.824994</ele>
        <time>2022-05-21T14:51:16.033Z</time>
      </trkpt>
      <trkpt lat="43.73512" lon="1.45234">
        <ele>199.535074</ele>
        <time>2022-05-21T14:51:18.008Z</time>
      </trkpt>
      <trkpt lat="43.73525" lon="1.45233">
        <ele>199.251416</ele>
        <time>2022-05-21T14:51:20.036Z</time>
      </trkpt>
      <trkpt lat="43.73539" lon="1.45231">
        <ele>198.960985</ele>
        <time>2022-05-21T14:51:22.028Z</time>
      </trkpt>
      <trkpt lat="43.73552" lon="1.4523">
        <ele>198.668895</ele>
        <time>2022-05-21T14:51:24.050Z</time>
      </trkpt>
      <trkpt lat="43.73565" lon="1.45229">
        <ele>198.389929</ele>
        <time>2022-05-21T14:51:26.013Z</time>
      </trkpt>
      <trkpt lat="43.73578" lon="1.45227">
        <ele>198.101663</ele>
        <time>2022-05-21T14:51:28.008Z</time>
      </trkpt>
      <trkpt lat="43.73591" lon="1.45226">
        <ele>197.811743</ele>
        <time>2022-05-21T14:51:30.013Z</time>
      </trkpt>
      <trkpt lat="43.73605" lon="1.45224">
        <ele>197.512914</ele>
        <time>2022-05-21T14:51:32.020Z</time>
      </trkpt>
      <trkpt lat="43.73618" lon="1.45223">
        <ele>197.229382</ele>
        <time>2022-05-21T14:51:34.022Z</time>
      </trkpt>
      <trkpt lat="43.7363" lon="1.45221">
        <ele>196.958724</ele>
        <time>2022-05-21T14:51:36.008Z</time>
      </trkpt>
      <trkpt lat="43.7364" lon="1.45221">
        <ele>196.766295</ele>
        <time>2022-05-21T14:51:38.012Z</time>
      </trkpt>
      <trkpt lat="43.7365" lon="1.45221">
        <ele>196.597458</ele>
        <time>2022-05-21T14:51:43.025Z</time>
      </trkpt>
      <trkpt lat="43.73662" lon="1.45222">
        <ele>196.40484</ele>
        <time>2022-05-21T14:51:48.012Z</time>
      </trkpt>
      <trkpt lat="43.73671" lon="1.45231">
        <ele>196.231622</ele>
        <time>2022-05-21T14:51:51.037Z</time>
      </trkpt>
      <trkpt lat="43.73678" lon="1.45244">
        <ele>196.044168</ele>
        <time>2022-05-21T14:51:54.034Z</time>
      </trkpt>
      <trkpt lat="43.73681" lon="1.45261">
        <ele>195.837469</ele>
        <time>2022-05-21T14:51:57.011Z</time>
      </trkpt>
      <trkpt lat="43.73683" lon="1.45274">
        <ele>195.692805</ele>
        <time>2022-05-21T14:51:58.999Z</time>
      </trkpt>
      <trkpt lat="43.73686" lon="1.45285">
        <ele>195.545685</ele>
        <time>2022-05-21T14:52:01.017Z</time>
      </trkpt>
      <trkpt lat="43.73693" lon="1.45294">
        <ele>195.397161</ele>
        <time>2022-05-21T14:52:03.027Z</time>
      </trkpt>
      <trkpt lat="43.73701" lon="1.453">
        <ele>195.243365</ele>
        <time>2022-05-21T14:52:05.018Z</time>
      </trkpt>
      <trkpt lat="43.73711" lon="1.45304">
        <ele>195.089837</ele>
        <time>2022-05-21T14:52:07.010Z</time>
      </trkpt>
      <trkpt lat="43.7372" lon="1.45308">
        <ele>194.928959</ele>
        <time>2022-05-21T14:52:09.032Z</time>
      </trkpt>
      <trkpt lat="43.7373" lon="1.45312">
        <ele>194.76775</ele>
        <time>2022-05-21T14:52:11.010Z</time>
      </trkpt>
      <trkpt lat="43.73742" lon="1.45319">
        <ele>194.549139</ele>
        <time>2022-05-21T14:52:14.010Z</time>
      </trkpt>
      <trkpt lat="43.73755" lon="1.45321">
        <ele>194.349237</ele>
        <time>2022-05-21T14:52:17.010Z</time>
      </trkpt>
      <trkpt lat="43.73763" lon="1.45324">
        <ele>194.202215</ele>
        <time>2022-05-21T14:52:19.024Z</time>
      </trkpt>
      <trkpt lat="43.73773" lon="1.45328">
        <ele>194.050029</ele>
        <time>2022-05-21T14:52:21.019Z</time>
      </trkpt>
      <trkpt lat="43.73782" lon="1.45331">
        <ele>193.899521</ele>
        <time>2022-05-21T14:52:23.011Z</time>
      </trkpt>
      <trkpt lat="43.73791" lon="1.45334">
        <ele>193.751337</ele>
        <time>2022-05-21T14:52:25.025Z</time>
      </trkpt>
      <trkpt lat="43.73802" lon="1.45337">
        <ele>193.582417</ele>
        <time>2022-05-21T14:52:27.036Z</time>
      </trkpt>
      <trkpt lat="43.73814" lon="1.45339">
        <ele>193.401635</ele>
        <time>2022-05-21T14:52:29.023Z</time>
      </trkpt>
      <trkpt lat="43.73826" lon="1.45339">
        <ele>193.216053</ele>
        <time>2022-05-21T14:52:31.045Z</time>
      </trkpt>
      <trkpt lat="43.73837" lon="1.45339">
        <ele>193.044212</ele>
        <time>2022-05-21T14:52:33.038Z</time>
      </trkpt>
      <trkpt lat="43.73848" lon="1.45337">
        <ele>192.868382</ele>
        <time>2022-05-21T14:52:34.997Z</time>
      </trkpt>
      <trkpt lat="43.7386" lon="1.45334">
        <ele>192.681947</ele>
        <time>2022-05-21T14:52:37.008Z</time>
      </trkpt>
      <trkpt lat="43.73871" lon="1.45331">
        <ele>192.508611</ele>
        <time>2022-05-21T14:52:39.013Z</time>
      </trkpt>
      <trkpt lat="43.73882" lon="1.45328">
        <ele>192.335178</ele>
        <time>2022-05-21T14:52:41.012Z</time>
      </trkpt>
      <trkpt lat="43.73894" lon="1.45324">
        <ele>192.157362</ele>
        <time>2022-05-21T14:52:43.029Z</time>
      </trkpt>
      <trkpt lat="43.73905" lon="1.45321">
        <ele>191.978762</ele>
        <time>2022-05-21T14:52:45.014Z</time>
      </trkpt>
      <trkpt lat="43.73917" lon="1.45319">
        <ele>191.79798</ele>
        <time>2022-05-21T14:52:47.016Z</time>
      </trkpt>
      <trkpt lat="43.73929" lon="1.4532">
        <ele>191.614926</ele>
        <time>2022-05-21T14:52:49.002Z</time>
      </trkpt>
      <trkpt lat="43.7394" lon="1.45325">
        <ele>191.435454</ele>
        <time>2022-05-21T14:52:51.023Z</time>
      </trkpt>
      <trkpt lat="43.73951" lon="1.45331">
        <ele>191.251058</ele>
        <time>2022-05-21T14:52:53.017Z</time>
      </trkpt>
      <trkpt lat="43.73962" lon="1.45338">
        <ele>191.07984</ele>
        <time>2022-05-21T14:52:55.020Z</time>
      </trkpt>
      <trkpt lat="43.73973" lon="1.45345">
        <ele>190.923422</ele>
        <time>2022-05-21T14:52:57.040Z</time>
      </trkpt>
      <trkpt lat="43.73983" lon="1.45352">
        <ele>190.770203</ele>
        <time>2022-05-21T14:52:59.024Z</time>
      </trkpt>
      <trkpt lat="43.73993" lon="1.45358">
        <ele>190.626954</ele>
        <time>2022-05-21T14:53:01.038Z</time>
      </trkpt>
      <trkpt lat="43.74002" lon="1.45365">
        <ele>190.48726</ele>
        <time>2022-05-21T14:53:03.014Z</time>
      </trkpt>
      <trkpt lat="43.74012" lon="1.45372">
        <ele>190.347885</ele>
        <time>2022-05-21T14:53:05.029Z</time>
      </trkpt>
      <trkpt lat="43.74021" lon="1.45378">
        <ele>190.209681</ele>
        <time>2022-05-21T14:53:07.043Z</time>
      </trkpt>
      <trkpt lat="43.7403" lon="1.45385">
        <ele>190.072772</ele>
        <time>2022-05-21T14:53:09.040Z</time>
      </trkpt>
      <trkpt lat="43.7404" lon="1.45391">
        <ele>189.932654</ele>
        <time>2022-05-21T14:53:11.034Z</time>
      </trkpt>
      <trkpt lat="43.7405" lon="1.45398">
        <ele>189.788453</ele>
        <time>2022-05-21T14:53:13.041Z</time>
      </trkpt>
      <trkpt lat="43.7406" lon="1.45405">
        <ele>189.639129</ele>
        <time>2022-05-21T14:53:15.039Z</time>
      </trkpt>
      <trkpt lat="43.7407" lon="1.45413">
        <ele>189.490541</ele>
        <time>2022-05-21T14:53:17.023Z</time>
      </trkpt>
      <trkpt lat="43.74079" lon="1.45421">
        <ele>189.342183</ele>
        <time>2022-05-21T14:53:19.033Z</time>
      </trkpt>
      <trkpt lat="43.74089" lon="1.45428">
        <ele>189.19722</ele>
        <time>2022-05-21T14:53:21.025Z</time>
      </trkpt>
      <trkpt lat="43.74098" lon="1.45436">
        <ele>189.055114</ele>
        <time>2022-05-21T14:53:23.020Z</time>
      </trkpt>
      <trkpt lat="43.74107" lon="1.45444">
        <ele>188.913393</ele>
        <time>2022-05-21T14:53:25.032Z</time>
      </trkpt>
      <trkpt lat="43.74116" lon="1.45452">
        <ele>188.763119</ele>
        <time>2022-05-21T14:53:27.021Z</time>
      </trkpt>
      <trkpt lat="43.74125" lon="1.4546">
        <ele>188.477751</ele>
        <time>2022-05-21T14:53:29.025Z</time>
      </trkpt>
      <trkpt lat="43.74133" lon="1.45467">
        <ele>188.192384</ele>
        <time>2022-05-21T14:53:31.012Z</time>
      </trkpt>
      <trkpt lat="43.74142" lon="1.45474">
        <ele>187.899542</ele>
        <time>2022-05-21T14:53:33.024Z</time>
      </trkpt>
      <trkpt lat="43.74152" lon="1.45482">
        <ele>187.589684</ele>
        <time>2022-05-21T14:53:35.023Z</time>
      </trkpt>
      <trkpt lat="43.74163" lon="1.45489">
        <ele>187.265197</ele>
        <time>2022-05-21T14:53:37.016Z</time>
      </trkpt>
      <trkpt lat="43.74173" lon="1.45497">
        <ele>186.919687</ele>
        <time>2022-05-21T14:53:39.005Z</time>
      </trkpt>
      <trkpt lat="43.74185" lon="1.45506">
        <ele>186.54798</ele>
        <time>2022-05-21T14:53:40.997Z</time>
      </trkpt>
      <trkpt lat="43.74197" lon="1.45516">
        <ele>186.15725</ele>
        <time>2022-05-21T14:53:43.018Z</time>
      </trkpt>
      <trkpt lat="43.74209" lon="1.45526">
        <ele>185.765903</ele>
        <time>2022-05-21T14:53:45.006Z</time>
      </trkpt>
      <trkpt lat="43.74222" lon="1.45536">
        <ele>185.366976</ele>
        <time>2022-05-21T14:53:47.001Z</time>
      </trkpt>
      <trkpt lat="43.74233" lon="1.45546">
        <ele>184.978325</ele>
        <time>2022-05-21T14:53:49.038Z</time>
      </trkpt>
      <trkpt lat="43.74245" lon="1.45555">
        <ele>184.606094</ele>
        <time>2022-05-21T14:53:51.018Z</time>
      </trkpt>
      <trkpt lat="43.74256" lon="1.45565">
        <ele>184.23903</ele>
        <time>2022-05-21T14:53:53.022Z</time>
      </trkpt>
      <trkpt lat="43.74267" lon="1.45574">
        <ele>183.881874</ele>
        <time>2022-05-21T14:53:55.025Z</time>
      </trkpt>
      <trkpt lat="43.74278" lon="1.45582">
        <ele>183.704106</ele>
        <time>2022-05-21T14:53:56.997Z</time>
      </trkpt>
      <trkpt lat="43.74286" lon="1.45591">
        <ele>183.605598</ele>
        <time>2022-05-21T14:53:59.038Z</time>
      </trkpt>
      <trkpt lat="43.74295" lon="1.45599">
        <ele>183.512439</ele>
        <time>2022-05-21T14:54:01.023Z</time>
      </trkpt>
      <trkpt lat="43.74303" lon="1.45606">
        <ele>183.420301</ele>
        <time>2022-05-21T14:54:03.022Z</time>
      </trkpt>
      <trkpt lat="43.74311" lon="1.45613">
        <ele>183.330429</ele>
        <time>2022-05-21T14:54:05.036Z</time>
      </trkpt>
      <trkpt lat="43.7432" lon="1.4562">
        <ele>183.241251</ele>
        <time>2022-05-21T14:54:07.007Z</time>
      </trkpt>
      <trkpt lat="43.74327" lon="1.45626">
        <ele>183.158863</ele>
        <time>2022-05-21T14:54:09.015Z</time>
      </trkpt>
      <trkpt lat="43.74339" lon="1.45636">
        <ele>183.03698</ele>
        <time>2022-05-21T14:54:12.051Z</time>
      </trkpt>
      <trkpt lat="43.74347" lon="1.45641">
        <ele>182.950803</ele>
        <time>2022-05-21T14:54:14.034Z</time>
      </trkpt>
      <trkpt lat="43.74356" lon="1.45645">
        <ele>182.864781</ele>
        <time>2022-05-21T14:54:16.049Z</time>
      </trkpt>
      <trkpt lat="43.74365" lon="1.4565">
        <ele>182.772495</ele>
        <time>2022-05-21T14:54:18.010Z</time>
      </trkpt>
      <trkpt lat="43.74375" lon="1.45655">
        <ele>182.680838</ele>
        <time>2022-05-21T14:54:20.036Z</time>
      </trkpt>
      <trkpt lat="43.74384" lon="1.45659">
        <ele>182.58918</ele>
        <time>2022-05-21T14:54:22.024Z</time>
      </trkpt>
      <trkpt lat="43.74394" lon="1.45663">
        <ele>182.492224</ele>
        <time>2022-05-21T14:54:24.034Z</time>
      </trkpt>
      <trkpt lat="43.74405" lon="1.45666">
        <ele>182.396311</ele>
        <time>2022-05-21T14:54:26.046Z</time>
      </trkpt>
      <trkpt lat="43.74415" lon="1.45668">
        <ele>182.300213</ele>
        <time>2022-05-21T14:54:28.023Z</time>
      </trkpt>
      <trkpt lat="43.74425" lon="1.45671">
        <ele>182.205464</ele>
        <time>2022-05-21T14:54:30.045Z</time>
      </trkpt>
      <trkpt lat="43.74434" lon="1.45674">
        <ele>182.114717</ele>
        <time>2022-05-21T14:54:32.045Z</time>
      </trkpt>
      <trkpt lat="43.74445" lon="1.45678">
        <ele>181.975235</ele>
        <time>2022-05-21T14:54:34.054Z</time>
      </trkpt>
      <trkpt lat="43.74456" lon="1.45683">
        <ele>181.810548</ele>
        <time>2022-05-21T14:54:36.051Z</time>
      </trkpt>
      <trkpt lat="43.74469" lon="1.45689">
        <ele>181.625471</ele>
        <time>2022-05-21T14:54:38.022Z</time>
      </trkpt>
      <trkpt lat="43.74483" lon="1.45694">
        <ele>181.434785</ele>
        <time>2022-05-21T14:54:40.017Z</time>
      </trkpt>
      <trkpt lat="43.74497" lon="1.45698">
        <ele>181.25206</ele>
        <time>2022-05-21T14:54:42.051Z</time>
      </trkpt>
      <trkpt lat="43.7451" lon="1.45699">
        <ele>181.082012</ele>
        <time>2022-05-21T14:54:44.010Z</time>
      </trkpt>
      <trkpt lat="43.74522" lon="1.457">
        <ele>180.922334</ele>
        <time>2022-05-21T14:54:47.032Z</time>
      </trkpt>
      <trkpt lat="43.74531" lon="1.45692">
        <ele>180.779426</ele>
        <time>2022-05-21T14:54:51.035Z</time>
      </trkpt>
      <trkpt lat="43.74533" lon="1.45676">
        <ele>180.622683</ele>
        <time>2022-05-21T14:54:54.011Z</time>
      </trkpt>
      <trkpt lat="43.74538" lon="1.45659">
        <ele>180.444473</ele>
        <time>2022-05-21T14:54:57.012Z</time>
      </trkpt>
      <trkpt lat="43.7454" lon="1.45646">
        <ele>180.318215</ele>
        <time>2022-05-21T14:54:59.024Z</time>
      </trkpt>
      <trkpt lat="43.74543" lon="1.45633">
        <ele>180.189934</ele>
        <time>2022-05-21T14:55:01.036Z</time>
      </trkpt>
      <trkpt lat="43.74546" lon="1.4562">
        <ele>180.058622</ele>
        <time>2022-05-21T14:55:03.026Z</time>
      </trkpt>
      <trkpt lat="43.74548" lon="1.45607">
        <ele>179.929311</ele>
        <time>2022-05-21T14:55:05.032Z</time>
      </trkpt>
      <trkpt lat="43.74551" lon="1.45594">
        <ele>179.795958</ele>
        <time>2022-05-21T14:55:07.094Z</time>
      </trkpt>
      <trkpt lat="43.74552" lon="1.45579">
        <ele>179.763002</ele>
        <time>2022-05-21T14:55:09.028Z</time>
      </trkpt>
      <trkpt lat="43.74554" lon="1.45564">
        <ele>179.821599</ele>
        <time>2022-05-21T14:55:11.036Z</time>
      </trkpt>
      <trkpt lat="43.74556" lon="1.45547">
        <ele>179.887301</ele>
        <time>2022-05-21T14:55:13.044Z</time>
      </trkpt>
      <trkpt lat="43.74559" lon="1.45528">
        <ele>179.957999</ele>
        <time>2022-05-21T14:55:15.025Z</time>
      </trkpt>
      <trkpt lat="43.74561" lon="1.45509">
        <ele>180.029996</ele>
        <time>2022-05-21T14:55:17.030Z</time>
      </trkpt>
      <trkpt lat="43.74564" lon="1.45491">
        <ele>180.100788</ele>
        <time>2022-05-21T14:55:19.014Z</time>
      </trkpt>
      <trkpt lat="43.74566" lon="1.45473">
        <ele>180.168527</ele>
        <time>2022-05-21T14:55:21.043Z</time>
      </trkpt>
      <trkpt lat="43.74569" lon="1.45457">
        <ele>180.232307</ele>
        <time>2022-05-21T14:55:23.043Z</time>
      </trkpt>
      <trkpt lat="43.74571" lon="1.45441">
        <ele>180.291901</ele>
        <time>2022-05-21T14:55:25.032Z</time>
      </trkpt>
      <trkpt lat="43.74571" lon="1.45426">
        <ele>180.348814</ele>
        <time>2022-05-21T14:55:27.042Z</time>
      </trkpt>
      <trkpt lat="43.74571" lon="1.45411">
        <ele>180.405996</ele>
        <time>2022-05-21T14:55:29.041Z</time>
      </trkpt>
      <trkpt lat="43.74573" lon="1.45396">
        <ele>180.462954</ele>
        <time>2022-05-21T14:55:31.054Z</time>
      </trkpt>
      <trkpt lat="43.74578" lon="1.45382">
        <ele>180.522738</ele>
        <time>2022-05-21T14:55:33.039Z</time>
      </trkpt>
      <trkpt lat="43.74585" lon="1.45368">
        <ele>180.582846</ele>
        <time>2022-05-21T14:55:35.023Z</time>
      </trkpt>
      <trkpt lat="43.74591" lon="1.45355">
        <ele>180.642667</ele>
        <time>2022-05-21T14:55:37.030Z</time>
      </trkpt>
      <trkpt lat="43.74596" lon="1.45341">
        <ele>180.641753</ele>
        <time>2022-05-21T14:55:39.014Z</time>
      </trkpt>
      <trkpt lat="43.74603" lon="1.45328">
        <ele>180.591391</ele>
        <time>2022-05-21T14:55:41.039Z</time>
      </trkpt>
      <trkpt lat="43.74611" lon="1.45316">
        <ele>180.540936</ele>
        <time>2022-05-21T14:55:42.989Z</time>
      </trkpt>
      <trkpt lat="43.74618" lon="1.45302">
        <ele>180.488014</ele>
        <time>2022-05-21T14:55:45.044Z</time>
      </trkpt>
      <trkpt lat="43.74624" lon="1.45287">
        <ele>180.434481</ele>
        <time>2022-05-21T14:55:47.016Z</time>
      </trkpt>
      <trkpt lat="43.74631" lon="1.45273">
        <ele>180.382773</ele>
        <time>2022-05-21T14:55:48.998Z</time>
      </trkpt>
      <trkpt lat="43.74636" lon="1.45259">
        <ele>180.332155</ele>
        <time>2022-05-21T14:55:51.002Z</time>
      </trkpt>
      <trkpt lat="43.7464" lon="1.45244">
        <ele>180.280334</ele>
        <time>2022-05-21T14:55:53.002Z</time>
      </trkpt>
      <trkpt lat="43.74643" lon="1.45227">
        <ele>180.228179</ele>
        <time>2022-05-21T14:55:55.039Z</time>
      </trkpt>
      <trkpt lat="43.74645" lon="1.45211">
        <ele>180.175644</ele>
        <time>2022-05-21T14:55:57.031Z</time>
      </trkpt>
      <trkpt lat="43.74648" lon="1.45195">
        <ele>180.124</ele>
        <time>2022-05-21T14:55:59.050Z</time>
      </trkpt>
      <trkpt lat="43.7465" lon="1.45179">
        <ele>180.071727</ele>
        <time>2022-05-21T14:56:01.041Z</time>
      </trkpt>
      <trkpt lat="43.74652" lon="1.45162">
        <ele>180.018449</ele>
        <time>2022-05-21T14:56:03.027Z</time>
      </trkpt>
      <trkpt lat="43.74654" lon="1.45145">
        <ele>179.965854</ele>
        <time>2022-05-21T14:56:05.035Z</time>
      </trkpt>
      <trkpt lat="43.74655" lon="1.45128">
        <ele>179.912887</ele>
        <time>2022-05-21T14:56:07.027Z</time>
      </trkpt>
      <trkpt lat="43.74656" lon="1.45112">
        <ele>179.841062</ele>
        <time>2022-05-21T14:56:09.046Z</time>
      </trkpt>
      <trkpt lat="43.74654" lon="1.45095">
        <ele>179.753109</ele>
        <time>2022-05-21T14:56:11.022Z</time>
      </trkpt>
      <trkpt lat="43.74648" lon="1.4508">
        <ele>179.663826</ele>
        <time>2022-05-21T14:56:13.025Z</time>
      </trkpt>
      <trkpt lat="43.74642" lon="1.45064">
        <ele>179.572247</ele>
        <time>2022-05-21T14:56:15.019Z</time>
      </trkpt>
      <trkpt lat="43.74636" lon="1.45049">
        <ele>179.480207</ele>
        <time>2022-05-21T14:56:17.029Z</time>
      </trkpt>
      <trkpt lat="43.74633" lon="1.45032">
        <ele>179.389993</ele>
        <time>2022-05-21T14:56:19.028Z</time>
      </trkpt>
      <trkpt lat="43.74633" lon="1.45016">
        <ele>179.302062</ele>
        <time>2022-05-21T14:56:21.023Z</time>
      </trkpt>
      <trkpt lat="43.74633" lon="1.44999">
        <ele>179.215506</ele>
        <time>2022-05-21T14:56:23.028Z</time>
      </trkpt>
      <trkpt lat="43.74634" lon="1.44983">
        <ele>179.129559</ele>
        <time>2022-05-21T14:56:25.022Z</time>
      </trkpt>
      <trkpt lat="43.74635" lon="1.44966">
        <ele>179.041719</ele>
        <time>2022-05-21T14:56:27.030Z</time>
      </trkpt>
      <trkpt lat="43.74636" lon="1.44949">
        <ele>178.95447</ele>
        <time>2022-05-21T14:56:29.026Z</time>
      </trkpt>
      <trkpt lat="43.74637" lon="1.44933">
        <ele>178.867341</ele>
        <time>2022-05-21T14:56:31.018Z</time>
      </trkpt>
      <trkpt lat="43.74638" lon="1.44917">
        <ele>178.784782</ele>
        <time>2022-05-21T14:56:33.029Z</time>
      </trkpt>
      <trkpt lat="43.74638" lon="1.44902">
        <ele>178.703652</ele>
        <time>2022-05-21T14:56:35.023Z</time>
      </trkpt>
      <trkpt lat="43.74639" lon="1.44886">
        <ele>178.623035</ele>
        <time>2022-05-21T14:56:37.015Z</time>
      </trkpt>
      <trkpt lat="43.74639" lon="1.44871">
        <ele>178.632734</ele>
        <time>2022-05-21T14:56:39.008Z</time>
      </trkpt>
      <trkpt lat="43.74639" lon="1.44855">
        <ele>178.720794</ele>
        <time>2022-05-21T14:56:41.016Z</time>
      </trkpt>
      <trkpt lat="43.74641" lon="1.4484">
        <ele>178.806545</ele>
        <time>2022-05-21T14:56:43.021Z</time>
      </trkpt>
      <trkpt lat="43.74641" lon="1.44825">
        <ele>178.889616</ele>
        <time>2022-05-21T14:56:45.037Z</time>
      </trkpt>
      <trkpt lat="43.74642" lon="1.44811">
        <ele>178.967832</ele>
        <time>2022-05-21T14:56:47.030Z</time>
      </trkpt>
      <trkpt lat="43.74643" lon="1.44795">
        <ele>179.059466</ele>
        <time>2022-05-21T14:56:50.005Z</time>
      </trkpt>
      <trkpt lat="43.74642" lon="1.44778">
        <ele>179.158294</ele>
        <time>2022-05-21T14:56:53.010Z</time>
      </trkpt>
      <trkpt lat="43.74643" lon="1.44764">
        <ele>179.236897</ele>
        <time>2022-05-21T14:56:55.017Z</time>
      </trkpt>
      <trkpt lat="43.74643" lon="1.4475">
        <ele>179.314811</ele>
        <time>2022-05-21T14:56:57.008Z</time>
      </trkpt>
      <trkpt lat="43.74642" lon="1.44733">
        <ele>179.413707</ele>
        <time>2022-05-21T14:56:59.019Z</time>
      </trkpt>
      <trkpt lat="43.74641" lon="1.44714">
        <ele>179.521368</ele>
        <time>2022-05-21T14:57:01.029Z</time>
      </trkpt>
      <trkpt lat="43.74641" lon="1.447">
        <ele>179.601022</ele>
        <time>2022-05-21T14:57:03.020Z</time>
      </trkpt>
      <trkpt lat="43.74641" lon="1.44683">
        <ele>179.693597</ele>
        <time>2022-05-21T14:57:05.025Z</time>
      </trkpt>
      <trkpt lat="43.74642" lon="1.44669">
        <ele>179.774322</ele>
        <time>2022-05-21T14:57:07.013Z</time>
      </trkpt>
      <trkpt lat="43.74643" lon="1.44654">
        <ele>179.85973</ele>
        <time>2022-05-21T14:57:08.994Z</time>
      </trkpt>
      <trkpt lat="43.74646" lon="1.44635">
        <ele>179.966251</ele>
        <time>2022-05-21T14:57:12.008Z</time>
      </trkpt>
      <trkpt lat="43.74648" lon="1.44621">
        <ele>179.985913</ele>
        <time>2022-05-21T14:57:14.026Z</time>
      </trkpt>
      <trkpt lat="43.74651" lon="1.44608">
        <ele>179.979149</ele>
        <time>2022-05-21T14:57:16.000Z</time>
      </trkpt>
      <trkpt lat="43.74653" lon="1.4459">
        <ele>179.970268</ele>
        <time>2022-05-21T14:57:18.003Z</time>
      </trkpt>
      <trkpt lat="43.74655" lon="1.44572">
        <ele>179.961138</ele>
        <time>2022-05-21T14:57:20.005Z</time>
      </trkpt>
      <trkpt lat="43.74658" lon="1.44555">
        <ele>179.952626</ele>
        <time>2022-05-21T14:57:22.012Z</time>
      </trkpt>
      <trkpt lat="43.74659" lon="1.44538">
        <ele>179.944192</ele>
        <time>2022-05-21T14:57:24.022Z</time>
      </trkpt>
      <trkpt lat="43.74661" lon="1.44521">
        <ele>179.935785</ele>
        <time>2022-05-21T14:57:26.008Z</time>
      </trkpt>
      <trkpt lat="43.74662" lon="1.44504">
        <ele>179.927369</ele>
        <time>2022-05-21T14:57:28.024Z</time>
      </trkpt>
      <trkpt lat="43.74664" lon="1.44487">
        <ele>179.919059</ele>
        <time>2022-05-21T14:57:30.001Z</time>
      </trkpt>
      <trkpt lat="43.74664" lon="1.44468">
        <ele>179.910027</ele>
        <time>2022-05-21T14:57:32.011Z</time>
      </trkpt>
      <trkpt lat="43.74663" lon="1.44451">
        <ele>179.901573</ele>
        <time>2022-05-21T14:57:34.007Z</time>
      </trkpt>
      <trkpt lat="43.74663" lon="1.44435">
        <ele>179.893474</ele>
        <time>2022-05-21T14:57:36.017Z</time>
      </trkpt>
      <trkpt lat="43.74664" lon="1.44419">
        <ele>179.88556</ele>
        <time>2022-05-21T14:57:38.021Z</time>
      </trkpt>
      <trkpt lat="43.74665" lon="1.44403">
        <ele>179.877614</ele>
        <time>2022-05-21T14:57:40.022Z</time>
      </trkpt>
      <trkpt lat="43.74666" lon="1.44386">
        <ele>179.869647</ele>
        <time>2022-05-21T14:57:42.017Z</time>
      </trkpt>
      <trkpt lat="43.74667" lon="1.4437">
        <ele>179.824217</ele>
        <time>2022-05-21T14:57:44.025Z</time>
      </trkpt>
      <trkpt lat="43.74669" lon="1.44354">
        <ele>179.773238</ele>
        <time>2022-05-21T14:57:46.015Z</time>
      </trkpt>
      <trkpt lat="43.74672" lon="1.44339">
        <ele>179.7224</ele>
        <time>2022-05-21T14:57:48.003Z</time>
      </trkpt>
      <trkpt lat="43.74678" lon="1.44324">
        <ele>179.671674</ele>
        <time>2022-05-21T14:57:50.007Z</time>
      </trkpt>
      <trkpt lat="43.74684" lon="1.44309">
        <ele>179.618822</ele>
        <time>2022-05-21T14:57:52.036Z</time>
      </trkpt>
      <trkpt lat="43.7469" lon="1.44295">
        <ele>179.566884</ele>
        <time>2022-05-21T14:57:54.013Z</time>
      </trkpt>
      <trkpt lat="43.74696" lon="1.4428">
        <ele>179.514303</ele>
        <time>2022-05-21T14:57:56.008Z</time>
      </trkpt>
      <trkpt lat="43.74702" lon="1.44266">
        <ele>179.46361</ele>
        <time>2022-05-21T14:57:58.035Z</time>
      </trkpt>
      <trkpt lat="43.74708" lon="1.44253">
        <ele>179.414046</ele>
        <time>2022-05-21T14:58:00.043Z</time>
      </trkpt>
      <trkpt lat="43.74714" lon="1.44239">
        <ele>179.363663</ele>
        <time>2022-05-21T14:58:02.040Z</time>
      </trkpt>
      <trkpt lat="43.7472" lon="1.44224">
        <ele>179.311677</ele>
        <time>2022-05-21T14:58:04.018Z</time>
      </trkpt>
      <trkpt lat="43.74726" lon="1.4421">
        <ele>179.261688</ele>
        <time>2022-05-21T14:58:06.035Z</time>
      </trkpt>
      <trkpt lat="43.74731" lon="1.44196">
        <ele>179.211306</ele>
        <time>2022-05-21T14:58:08.032Z</time>
      </trkpt>
      <trkpt lat="43.74738" lon="1.44182">
        <ele>179.160237</ele>
        <time>2022-05-21T14:58:10.038Z</time>
      </trkpt>
      <trkpt lat="43.74744" lon="1.44168">
        <ele>179.109762</ele>
        <time>2022-05-21T14:58:12.022Z</time>
      </trkpt>
      <trkpt lat="43.7475" lon="1.44155">
        <ele>179.03685</ele>
        <time>2022-05-21T14:58:14.023Z</time>
      </trkpt>
      <trkpt lat="43.74757" lon="1.44141">
        <ele>178.951811</ele>
        <time>2022-05-21T14:58:16.045Z</time>
      </trkpt>
      <trkpt lat="43.74763" lon="1.44127">
        <ele>178.865728</ele>
        <time>2022-05-21T14:58:18.032Z</time>
      </trkpt>
      <trkpt lat="43.74769" lon="1.44113">
        <ele>178.77689</ele>
        <time>2022-05-21T14:58:20.033Z</time>
      </trkpt>
      <trkpt lat="43.74775" lon="1.44098">
        <ele>178.688556</ele>
        <time>2022-05-21T14:58:22.029Z</time>
      </trkpt>
      <trkpt lat="43.7478" lon="1.44083">
        <ele>178.601361</ele>
        <time>2022-05-21T14:58:24.045Z</time>
      </trkpt>
      <trkpt lat="43.74786" lon="1.44069">
        <ele>178.516469</ele>
        <time>2022-05-21T14:58:26.022Z</time>
      </trkpt>
      <trkpt lat="43.74792" lon="1.44055">
        <ele>178.431759</ele>
        <time>2022-05-21T14:58:28.026Z</time>
      </trkpt>
      <trkpt lat="43.74798" lon="1.44042">
        <ele>178.34948</ele>
        <time>2022-05-21T14:58:30.007Z</time>
      </trkpt>
      <trkpt lat="43.74805" lon="1.44029">
        <ele>178.269014</ele>
        <time>2022-05-21T14:58:32.039Z</time>
      </trkpt>
      <trkpt lat="43.74811" lon="1.44016">
        <ele>178.189419</ele>
        <time>2022-05-21T14:58:34.017Z</time>
      </trkpt>
      <trkpt lat="43.74816" lon="1.44003">
        <ele>178.110562</ele>
        <time>2022-05-21T14:58:36.027Z</time>
      </trkpt>
      <trkpt lat="43.74822" lon="1.43991">
        <ele>178.033071</ele>
        <time>2022-05-21T14:58:38.021Z</time>
      </trkpt>
      <trkpt lat="43.74827" lon="1.43978">
        <ele>177.956207</ele>
        <time>2022-05-21T14:58:40.052Z</time>
      </trkpt>
      <trkpt lat="43.74833" lon="1.43965">
        <ele>177.877011</ele>
        <time>2022-05-21T14:58:42.036Z</time>
      </trkpt>
      <trkpt lat="43.7484" lon="1.43952">
        <ele>177.794042</ele>
        <time>2022-05-21T14:58:44.030Z</time>
      </trkpt>
      <trkpt lat="43.74846" lon="1.43939">
        <ele>177.736636</ele>
        <time>2022-05-21T14:58:46.012Z</time>
      </trkpt>
      <trkpt lat="43.74853" lon="1.43926">
        <ele>177.678408</ele>
        <time>2022-05-21T14:58:48.034Z</time>
      </trkpt>
      <trkpt lat="43.7486" lon="1.43913">
        <ele>177.622465</ele>
        <time>2022-05-21T14:58:50.032Z</time>
      </trkpt>
      <trkpt lat="43.74868" lon="1.43901">
        <ele>177.567433</ele>
        <time>2022-05-21T14:58:52.026Z</time>
      </trkpt>
      <trkpt lat="43.74874" lon="1.43889">
        <ele>177.512918</ele>
        <time>2022-05-21T14:58:54.040Z</time>
      </trkpt>
      <trkpt lat="43.74881" lon="1.43877">
        <ele>177.458134</ele>
        <time>2022-05-21T14:58:56.028Z</time>
      </trkpt>
      <trkpt lat="43.74887" lon="1.43864">
        <ele>177.403361</ele>
        <time>2022-05-21T14:58:58.038Z</time>
      </trkpt>
      <trkpt lat="43.74894" lon="1.43851">
        <ele>177.347725</ele>
        <time>2022-05-21T14:59:00.071Z</time>
      </trkpt>
      <trkpt lat="43.749" lon="1.43838">
        <ele>177.291782</ele>
        <time>2022-05-21T14:59:02.019Z</time>
      </trkpt>
      <trkpt lat="43.74906" lon="1.43826">
        <ele>177.236684</ele>
        <time>2022-05-21T14:59:04.028Z</time>
      </trkpt>
      <trkpt lat="43.74913" lon="1.43813">
        <ele>177.182471</ele>
        <time>2022-05-21T14:59:06.051Z</time>
      </trkpt>
      <trkpt lat="43.74922" lon="1.43794">
        <ele>177.100594</ele>
        <time>2022-05-21T14:59:09.022Z</time>
      </trkpt>
      <trkpt lat="43.74928" lon="1.43781">
        <ele>177.044927</ele>
        <time>2022-05-21T14:59:11.033Z</time>
      </trkpt>
      <trkpt lat="43.74935" lon="1.43768">
        <ele>176.990125</ele>
        <time>2022-05-21T14:59:13.028Z</time>
      </trkpt>
      <trkpt lat="43.74941" lon="1.43756">
        <ele>176.93478</ele>
        <time>2022-05-21T14:59:15.036Z</time>
      </trkpt>
      <trkpt lat="43.74948" lon="1.43743">
        <ele>176.883027</ele>
        <time>2022-05-21T14:59:17.024Z</time>
      </trkpt>
      <trkpt lat="43.74955" lon="1.4373">
        <ele>176.834153</ele>
        <time>2022-05-21T14:59:19.044Z</time>
      </trkpt>
      <trkpt lat="43.74962" lon="1.43717">
        <ele>176.785806</ele>
        <time>2022-05-21T14:59:21.025Z</time>
      </trkpt>
      <trkpt lat="43.74969" lon="1.43704">
        <ele>176.737204</ele>
        <time>2022-05-21T14:59:23.014Z</time>
      </trkpt>
      <trkpt lat="43.74976" lon="1.43691">
        <ele>176.688364</ele>
        <time>2022-05-21T14:59:25.043Z</time>
      </trkpt>
      <trkpt lat="43.74983" lon="1.43678">
        <ele>176.639288</ele>
        <time>2022-05-21T14:59:27.037Z</time>
      </trkpt>
      <trkpt lat="43.7499" lon="1.43665">
        <ele>176.591161</ele>
        <time>2022-05-21T14:59:29.022Z</time>
      </trkpt>
      <trkpt lat="43.74997" lon="1.43652">
        <ele>176.543526</ele>
        <time>2022-05-21T14:59:31.025Z</time>
      </trkpt>
      <trkpt lat="43.75004" lon="1.43639">
        <ele>176.494687</ele>
        <time>2022-05-21T14:59:33.032Z</time>
      </trkpt>
      <trkpt lat="43.7501" lon="1.43625">
        <ele>176.446067</ele>
        <time>2022-05-21T14:59:35.024Z</time>
      </trkpt>
      <trkpt lat="43.75017" lon="1.43612">
        <ele>176.397675</ele>
        <time>2022-05-21T14:59:37.008Z</time>
      </trkpt>
      <trkpt lat="43.75023" lon="1.43598">
        <ele>176.349569</ele>
        <time>2022-05-21T14:59:39.032Z</time>
      </trkpt>
      <trkpt lat="43.75028" lon="1.43584">
        <ele>176.302074</ele>
        <time>2022-05-21T14:59:41.041Z</time>
      </trkpt>
      <trkpt lat="43.75033" lon="1.4357">
        <ele>176.255086</ele>
        <time>2022-05-21T14:59:43.032Z</time>
      </trkpt>
      <trkpt lat="43.75038" lon="1.43556">
        <ele>176.20783</ele>
        <time>2022-05-21T14:59:45.032Z</time>
      </trkpt>
      <trkpt lat="43.75043" lon="1.43542">
        <ele>176.164858</ele>
        <time>2022-05-21T14:59:47.037Z</time>
      </trkpt>
      <trkpt lat="43.75048" lon="1.43528">
        <ele>176.246249</ele>
        <time>2022-05-21T14:59:49.026Z</time>
      </trkpt>
      <trkpt lat="43.75053" lon="1.43513">
        <ele>176.328577</ele>
        <time>2022-05-21T14:59:51.044Z</time>
      </trkpt>
      <trkpt lat="43.75058" lon="1.43499">
        <ele>176.409387</ele>
        <time>2022-05-21T14:59:53.045Z</time>
      </trkpt>
      <trkpt lat="43.75063" lon="1.43485">
        <ele>176.48725</ele>
        <time>2022-05-21T14:59:55.025Z</time>
      </trkpt>
      <trkpt lat="43.75068" lon="1.43472">
        <ele>176.564933</ele>
        <time>2022-05-21T14:59:57.042Z</time>
      </trkpt>
      <trkpt lat="43.75073" lon="1.43458">
        <ele>176.645728</ele>
        <time>2022-05-21T14:59:59.013Z</time>
      </trkpt>
      <trkpt lat="43.75079" lon="1.43444">
        <ele>176.726066</ele>
        <time>2022-05-21T15:00:01.020Z</time>
      </trkpt>
      <trkpt lat="43.75083" lon="1.43432">
        <ele>176.797746</ele>
        <time>2022-05-21T15:00:03.023Z</time>
      </trkpt>
      <trkpt lat="43.75088" lon="1.4342">
        <ele>176.86397</ele>
        <time>2022-05-21T15:00:05.010Z</time>
      </trkpt>
      <trkpt lat="43.75094" lon="1.43406">
        <ele>176.948322</ele>
        <time>2022-05-21T15:00:08.001Z</time>
      </trkpt>
      <trkpt lat="43.75098" lon="1.43395">
        <ele>177.014799</ele>
        <time>2022-05-21T15:00:10.024Z</time>
      </trkpt>
      <trkpt lat="43.75104" lon="1.43383">
        <ele>177.090617</ele>
        <time>2022-05-21T15:00:11.999Z</time>
      </trkpt>
      <trkpt lat="43.75111" lon="1.43366">
        <ele>177.189788</ele>
        <time>2022-05-21T15:00:14.016Z</time>
      </trkpt>
      <trkpt lat="43.75117" lon="1.43352">
        <ele>177.275634</ele>
        <time>2022-05-21T15:00:15.999Z</time>
      </trkpt>
      <trkpt lat="43.75123" lon="1.43337">
        <ele>177.357876</ele>
        <time>2022-05-21T15:00:18.005Z</time>
      </trkpt>
      <trkpt lat="43.75128" lon="1.43323">
        <ele>177.438998</ele>
        <time>2022-05-21T15:00:20.009Z</time>
      </trkpt>
      <trkpt lat="43.75132" lon="1.43312">
        <ele>177.480954</ele>
        <time>2022-05-21T15:00:23.054Z</time>
      </trkpt>
      <trkpt lat="43.75147" lon="1.43277">
        <ele>177.614417</ele>
        <time>2022-05-21T15:00:41.030Z</time>
      </trkpt>
      <trkpt lat="43.75154" lon="1.43264">
        <ele>177.66719</ele>
        <time>2022-05-21T15:00:43.009Z</time>
      </trkpt>
      <trkpt lat="43.75161" lon="1.4325">
        <ele>177.720222</ele>
        <time>2022-05-21T15:00:45.023Z</time>
      </trkpt>
      <trkpt lat="43.75168" lon="1.43238">
        <ele>177.771142</ele>
        <time>2022-05-21T15:00:47.036Z</time>
      </trkpt>
      <trkpt lat="43.75173" lon="1.43225">
        <ele>177.819336</ele>
        <time>2022-05-21T15:00:49.030Z</time>
      </trkpt>
      <trkpt lat="43.75178" lon="1.43213">
        <ele>177.865557</ele>
        <time>2022-05-21T15:00:51.028Z</time>
      </trkpt>
      <trkpt lat="43.75183" lon="1.432">
        <ele>177.912769</ele>
        <time>2022-05-21T15:00:53.041Z</time>
      </trkpt>
      <trkpt lat="43.75187" lon="1.43187">
        <ele>177.95942</ele>
        <time>2022-05-21T15:00:55.032Z</time>
      </trkpt>
      <trkpt lat="43.75193" lon="1.4317">
        <ele>178.021392</ele>
        <time>2022-05-21T15:00:58.008Z</time>
      </trkpt>
      <trkpt lat="43.75198" lon="1.43156">
        <ele>178.071059</ele>
        <time>2022-05-21T15:01:01.025Z</time>
      </trkpt>
      <trkpt lat="43.75187" lon="1.43145">
        <ele>178.132189</ele>
        <time>2022-05-21T15:01:06.011Z</time>
      </trkpt>
      <trkpt lat="43.75176" lon="1.43141">
        <ele>178.182671</ele>
        <time>2022-05-21T15:01:08.017Z</time>
      </trkpt>
      <trkpt lat="43.75164" lon="1.43137">
        <ele>178.237927</ele>
        <time>2022-05-21T15:01:10.003Z</time>
      </trkpt>
      <trkpt lat="43.75153" lon="1.43133">
        <ele>178.378075</ele>
        <time>2022-05-21T15:01:12.006Z</time>
      </trkpt>
      <trkpt lat="43.75142" lon="1.43127">
        <ele>178.54792</ele>
        <time>2022-05-21T15:01:14.003Z</time>
      </trkpt>
      <trkpt lat="43.75132" lon="1.43121">
        <ele>178.710754</ele>
        <time>2022-05-21T15:01:16.027Z</time>
      </trkpt>
      <trkpt lat="43.75121" lon="1.43117">
        <ele>178.868524</ele>
        <time>2022-05-21T15:01:18.011Z</time>
      </trkpt>
      <trkpt lat="43.75112" lon="1.43111">
        <ele>179.014956</ele>
        <time>2022-05-21T15:01:20.037Z</time>
      </trkpt>
      <trkpt lat="43.751" lon="1.43103">
        <ele>179.208534</ele>
        <time>2022-05-21T15:01:23.001Z</time>
      </trkpt>
      <trkpt lat="43.75093" lon="1.43095">
        <ele>179.341419</ele>
        <time>2022-05-21T15:01:25.027Z</time>
      </trkpt>
      <trkpt lat="43.75086" lon="1.43085">
        <ele>179.490121</ele>
        <time>2022-05-21T15:01:27.021Z</time>
      </trkpt>
      <trkpt lat="43.75078" lon="1.43074">
        <ele>179.648694</ele>
        <time>2022-05-21T15:01:29.038Z</time>
      </trkpt>
      <trkpt lat="43.7507" lon="1.43062">
        <ele>179.817988</ele>
        <time>2022-05-21T15:01:31.028Z</time>
      </trkpt>
      <trkpt lat="43.75062" lon="1.4305">
        <ele>179.991303</ele>
        <time>2022-05-21T15:01:33.004Z</time>
      </trkpt>
      <trkpt lat="43.75053" lon="1.43038">
        <ele>180.167659</ele>
        <time>2022-05-21T15:01:35.031Z</time>
      </trkpt>
      <trkpt lat="43.75045" lon="1.43027">
        <ele>180.344654</ele>
        <time>2022-05-21T15:01:37.007Z</time>
      </trkpt>
      <trkpt lat="43.75035" lon="1.43017">
        <ele>180.518507</ele>
        <time>2022-05-21T15:01:39.021Z</time>
      </trkpt>
      <trkpt lat="43.75024" lon="1.43012">
        <ele>180.680466</ele>
        <time>2022-05-21T15:01:41.023Z</time>
      </trkpt>
      <trkpt lat="43.75014" lon="1.43007">
        <ele>180.838164</ele>
        <time>2022-05-21T15:01:43.026Z</time>
      </trkpt>
      <trkpt lat="43.75004" lon="1.43002">
        <ele>180.978037</ele>
        <time>2022-05-21T15:01:45.028Z</time>
      </trkpt>
      <trkpt lat="43.74994" lon="1.42995">
        <ele>181.111329</ele>
        <time>2022-05-21T15:01:47.010Z</time>
      </trkpt>
      <trkpt lat="43.74985" lon="1.42991">
        <ele>181.232053</ele>
        <time>2022-05-21T15:01:49.044Z</time>
      </trkpt>
      <trkpt lat="43.74968" lon="1.42984">
        <ele>181.455774</ele>
        <time>2022-05-21T15:01:53.021Z</time>
      </trkpt>
      <trkpt lat="43.74959" lon="1.4298">
        <ele>181.578369</ele>
        <time>2022-05-21T15:01:55.028Z</time>
      </trkpt>
      <trkpt lat="43.74953" lon="1.42968">
        <ele>181.712999</ele>
        <time>2022-05-21T15:01:57.037Z</time>
      </trkpt>
      <trkpt lat="43.74951" lon="1.42953">
        <ele>181.851235</ele>
        <time>2022-05-21T15:01:59.015Z</time>
      </trkpt>
      <trkpt lat="43.74949" lon="1.42938">
        <ele>181.991529</ele>
        <time>2022-05-21T15:02:01.026Z</time>
      </trkpt>
      <trkpt lat="43.74946" lon="1.42923">
        <ele>182.128877</ele>
        <time>2022-05-21T15:02:03.013Z</time>
      </trkpt>
      <trkpt lat="43.74944" lon="1.42908">
        <ele>182.267476</ele>
        <time>2022-05-21T15:02:05.004Z</time>
      </trkpt>
      <trkpt lat="43.74942" lon="1.42893">
        <ele>182.405851</ele>
        <time>2022-05-21T15:02:07.024Z</time>
      </trkpt>
      <trkpt lat="43.74944" lon="1.42878">
        <ele>182.544427</ele>
        <time>2022-05-21T15:02:09.022Z</time>
      </trkpt>
      <trkpt lat="43.7494" lon="1.42865">
        <ele>182.672365</ele>
        <time>2022-05-21T15:02:11.025Z</time>
      </trkpt>
      <trkpt lat="43.7493" lon="1.42859">
        <ele>182.813277</ele>
        <time>2022-05-21T15:02:13.006Z</time>
      </trkpt>
      <trkpt lat="43.74918" lon="1.4286">
        <ele>182.967582</ele>
        <time>2022-05-21T15:02:15.018Z</time>
      </trkpt>
      <trkpt lat="43.74905" lon="1.42861">
        <ele>183.121595</ele>
        <time>2022-05-21T15:02:17.015Z</time>
      </trkpt>
      <trkpt lat="43.74893" lon="1.42863">
        <ele>183.277505</ele>
        <time>2022-05-21T15:02:19.017Z</time>
      </trkpt>
      <trkpt lat="43.74881" lon="1.42865">
        <ele>183.433574</ele>
        <time>2022-05-21T15:02:21.037Z</time>
      </trkpt>
      <trkpt lat="43.74869" lon="1.42868">
        <ele>183.589643</ele>
        <time>2022-05-21T15:02:23.020Z</time>
      </trkpt>
      <trkpt lat="43.74857" lon="1.4287">
        <ele>183.745462</ele>
        <time>2022-05-21T15:02:25.030Z</time>
      </trkpt>
      <trkpt lat="43.74845" lon="1.42871">
        <ele>183.89519</ele>
        <time>2022-05-21T15:02:27.014Z</time>
      </trkpt>
      <trkpt lat="43.74834" lon="1.42871">
        <ele>184.043323</ele>
        <time>2022-05-21T15:02:29.031Z</time>
      </trkpt>
      <trkpt lat="43.74822" lon="1.42871">
        <ele>184.187648</ele>
        <time>2022-05-21T15:02:31.021Z</time>
      </trkpt>
      <trkpt lat="43.74811" lon="1.42869">
        <ele>184.333219</ele>
        <time>2022-05-21T15:02:33.034Z</time>
      </trkpt>
      <trkpt lat="43.748" lon="1.42866">
        <ele>184.482113</ele>
        <time>2022-05-21T15:02:35.012Z</time>
      </trkpt>
      <trkpt lat="43.74788" lon="1.42862">
        <ele>184.63245</ele>
        <time>2022-05-21T15:02:37.009Z</time>
      </trkpt>
      <trkpt lat="43.74777" lon="1.42858">
        <ele>184.783806</ele>
        <time>2022-05-21T15:02:39.026Z</time>
      </trkpt>
      <trkpt lat="43.74766" lon="1.42852">
        <ele>184.935849</ele>
        <time>2022-05-21T15:02:41.015Z</time>
      </trkpt>
      <trkpt lat="43.74755" lon="1.42845">
        <ele>185.08775</ele>
        <time>2022-05-21T15:02:43.004Z</time>
      </trkpt>
      <trkpt lat="43.74744" lon="1.42838">
        <ele>185.243487</ele>
        <time>2022-05-21T15:02:45.014Z</time>
      </trkpt>
      <trkpt lat="43.74733" lon="1.42831">
        <ele>185.397295</ele>
        <time>2022-05-21T15:02:47.023Z</time>
      </trkpt>
      <trkpt lat="43.74722" lon="1.42825">
        <ele>185.557799</ele>
        <time>2022-05-21T15:02:49.028Z</time>
      </trkpt>
      <trkpt lat="43.74711" lon="1.42818">
        <ele>185.71686</ele>
        <time>2022-05-21T15:02:51.016Z</time>
      </trkpt>
      <trkpt lat="43.74701" lon="1.42812">
        <ele>185.873028</ele>
        <time>2022-05-21T15:02:52.993Z</time>
      </trkpt>
      <trkpt lat="43.7469" lon="1.42805">
        <ele>186.029196</ele>
        <time>2022-05-21T15:02:55.004Z</time>
      </trkpt>
      <trkpt lat="43.7468" lon="1.42798">
        <ele>186.185391</ele>
        <time>2022-05-21T15:02:57.032Z</time>
      </trkpt>
      <trkpt lat="43.7467" lon="1.42792">
        <ele>186.342396</ele>
        <time>2022-05-21T15:02:59.018Z</time>
      </trkpt>
      <trkpt lat="43.74659" lon="1.42785">
        <ele>186.498684</ele>
        <time>2022-05-21T15:03:01.020Z</time>
      </trkpt>
      <trkpt lat="43.74649" lon="1.42777">
        <ele>186.659517</ele>
        <time>2022-05-21T15:03:03.046Z</time>
      </trkpt>
      <trkpt lat="43.74638" lon="1.42771">
        <ele>186.817643</ele>
        <time>2022-05-21T15:03:04.994Z</time>
      </trkpt>
      <trkpt lat="43.74627" lon="1.42765">
        <ele>186.979764</ele>
        <time>2022-05-21T15:03:07.013Z</time>
      </trkpt>
      <trkpt lat="43.74617" lon="1.42759">
        <ele>187.135121</ele>
        <time>2022-05-21T15:03:08.998Z</time>
      </trkpt>
      <trkpt lat="43.74606" lon="1.42752">
        <ele>187.29005</ele>
        <time>2022-05-21T15:03:11.009Z</time>
      </trkpt>
      <trkpt lat="43.74596" lon="1.42746">
        <ele>187.443364</ele>
        <time>2022-05-21T15:03:13.003Z</time>
      </trkpt>
      <trkpt lat="43.74586" lon="1.4274">
        <ele>187.592248</ele>
        <time>2022-05-21T15:03:15.003Z</time>
      </trkpt>
      <trkpt lat="43.74576" lon="1.42734">
        <ele>187.740247</ele>
        <time>2022-05-21T15:03:17.005Z</time>
      </trkpt>
      <trkpt lat="43.74566" lon="1.42729">
        <ele>187.882106</ele>
        <time>2022-05-21T15:03:19.005Z</time>
      </trkpt>
      <trkpt lat="43.74562" lon="1.42716">
        <ele>187.993924</ele>
        <time>2022-05-21T15:03:20.994Z</time>
      </trkpt>
      <trkpt lat="43.74565" lon="1.42695">
        <ele>188.172147</ele>
        <time>2022-05-21T15:03:24.027Z</time>
      </trkpt>
      <trkpt lat="43.74566" lon="1.4268">
        <ele>188.299167</ele>
        <time>2022-05-21T15:03:26.036Z</time>
      </trkpt>
      <trkpt lat="43.74567" lon="1.42664">
        <ele>188.429939</ele>
        <time>2022-05-21T15:03:28.011Z</time>
      </trkpt>
      <trkpt lat="43.74568" lon="1.42648">
        <ele>188.560531</ele>
        <time>2022-05-21T15:03:30.013Z</time>
      </trkpt>
      <trkpt lat="43.74569" lon="1.42633">
        <ele>188.689766</ele>
        <time>2022-05-21T15:03:32.036Z</time>
      </trkpt>
      <trkpt lat="43.7457" lon="1.42617">
        <ele>188.820642</ele>
        <time>2022-05-21T15:03:34.029Z</time>
      </trkpt>
      <trkpt lat="43.74571" lon="1.426">
        <ele>188.955734</ele>
        <time>2022-05-21T15:03:36.043Z</time>
      </trkpt>
      <trkpt lat="43.74572" lon="1.42584">
        <ele>189.090613</ele>
        <time>2022-05-21T15:03:38.030Z</time>
      </trkpt>
      <trkpt lat="43.74573" lon="1.42568">
        <ele>189.226313</ele>
        <time>2022-05-21T15:03:40.042Z</time>
      </trkpt>
      <trkpt lat="43.74574" lon="1.42552">
        <ele>189.357813</ele>
        <time>2022-05-21T15:03:42.028Z</time>
      </trkpt>
      <trkpt lat="43.74575" lon="1.42536">
        <ele>189.486607</ele>
        <time>2022-05-21T15:03:44.031Z</time>
      </trkpt>
      <trkpt lat="43.74577" lon="1.42521">
        <ele>189.615401</ele>
        <time>2022-05-21T15:03:46.033Z</time>
      </trkpt>
      <trkpt lat="43.74579" lon="1.42506">
        <ele>189.743599</ele>
        <time>2022-05-21T15:03:48.032Z</time>
      </trkpt>
      <trkpt lat="43.74581" lon="1.42491">
        <ele>189.868768</ele>
        <time>2022-05-21T15:03:50.032Z</time>
      </trkpt>
      <trkpt lat="43.74583" lon="1.42476">
        <ele>189.9948</ele>
        <time>2022-05-21T15:03:52.037Z</time>
      </trkpt>
      <trkpt lat="43.74585" lon="1.42461">
        <ele>190.119787</ele>
        <time>2022-05-21T15:03:54.013Z</time>
      </trkpt>
      <trkpt lat="43.74588" lon="1.42446">
        <ele>190.245827</ele>
        <time>2022-05-21T15:03:56.033Z</time>
      </trkpt>
      <trkpt lat="43.7459" lon="1.42431">
        <ele>190.374893</ele>
        <time>2022-05-21T15:03:58.028Z</time>
      </trkpt>
      <trkpt lat="43.7459" lon="1.42416">
        <ele>190.501465</ele>
        <time>2022-05-21T15:04:00.044Z</time>
      </trkpt>
      <trkpt lat="43.74586" lon="1.42402">
        <ele>190.627171</ele>
        <time>2022-05-21T15:04:02.028Z</time>
      </trkpt>
      <trkpt lat="43.74578" lon="1.4239">
        <ele>190.757714</ele>
        <time>2022-05-21T15:04:04.008Z</time>
      </trkpt>
      <trkpt lat="43.7457" lon="1.4238">
        <ele>190.885094</ele>
        <time>2022-05-21T15:04:06.026Z</time>
      </trkpt>
      <trkpt lat="43.74567" lon="1.42365">
        <ele>191.015189</ele>
        <time>2022-05-21T15:04:08.034Z</time>
      </trkpt>
      <trkpt lat="43.74569" lon="1.42349">
        <ele>191.146083</ele>
        <time>2022-05-21T15:04:10.030Z</time>
      </trkpt>
      <trkpt lat="43.74572" lon="1.42334">
        <ele>191.276973</ele>
        <time>2022-05-21T15:04:12.032Z</time>
      </trkpt>
      <trkpt lat="43.74574" lon="1.42319">
        <ele>191.409091</ele>
        <time>2022-05-21T15:04:14.033Z</time>
      </trkpt>
      <trkpt lat="43.7457" lon="1.42305">
        <ele>191.537141</ele>
        <time>2022-05-21T15:04:16.030Z</time>
      </trkpt>
      <trkpt lat="43.74564" lon="1.42291">
        <ele>191.666751</ele>
        <time>2022-05-21T15:04:18.040Z</time>
      </trkpt>
      <trkpt lat="43.7456" lon="1.42277">
        <ele>191.795173</ele>
        <time>2022-05-21T15:04:20.021Z</time>
      </trkpt>
      <trkpt lat="43.74561" lon="1.42262">
        <ele>191.919569</ele>
        <time>2022-05-21T15:04:22.025Z</time>
      </trkpt>
      <trkpt lat="43.74566" lon="1.42248">
        <ele>192.038521</ele>
        <time>2022-05-21T15:04:24.032Z</time>
      </trkpt>
      <trkpt lat="43.74572" lon="1.42234">
        <ele>192.152268</ele>
        <time>2022-05-21T15:04:27.030Z</time>
      </trkpt>
      <trkpt lat="43.74576" lon="1.42221">
        <ele>192.247091</ele>
        <time>2022-05-21T15:04:31.029Z</time>
      </trkpt>
      <trkpt lat="43.74582" lon="1.42209">
        <ele>192.350871</ele>
        <time>2022-05-21T15:04:34.029Z</time>
      </trkpt>
      <trkpt lat="43.74586" lon="1.42195">
        <ele>192.453346</ele>
        <time>2022-05-21T15:04:37.042Z</time>
      </trkpt>
      <trkpt lat="43.74588" lon="1.42181">
        <ele>192.550567</ele>
        <time>2022-05-21T15:04:43.023Z</time>
      </trkpt>
      <trkpt lat="43.74584" lon="1.4217">
        <ele>192.640599</ele>
        <time>2022-05-21T15:04:49.019Z</time>
      </trkpt>
      <trkpt lat="43.74582" lon="1.42157">
        <ele>192.730365</ele>
        <time>2022-05-21T15:04:57.028Z</time>
      </trkpt>
      <trkpt lat="43.74579" lon="1.42145">
        <ele>192.819159</ele>
        <time>2022-05-21T15:05:01.025Z</time>
      </trkpt>
      <trkpt lat="43.74577" lon="1.42132">
        <ele>192.910496</ele>
        <time>2022-05-21T15:05:04.023Z</time>
      </trkpt>
      <trkpt lat="43.74574" lon="1.42118">
        <ele>193.010317</ele>
        <time>2022-05-21T15:05:07.021Z</time>
      </trkpt>
      <trkpt lat="43.7457" lon="1.42104">
        <ele>193.113647</ele>
        <time>2022-05-21T15:05:10.035Z</time>
      </trkpt>
      <trkpt lat="43.74566" lon="1.4209">
        <ele>193.217933</ele>
        <time>2022-05-21T15:05:13.036Z</time>
      </trkpt>
      <trkpt lat="43.74555" lon="1.42083">
        <ele>193.337329</ele>
        <time>2022-05-21T15:05:16.026Z</time>
      </trkpt>
      <trkpt lat="43.74545" lon="1.4208">
        <ele>193.430399</ele>
        <time>2022-05-21T15:05:19.025Z</time>
      </trkpt>
      <trkpt lat="43.74531" lon="1.4207">
        <ele>193.585843</ele>
        <time>2022-05-21T15:05:46.028Z</time>
      </trkpt>
      <trkpt lat="43.74522" lon="1.42062">
        <ele>193.68297</ele>
        <time>2022-05-21T15:05:50.034Z</time>
      </trkpt>
      <trkpt lat="43.74514" lon="1.42054">
        <ele>193.908703</ele>
        <time>2022-05-21T15:05:54.010Z</time>
      </trkpt>
      <trkpt lat="43.74507" lon="1.42045">
        <ele>194.189849</ele>
        <time>2022-05-21T15:05:57.025Z</time>
      </trkpt>
      <trkpt lat="43.74498" lon="1.42039">
        <ele>194.488842</ele>
        <time>2022-05-21T15:06:00.023Z</time>
      </trkpt>
      <trkpt lat="43.74487" lon="1.42033">
        <ele>194.850148</ele>
        <time>2022-05-21T15:06:03.031Z</time>
      </trkpt>
      <trkpt lat="43.74476" lon="1.4203">
        <ele>195.204908</ele>
        <time>2022-05-21T15:06:06.023Z</time>
      </trkpt>
      <trkpt lat="43.74464" lon="1.42026">
        <ele>195.564403</ele>
        <time>2022-05-21T15:06:08.019Z</time>
      </trkpt>
      <trkpt lat="43.74454" lon="1.42023">
        <ele>195.878139</ele>
        <time>2022-05-21T15:06:10.016Z</time>
      </trkpt>
      <trkpt lat="43.74445" lon="1.4202">
        <ele>196.168397</ele>
        <time>2022-05-21T15:06:12.023Z</time>
      </trkpt>
      <trkpt lat="43.74436" lon="1.42016">
        <ele>196.441683</ele>
        <time>2022-05-21T15:06:14.045Z</time>
      </trkpt>
      <trkpt lat="43.74424" lon="1.42013">
        <ele>196.829189</ele>
        <time>2022-05-21T15:06:17.049Z</time>
      </trkpt>
      <trkpt lat="43.74414" lon="1.4201">
        <ele>197.132188</ele>
        <time>2022-05-21T15:06:19.026Z</time>
      </trkpt>
      <trkpt lat="43.74405" lon="1.42012">
        <ele>197.406676</ele>
        <time>2022-05-21T15:06:21.017Z</time>
      </trkpt>
      <trkpt lat="43.74394" lon="1.42016">
        <ele>197.756377</ele>
        <time>2022-05-21T15:06:24.017Z</time>
      </trkpt>
      <trkpt lat="43.74383" lon="1.4202">
        <ele>198.101427</ele>
        <time>2022-05-21T15:06:27.029Z</time>
      </trkpt>
      <trkpt lat="43.74372" lon="1.42024">
        <ele>198.428269</ele>
        <time>2022-05-21T15:06:30.007Z</time>
      </trkpt>
      <trkpt lat="43.7436" lon="1.42023">
        <ele>198.816154</ele>
        <time>2022-05-21T15:06:33.017Z</time>
      </trkpt>
      <trkpt lat="43.7435" lon="1.42019">
        <ele>199.135236</ele>
        <time>2022-05-21T15:06:36.008Z</time>
      </trkpt>
      <trkpt lat="43.74341" lon="1.42017">
        <ele>199.805745</ele>
        <time>2022-05-21T15:06:39.023Z</time>
      </trkpt>
      <trkpt lat="43.74331" lon="1.42009">
        <ele>200.657731</ele>
        <time>2022-05-21T15:06:41.019Z</time>
      </trkpt>
      <trkpt lat="43.74319" lon="1.42003">
        <ele>201.676872</ele>
        <time>2022-05-21T15:06:44.027Z</time>
      </trkpt>
      <trkpt lat="43.7431" lon="1.42">
        <ele>202.390062</ele>
        <time>2022-05-21T15:06:46.023Z</time>
      </trkpt>
      <trkpt lat="43.74297" lon="1.42001">
        <ele>203.405976</ele>
        <time>2022-05-21T15:06:49.032Z</time>
      </trkpt>
      <trkpt lat="43.74285" lon="1.42">
        <ele>204.327498</ele>
        <time>2022-05-21T15:06:52.017Z</time>
      </trkpt>
      <trkpt lat="43.74274" lon="1.42001">
        <ele>205.232755</ele>
        <time>2022-05-21T15:06:56.028Z</time>
      </trkpt>
      <trkpt lat="43.74263" lon="1.41997">
        <ele>206.065014</ele>
        <time>2022-05-21T15:06:59.025Z</time>
      </trkpt>
      <trkpt lat="43.74254" lon="1.41994">
        <ele>206.777667</ele>
        <time>2022-05-21T15:07:02.017Z</time>
      </trkpt>
      <trkpt lat="43.74246" lon="1.4199">
        <ele>207.493432</ele>
        <time>2022-05-21T15:07:06.028Z</time>
      </trkpt>
      <trkpt lat="43.74234" lon="1.41987">
        <ele>208.409524</ele>
        <time>2022-05-21T15:07:09.038Z</time>
      </trkpt>
      <trkpt lat="43.74224" lon="1.41984">
        <ele>209.212987</ele>
        <time>2022-05-21T15:07:12.022Z</time>
      </trkpt>
      <trkpt lat="43.74215" lon="1.41983">
        <ele>209.932016</ele>
        <time>2022-05-21T15:07:15.024Z</time>
      </trkpt>
      <trkpt lat="43.74205" lon="1.41985">
        <ele>210.668882</ele>
        <time>2022-05-21T15:07:18.022Z</time>
      </trkpt>
      <trkpt lat="43.74195" lon="1.41989">
        <ele>211.551955</ele>
        <time>2022-05-21T15:07:22.012Z</time>
      </trkpt>
      <trkpt lat="43.74185" lon="1.41994">
        <ele>212.357336</ele>
        <time>2022-05-21T15:07:26.043Z</time>
      </trkpt>
      <trkpt lat="43.74176" lon="1.41996">
        <ele>213.086562</ele>
        <time>2022-05-21T15:07:29.018Z</time>
      </trkpt>
      <trkpt lat="43.74165" lon="1.41999">
        <ele>213.639496</ele>
        <time>2022-05-21T15:07:32.033Z</time>
      </trkpt>
      <trkpt lat="43.74153" lon="1.42006">
        <ele>214.236578</ele>
        <time>2022-05-21T15:07:35.035Z</time>
      </trkpt>
      <trkpt lat="43.74144" lon="1.42008">
        <ele>214.663767</ele>
        <time>2022-05-21T15:07:37.028Z</time>
      </trkpt>
      <trkpt lat="43.74133" lon="1.4201">
        <ele>215.20008</ele>
        <time>2022-05-21T15:07:40.017Z</time>
      </trkpt>
      <trkpt lat="43.74122" lon="1.42012">
        <ele>215.740397</ele>
        <time>2022-05-21T15:07:43.024Z</time>
      </trkpt>
      <trkpt lat="43.74111" lon="1.42015">
        <ele>216.282153</ele>
        <time>2022-05-21T15:07:46.028Z</time>
      </trkpt>
      <trkpt lat="43.74104" lon="1.42025">
        <ele>216.766688</ele>
        <time>2022-05-21T15:07:49.013Z</time>
      </trkpt>
      <trkpt lat="43.7409" lon="1.42033">
        <ele>217.47138</ele>
        <time>2022-05-21T15:07:52.031Z</time>
      </trkpt>
      <trkpt lat="43.7408" lon="1.42035">
        <ele>217.929443</ele>
        <time>2022-05-21T15:07:54.028Z</time>
      </trkpt>
      <trkpt lat="43.7407" lon="1.42036">
        <ele>218.379549</ele>
        <time>2022-05-21T15:07:56.030Z</time>
      </trkpt>
      <trkpt lat="43.74059" lon="1.42039">
        <ele>218.940377</ele>
        <time>2022-05-21T15:07:58.031Z</time>
      </trkpt>
      <trkpt lat="43.74049" lon="1.4204">
        <ele>219.420041</ele>
        <time>2022-05-21T15:08:00.028Z</time>
      </trkpt>
      <trkpt lat="43.74039" lon="1.42042">
        <ele>219.862658</ele>
        <time>2022-05-21T15:08:02.021Z</time>
      </trkpt>
      <trkpt lat="43.74027" lon="1.42043">
        <ele>220.454379</ele>
        <time>2022-05-21T15:08:05.028Z</time>
      </trkpt>
      <trkpt lat="43.74016" lon="1.42046">
        <ele>220.982728</ele>
        <time>2022-05-21T15:08:08.037Z</time>
      </trkpt>
      <trkpt lat="43.74007" lon="1.4205">
        <ele>221.412912</ele>
        <time>2022-05-21T15:08:10.030Z</time>
      </trkpt>
      <trkpt lat="43.73998" lon="1.42054">
        <ele>221.690502</ele>
        <time>2022-05-21T15:08:12.027Z</time>
      </trkpt>
      <trkpt lat="43.73989" lon="1.4206">
        <ele>221.710009</ele>
        <time>2022-05-21T15:08:14.031Z</time>
      </trkpt>
      <trkpt lat="43.73981" lon="1.42065">
        <ele>221.727659</ele>
        <time>2022-05-21T15:08:16.042Z</time>
      </trkpt>
      <trkpt lat="43.73972" lon="1.42071">
        <ele>221.746245</ele>
        <time>2022-05-21T15:08:18.024Z</time>
      </trkpt>
      <trkpt lat="43.73964" lon="1.42078">
        <ele>221.764402</ele>
        <time>2022-05-21T15:08:20.042Z</time>
      </trkpt>
      <trkpt lat="43.73954" lon="1.42079">
        <ele>221.782737</ele>
        <time>2022-05-21T15:08:22.026Z</time>
      </trkpt>
      <trkpt lat="43.73944" lon="1.42082">
        <ele>221.801242</ele>
        <time>2022-05-21T15:08:24.029Z</time>
      </trkpt>
      <trkpt lat="43.73934" lon="1.42087">
        <ele>221.823007</ele>
        <time>2022-05-21T15:08:27.047Z</time>
      </trkpt>
      <trkpt lat="43.73923" lon="1.42093">
        <ele>221.844128</ele>
        <time>2022-05-21T15:08:30.005Z</time>
      </trkpt>
      <trkpt lat="43.73915" lon="1.42097">
        <ele>221.861808</ele>
        <time>2022-05-21T15:08:33.016Z</time>
      </trkpt>
      <trkpt lat="43.73925" lon="1.42092">
        <ele>221.882324</ele>
        <time>2022-05-21T15:08:48.027Z</time>
      </trkpt>
      <trkpt lat="43.73934" lon="1.42089">
        <ele>221.899723</ele>
        <time>2022-05-21T15:08:51.031Z</time>
      </trkpt>
      <trkpt lat="43.73944" lon="1.42087">
        <ele>221.919065</ele>
        <time>2022-05-21T15:08:54.025Z</time>
      </trkpt>
      <trkpt lat="43.73952" lon="1.42094">
        <ele>221.937365</ele>
        <time>2022-05-21T15:08:57.028Z</time>
      </trkpt>
      <trkpt lat="43.73961" lon="1.42105">
        <ele>221.960247</ele>
        <time>2022-05-21T15:09:00.030Z</time>
      </trkpt>
      <trkpt lat="43.73973" lon="1.42117">
        <ele>221.987451</ele>
        <time>2022-05-21T15:09:04.012Z</time>
      </trkpt>
      <trkpt lat="43.73982" lon="1.42125">
        <ele>222.009725</ele>
        <time>2022-05-21T15:09:07.029Z</time>
      </trkpt>
      <trkpt lat="43.73992" lon="1.42134">
        <ele>221.905476</ele>
        <time>2022-05-21T15:09:10.031Z</time>
      </trkpt>
      <trkpt lat="43.73995" lon="1.42148">
        <ele>221.488951</ele>
        <time>2022-05-21T15:09:13.031Z</time>
      </trkpt>
      <trkpt lat="43.74" lon="1.42159">
        <ele>221.102678</ele>
        <time>2022-05-21T15:09:15.020Z</time>
      </trkpt>
      <trkpt lat="43.74006" lon="1.4217">
        <ele>220.714172</ele>
        <time>2022-05-21T15:09:17.042Z</time>
      </trkpt>
      <trkpt lat="43.74014" lon="1.4218">
        <ele>220.30883</ele>
        <time>2022-05-21T15:09:19.032Z</time>
      </trkpt>
      <trkpt lat="43.74026" lon="1.42179">
        <ele>219.810721</ele>
        <time>2022-05-21T15:09:22.034Z</time>
      </trkpt>
      <trkpt lat="43.74034" lon="1.42188">
        <ele>219.407261</ele>
        <time>2022-05-21T15:09:24.035Z</time>
      </trkpt>
      <trkpt lat="43.74041" lon="1.42199">
        <ele>219.015023</ele>
        <time>2022-05-21T15:09:26.024Z</time>
      </trkpt>
      <trkpt lat="43.74045" lon="1.42213">
        <ele>218.565928</ele>
        <time>2022-05-21T15:09:29.011Z</time>
      </trkpt>
      <trkpt lat="43.74043" lon="1.42231">
        <ele>218.03459</ele>
        <time>2022-05-21T15:09:32.032Z</time>
      </trkpt>
      <trkpt lat="43.74042" lon="1.42244">
        <ele>217.671549</ele>
        <time>2022-05-21T15:09:34.020Z</time>
      </trkpt>
      <trkpt lat="43.74038" lon="1.42256">
        <ele>217.293243</ele>
        <time>2022-05-21T15:09:36.026Z</time>
      </trkpt>
      <trkpt lat="43.74035" lon="1.42269">
        <ele>216.912125</ele>
        <time>2022-05-21T15:09:38.020Z</time>
      </trkpt>
      <trkpt lat="43.74033" lon="1.42282">
        <ele>216.537255</ele>
        <time>2022-05-21T15:09:40.023Z</time>
      </trkpt>
      <trkpt lat="43.7403" lon="1.42296">
        <ele>216.114655</ele>
        <time>2022-05-21T15:09:43.027Z</time>
      </trkpt>
      <trkpt lat="43.74021" lon="1.42303">
        <ele>215.704232</ele>
        <time>2022-05-21T15:09:47.014Z</time>
      </trkpt>
      <trkpt lat="43.74005" lon="1.42314">
        <ele>214.998923</ele>
        <time>2022-05-21T15:10:10.035Z</time>
      </trkpt>
      <trkpt lat="43.73994" lon="1.42316">
        <ele>215.317286</ele>
        <time>2022-05-21T15:10:14.043Z</time>
      </trkpt>
      <trkpt lat="43.73982" lon="1.42317">
        <ele>215.795427</ele>
        <time>2022-05-21T15:10:20.045Z</time>
      </trkpt>
      <trkpt lat="43.73972" lon="1.42322">
        <ele>216.252317</ele>
        <time>2022-05-21T15:10:24.034Z</time>
      </trkpt>
      <trkpt lat="43.73964" lon="1.42329">
        <ele>216.640196</ele>
        <time>2022-05-21T15:10:27.037Z</time>
      </trkpt>
      <trkpt lat="43.73957" lon="1.42336">
        <ele>217.02097</ele>
        <time>2022-05-21T15:10:30.030Z</time>
      </trkpt>
      <trkpt lat="43.73947" lon="1.42347">
        <ele>217.550865</ele>
        <time>2022-05-21T15:10:33.023Z</time>
      </trkpt>
      <trkpt lat="43.73939" lon="1.42357">
        <ele>217.991186</ele>
        <time>2022-05-21T15:10:35.024Z</time>
      </trkpt>
      <trkpt lat="43.73926" lon="1.42366">
        <ele>218.620279</ele>
        <time>2022-05-21T15:10:37.030Z</time>
      </trkpt>
      <trkpt lat="43.73917" lon="1.42372">
        <ele>219.04457</ele>
        <time>2022-05-21T15:10:39.020Z</time>
      </trkpt>
      <trkpt lat="43.73907" lon="1.42379">
        <ele>219.516025</ele>
        <time>2022-05-21T15:10:42.024Z</time>
      </trkpt>
      <trkpt lat="43.73895" lon="1.4238">
        <ele>219.992471</ele>
        <time>2022-05-21T15:10:44.020Z</time>
      </trkpt>
      <trkpt lat="43.73884" lon="1.42377">
        <ele>220.472668</ele>
        <time>2022-05-21T15:10:48.019Z</time>
      </trkpt>
      <trkpt lat="43.73876" lon="1.4237">
        <ele>220.859529</ele>
        <time>2022-05-21T15:10:51.060Z</time>
      </trkpt>
      <trkpt lat="43.73867" lon="1.42365">
        <ele>221.267329</ele>
        <time>2022-05-21T15:10:54.034Z</time>
      </trkpt>
      <trkpt lat="43.73859" lon="1.42361">
        <ele>221.649331</ele>
        <time>2022-05-21T15:10:57.027Z</time>
      </trkpt>
      <trkpt lat="43.7385" lon="1.42365">
        <ele>222.042293</ele>
        <time>2022-05-21T15:11:00.057Z</time>
      </trkpt>
      <trkpt lat="43.7384" lon="1.42373">
        <ele>222.498799</ele>
        <time>2022-05-21T15:11:03.031Z</time>
      </trkpt>
      <trkpt lat="43.7383" lon="1.42371">
        <ele>222.785043</ele>
        <time>2022-05-21T15:11:07.028Z</time>
      </trkpt>
      <trkpt lat="43.73821" lon="1.42365">
        <ele>223.056178</ele>
        <time>2022-05-21T15:11:13.017Z</time>
      </trkpt>
      <trkpt lat="43.73809" lon="1.42362">
        <ele>223.371143</ele>
        <time>2022-05-21T15:11:18.041Z</time>
      </trkpt>
      <trkpt lat="43.73799" lon="1.42354">
        <ele>223.67435</ele>
        <time>2022-05-21T15:11:23.025Z</time>
      </trkpt>
      <trkpt lat="43.73791" lon="1.42346">
        <ele>223.951942</ele>
        <time>2022-05-21T15:11:26.031Z</time>
      </trkpt>
      <trkpt lat="43.73785" lon="1.42332">
        <ele>224.262216</ele>
        <time>2022-05-21T15:11:31.026Z</time>
      </trkpt>
      <trkpt lat="43.73777" lon="1.42325">
        <ele>224.513335</ele>
        <time>2022-05-21T15:11:34.023Z</time>
      </trkpt>
      <trkpt lat="43.73768" lon="1.42318">
        <ele>224.810454</ele>
        <time>2022-05-21T15:11:37.032Z</time>
      </trkpt>
      <trkpt lat="43.73759" lon="1.42309">
        <ele>225.098</ele>
        <time>2022-05-21T15:11:40.033Z</time>
      </trkpt>
      <trkpt lat="43.73758" lon="1.42294">
        <ele>225.400688</ele>
        <time>2022-05-21T15:11:44.006Z</time>
      </trkpt>
      <trkpt lat="43.73765" lon="1.42282">
        <ele>225.685006</ele>
        <time>2022-05-21T15:11:48.033Z</time>
      </trkpt>
      <trkpt lat="43.7377" lon="1.42272">
        <ele>225.929285</ele>
        <time>2022-05-21T15:11:52.022Z</time>
      </trkpt>
      <trkpt lat="43.73772" lon="1.42259">
        <ele>226.189401</ele>
        <time>2022-05-21T15:11:56.023Z</time>
      </trkpt>
      <trkpt lat="43.73771" lon="1.42246">
        <ele>226.436059</ele>
        <time>2022-05-21T15:11:59.019Z</time>
      </trkpt>
      <trkpt lat="43.73762" lon="1.42238">
        <ele>226.724712</ele>
        <time>2022-05-21T15:12:05.022Z</time>
      </trkpt>
      <trkpt lat="43.73761" lon="1.42225">
        <ele>226.972892</ele>
        <time>2022-05-21T15:12:08.010Z</time>
      </trkpt>
      <trkpt lat="43.73758" lon="1.42211">
        <ele>227.262022</ele>
        <time>2022-05-21T15:12:11.023Z</time>
      </trkpt>
      <trkpt lat="43.73749" lon="1.42204">
        <ele>227.33977</ele>
        <time>2022-05-21T15:12:14.038Z</time>
      </trkpt>
      <trkpt lat="43.73741" lon="1.42208">
        <ele>227.346804</ele>
        <time>2022-05-21T15:12:18.046Z</time>
      </trkpt>
      <trkpt lat="43.73731" lon="1.42209">
        <ele>227.354588</ele>
        <time>2022-05-21T15:12:21.029Z</time>
      </trkpt>
      <trkpt lat="43.73723" lon="1.42216">
        <ele>227.361773</ele>
        <time>2022-05-21T15:12:23.029Z</time>
      </trkpt>
      <trkpt lat="43.73713" lon="1.42224">
        <ele>227.370697</ele>
        <time>2022-05-21T15:12:27.020Z</time>
      </trkpt>
      <trkpt lat="43.73704" lon="1.42231">
        <ele>227.378579</ele>
        <time>2022-05-21T15:12:29.029Z</time>
      </trkpt>
      <trkpt lat="43.73697" lon="1.42238">
        <ele>227.385795</ele>
        <time>2022-05-21T15:12:31.030Z</time>
      </trkpt>
      <trkpt lat="43.73688" lon="1.42244">
        <ele>227.393129</ele>
        <time>2022-05-21T15:12:33.025Z</time>
      </trkpt>
      <trkpt lat="43.73681" lon="1.42251">
        <ele>227.400439</ele>
        <time>2022-05-21T15:12:35.025Z</time>
      </trkpt>
      <trkpt lat="43.7367" lon="1.42259">
        <ele>227.409842</ele>
        <time>2022-05-21T15:12:37.032Z</time>
      </trkpt>
      <trkpt lat="43.7366" lon="1.42269">
        <ele>227.419149</ele>
        <time>2022-05-21T15:12:40.038Z</time>
      </trkpt>
      <trkpt lat="43.73654" lon="1.42283">
        <ele>227.42871</ele>
        <time>2022-05-21T15:12:43.022Z</time>
      </trkpt>
      <trkpt lat="43.73658" lon="1.42299">
        <ele>227.438184</ele>
        <time>2022-05-21T15:12:46.035Z</time>
      </trkpt>
      <trkpt lat="43.73665" lon="1.42315">
        <ele>227.448484</ele>
        <time>2022-05-21T15:12:50.022Z</time>
      </trkpt>
      <trkpt lat="43.73655" lon="1.4233">
        <ele>227.459982</ele>
        <time>2022-05-21T15:12:54.036Z</time>
      </trkpt>
      <trkpt lat="43.73647" lon="1.42339">
        <ele>227.467912</ele>
        <time>2022-05-21T15:12:56.019Z</time>
      </trkpt>
      <trkpt lat="43.73641" lon="1.42349">
        <ele>227.468269</ele>
        <time>2022-05-21T15:12:58.009Z</time>
      </trkpt>
      <trkpt lat="43.7363" lon="1.42363">
        <ele>227.370533</ele>
        <time>2022-05-21T15:13:01.020Z</time>
      </trkpt>
      <trkpt lat="43.73622" lon="1.42376">
        <ele>227.283405</ele>
        <time>2022-05-21T15:13:03.031Z</time>
      </trkpt>
      <trkpt lat="43.7362" lon="1.42393">
        <ele>227.196595</ele>
        <time>2022-05-21T15:13:06.015Z</time>
      </trkpt>
      <trkpt lat="43.73627" lon="1.42405">
        <ele>227.121342</ele>
        <time>2022-05-21T15:13:10.019Z</time>
      </trkpt>
      <trkpt lat="43.73636" lon="1.42417">
        <ele>227.036876</ele>
        <time>2022-05-21T15:13:13.058Z</time>
      </trkpt>
      <trkpt lat="43.73638" lon="1.42429">
        <ele>226.972981</ele>
        <time>2022-05-21T15:13:28.034Z</time>
      </trkpt>
      <trkpt lat="43.73633" lon="1.42441">
        <ele>226.905477</ele>
        <time>2022-05-21T15:13:35.045Z</time>
      </trkpt>
      <trkpt lat="43.73659" lon="1.42403">
        <ele>226.644562</ele>
        <time>2022-05-21T15:14:08.024Z</time>
      </trkpt>
      <trkpt lat="43.7367" lon="1.42395">
        <ele>226.56271</ele>
        <time>2022-05-21T15:14:11.030Z</time>
      </trkpt>
      <trkpt lat="43.73679" lon="1.42389">
        <ele>226.491934</ele>
        <time>2022-05-21T15:14:13.028Z</time>
      </trkpt>
      <trkpt lat="43.7369" lon="1.42386">
        <ele>226.417478</ele>
        <time>2022-05-21T15:14:16.027Z</time>
      </trkpt>
      <trkpt lat="43.73701" lon="1.42382">
        <ele>226.339051</ele>
        <time>2022-05-21T15:14:20.022Z</time>
      </trkpt>
      <trkpt lat="43.73711" lon="1.42383">
        <ele>226.268454</ele>
        <time>2022-05-21T15:14:24.027Z</time>
      </trkpt>
      <trkpt lat="43.73724" lon="1.42377">
        <ele>225.675638</ele>
        <time>2022-05-21T15:14:30.049Z</time>
      </trkpt>
      <trkpt lat="43.73734" lon="1.42382">
        <ele>225.053273</ele>
        <time>2022-05-21T15:14:33.038Z</time>
      </trkpt>
      <trkpt lat="43.7374" lon="1.42397">
        <ele>224.344077</ele>
        <time>2022-05-21T15:14:36.022Z</time>
      </trkpt>
      <trkpt lat="43.73748" lon="1.42407">
        <ele>223.736097</ele>
        <time>2022-05-21T15:14:38.039Z</time>
      </trkpt>
      <trkpt lat="43.73755" lon="1.42414">
        <ele>223.221523</ele>
        <time>2022-05-21T15:14:40.028Z</time>
      </trkpt>
      <trkpt lat="43.73778" lon="1.4243">
        <ele>221.776484</ele>
        <time>2022-05-21T15:14:46.027Z</time>
      </trkpt>
      <trkpt lat="43.7378" lon="1.42417">
        <ele>221.254715</ele>
        <time>2022-05-21T15:14:51.036Z</time>
      </trkpt>
      <trkpt lat="43.73792" lon="1.424">
        <ele>221.226471</ele>
        <time>2022-05-21T15:16:44.026Z</time>
      </trkpt>
      <trkpt lat="43.73787" lon="1.42388">
        <ele>221.791567</ele>
        <time>2022-05-21T15:16:47.033Z</time>
      </trkpt>
      <trkpt lat="43.7379" lon="1.42375">
        <ele>222.334062</ele>
        <time>2022-05-21T15:16:50.036Z</time>
      </trkpt>
      <trkpt lat="43.73799" lon="1.42365">
        <ele>222.951427</ele>
        <time>2022-05-21T15:16:53.061Z</time>
      </trkpt>
      <trkpt lat="43.73792" lon="1.4235">
        <ele>223.662344</ele>
        <time>2022-05-21T15:16:59.036Z</time>
      </trkpt>
      <trkpt lat="43.73787" lon="1.42338">
        <ele>224.216906</ele>
        <time>2022-05-21T15:17:01.035Z</time>
      </trkpt>
      <trkpt lat="43.73776" lon="1.42331">
        <ele>224.882496</ele>
        <time>2022-05-21T15:17:04.036Z</time>
      </trkpt>
      <trkpt lat="43.73765" lon="1.42324">
        <ele>225.529092</ele>
        <time>2022-05-21T15:17:07.014Z</time>
      </trkpt>
      <trkpt lat="43.73756" lon="1.42318">
        <ele>225.725183</ele>
        <time>2022-05-21T15:17:09.022Z</time>
      </trkpt>
      <trkpt lat="43.73745" lon="1.42307">
        <ele>225.456607</ele>
        <time>2022-05-21T15:17:12.034Z</time>
      </trkpt>
      <trkpt lat="43.73738" lon="1.42299">
        <ele>225.27853</ele>
        <time>2022-05-21T15:17:14.024Z</time>
      </trkpt>
      <trkpt lat="43.73738" lon="1.42282">
        <ele>225.030377</ele>
        <time>2022-05-21T15:17:17.051Z</time>
      </trkpt>
      <trkpt lat="43.73744" lon="1.42266">
        <ele>224.779902</ele>
        <time>2022-05-21T15:17:20.020Z</time>
      </trkpt>
      <trkpt lat="43.73753" lon="1.42257">
        <ele>224.559676</ele>
        <time>2022-05-21T15:17:23.036Z</time>
      </trkpt>
      <trkpt lat="43.73758" lon="1.42243">
        <ele>224.345562</ele>
        <time>2022-05-21T15:17:26.027Z</time>
      </trkpt>
      <trkpt lat="43.73761" lon="1.42229">
        <ele>224.1355</ele>
        <time>2022-05-21T15:17:29.014Z</time>
      </trkpt>
      <trkpt lat="43.73762" lon="1.42215">
        <ele>223.935189</ele>
        <time>2022-05-21T15:17:31.024Z</time>
      </trkpt>
      <trkpt lat="43.73761" lon="1.422">
        <ele>223.716607</ele>
        <time>2022-05-21T15:17:34.029Z</time>
      </trkpt>
      <trkpt lat="43.73753" lon="1.42188">
        <ele>223.491005</ele>
        <time>2022-05-21T15:17:38.029Z</time>
      </trkpt>
      <trkpt lat="43.7375" lon="1.42174">
        <ele>223.275542</ele>
        <time>2022-05-21T15:17:42.027Z</time>
      </trkpt>
      <trkpt lat="43.73742" lon="1.42164">
        <ele>223.06886</ele>
        <time>2022-05-21T15:17:44.031Z</time>
      </trkpt>
      <trkpt lat="43.73733" lon="1.42154">
        <ele>222.846117</ele>
        <time>2022-05-21T15:17:46.029Z</time>
      </trkpt>
      <trkpt lat="43.73724" lon="1.42148">
        <ele>222.649538</ele>
        <time>2022-05-21T15:17:49.036Z</time>
      </trkpt>
      <trkpt lat="43.73829" lon="1.4216">
        <ele>222.004688</ele>
        <time>2022-05-21T15:23:10.021Z</time>
      </trkpt>
      <trkpt lat="43.7384" lon="1.42154">
        <ele>222.867987</ele>
        <time>2022-05-21T15:23:14.023Z</time>
      </trkpt>
      <trkpt lat="43.73849" lon="1.42149">
        <ele>223.584746</ele>
        <time>2022-05-21T15:23:16.042Z</time>
      </trkpt>
      <trkpt lat="43.73859" lon="1.42142">
        <ele>224.400025</ele>
        <time>2022-05-21T15:23:18.034Z</time>
      </trkpt>
      <trkpt lat="43.73869" lon="1.42137">
        <ele>224.299436</ele>
        <time>2022-05-21T15:23:20.028Z</time>
      </trkpt>
      <trkpt lat="43.73879" lon="1.42131">
        <ele>224.198188</ele>
        <time>2022-05-21T15:23:22.042Z</time>
      </trkpt>
      <trkpt lat="43.73888" lon="1.42125">
        <ele>224.104695</ele>
        <time>2022-05-21T15:23:24.042Z</time>
      </trkpt>
      <trkpt lat="43.73896" lon="1.42119">
        <ele>224.01585</ele>
        <time>2022-05-21T15:23:26.045Z</time>
      </trkpt>
      <trkpt lat="43.73908" lon="1.42114">
        <ele>223.894786</ele>
        <time>2022-05-21T15:23:29.036Z</time>
      </trkpt>
      <trkpt lat="43.7392" lon="1.4211">
        <ele>223.781985</ele>
        <time>2022-05-21T15:23:32.035Z</time>
      </trkpt>
      <trkpt lat="43.73932" lon="1.42107">
        <ele>223.665212</ele>
        <time>2022-05-21T15:23:35.012Z</time>
      </trkpt>
      <trkpt lat="43.73944" lon="1.42106">
        <ele>223.546437</ele>
        <time>2022-05-21T15:23:38.023Z</time>
      </trkpt>
      <trkpt lat="43.73956" lon="1.42096">
        <ele>223.417147</ele>
        <time>2022-05-21T15:23:41.027Z</time>
      </trkpt>
      <trkpt lat="43.73965" lon="1.42088">
        <ele>223.318398</ele>
        <time>2022-05-21T15:23:43.023Z</time>
      </trkpt>
      <trkpt lat="43.73974" lon="1.42084">
        <ele>223.219832</ele>
        <time>2022-05-21T15:23:45.028Z</time>
      </trkpt>
      <trkpt lat="43.73984" lon="1.42079">
        <ele>223.119375</ele>
        <time>2022-05-21T15:23:47.015Z</time>
      </trkpt>
      <trkpt lat="43.73994" lon="1.42073">
        <ele>223.02243</ele>
        <time>2022-05-21T15:23:49.019Z</time>
      </trkpt>
      <trkpt lat="43.74004" lon="1.42069">
        <ele>222.916902</ele>
        <time>2022-05-21T15:23:51.036Z</time>
      </trkpt>
      <trkpt lat="43.74014" lon="1.42066">
        <ele>222.819777</ele>
        <time>2022-05-21T15:23:53.034Z</time>
      </trkpt>
      <trkpt lat="43.74024" lon="1.42064">
        <ele>222.72658</ele>
        <time>2022-05-21T15:23:55.029Z</time>
      </trkpt>
      <trkpt lat="43.74037" lon="1.4206">
        <ele>221.912207</ele>
        <time>2022-05-21T15:23:58.040Z</time>
      </trkpt>
      <trkpt lat="43.7405" lon="1.42057">
        <ele>220.82585</ele>
        <time>2022-05-21T15:24:01.067Z</time>
      </trkpt>
      <trkpt lat="43.7406" lon="1.42055">
        <ele>219.970286</ele>
        <time>2022-05-21T15:24:03.054Z</time>
      </trkpt>
      <trkpt lat="43.7407" lon="1.42056">
        <ele>219.155848</ele>
        <time>2022-05-21T15:24:05.036Z</time>
      </trkpt>
      <trkpt lat="43.74079" lon="1.42052">
        <ele>218.335514</ele>
        <time>2022-05-21T15:24:07.031Z</time>
      </trkpt>
      <trkpt lat="43.74086" lon="1.4204">
        <ele>217.417915</ele>
        <time>2022-05-21T15:24:10.020Z</time>
      </trkpt>
      <trkpt lat="43.74094" lon="1.42031">
        <ele>216.536189</ele>
        <time>2022-05-21T15:24:13.036Z</time>
      </trkpt>
      <trkpt lat="43.74105" lon="1.42025">
        <ele>215.60592</ele>
        <time>2022-05-21T15:24:17.018Z</time>
      </trkpt>
      <trkpt lat="43.74103" lon="1.42012">
        <ele>214.795514</ele>
        <time>2022-05-21T15:24:22.036Z</time>
      </trkpt>
      <trkpt lat="43.74094" lon="1.42004">
        <ele>213.92114</ele>
        <time>2022-05-21T15:24:25.033Z</time>
      </trkpt>
      <trkpt lat="43.74084" lon="1.41994">
        <ele>212.924044</ele>
        <time>2022-05-21T15:24:28.038Z</time>
      </trkpt>
      <trkpt lat="43.74078" lon="1.41983">
        <ele>212.057796</ele>
        <time>2022-05-21T15:24:31.017Z</time>
      </trkpt>
      <trkpt lat="43.74068" lon="1.41965">
        <ele>210.695952</ele>
        <time>2022-05-21T15:24:51.031Z</time>
      </trkpt>
      <trkpt lat="43.74062" lon="1.41955">
        <ele>209.909833</ele>
        <time>2022-05-21T15:24:55.035Z</time>
      </trkpt>
      <trkpt lat="43.74057" lon="1.41938">
        <ele>208.808524</ele>
        <time>2022-05-21T15:24:58.022Z</time>
      </trkpt>
      <trkpt lat="43.74053" lon="1.41923">
        <ele>207.852826</ele>
        <time>2022-05-21T15:25:00.033Z</time>
      </trkpt>
      <trkpt lat="43.74048" lon="1.41909">
        <ele>207.025186</ele>
        <time>2022-05-21T15:25:03.027Z</time>
      </trkpt>
      <trkpt lat="43.74041" lon="1.41899">
        <ele>206.273912</ele>
        <time>2022-05-21T15:25:06.009Z</time>
      </trkpt>
      <trkpt lat="43.74033" lon="1.4189">
        <ele>205.555197</ele>
        <time>2022-05-21T15:25:09.027Z</time>
      </trkpt>
      <trkpt lat="43.74025" lon="1.41879">
        <ele>204.691619</ele>
        <time>2022-05-21T15:25:12.027Z</time>
      </trkpt>
      <trkpt lat="43.74017" lon="1.41868">
        <ele>203.848801</ele>
        <time>2022-05-21T15:25:16.022Z</time>
      </trkpt>
      <trkpt lat="43.74013" lon="1.41848">
        <ele>202.736803</ele>
        <time>2022-05-21T15:25:22.030Z</time>
      </trkpt>
      <trkpt lat="43.74022" lon="1.41838">
        <ele>201.893341</ele>
        <time>2022-05-21T15:25:28.019Z</time>
      </trkpt>
      <trkpt lat="43.74031" lon="1.41841">
        <ele>201.170044</ele>
        <time>2022-05-21T15:25:32.030Z</time>
      </trkpt>
      <trkpt lat="43.74041" lon="1.41841">
        <ele>200.466751</ele>
        <time>2022-05-21T15:25:35.030Z</time>
      </trkpt>
      <trkpt lat="43.7405" lon="1.4184">
        <ele>199.756066</ele>
        <time>2022-05-21T15:25:39.007Z</time>
      </trkpt>
      <trkpt lat="43.7406" lon="1.41837">
        <ele>199.058777</ele>
        <time>2022-05-21T15:25:47.010Z</time>
      </trkpt>
      <trkpt lat="43.74068" lon="1.41831">
        <ele>198.39134</ele>
        <time>2022-05-21T15:25:50.007Z</time>
      </trkpt>
      <trkpt lat="43.74077" lon="1.41829">
        <ele>197.687263</ele>
        <time>2022-05-21T15:25:57.005Z</time>
      </trkpt>
      <trkpt lat="43.74089" lon="1.41824">
        <ele>196.761761</ele>
        <time>2022-05-21T15:26:01.003Z</time>
      </trkpt>
      <trkpt lat="43.741" lon="1.41826">
        <ele>195.965006</ele>
        <time>2022-05-21T15:26:05.021Z</time>
      </trkpt>
      <trkpt lat="43.74112" lon="1.41825">
        <ele>195.061707</ele>
        <time>2022-05-21T15:26:10.005Z</time>
      </trkpt>
      <trkpt lat="43.74125" lon="1.41821">
        <ele>194.36662</ele>
        <time>2022-05-21T15:26:12.005Z</time>
      </trkpt>
      <trkpt lat="43.74135" lon="1.41817">
        <ele>194.212656</ele>
        <time>2022-05-21T15:26:16.035Z</time>
      </trkpt>
      <trkpt lat="43.74144" lon="1.41813">
        <ele>194.069271</ele>
        <time>2022-05-21T15:26:20.023Z</time>
      </trkpt>
      <trkpt lat="43.74156" lon="1.41806">
        <ele>193.869835</ele>
        <time>2022-05-21T15:26:24.033Z</time>
      </trkpt>
      <trkpt lat="43.74167" lon="1.418">
        <ele>193.682211</ele>
        <time>2022-05-21T15:26:28.020Z</time>
      </trkpt>
      <trkpt lat="43.74177" lon="1.41804">
        <ele>193.529306</ele>
        <time>2022-05-21T15:26:33.024Z</time>
      </trkpt>
      <trkpt lat="43.74188" lon="1.41804">
        <ele>193.366255</ele>
        <time>2022-05-21T15:26:37.027Z</time>
      </trkpt>
      <trkpt lat="43.74199" lon="1.41803">
        <ele>193.188497</ele>
        <time>2022-05-21T15:26:39.007Z</time>
      </trkpt>
      <trkpt lat="43.74209" lon="1.41812">
        <ele>193.002803</ele>
        <time>2022-05-21T15:26:43.021Z</time>
      </trkpt>
      <trkpt lat="43.74218" lon="1.41822">
        <ele>192.830296</ele>
        <time>2022-05-21T15:26:47.039Z</time>
      </trkpt>
      <trkpt lat="43.74228" lon="1.41823">
        <ele>192.678975</ele>
        <time>2022-05-21T15:26:51.026Z</time>
      </trkpt>
      <trkpt lat="43.74238" lon="1.41822">
        <ele>192.516846</ele>
        <time>2022-05-21T15:26:55.005Z</time>
      </trkpt>
      <trkpt lat="43.7425" lon="1.41828">
        <ele>192.326882</ele>
        <time>2022-05-21T15:26:58.026Z</time>
      </trkpt>
      <trkpt lat="43.74258" lon="1.41832">
        <ele>192.186704</ele>
        <time>2022-05-21T15:27:00.013Z</time>
      </trkpt>
      <trkpt lat="43.74269" lon="1.41837">
        <ele>192.017658</ele>
        <time>2022-05-21T15:27:03.030Z</time>
      </trkpt>
      <trkpt lat="43.74281" lon="1.41841">
        <ele>191.825782</ele>
        <time>2022-05-21T15:27:07.021Z</time>
      </trkpt>
      <trkpt lat="43.74294" lon="1.41848">
        <ele>191.662529</ele>
        <time>2022-05-21T15:27:10.019Z</time>
      </trkpt>
      <trkpt lat="43.74305" lon="1.41856">
        <ele>191.600761</ele>
        <time>2022-05-21T15:27:13.022Z</time>
      </trkpt>
      <trkpt lat="43.74315" lon="1.41864">
        <ele>191.538764</ele>
        <time>2022-05-21T15:27:17.024Z</time>
      </trkpt>
      <trkpt lat="43.74326" lon="1.41871">
        <ele>191.476721</ele>
        <time>2022-05-21T15:27:21.022Z</time>
      </trkpt>
      <trkpt lat="43.74335" lon="1.41877">
        <ele>191.426165</ele>
        <time>2022-05-21T15:27:23.039Z</time>
      </trkpt>
      <trkpt lat="43.74345" lon="1.41882">
        <ele>191.372782</ele>
        <time>2022-05-21T15:27:26.035Z</time>
      </trkpt>
      <trkpt lat="43.74356" lon="1.41887">
        <ele>191.317745</ele>
        <time>2022-05-21T15:27:28.998Z</time>
      </trkpt>
      <trkpt lat="43.74364" lon="1.41894">
        <ele>191.267067</ele>
        <time>2022-05-21T15:27:31.014Z</time>
      </trkpt>
      <trkpt lat="43.74373" lon="1.41901">
        <ele>191.216239</ele>
        <time>2022-05-21T15:27:33.022Z</time>
      </trkpt>
      <trkpt lat="43.74383" lon="1.41908">
        <ele>191.159074</ele>
        <time>2022-05-21T15:27:36.010Z</time>
      </trkpt>
      <trkpt lat="43.74392" lon="1.41913">
        <ele>191.110968</ele>
        <time>2022-05-21T15:27:39.013Z</time>
      </trkpt>
      <trkpt lat="43.74402" lon="1.41919">
        <ele>191.055487</ele>
        <time>2022-05-21T15:27:41.017Z</time>
      </trkpt>
      <trkpt lat="43.74412" lon="1.41921">
        <ele>191.002127</ele>
        <time>2022-05-21T15:27:45.024Z</time>
      </trkpt>
      <trkpt lat="43.74421" lon="1.41928">
        <ele>190.951015</ele>
        <time>2022-05-21T15:27:54.029Z</time>
      </trkpt>
      <trkpt lat="43.74429" lon="1.41936">
        <ele>190.900243</ele>
        <time>2022-05-21T15:27:57.030Z</time>
      </trkpt>
      <trkpt lat="43.74439" lon="1.41935">
        <ele>190.850006</ele>
        <time>2022-05-21T15:28:02.023Z</time>
      </trkpt>
      <trkpt lat="43.74447" lon="1.41929">
        <ele>190.802622</ele>
        <time>2022-05-21T15:28:07.039Z</time>
      </trkpt>
      <trkpt lat="43.74456" lon="1.41923">
        <ele>190.799304</ele>
        <time>2022-05-21T15:28:11.032Z</time>
      </trkpt>
      <trkpt lat="43.74464" lon="1.41912">
        <ele>190.852009</ele>
        <time>2022-05-21T15:28:15.025Z</time>
      </trkpt>
      <trkpt lat="43.74463" lon="1.419">
        <ele>190.894673</ele>
        <time>2022-05-21T15:28:22.025Z</time>
      </trkpt>
      <trkpt lat="43.74455" lon="1.41893">
        <ele>190.939455</ele>
        <time>2022-05-21T15:28:25.024Z</time>
      </trkpt>
      <trkpt lat="43.74445" lon="1.41887">
        <ele>190.988569</ele>
        <time>2022-05-21T15:28:29.035Z</time>
      </trkpt>
      <trkpt lat="43.74435" lon="1.41883">
        <ele>191.036828</ele>
        <time>2022-05-21T15:28:32.032Z</time>
      </trkpt>
      <trkpt lat="43.74424" lon="1.41882">
        <ele>191.086456</ele>
        <time>2022-05-21T15:28:35.039Z</time>
      </trkpt>
      <trkpt lat="43.74414" lon="1.4188">
        <ele>191.133596</ele>
        <time>2022-05-21T15:28:38.029Z</time>
      </trkpt>
      <trkpt lat="43.74405" lon="1.41875">
        <ele>191.180847</ele>
        <time>2022-05-21T15:28:41.028Z</time>
      </trkpt>
      <trkpt lat="43.74396" lon="1.41871">
        <ele>191.223791</ele>
        <time>2022-05-21T15:28:44.049Z</time>
      </trkpt>
      <trkpt lat="43.74386" lon="1.4187">
        <ele>191.271891</ele>
        <time>2022-05-21T15:28:49.021Z</time>
      </trkpt>
      <trkpt lat="43.74375" lon="1.41862">
        <ele>191.328571</ele>
        <time>2022-05-21T15:28:54.001Z</time>
      </trkpt>
      <trkpt lat="43.74365" lon="1.41855">
        <ele>191.383455</ele>
        <time>2022-05-21T15:28:57.017Z</time>
      </trkpt>
      <trkpt lat="43.74353" lon="1.41848">
        <ele>191.440487</ele>
        <time>2022-05-21T15:29:00.031Z</time>
      </trkpt>
      <trkpt lat="43.74342" lon="1.4184">
        <ele>191.499952</ele>
        <time>2022-05-21T15:29:03.034Z</time>
      </trkpt>
      <trkpt lat="43.74331" lon="1.41833">
        <ele>191.557114</ele>
        <time>2022-05-21T15:29:06.017Z</time>
      </trkpt>
      <trkpt lat="43.74321" lon="1.41829">
        <ele>191.605474</ele>
        <time>2022-05-21T15:29:08.011Z</time>
      </trkpt>
      <trkpt lat="43.74309" lon="1.41824">
        <ele>192.040573</ele>
        <time>2022-05-21T15:29:10.010Z</time>
      </trkpt>
      <trkpt lat="43.743" lon="1.41819">
        <ele>192.497883</ele>
        <time>2022-05-21T15:29:12.022Z</time>
      </trkpt>
      <trkpt lat="43.7429" lon="1.41814">
        <ele>192.970963</ele>
        <time>2022-05-21T15:29:14.018Z</time>
      </trkpt>
      <trkpt lat="43.74278" lon="1.41807">
        <ele>193.556742</ele>
        <time>2022-05-21T15:29:17.010Z</time>
      </trkpt>
      <trkpt lat="43.74269" lon="1.41802">
        <ele>193.981824</ele>
        <time>2022-05-21T15:29:19.021Z</time>
      </trkpt>
      <trkpt lat="43.74259" lon="1.41799">
        <ele>194.420578</ele>
        <time>2022-05-21T15:29:21.005Z</time>
      </trkpt>
      <trkpt lat="43.74249" lon="1.41793">
        <ele>194.910657</ele>
        <time>2022-05-21T15:29:23.040Z</time>
      </trkpt>
      <trkpt lat="43.7424" lon="1.41785">
        <ele>195.369882</ele>
        <time>2022-05-21T15:29:25.015Z</time>
      </trkpt>
      <trkpt lat="43.74228" lon="1.41779">
        <ele>195.937434</ele>
        <time>2022-05-21T15:29:28.028Z</time>
      </trkpt>
      <trkpt lat="43.74219" lon="1.41771">
        <ele>196.394377</ele>
        <time>2022-05-21T15:29:31.010Z</time>
      </trkpt>
      <trkpt lat="43.74216" lon="1.41758">
        <ele>196.830113</ele>
        <time>2022-05-21T15:29:34.005Z</time>
      </trkpt>
      <trkpt lat="43.74215" lon="1.41744">
        <ele>197.269019</ele>
        <time>2022-05-21T15:29:37.025Z</time>
      </trkpt>
      <trkpt lat="43.74214" lon="1.41728">
        <ele>197.797871</ele>
        <time>2022-05-21T15:29:40.034Z</time>
      </trkpt>
      <trkpt lat="43.74214" lon="1.41714">
        <ele>198.23093</ele>
        <time>2022-05-21T15:29:44.016Z</time>
      </trkpt>
      <trkpt lat="43.742" lon="1.41709">
        <ele>198.866598</ele>
        <time>2022-05-21T15:30:00.032Z</time>
      </trkpt>
      <trkpt lat="43.74188" lon="1.41705">
        <ele>199.407847</ele>
        <time>2022-05-21T15:30:04.026Z</time>
      </trkpt>
      <trkpt lat="43.74178" lon="1.41704">
        <ele>199.85198</ele>
        <time>2022-05-21T15:30:07.021Z</time>
      </trkpt>
      <trkpt lat="43.74168" lon="1.41703">
        <ele>200.274404</ele>
        <time>2022-05-21T15:30:09.011Z</time>
      </trkpt>
      <trkpt lat="43.74155" lon="1.41705">
        <ele>200.83712</ele>
        <time>2022-05-21T15:30:12.024Z</time>
      </trkpt>
      <trkpt lat="43.74143" lon="1.41706">
        <ele>201.355595</ele>
        <time>2022-05-21T15:30:15.017Z</time>
      </trkpt>
      <trkpt lat="43.74133" lon="1.41706">
        <ele>201.808606</ele>
        <time>2022-05-21T15:30:18.025Z</time>
      </trkpt>
      <trkpt lat="43.74121" lon="1.41707">
        <ele>202.331379</ele>
        <time>2022-05-21T15:30:21.052Z</time>
      </trkpt>
      <trkpt lat="43.74109" lon="1.41705">
        <ele>202.838683</ele>
        <time>2022-05-21T15:30:24.049Z</time>
      </trkpt>
      <trkpt lat="43.74096" lon="1.41708">
        <ele>203.420968</ele>
        <time>2022-05-21T15:30:27.022Z</time>
      </trkpt>
      <trkpt lat="43.74083" lon="1.41708">
        <ele>203.972711</ele>
        <time>2022-05-21T15:30:30.032Z</time>
      </trkpt>
      <trkpt lat="43.7407" lon="1.41707">
        <ele>204.541857</ele>
        <time>2022-05-21T15:30:33.020Z</time>
      </trkpt>
      <trkpt lat="43.7406" lon="1.41708">
        <ele>204.948135</ele>
        <time>2022-05-21T15:30:35.009Z</time>
      </trkpt>
      <trkpt lat="43.74051" lon="1.4171">
        <ele>205.366045</ele>
        <time>2022-05-21T15:30:37.008Z</time>
      </trkpt>
      <trkpt lat="43.74039" lon="1.41706">
        <ele>205.914304</ele>
        <time>2022-05-21T15:30:40.014Z</time>
      </trkpt>
      <trkpt lat="43.74024" lon="1.41704">
        <ele>206.544983</ele>
        <time>2022-05-21T15:30:43.013Z</time>
      </trkpt>
      <trkpt lat="43.74013" lon="1.41705">
        <ele>207.001949</ele>
        <time>2022-05-21T15:30:45.008Z</time>
      </trkpt>
      <trkpt lat="43.74004" lon="1.41707">
        <ele>207.353628</ele>
        <time>2022-05-21T15:30:47.015Z</time>
      </trkpt>
      <trkpt lat="43.73995" lon="1.41707">
        <ele>207.607048</ele>
        <time>2022-05-21T15:30:49.020Z</time>
      </trkpt>
      <trkpt lat="43.73986" lon="1.41709">
        <ele>207.850591</ele>
        <time>2022-05-21T15:30:51.025Z</time>
      </trkpt>
      <trkpt lat="43.73976" lon="1.41711">
        <ele>208.112789</ele>
        <time>2022-05-21T15:30:53.022Z</time>
      </trkpt>
      <trkpt lat="43.73966" lon="1.41713">
        <ele>208.359727</ele>
        <time>2022-05-21T15:30:55.026Z</time>
      </trkpt>
      <trkpt lat="43.73953" lon="1.41714">
        <ele>208.710868</ele>
        <time>2022-05-21T15:30:58.020Z</time>
      </trkpt>
      <trkpt lat="43.7394" lon="1.41714">
        <ele>209.040019</ele>
        <time>2022-05-21T15:31:01.039Z</time>
      </trkpt>
      <trkpt lat="43.7393" lon="1.41714">
        <ele>209.2986</ele>
        <time>2022-05-21T15:31:03.024Z</time>
      </trkpt>
      <trkpt lat="43.73917" lon="1.41717">
        <ele>209.646848</ele>
        <time>2022-05-21T15:31:06.006Z</time>
      </trkpt>
      <trkpt lat="43.73908" lon="1.41719">
        <ele>209.893995</ele>
        <time>2022-05-21T15:31:08.024Z</time>
      </trkpt>
      <trkpt lat="43.73899" lon="1.4172">
        <ele>210.130999</ele>
        <time>2022-05-21T15:31:10.039Z</time>
      </trkpt>
      <trkpt lat="43.7389" lon="1.41724">
        <ele>210.380715</ele>
        <time>2022-05-21T15:31:12.023Z</time>
      </trkpt>
      <trkpt lat="43.7388" lon="1.41727">
        <ele>210.627165</ele>
        <time>2022-05-21T15:31:14.038Z</time>
      </trkpt>
      <trkpt lat="43.73871" lon="1.41732">
        <ele>210.892277</ele>
        <time>2022-05-21T15:31:16.011Z</time>
      </trkpt>
      <trkpt lat="43.73861" lon="1.41739">
        <ele>211.183509</ele>
        <time>2022-05-21T15:31:18.014Z</time>
      </trkpt>
      <trkpt lat="43.73851" lon="1.41746">
        <ele>211.480877</ele>
        <time>2022-05-21T15:31:20.023Z</time>
      </trkpt>
      <trkpt lat="43.73842" lon="1.41753">
        <ele>211.749218</ele>
        <time>2022-05-21T15:31:22.015Z</time>
      </trkpt>
      <trkpt lat="43.73832" lon="1.41759">
        <ele>212.003563</ele>
        <time>2022-05-21T15:31:24.006Z</time>
      </trkpt>
      <trkpt lat="43.73822" lon="1.41766">
        <ele>212.082578</ele>
        <time>2022-05-21T15:31:26.030Z</time>
      </trkpt>
      <trkpt lat="43.73811" lon="1.41772">
        <ele>212.163653</ele>
        <time>2022-05-21T15:31:28.005Z</time>
      </trkpt>
      <trkpt lat="43.738" lon="1.41776">
        <ele>212.245709</ele>
        <time>2022-05-21T15:31:30.013Z</time>
      </trkpt>
      <trkpt lat="43.7379" lon="1.4178">
        <ele>212.316595</ele>
        <time>2022-05-21T15:31:32.015Z</time>
      </trkpt>
      <trkpt lat="43.7378" lon="1.41784">
        <ele>212.390797</ele>
        <time>2022-05-21T15:31:34.019Z</time>
      </trkpt>
      <trkpt lat="43.73771" lon="1.41786">
        <ele>212.455664</ele>
        <time>2022-05-21T15:31:36.023Z</time>
      </trkpt>
      <trkpt lat="43.73758" lon="1.41788">
        <ele>212.549565</ele>
        <time>2022-05-21T15:31:39.014Z</time>
      </trkpt>
      <trkpt lat="43.73748" lon="1.41779">
        <ele>212.629838</ele>
        <time>2022-05-21T15:31:42.032Z</time>
      </trkpt>
      <trkpt lat="43.73742" lon="1.4177">
        <ele>212.696884</ele>
        <time>2022-05-21T15:31:44.024Z</time>
      </trkpt>
      <trkpt lat="43.73734" lon="1.41763">
        <ele>212.762312</ele>
        <time>2022-05-21T15:31:46.032Z</time>
      </trkpt>
      <trkpt lat="43.73723" lon="1.41755">
        <ele>212.847758</ele>
        <time>2022-05-21T15:31:49.039Z</time>
      </trkpt>
      <trkpt lat="43.73711" lon="1.41752">
        <ele>212.937942</ele>
        <time>2022-05-21T15:31:52.033Z</time>
      </trkpt>
      <trkpt lat="43.73701" lon="1.41749">
        <ele>213.005587</ele>
        <time>2022-05-21T15:31:54.023Z</time>
      </trkpt>
      <trkpt lat="43.73692" lon="1.41746">
        <ele>213.069218</ele>
        <time>2022-05-21T15:31:56.030Z</time>
      </trkpt>
      <trkpt lat="43.73683" lon="1.41741">
        <ele>213.139642</ele>
        <time>2022-05-21T15:31:59.040Z</time>
      </trkpt>
      <trkpt lat="43.73683" lon="1.41726">
        <ele>213.212719</ele>
        <time>2022-05-21T15:32:02.017Z</time>
      </trkpt>
      <trkpt lat="43.73684" lon="1.4171">
        <ele>213.543723</ele>
        <time>2022-05-21T15:32:04.008Z</time>
      </trkpt>
      <trkpt lat="43.73685" lon="1.41697">
        <ele>214.193701</ele>
        <time>2022-05-21T15:32:06.021Z</time>
      </trkpt>
      <trkpt lat="43.7369" lon="1.4168">
        <ele>215.057516</ele>
        <time>2022-05-21T15:32:09.031Z</time>
      </trkpt>
      <trkpt lat="43.73692" lon="1.41667">
        <ele>215.67892</ele>
        <time>2022-05-21T15:32:11.009Z</time>
      </trkpt>
      <trkpt lat="43.73696" lon="1.41655">
        <ele>216.282906</ele>
        <time>2022-05-21T15:32:13.020Z</time>
      </trkpt>
      <trkpt lat="43.73705" lon="1.41648">
        <ele>216.957041</ele>
        <time>2022-05-21T15:32:16.026Z</time>
      </trkpt>
      <trkpt lat="43.73711" lon="1.41638">
        <ele>217.561468</ele>
        <time>2022-05-21T15:32:18.009Z</time>
      </trkpt>
      <trkpt lat="43.73715" lon="1.41622">
        <ele>218.388667</ele>
        <time>2022-05-21T15:32:21.023Z</time>
      </trkpt>
      <trkpt lat="43.73717" lon="1.41609">
        <ele>219.002841</ele>
        <time>2022-05-21T15:32:23.027Z</time>
      </trkpt>
      <trkpt lat="43.73724" lon="1.41598">
        <ele>219.704175</ele>
        <time>2022-05-21T15:32:26.006Z</time>
      </trkpt>
      <trkpt lat="43.73734" lon="1.41591">
        <ele>220.432225</ele>
        <time>2022-05-21T15:32:29.031Z</time>
      </trkpt>
      <trkpt lat="43.73744" lon="1.4159">
        <ele>221.110182</ele>
        <time>2022-05-21T15:32:32.028Z</time>
      </trkpt>
      <trkpt lat="43.73755" lon="1.41589">
        <ele>221.842835</ele>
        <time>2022-05-21T15:32:35.017Z</time>
      </trkpt>
      <trkpt lat="43.73764" lon="1.41583">
        <ele>222.447467</ele>
        <time>2022-05-21T15:32:38.028Z</time>
      </trkpt>
      <trkpt lat="43.7377" lon="1.41573">
        <ele>223.075263</ele>
        <time>2022-05-21T15:32:41.022Z</time>
      </trkpt>
      <trkpt lat="43.73781" lon="1.41568">
        <ele>223.828539</ele>
        <time>2022-05-21T15:32:45.041Z</time>
      </trkpt>
      <trkpt lat="43.73791" lon="1.41566">
        <ele>224.510207</ele>
        <time>2022-05-21T15:32:48.014Z</time>
      </trkpt>
      <trkpt lat="43.73802" lon="1.41562">
        <ele>224.921817</ele>
        <time>2022-05-21T15:32:51.020Z</time>
      </trkpt>
      <trkpt lat="43.73814" lon="1.41556">
        <ele>224.693865</ele>
        <time>2022-05-21T15:32:54.036Z</time>
      </trkpt>
      <trkpt lat="43.73826" lon="1.41549">
        <ele>224.459785</ele>
        <time>2022-05-21T15:32:57.023Z</time>
      </trkpt>
      <trkpt lat="43.73838" lon="1.41543">
        <ele>224.225434</ele>
        <time>2022-05-21T15:33:00.030Z</time>
      </trkpt>
      <trkpt lat="43.7385" lon="1.41542">
        <ele>224.012546</ele>
        <time>2022-05-21T15:33:03.005Z</time>
      </trkpt>
      <trkpt lat="43.73856" lon="1.41559">
        <ele>223.773712</ele>
        <time>2022-05-21T15:33:06.009Z</time>
      </trkpt>
      <trkpt lat="43.73859" lon="1.41571">
        <ele>223.596777</ele>
        <time>2022-05-21T15:33:08.029Z</time>
      </trkpt>
      <trkpt lat="43.73862" lon="1.41586">
        <ele>223.40738</ele>
        <time>2022-05-21T15:33:10.014Z</time>
      </trkpt>
      <trkpt lat="43.73869" lon="1.41596">
        <ele>223.22797</ele>
        <time>2022-05-21T15:33:12.015Z</time>
      </trkpt>
      <trkpt lat="43.7388" lon="1.41597">
        <ele>223.036167</ele>
        <time>2022-05-21T15:33:14.029Z</time>
      </trkpt>
      <trkpt lat="43.73891" lon="1.41594">
        <ele>222.830719</ele>
        <time>2022-05-21T15:33:16.006Z</time>
      </trkpt>
      <trkpt lat="43.73901" lon="1.41589">
        <ele>222.639748</ele>
        <time>2022-05-21T15:33:18.019Z</time>
      </trkpt>
      <trkpt lat="43.7391" lon="1.41582">
        <ele>222.465544</ele>
        <time>2022-05-21T15:33:20.030Z</time>
      </trkpt>
      <trkpt lat="43.73918" lon="1.4157">
        <ele>222.245918</ele>
        <time>2022-05-21T15:33:23.037Z</time>
      </trkpt>
      <trkpt lat="43.7393" lon="1.41564">
        <ele>222.023025</ele>
        <time>2022-05-21T15:33:27.029Z</time>
      </trkpt>
      <trkpt lat="43.73941" lon="1.41563">
        <ele>221.821</ele>
        <time>2022-05-21T15:33:29.024Z</time>
      </trkpt>
      <trkpt lat="43.73954" lon="1.41559">
        <ele>221.891457</ele>
        <time>2022-05-21T15:33:31.055Z</time>
      </trkpt>
      <trkpt lat="43.73968" lon="1.41554">
        <ele>222.034888</ele>
        <time>2022-05-21T15:33:33.009Z</time>
      </trkpt>
      <trkpt lat="43.73982" lon="1.41547">
        <ele>222.186585</ele>
        <time>2022-05-21T15:33:35.026Z</time>
      </trkpt>
      <trkpt lat="43.73997" lon="1.41541">
        <ele>222.343486</ele>
        <time>2022-05-21T15:33:37.020Z</time>
      </trkpt>
      <trkpt lat="43.74011" lon="1.41535">
        <ele>222.495512</ele>
        <time>2022-05-21T15:33:39.021Z</time>
      </trkpt>
      <trkpt lat="43.74023" lon="1.4153">
        <ele>222.620874</ele>
        <time>2022-05-21T15:33:41.014Z</time>
      </trkpt>
      <trkpt lat="43.74029" lon="1.41515">
        <ele>222.745493</ele>
        <time>2022-05-21T15:33:44.014Z</time>
      </trkpt>
      <trkpt lat="43.74026" lon="1.41497">
        <ele>222.877593</ele>
        <time>2022-05-21T15:33:47.015Z</time>
      </trkpt>
      <trkpt lat="43.74021" lon="1.41482">
        <ele>222.998797</ele>
        <time>2022-05-21T15:33:50.015Z</time>
      </trkpt>
      <trkpt lat="43.74015" lon="1.41468">
        <ele>223.122028</ele>
        <time>2022-05-21T15:33:53.029Z</time>
      </trkpt>
      <trkpt lat="43.74011" lon="1.41455">
        <ele>223.226598</ele>
        <time>2022-05-21T15:33:56.032Z</time>
      </trkpt>
      <trkpt lat="43.7401" lon="1.41442">
        <ele>223.320033</ele>
        <time>2022-05-21T15:34:01.028Z</time>
      </trkpt>
      <trkpt lat="43.74011" lon="1.41426">
        <ele>223.435997</ele>
        <time>2022-05-21T15:34:05.010Z</time>
      </trkpt>
      <trkpt lat="43.74014" lon="1.41413">
        <ele>223.53368</ele>
        <time>2022-05-21T15:34:07.027Z</time>
      </trkpt>
      <trkpt lat="43.74015" lon="1.41399">
        <ele>223.431099</ele>
        <time>2022-05-21T15:34:09.030Z</time>
      </trkpt>
      <trkpt lat="43.74012" lon="1.41384">
        <ele>222.949787</ele>
        <time>2022-05-21T15:34:11.024Z</time>
      </trkpt>
      <trkpt lat="43.74008" lon="1.41371">
        <ele>222.500922</ele>
        <time>2022-05-21T15:34:13.029Z</time>
      </trkpt>
      <trkpt lat="43.74002" lon="1.4136">
        <ele>222.055565</ele>
        <time>2022-05-21T15:34:15.028Z</time>
      </trkpt>
      <trkpt lat="43.73997" lon="1.41348">
        <ele>221.620567</ele>
        <time>2022-05-21T15:34:17.026Z</time>
      </trkpt>
      <trkpt lat="43.73991" lon="1.41336">
        <ele>221.164574</ele>
        <time>2022-05-21T15:34:19.040Z</time>
      </trkpt>
      <trkpt lat="43.73987" lon="1.41324">
        <ele>220.732506</ele>
        <time>2022-05-21T15:34:24.028Z</time>
      </trkpt>
      <trkpt lat="43.73997" lon="1.41324">
        <ele>220.293183</ele>
        <time>2022-05-21T15:34:29.037Z</time>
      </trkpt>
      <trkpt lat="43.74011" lon="1.41328">
        <ele>219.6881</ele>
        <time>2022-05-21T15:34:32.033Z</time>
      </trkpt>
      <trkpt lat="43.7402" lon="1.41332">
        <ele>219.257084</ele>
        <time>2022-05-21T15:34:34.028Z</time>
      </trkpt>
      <trkpt lat="43.74029" lon="1.41342">
        <ele>218.717123</ele>
        <time>2022-05-21T15:34:36.026Z</time>
      </trkpt>
      <trkpt lat="43.74041" lon="1.41349">
        <ele>218.154537</ele>
        <time>2022-05-21T15:34:38.033Z</time>
      </trkpt>
      <trkpt lat="43.74053" lon="1.41354">
        <ele>217.60664</ele>
        <time>2022-05-21T15:34:40.004Z</time>
      </trkpt>
      <trkpt lat="43.74067" lon="1.41369">
        <ele>216.852987</ele>
        <time>2022-05-21T15:34:42.019Z</time>
      </trkpt>
      <trkpt lat="43.74076" lon="1.41382">
        <ele>216.270083</ele>
        <time>2022-05-21T15:34:44.027Z</time>
      </trkpt>
      <trkpt lat="43.74085" lon="1.41394">
        <ele>215.716789</ele>
        <time>2022-05-21T15:34:46.022Z</time>
      </trkpt>
      <trkpt lat="43.74093" lon="1.414">
        <ele>215.066024</ele>
        <time>2022-05-21T15:34:48.016Z</time>
      </trkpt>
      <trkpt lat="43.74105" lon="1.41402">
        <ele>214.186713</ele>
        <time>2022-05-21T15:34:50.018Z</time>
      </trkpt>
      <trkpt lat="43.74116" lon="1.41407">
        <ele>213.352669</ele>
        <time>2022-05-21T15:34:52.015Z</time>
      </trkpt>
      <trkpt lat="43.74126" lon="1.41408">
        <ele>212.632366</ele>
        <time>2022-05-21T15:34:54.013Z</time>
      </trkpt>
      <trkpt lat="43.74135" lon="1.41416">
        <ele>211.84966</ele>
        <time>2022-05-21T15:34:56.015Z</time>
      </trkpt>
      <trkpt lat="43.74145" lon="1.41414">
        <ele>211.11362</ele>
        <time>2022-05-21T15:34:58.037Z</time>
      </trkpt>
      <trkpt lat="43.74153" lon="1.41404">
        <ele>210.293793</ele>
        <time>2022-05-21T15:35:00.019Z</time>
      </trkpt>
      <trkpt lat="43.74162" lon="1.41395">
        <ele>209.491307</ele>
        <time>2022-05-21T15:35:02.034Z</time>
      </trkpt>
      <trkpt lat="43.74174" lon="1.41386">
        <ele>208.490283</ele>
        <time>2022-05-21T15:35:04.065Z</time>
      </trkpt>
      <trkpt lat="43.74186" lon="1.41381">
        <ele>207.583386</ele>
        <time>2022-05-21T15:35:05.019Z</time>
      </trkpt>
      <trkpt lat="43.74202" lon="1.41388">
        <ele>206.376164</ele>
        <time>2022-05-21T15:35:07.017Z</time>
      </trkpt>
      <trkpt lat="43.74214" lon="1.41403">
        <ele>205.214519</ele>
        <time>2022-05-21T15:35:09.015Z</time>
      </trkpt>
      <trkpt lat="43.74224" lon="1.41416">
        <ele>204.168916</ele>
        <time>2022-05-21T15:35:11.020Z</time>
      </trkpt>
      <trkpt lat="43.74235" lon="1.41424">
        <ele>203.302253</ele>
        <time>2022-05-21T15:35:13.032Z</time>
      </trkpt>
      <trkpt lat="43.74245" lon="1.41432">
        <ele>202.520366</ele>
        <time>2022-05-21T15:35:14.998Z</time>
      </trkpt>
      <trkpt lat="43.74256" lon="1.41442">
        <ele>202.186646</ele>
        <time>2022-05-21T15:35:17.037Z</time>
      </trkpt>
      <trkpt lat="43.74268" lon="1.4145">
        <ele>201.867027</ele>
        <time>2022-05-21T15:35:19.008Z</time>
      </trkpt>
      <trkpt lat="43.74278" lon="1.41459">
        <ele>201.574878</ele>
        <time>2022-05-21T15:35:21.044Z</time>
      </trkpt>
      <trkpt lat="43.74284" lon="1.41472">
        <ele>201.287666</ele>
        <time>2022-05-21T15:35:23.023Z</time>
      </trkpt>
      <trkpt lat="43.74291" lon="1.41482">
        <ele>201.035026</ele>
        <time>2022-05-21T15:35:25.015Z</time>
      </trkpt>
      <trkpt lat="43.74296" lon="1.41496">
        <ele>200.763297</ele>
        <time>2022-05-21T15:35:28.016Z</time>
      </trkpt>
      <trkpt lat="43.74311" lon="1.41513">
        <ele>200.290478</ele>
        <time>2022-05-21T15:36:11.023Z</time>
      </trkpt>
      <trkpt lat="43.74318" lon="1.4152">
        <ele>200.058878</ele>
        <time>2022-05-21T15:36:13.040Z</time>
      </trkpt>
      <trkpt lat="43.74328" lon="1.41526">
        <ele>199.786091</ele>
        <time>2022-05-21T15:36:15.028Z</time>
      </trkpt>
      <trkpt lat="43.74338" lon="1.41533">
        <ele>199.507918</ele>
        <time>2022-05-21T15:36:17.017Z</time>
      </trkpt>
      <trkpt lat="43.74348" lon="1.4154">
        <ele>199.237379</ele>
        <time>2022-05-21T15:36:19.019Z</time>
      </trkpt>
      <trkpt lat="43.74358" lon="1.41546">
        <ele>198.957035</ele>
        <time>2022-05-21T15:36:21.036Z</time>
      </trkpt>
      <trkpt lat="43.74369" lon="1.41552">
        <ele>198.681973</ele>
        <time>2022-05-21T15:36:23.016Z</time>
      </trkpt>
      <trkpt lat="43.74379" lon="1.41559">
        <ele>198.403144</ele>
        <time>2022-05-21T15:36:25.023Z</time>
      </trkpt>
      <trkpt lat="43.74388" lon="1.41566">
        <ele>198.132453</ele>
        <time>2022-05-21T15:36:27.017Z</time>
      </trkpt>
      <trkpt lat="43.74398" lon="1.41572">
        <ele>197.926462</ele>
        <time>2022-05-21T15:36:29.009Z</time>
      </trkpt>
      <trkpt lat="43.74408" lon="1.41578">
        <ele>197.735097</ele>
        <time>2022-05-21T15:36:31.010Z</time>
      </trkpt>
      <trkpt lat="43.74417" lon="1.41584">
        <ele>197.549083</ele>
        <time>2022-05-21T15:36:33.022Z</time>
      </trkpt>
      <trkpt lat="43.74426" lon="1.41591">
        <ele>197.376306</ele>
        <time>2022-05-21T15:36:35.016Z</time>
      </trkpt>
      <trkpt lat="43.74435" lon="1.41596">
        <ele>197.193454</ele>
        <time>2022-05-21T15:36:37.024Z</time>
      </trkpt>
      <trkpt lat="43.74445" lon="1.416">
        <ele>197.012028</ele>
        <time>2022-05-21T15:36:39.034Z</time>
      </trkpt>
      <trkpt lat="43.74454" lon="1.4159">
        <ele>196.804317</ele>
        <time>2022-05-21T15:36:42.013Z</time>
      </trkpt>
      <trkpt lat="43.74459" lon="1.41577">
        <ele>196.615497</ele>
        <time>2022-05-21T15:36:44.021Z</time>
      </trkpt>
      <trkpt lat="43.74463" lon="1.41564">
        <ele>196.434411</ele>
        <time>2022-05-21T15:36:46.034Z</time>
      </trkpt>
      <trkpt lat="43.74472" lon="1.4155">
        <ele>196.195865</ele>
        <time>2022-05-21T15:36:49.023Z</time>
      </trkpt>
      <trkpt lat="43.74484" lon="1.41552">
        <ele>195.968592</ele>
        <time>2022-05-21T15:36:52.023Z</time>
      </trkpt>
      <trkpt lat="43.74497" lon="1.41558">
        <ele>195.739536</ele>
        <time>2022-05-21T15:36:55.026Z</time>
      </trkpt>
      <trkpt lat="43.74505" lon="1.41562">
        <ele>195.579274</ele>
        <time>2022-05-21T15:36:57.015Z</time>
      </trkpt>
      <trkpt lat="43.74515" lon="1.41567">
        <ele>195.390066</ele>
        <time>2022-05-21T15:36:59.042Z</time>
      </trkpt>
      <trkpt lat="43.74526" lon="1.41572">
        <ele>195.187438</ele>
        <time>2022-05-21T15:37:01.031Z</time>
      </trkpt>
      <trkpt lat="43.74537" lon="1.41577">
        <ele>194.98649</ele>
        <time>2022-05-21T15:37:03.042Z</time>
      </trkpt>
      <trkpt lat="43.74546" lon="1.41584">
        <ele>194.801244</ele>
        <time>2022-05-21T15:37:05.008Z</time>
      </trkpt>
      <trkpt lat="43.74558" lon="1.41583">
        <ele>194.597735</ele>
        <time>2022-05-21T15:37:08.010Z</time>
      </trkpt>
      <trkpt lat="43.74562" lon="1.41569">
        <ele>194.427457</ele>
        <time>2022-05-21T15:37:11.016Z</time>
      </trkpt>
      <trkpt lat="43.74572" lon="1.41567">
        <ele>194.25243</ele>
        <time>2022-05-21T15:37:15.020Z</time>
      </trkpt>
      <trkpt lat="43.7458" lon="1.41575">
        <ele>194.08122</ele>
        <time>2022-05-21T15:37:19.030Z</time>
      </trkpt>
      <trkpt lat="43.74587" lon="1.41566">
        <ele>193.918821</ele>
        <time>2022-05-21T15:37:23.021Z</time>
      </trkpt>
      <trkpt lat="43.74593" lon="1.41555">
        <ele>193.759748</ele>
        <time>2022-05-21T15:37:27.018Z</time>
      </trkpt>
      <trkpt lat="43.74599" lon="1.41544">
        <ele>193.596864</ele>
        <time>2022-05-21T15:37:31.023Z</time>
      </trkpt>
      <trkpt lat="43.74606" lon="1.41534">
        <ele>193.430131</ele>
        <time>2022-05-21T15:37:35.998Z</time>
      </trkpt>
      <trkpt lat="43.74613" lon="1.41523">
        <ele>193.258698</ele>
        <time>2022-05-21T15:37:40.020Z</time>
      </trkpt>
      <trkpt lat="43.74618" lon="1.41512">
        <ele>193.09497</ele>
        <time>2022-05-21T15:37:43.016Z</time>
      </trkpt>
      <trkpt lat="43.74623" lon="1.41498">
        <ele>192.903515</ele>
        <time>2022-05-21T15:37:47.009Z</time>
      </trkpt>
      <trkpt lat="43.7463" lon="1.41486">
        <ele>192.72297</ele>
        <time>2022-05-21T15:37:50.005Z</time>
      </trkpt>
      <trkpt lat="43.74638" lon="1.41473">
        <ele>192.517339</ele>
        <time>2022-05-21T15:37:53.010Z</time>
      </trkpt>
      <trkpt lat="43.74647" lon="1.41459">
        <ele>192.2919</ele>
        <time>2022-05-21T15:37:56.019Z</time>
      </trkpt>
      <trkpt lat="43.74654" lon="1.41449">
        <ele>192.12555</ele>
        <time>2022-05-21T15:37:58.015Z</time>
      </trkpt>
      <trkpt lat="43.74662" lon="1.41439">
        <ele>191.945339</ele>
        <time>2022-05-21T15:38:00.023Z</time>
      </trkpt>
      <trkpt lat="43.74669" lon="1.41427">
        <ele>191.810235</ele>
        <time>2022-05-21T15:38:02.018Z</time>
      </trkpt>
      <trkpt lat="43.74676" lon="1.41416">
        <ele>191.696654</ele>
        <time>2022-05-21T15:38:04.026Z</time>
      </trkpt>
      <trkpt lat="43.74683" lon="1.41405">
        <ele>191.589175</ele>
        <time>2022-05-21T15:38:06.021Z</time>
      </trkpt>
      <trkpt lat="43.74689" lon="1.41395">
        <ele>191.485372</ele>
        <time>2022-05-21T15:38:08.025Z</time>
      </trkpt>
      <trkpt lat="43.74698" lon="1.41384">
        <ele>191.363354</ele>
        <time>2022-05-21T15:38:10.007Z</time>
      </trkpt>
      <trkpt lat="43.74706" lon="1.41372">
        <ele>191.235845</ele>
        <time>2022-05-21T15:38:12.023Z</time>
      </trkpt>
      <trkpt lat="43.74715" lon="1.41362">
        <ele>191.108381</ele>
        <time>2022-05-21T15:38:14.020Z</time>
      </trkpt>
      <trkpt lat="43.74724" lon="1.41351">
        <ele>190.981104</ele>
        <time>2022-05-21T15:38:16.016Z</time>
      </trkpt>
      <trkpt lat="43.74734" lon="1.4134">
        <ele>190.851509</ele>
        <time>2022-05-21T15:38:18.018Z</time>
      </trkpt>
      <trkpt lat="43.74743" lon="1.41329">
        <ele>190.722436</ele>
        <time>2022-05-21T15:38:20.018Z</time>
      </trkpt>
      <trkpt lat="43.74752" lon="1.41317">
        <ele>190.591081</ele>
        <time>2022-05-21T15:38:22.022Z</time>
      </trkpt>
      <trkpt lat="43.7476" lon="1.41304">
        <ele>190.459887</ele>
        <time>2022-05-21T15:38:24.010Z</time>
      </trkpt>
      <trkpt lat="43.74768" lon="1.41292">
        <ele>190.330377</ele>
        <time>2022-05-21T15:38:26.017Z</time>
      </trkpt>
      <trkpt lat="43.74776" lon="1.41279">
        <ele>190.202826</ele>
        <time>2022-05-21T15:38:28.016Z</time>
      </trkpt>
      <trkpt lat="43.74784" lon="1.41267">
        <ele>190.074969</ele>
        <time>2022-05-21T15:38:30.032Z</time>
      </trkpt>
      <trkpt lat="43.74794" lon="1.41256">
        <ele>189.971618</ele>
        <time>2022-05-21T15:38:32.013Z</time>
      </trkpt>
      <trkpt lat="43.74803" lon="1.41244">
        <ele>189.922202</ele>
        <time>2022-05-21T15:38:34.025Z</time>
      </trkpt>
      <trkpt lat="43.74812" lon="1.41231">
        <ele>189.872534</ele>
        <time>2022-05-21T15:38:36.040Z</time>
      </trkpt>
      <trkpt lat="43.74819" lon="1.41217">
        <ele>189.82362</ele>
        <time>2022-05-21T15:38:38.020Z</time>
      </trkpt>
      <trkpt lat="43.74827" lon="1.41205">
        <ele>189.774836</ele>
        <time>2022-05-21T15:38:40.023Z</time>
      </trkpt>
      <trkpt lat="43.74835" lon="1.41193">
        <ele>189.727562</ele>
        <time>2022-05-21T15:38:42.016Z</time>
      </trkpt>
      <trkpt lat="43.74844" lon="1.41182">
        <ele>189.678743</ele>
        <time>2022-05-21T15:38:44.014Z</time>
      </trkpt>
      <trkpt lat="43.74852" lon="1.41169">
        <ele>189.630921</ele>
        <time>2022-05-21T15:38:46.024Z</time>
      </trkpt>
      <trkpt lat="43.74859" lon="1.41157">
        <ele>189.58593</ele>
        <time>2022-05-21T15:38:48.018Z</time>
      </trkpt>
      <trkpt lat="43.74866" lon="1.41145">
        <ele>189.542783</ele>
        <time>2022-05-21T15:38:50.027Z</time>
      </trkpt>
      <trkpt lat="43.74874" lon="1.41133">
        <ele>189.49723</ele>
        <time>2022-05-21T15:38:52.032Z</time>
      </trkpt>
      <trkpt lat="43.74879" lon="1.41119">
        <ele>189.450613</ele>
        <time>2022-05-21T15:38:54.017Z</time>
      </trkpt>
      <trkpt lat="43.7488" lon="1.41103">
        <ele>189.405005</ele>
        <time>2022-05-21T15:38:56.019Z</time>
      </trkpt>
      <trkpt lat="43.74878" lon="1.41087">
        <ele>189.358724</ele>
        <time>2022-05-21T15:38:58.029Z</time>
      </trkpt>
      <trkpt lat="43.74875" lon="1.41071">
        <ele>189.310951</ele>
        <time>2022-05-21T15:39:00.018Z</time>
      </trkpt>
      <trkpt lat="43.74872" lon="1.41055">
        <ele>189.292538</ele>
        <time>2022-05-21T15:39:02.026Z</time>
      </trkpt>
      <trkpt lat="43.7487" lon="1.4104">
        <ele>189.364141</ele>
        <time>2022-05-21T15:39:04.019Z</time>
      </trkpt>
      <trkpt lat="43.74866" lon="1.41025">
        <ele>189.436543</ele>
        <time>2022-05-21T15:39:06.024Z</time>
      </trkpt>
      <trkpt lat="43.74863" lon="1.4101">
        <ele>189.510909</ele>
        <time>2022-05-21T15:39:08.006Z</time>
      </trkpt>
      <trkpt lat="43.74862" lon="1.40994">
        <ele>189.58572</ele>
        <time>2022-05-21T15:39:10.019Z</time>
      </trkpt>
      <trkpt lat="43.7486" lon="1.40978">
        <ele>189.660511</ele>
        <time>2022-05-21T15:39:12.018Z</time>
      </trkpt>
      <trkpt lat="43.74856" lon="1.40963">
        <ele>189.736129</ele>
        <time>2022-05-21T15:39:14.026Z</time>
      </trkpt>
      <trkpt lat="43.74853" lon="1.40947">
        <ele>189.812198</ele>
        <time>2022-05-21T15:39:16.020Z</time>
      </trkpt>
      <trkpt lat="43.7485" lon="1.40932">
        <ele>189.888093</ele>
        <time>2022-05-21T15:39:18.011Z</time>
      </trkpt>
      <trkpt lat="43.74847" lon="1.40916">
        <ele>189.963181</ele>
        <time>2022-05-21T15:39:20.013Z</time>
      </trkpt>
      <trkpt lat="43.74843" lon="1.40901">
        <ele>190.037744</ele>
        <time>2022-05-21T15:39:22.030Z</time>
      </trkpt>
      <trkpt lat="43.7484" lon="1.40886">
        <ele>190.112734</ele>
        <time>2022-05-21T15:39:24.038Z</time>
      </trkpt>
      <trkpt lat="43.74836" lon="1.40872">
        <ele>190.183985</ele>
        <time>2022-05-21T15:39:26.036Z</time>
      </trkpt>
      <trkpt lat="43.74836" lon="1.40857">
        <ele>190.255288</ele>
        <time>2022-05-21T15:39:29.009Z</time>
      </trkpt>
      <trkpt lat="43.74844" lon="1.40851">
        <ele>190.314255</ele>
        <time>2022-05-21T15:39:32.004Z</time>
      </trkpt>
      <trkpt lat="43.74858" lon="1.40847">
        <ele>190.405054</ele>
        <time>2022-05-21T15:39:35.024Z</time>
      </trkpt>
      <trkpt lat="43.74868" lon="1.40844">
        <ele>190.273819</ele>
        <time>2022-05-21T15:39:37.023Z</time>
      </trkpt>
      <trkpt lat="43.7488" lon="1.4084">
        <ele>189.904172</ele>
        <time>2022-05-21T15:39:39.030Z</time>
      </trkpt>
      <trkpt lat="43.7489" lon="1.40831">
        <ele>189.535693</ele>
        <time>2022-05-21T15:39:41.014Z</time>
      </trkpt>
      <trkpt lat="43.74893" lon="1.40818">
        <ele>189.227401</ele>
        <time>2022-05-21T15:39:43.018Z</time>
      </trkpt>
      <trkpt lat="43.74891" lon="1.40805">
        <ele>188.914943</ele>
        <time>2022-05-21T15:39:45.017Z</time>
      </trkpt>
      <trkpt lat="43.74889" lon="1.40792">
        <ele>188.629591</ele>
        <time>2022-05-21T15:39:47.017Z</time>
      </trkpt>
      <trkpt lat="43.74888" lon="1.40779">
        <ele>188.33535</ele>
        <time>2022-05-21T15:39:49.022Z</time>
      </trkpt>
      <trkpt lat="43.74885" lon="1.40767">
        <ele>188.041095</ele>
        <time>2022-05-21T15:39:51.015Z</time>
      </trkpt>
      <trkpt lat="43.74883" lon="1.40754">
        <ele>187.749178</ele>
        <time>2022-05-21T15:39:53.018Z</time>
      </trkpt>
      <trkpt lat="43.74882" lon="1.40737">
        <ele>187.368684</ele>
        <time>2022-05-21T15:39:56.012Z</time>
      </trkpt>
      <trkpt lat="43.74886" lon="1.40725">
        <ele>187.053367</ele>
        <time>2022-05-21T15:40:00.032Z</time>
      </trkpt>
      <trkpt lat="43.74897" lon="1.40721">
        <ele>186.696857</ele>
        <time>2022-05-21T15:40:04.020Z</time>
      </trkpt>
      <trkpt lat="43.74906" lon="1.40721">
        <ele>186.409339</ele>
        <time>2022-05-21T15:40:06.033Z</time>
      </trkpt>
      <trkpt lat="43.74917" lon="1.4072">
        <ele>186.078517</ele>
        <time>2022-05-21T15:40:08.013Z</time>
      </trkpt>
      <trkpt lat="43.74928" lon="1.40719">
        <ele>185.719667</ele>
        <time>2022-05-21T15:40:10.032Z</time>
      </trkpt>
      <trkpt lat="43.74941" lon="1.40718">
        <ele>185.32298</ele>
        <time>2022-05-21T15:40:12.026Z</time>
      </trkpt>
      <trkpt lat="43.74954" lon="1.40717">
        <ele>184.898002</ele>
        <time>2022-05-21T15:40:14.035Z</time>
      </trkpt>
      <trkpt lat="43.74969" lon="1.40716">
        <ele>184.399826</ele>
        <time>2022-05-21T15:40:16.017Z</time>
      </trkpt>
      <trkpt lat="43.74985" lon="1.40715">
        <ele>183.871412</ele>
        <time>2022-05-21T15:40:18.010Z</time>
      </trkpt>
      <trkpt lat="43.75001" lon="1.40713">
        <ele>183.317917</ele>
        <time>2022-05-21T15:40:20.032Z</time>
      </trkpt>
      <trkpt lat="43.75017" lon="1.40712">
        <ele>182.744888</ele>
        <time>2022-05-21T15:40:22.034Z</time>
      </trkpt>
      <trkpt lat="43.75034" lon="1.4071">
        <ele>182.161167</ele>
        <time>2022-05-21T15:40:24.028Z</time>
      </trkpt>
      <trkpt lat="43.7505" lon="1.40709">
        <ele>181.635896</ele>
        <time>2022-05-21T15:40:26.022Z</time>
      </trkpt>
      <trkpt lat="43.75062" lon="1.40707">
        <ele>181.19843</ele>
        <time>2022-05-21T15:40:28.021Z</time>
      </trkpt>
      <trkpt lat="43.75069" lon="1.40695">
        <ele>180.822384</ele>
        <time>2022-05-21T15:40:30.017Z</time>
      </trkpt>
      <trkpt lat="43.75067" lon="1.40677">
        <ele>180.372099</ele>
        <time>2022-05-21T15:40:32.014Z</time>
      </trkpt>
      <trkpt lat="43.75058" lon="1.40665">
        <ele>179.923737</ele>
        <time>2022-05-21T15:40:34.018Z</time>
      </trkpt>
      <trkpt lat="43.75048" lon="1.40652">
        <ele>179.463557</ele>
        <time>2022-05-21T15:40:36.024Z</time>
      </trkpt>
      <trkpt lat="43.75039" lon="1.40639">
        <ele>179.026009</ele>
        <time>2022-05-21T15:40:38.028Z</time>
      </trkpt>
      <trkpt lat="43.75031" lon="1.40627">
        <ele>178.722892</ele>
        <time>2022-05-21T15:40:40.030Z</time>
      </trkpt>
      <trkpt lat="43.75023" lon="1.40615">
        <ele>179.053241</ele>
        <time>2022-05-21T15:40:42.049Z</time>
      </trkpt>
      <trkpt lat="43.75015" lon="1.40604">
        <ele>179.384106</ele>
        <time>2022-05-21T15:40:44.032Z</time>
      </trkpt>
      <trkpt lat="43.75007" lon="1.40593">
        <ele>179.709541</ele>
        <time>2022-05-21T15:40:46.028Z</time>
      </trkpt>
      <trkpt lat="43.74998" lon="1.40581">
        <ele>180.042404</ele>
        <time>2022-05-21T15:40:48.012Z</time>
      </trkpt>
      <trkpt lat="43.7499" lon="1.40569">
        <ele>180.374729</ele>
        <time>2022-05-21T15:40:50.029Z</time>
      </trkpt>
      <trkpt lat="43.74982" lon="1.40558">
        <ele>180.69924</ele>
        <time>2022-05-21T15:40:52.018Z</time>
      </trkpt>
      <trkpt lat="43.74974" lon="1.40547">
        <ele>181.020064</ele>
        <time>2022-05-21T15:40:54.030Z</time>
      </trkpt>
      <trkpt lat="43.74966" lon="1.40537">
        <ele>181.332546</ele>
        <time>2022-05-21T15:40:56.020Z</time>
      </trkpt>
      <trkpt lat="43.74958" lon="1.40527">
        <ele>181.647092</ele>
        <time>2022-05-21T15:40:57.988Z</time>
      </trkpt>
      <trkpt lat="43.74949" lon="1.40517">
        <ele>181.9515</ele>
        <time>2022-05-21T15:41:00.016Z</time>
      </trkpt>
      <trkpt lat="43.74941" lon="1.40507">
        <ele>182.259139</ele>
        <time>2022-05-21T15:41:02.018Z</time>
      </trkpt>
      <trkpt lat="43.74933" lon="1.40498">
        <ele>182.566599</ele>
        <time>2022-05-21T15:41:04.012Z</time>
      </trkpt>
      <trkpt lat="43.74914" lon="1.40513">
        <ele>185.795261</ele>
        <time>2022-05-21T15:57:10.019Z</time>
      </trkpt>
      <trkpt lat="43.74903" lon="1.40513">
        <ele>185.551211</ele>
        <time>2022-05-21T15:57:16.023Z</time>
      </trkpt>
      <trkpt lat="43.74892" lon="1.40518">
        <ele>185.725238</ele>
        <time>2022-05-21T15:57:19.021Z</time>
      </trkpt>
      <trkpt lat="43.74871" lon="1.40526">
        <ele>186.222648</ele>
        <time>2022-05-21T15:57:24.013Z</time>
      </trkpt>
      <trkpt lat="43.74862" lon="1.40529">
        <ele>186.444132</ele>
        <time>2022-05-21T15:57:26.020Z</time>
      </trkpt>
      <trkpt lat="43.74852" lon="1.40532">
        <ele>186.679187</ele>
        <time>2022-05-21T15:57:28.014Z</time>
      </trkpt>
      <trkpt lat="43.74841" lon="1.40536">
        <ele>186.927387</ele>
        <time>2022-05-21T15:57:30.031Z</time>
      </trkpt>
      <trkpt lat="43.74831" lon="1.4054">
        <ele>187.182658</ele>
        <time>2022-05-21T15:57:32.008Z</time>
      </trkpt>
      <trkpt lat="43.7481" lon="1.40548">
        <ele>187.691403</ele>
        <time>2022-05-21T15:57:36.021Z</time>
      </trkpt>
      <trkpt lat="43.74799" lon="1.4055">
        <ele>187.940283</ele>
        <time>2022-05-21T15:57:38.018Z</time>
      </trkpt>
      <trkpt lat="43.74789" lon="1.40546">
        <ele>188.185324</ele>
        <time>2022-05-21T15:57:40.021Z</time>
      </trkpt>
      <trkpt lat="43.7478" lon="1.40538">
        <ele>188.427458</ele>
        <time>2022-05-21T15:57:41.997Z</time>
      </trkpt>
      <trkpt lat="43.74771" lon="1.4053">
        <ele>188.668533</ele>
        <time>2022-05-21T15:57:44.021Z</time>
      </trkpt>
      <trkpt lat="43.74762" lon="1.40523">
        <ele>188.899548</ele>
        <time>2022-05-21T15:57:46.011Z</time>
      </trkpt>
      <trkpt lat="43.74738" lon="1.40503">
        <ele>189.56341</ele>
        <time>2022-05-21T15:57:52.021Z</time>
      </trkpt>
      <trkpt lat="43.74729" lon="1.40498">
        <ele>189.939699</ele>
        <time>2022-05-21T15:57:54.017Z</time>
      </trkpt>
      <trkpt lat="43.74717" lon="1.40501">
        <ele>190.641721</ele>
        <time>2022-05-21T15:57:57.017Z</time>
      </trkpt>
      <trkpt lat="43.74693" lon="1.40492">
        <ele>192.009527</ele>
        <time>2022-05-21T15:58:03.029Z</time>
      </trkpt>
      <trkpt lat="43.74683" lon="1.40492">
        <ele>192.597074</ele>
        <time>2022-05-21T15:58:06.027Z</time>
      </trkpt>
      <trkpt lat="43.74671" lon="1.40489">
        <ele>193.220651</ele>
        <time>2022-05-21T15:58:09.022Z</time>
      </trkpt>
      <trkpt lat="43.74661" lon="1.40484">
        <ele>193.810049</ele>
        <time>2022-05-21T15:58:12.016Z</time>
      </trkpt>
      <trkpt lat="43.74652" lon="1.40477">
        <ele>194.391318</ele>
        <time>2022-05-21T15:58:15.011Z</time>
      </trkpt>
      <trkpt lat="43.74643" lon="1.40469">
        <ele>195.003974</ele>
        <time>2022-05-21T15:58:18.024Z</time>
      </trkpt>
      <trkpt lat="43.74614" lon="1.4045">
        <ele>196.742808</ele>
        <time>2022-05-21T15:58:27.012Z</time>
      </trkpt>
      <trkpt lat="43.74604" lon="1.40442">
        <ele>197.352039</ele>
        <time>2022-05-21T15:58:30.028Z</time>
      </trkpt>
      <trkpt lat="43.74584" lon="1.40426">
        <ele>198.658017</ele>
        <time>2022-05-21T15:58:36.031Z</time>
      </trkpt>
      <trkpt lat="43.74575" lon="1.40434">
        <ele>199.247832</ele>
        <time>2022-05-21T15:58:39.009Z</time>
      </trkpt>
      <trkpt lat="43.74565" lon="1.40436">
        <ele>199.75351</ele>
        <time>2022-05-21T15:58:44.015Z</time>
      </trkpt>
      <trkpt lat="43.74552" lon="1.40461">
        <ele>200.86841</ele>
        <time>2022-05-21T15:58:54.012Z</time>
      </trkpt>
      <trkpt lat="43.74553" lon="1.40475">
        <ele>201.370884</ele>
        <time>2022-05-21T15:58:57.031Z</time>
      </trkpt>
      <trkpt lat="43.74552" lon="1.40489">
        <ele>201.898038</ele>
        <time>2022-05-21T15:59:01.024Z</time>
      </trkpt>
      <trkpt lat="43.7454" lon="1.4051">
        <ele>202.823684</ele>
        <time>2022-05-21T15:59:07.017Z</time>
      </trkpt>
      <trkpt lat="43.74523" lon="1.40562">
        <ele>204.915252</ele>
        <time>2022-05-21T15:59:21.016Z</time>
      </trkpt>
      <trkpt lat="43.74514" lon="1.40566">
        <ele>205.392571</ele>
        <time>2022-05-21T15:59:29.011Z</time>
      </trkpt>
      <trkpt lat="43.74506" lon="1.40571">
        <ele>205.871683</ele>
        <time>2022-05-21T15:59:34.013Z</time>
      </trkpt>
      <trkpt lat="43.74483" lon="1.40574">
        <ele>207.008062</ele>
        <time>2022-05-21T15:59:41.008Z</time>
      </trkpt>
      <trkpt lat="43.74473" lon="1.40572">
        <ele>207.503283</ele>
        <time>2022-05-21T15:59:44.018Z</time>
      </trkpt>
      <trkpt lat="43.74467" lon="1.40561">
        <ele>207.986021</ele>
        <time>2022-05-21T15:59:48.017Z</time>
      </trkpt>
      <trkpt lat="43.74456" lon="1.40556">
        <ele>208.563573</ele>
        <time>2022-05-21T15:59:51.022Z</time>
      </trkpt>
      <trkpt lat="43.74443" lon="1.40555">
        <ele>209.326893</ele>
        <time>2022-05-21T15:59:53.994Z</time>
      </trkpt>
      <trkpt lat="43.74433" lon="1.40555">
        <ele>209.901989</ele>
        <time>2022-05-21T15:59:57.017Z</time>
      </trkpt>
      <trkpt lat="43.74423" lon="1.40551">
        <ele>210.488563</ele>
        <time>2022-05-21T16:00:00.018Z</time>
      </trkpt>
      <trkpt lat="43.74411" lon="1.40547">
        <ele>211.15723</ele>
        <time>2022-05-21T16:00:03.014Z</time>
      </trkpt>
      <trkpt lat="43.74401" lon="1.40543">
        <ele>211.793498</ele>
        <time>2022-05-21T16:00:06.030Z</time>
      </trkpt>
      <trkpt lat="43.74391" lon="1.40534">
        <ele>212.452475</ele>
        <time>2022-05-21T16:00:09.011Z</time>
      </trkpt>
      <trkpt lat="43.74379" lon="1.40527">
        <ele>213.185028</ele>
        <time>2022-05-21T16:00:12.017Z</time>
      </trkpt>
      <trkpt lat="43.74368" lon="1.40522">
        <ele>213.83752</ele>
        <time>2022-05-21T16:00:15.026Z</time>
      </trkpt>
      <trkpt lat="43.74358" lon="1.40518">
        <ele>214.438789</ele>
        <time>2022-05-21T16:00:18.016Z</time>
      </trkpt>
      <trkpt lat="43.74352" lon="1.40492">
        <ele>215.568588</ele>
        <time>2022-05-21T16:00:42.026Z</time>
      </trkpt>
      <trkpt lat="43.74351" lon="1.40479">
        <ele>216.08179</ele>
        <time>2022-05-21T16:00:56.011Z</time>
      </trkpt>
      <trkpt lat="43.74343" lon="1.40469">
        <ele>216.692751</ele>
        <time>2022-05-21T16:01:00.001Z</time>
      </trkpt>
      <trkpt lat="43.74221" lon="1.40329">
        <ele>221.34631</ele>
        <time>2022-05-21T16:01:33.032Z</time>
      </trkpt>
      <trkpt lat="43.74205" lon="1.40309">
        <ele>221.808986</ele>
        <time>2022-05-21T16:01:37.045Z</time>
      </trkpt>
      <trkpt lat="43.74197" lon="1.40299">
        <ele>222.031179</ele>
        <time>2022-05-21T16:01:39.029Z</time>
      </trkpt>
      <trkpt lat="43.74189" lon="1.4029">
        <ele>222.241931</ele>
        <time>2022-05-21T16:01:41.047Z</time>
      </trkpt>
      <trkpt lat="43.74182" lon="1.40283">
        <ele>222.434389</ele>
        <time>2022-05-21T16:01:43.032Z</time>
      </trkpt>
      <trkpt lat="43.74172" lon="1.40291">
        <ele>222.671437</ele>
        <time>2022-05-21T16:01:47.021Z</time>
      </trkpt>
      <trkpt lat="43.74161" lon="1.40313">
        <ele>223.016287</ele>
        <time>2022-05-21T16:01:51.021Z</time>
      </trkpt>
      <trkpt lat="43.74139" lon="1.40365">
        <ele>223.791168</ele>
        <time>2022-05-21T16:01:59.018Z</time>
      </trkpt>
      <trkpt lat="43.74135" lon="1.40378">
        <ele>223.97384</ele>
        <time>2022-05-21T16:02:01.024Z</time>
      </trkpt>
      <trkpt lat="43.7413" lon="1.40391">
        <ele>224.160299</ele>
        <time>2022-05-21T16:02:03.018Z</time>
      </trkpt>
      <trkpt lat="43.74125" lon="1.40403">
        <ele>224.344086</ele>
        <time>2022-05-21T16:02:05.023Z</time>
      </trkpt>
      <trkpt lat="43.7412" lon="1.40415">
        <ele>224.521447</ele>
        <time>2022-05-21T16:02:07.023Z</time>
      </trkpt>
      <trkpt lat="43.74114" lon="1.40433">
        <ele>224.771937</ele>
        <time>2022-05-21T16:02:10.023Z</time>
      </trkpt>
      <trkpt lat="43.7411" lon="1.40446">
        <ele>224.961232</ele>
        <time>2022-05-21T16:02:12.036Z</time>
      </trkpt>
      <trkpt lat="43.74106" lon="1.40459">
        <ele>225.143654</ele>
        <time>2022-05-21T16:02:14.047Z</time>
      </trkpt>
      <trkpt lat="43.74102" lon="1.40472">
        <ele>225.328301</ele>
        <time>2022-05-21T16:02:16.051Z</time>
      </trkpt>
      <trkpt lat="43.74096" lon="1.40486">
        <ele>225.52704</ele>
        <time>2022-05-21T16:02:18.030Z</time>
      </trkpt>
      <trkpt lat="43.74086" lon="1.40491">
        <ele>225.721294</ele>
        <time>2022-05-21T16:02:20.025Z</time>
      </trkpt>
      <trkpt lat="43.74077" lon="1.40489">
        <ele>225.854563</ele>
        <time>2022-05-21T16:02:22.039Z</time>
      </trkpt>
      <trkpt lat="43.74067" lon="1.40482">
        <ele>225.979468</ele>
        <time>2022-05-21T16:02:24.041Z</time>
      </trkpt>
      <trkpt lat="43.74057" lon="1.40475">
        <ele>226.102745</ele>
        <time>2022-05-21T16:02:26.023Z</time>
      </trkpt>
      <trkpt lat="43.74047" lon="1.40469">
        <ele>226.225607</ele>
        <time>2022-05-21T16:02:28.026Z</time>
      </trkpt>
      <trkpt lat="43.74026" lon="1.40459">
        <ele>226.473345</ele>
        <time>2022-05-21T16:02:32.032Z</time>
      </trkpt>
      <trkpt lat="43.74015" lon="1.40453">
        <ele>226.604773</ele>
        <time>2022-05-21T16:02:34.025Z</time>
      </trkpt>
      <trkpt lat="43.74004" lon="1.40447">
        <ele>226.731451</ele>
        <time>2022-05-21T16:02:36.031Z</time>
      </trkpt>
      <trkpt lat="43.73994" lon="1.40442">
        <ele>226.853748</ele>
        <time>2022-05-21T16:02:38.028Z</time>
      </trkpt>
      <trkpt lat="43.73985" lon="1.40443">
        <ele>226.958903</ele>
        <time>2022-05-21T16:02:40.030Z</time>
      </trkpt>
      <trkpt lat="43.73979" lon="1.40454">
        <ele>227.070194</ele>
        <time>2022-05-21T16:02:42.015Z</time>
      </trkpt>
      <trkpt lat="43.73972" lon="1.40466">
        <ele>227.199247</ele>
        <time>2022-05-21T16:02:44.025Z</time>
      </trkpt>
      <trkpt lat="43.73961" lon="1.40469">
        <ele>227.319064</ele>
        <time>2022-05-21T16:02:46.014Z</time>
      </trkpt>
      <trkpt lat="43.73951" lon="1.40464">
        <ele>227.433948</ele>
        <time>2022-05-21T16:02:48.007Z</time>
      </trkpt>
      <trkpt lat="43.73942" lon="1.40458">
        <ele>227.547974</ele>
        <time>2022-05-21T16:02:50.022Z</time>
      </trkpt>
      <trkpt lat="43.73932" lon="1.40452">
        <ele>227.670521</ele>
        <time>2022-05-21T16:02:52.018Z</time>
      </trkpt>
      <trkpt lat="43.73871" lon="1.40411">
        <ele>226.542115</ele>
        <time>2022-05-21T16:03:04.017Z</time>
      </trkpt>
      <trkpt lat="43.73785" lon="1.40455">
        <ele>223.933683</ele>
        <time>2022-05-21T16:03:31.008Z</time>
      </trkpt>
      <trkpt lat="43.73778" lon="1.40444">
        <ele>222.695549</ele>
        <time>2022-05-21T16:03:33.032Z</time>
      </trkpt>
      <trkpt lat="43.7377" lon="1.40434">
        <ele>220.827084</ele>
        <time>2022-05-21T16:03:35.019Z</time>
      </trkpt>
      <trkpt lat="43.73763" lon="1.40424">
        <ele>219.021775</ele>
        <time>2022-05-21T16:03:37.026Z</time>
      </trkpt>
      <trkpt lat="43.73755" lon="1.40412">
        <ele>216.863927</ele>
        <time>2022-05-21T16:03:39.011Z</time>
      </trkpt>
      <trkpt lat="43.73744" lon="1.40396">
        <ele>214.133452</ele>
        <time>2022-05-21T16:03:41.009Z</time>
      </trkpt>
      <trkpt lat="43.73734" lon="1.40381">
        <ele>211.37855</ele>
        <time>2022-05-21T16:03:43.008Z</time>
      </trkpt>
      <trkpt lat="43.73722" lon="1.4037">
        <ele>208.839374</ele>
        <time>2022-05-21T16:03:45.014Z</time>
      </trkpt>
      <trkpt lat="43.7371" lon="1.40359">
        <ele>206.263566</ele>
        <time>2022-05-21T16:03:47.008Z</time>
      </trkpt>
      <trkpt lat="43.73699" lon="1.40346">
        <ele>203.619063</ele>
        <time>2022-05-21T16:03:49.027Z</time>
      </trkpt>
      <trkpt lat="43.7369" lon="1.40336">
        <ele>201.517001</ele>
        <time>2022-05-21T16:03:51.032Z</time>
      </trkpt>
      <trkpt lat="43.73682" lon="1.40325">
        <ele>199.573379</ele>
        <time>2022-05-21T16:03:54.028Z</time>
      </trkpt>
      <trkpt lat="43.73673" lon="1.40315">
        <ele>197.422156</ele>
        <time>2022-05-21T16:03:59.024Z</time>
      </trkpt>
      <trkpt lat="43.73666" lon="1.40305">
        <ele>195.649958</ele>
        <time>2022-05-21T16:04:01.033Z</time>
      </trkpt>
      <trkpt lat="43.73656" lon="1.40292">
        <ele>193.279721</ele>
        <time>2022-05-21T16:04:03.013Z</time>
      </trkpt>
      <trkpt lat="43.73646" lon="1.40277">
        <ele>191.217847</ele>
        <time>2022-05-21T16:04:05.003Z</time>
      </trkpt>
      <trkpt lat="43.73635" lon="1.4026">
        <ele>190.16375</ele>
        <time>2022-05-21T16:04:07.016Z</time>
      </trkpt>
      <trkpt lat="43.73629" lon="1.4025">
        <ele>189.596342</ele>
        <time>2022-05-21T16:04:08.023Z</time>
      </trkpt>
      <trkpt lat="43.73623" lon="1.40239">
        <ele>188.977809</ele>
        <time>2022-05-21T16:04:09.018Z</time>
      </trkpt>
      <trkpt lat="43.73617" lon="1.40228">
        <ele>188.331368</ele>
        <time>2022-05-21T16:04:10.015Z</time>
      </trkpt>
      <trkpt lat="43.7361" lon="1.40218">
        <ele>187.688366</ele>
        <time>2022-05-21T16:04:11.018Z</time>
      </trkpt>
      <trkpt lat="43.73604" lon="1.40207">
        <ele>187.086507</ele>
        <time>2022-05-21T16:04:12.030Z</time>
      </trkpt>
      <trkpt lat="43.73592" lon="1.40191">
        <ele>186.04747</ele>
        <time>2022-05-21T16:04:14.018Z</time>
      </trkpt>
      <trkpt lat="43.73584" lon="1.40181">
        <ele>185.338558</ele>
        <time>2022-05-21T16:04:17.038Z</time>
      </trkpt>
      <trkpt lat="43.73573" lon="1.40177">
        <ele>184.623018</ele>
        <time>2022-05-21T16:04:21.025Z</time>
      </trkpt>
      <trkpt lat="43.73563" lon="1.40181">
        <ele>183.957907</ele>
        <time>2022-05-21T16:04:24.007Z</time>
      </trkpt>
      <trkpt lat="43.73551" lon="1.40185">
        <ele>183.211693</ele>
        <time>2022-05-21T16:04:27.013Z</time>
      </trkpt>
      <trkpt lat="43.73541" lon="1.40188">
        <ele>182.592617</ele>
        <time>2022-05-21T16:04:29.002Z</time>
      </trkpt>
      <trkpt lat="43.73531" lon="1.40191">
        <ele>181.906434</ele>
        <time>2022-05-21T16:04:31.033Z</time>
      </trkpt>
      <trkpt lat="43.73519" lon="1.40195">
        <ele>181.165371</ele>
        <time>2022-05-21T16:04:33.026Z</time>
      </trkpt>
      <trkpt lat="43.73507" lon="1.40195">
        <ele>180.404801</ele>
        <time>2022-05-21T16:04:35.014Z</time>
      </trkpt>
      <trkpt lat="43.73496" lon="1.40191">
        <ele>180.081367</ele>
        <time>2022-05-21T16:04:37.016Z</time>
      </trkpt>
      <trkpt lat="43.73486" lon="1.40183">
        <ele>179.857499</ele>
        <time>2022-05-21T16:04:39.018Z</time>
      </trkpt>
      <trkpt lat="43.73475" lon="1.40174">
        <ele>179.625502</ele>
        <time>2022-05-21T16:04:41.017Z</time>
      </trkpt>
      <trkpt lat="43.73463" lon="1.4017">
        <ele>179.392649</ele>
        <time>2022-05-21T16:04:43.017Z</time>
      </trkpt>
      <trkpt lat="43.73451" lon="1.4017">
        <ele>179.153064</ele>
        <time>2022-05-21T16:04:45.019Z</time>
      </trkpt>
      <trkpt lat="43.73438" lon="1.40173">
        <ele>178.904776</ele>
        <time>2022-05-21T16:04:47.020Z</time>
      </trkpt>
      <trkpt lat="43.73425" lon="1.40177">
        <ele>178.654274</ele>
        <time>2022-05-21T16:04:49.020Z</time>
      </trkpt>
      <trkpt lat="43.73412" lon="1.40181">
        <ele>178.403818</ele>
        <time>2022-05-21T16:04:51.065Z</time>
      </trkpt>
      <trkpt lat="43.73399" lon="1.40185">
        <ele>178.154893</ele>
        <time>2022-05-21T16:04:53.025Z</time>
      </trkpt>
      <trkpt lat="43.73387" lon="1.40188">
        <ele>177.908114</ele>
        <time>2022-05-21T16:04:55.028Z</time>
      </trkpt>
      <trkpt lat="43.73374" lon="1.40194">
        <ele>177.665382</ele>
        <time>2022-05-21T16:04:57.013Z</time>
      </trkpt>
      <trkpt lat="43.73362" lon="1.40199">
        <ele>177.425025</ele>
        <time>2022-05-21T16:04:59.019Z</time>
      </trkpt>
      <trkpt lat="43.73351" lon="1.40207">
        <ele>177.190206</ele>
        <time>2022-05-21T16:05:01.024Z</time>
      </trkpt>
      <trkpt lat="43.73341" lon="1.40215">
        <ele>176.962612</ele>
        <time>2022-05-21T16:05:03.030Z</time>
      </trkpt>
      <trkpt lat="43.73331" lon="1.40224">
        <ele>176.748091</ele>
        <time>2022-05-21T16:05:05.013Z</time>
      </trkpt>
      <trkpt lat="43.73321" lon="1.40233">
        <ele>176.548873</ele>
        <time>2022-05-21T16:05:07.011Z</time>
      </trkpt>
      <trkpt lat="43.73318" lon="1.40246">
        <ele>176.385763</ele>
        <time>2022-05-21T16:05:09.009Z</time>
      </trkpt>
      <trkpt lat="43.73328" lon="1.40248">
        <ele>176.223121</ele>
        <time>2022-05-21T16:05:12.034Z</time>
      </trkpt>
      <trkpt lat="43.73327" lon="1.40234">
        <ele>176.049601</ele>
        <time>2022-05-21T16:05:15.040Z</time>
      </trkpt>
      <trkpt lat="43.73318" lon="1.40227">
        <ele>175.884175</ele>
        <time>2022-05-21T16:05:16.995Z</time>
      </trkpt>
      <trkpt lat="43.73308" lon="1.40218">
        <ele>175.685741</ele>
        <time>2022-05-21T16:05:19.009Z</time>
      </trkpt>
      <trkpt lat="43.73299" lon="1.40205">
        <ele>175.47056</ele>
        <time>2022-05-21T16:05:21.026Z</time>
      </trkpt>
      <trkpt lat="43.73291" lon="1.4019">
        <ele>175.245978</ele>
        <time>2022-05-21T16:05:23.020Z</time>
      </trkpt>
      <trkpt lat="43.73281" lon="1.40177">
        <ele>175.016796</ele>
        <time>2022-05-21T16:05:25.020Z</time>
      </trkpt>
      <trkpt lat="43.7327" lon="1.40165">
        <ele>174.787388</ele>
        <time>2022-05-21T16:05:27.012Z</time>
      </trkpt>
      <trkpt lat="43.73259" lon="1.40154">
        <ele>174.560975</ele>
        <time>2022-05-21T16:05:29.013Z</time>
      </trkpt>
      <trkpt lat="43.73247" lon="1.40145">
        <ele>174.342732</ele>
        <time>2022-05-21T16:05:31.019Z</time>
      </trkpt>
      <trkpt lat="43.73235" lon="1.4014">
        <ele>174.135576</ele>
        <time>2022-05-21T16:05:33.007Z</time>
      </trkpt>
      <trkpt lat="43.73223" lon="1.40138">
        <ele>173.926119</ele>
        <time>2022-05-21T16:05:35.018Z</time>
      </trkpt>
      <trkpt lat="43.7321" lon="1.40139">
        <ele>173.835965</ele>
        <time>2022-05-21T16:05:37.016Z</time>
      </trkpt>
      <trkpt lat="43.73198" lon="1.4014">
        <ele>173.801919</ele>
        <time>2022-05-21T16:05:39.019Z</time>
      </trkpt>
      <trkpt lat="43.73185" lon="1.40141">
        <ele>173.768428</ele>
        <time>2022-05-21T16:05:41.011Z</time>
      </trkpt>
      <trkpt lat="43.73173" lon="1.40143">
        <ele>173.73513</ele>
        <time>2022-05-21T16:05:43.028Z</time>
      </trkpt>
      <trkpt lat="43.73161" lon="1.40146">
        <ele>173.70156</ele>
        <time>2022-05-21T16:05:45.046Z</time>
      </trkpt>
      <trkpt lat="43.73149" lon="1.40148">
        <ele>173.667808</ele>
        <time>2022-05-21T16:05:47.011Z</time>
      </trkpt>
      <trkpt lat="43.73137" lon="1.40151">
        <ele>173.634709</ele>
        <time>2022-05-21T16:05:49.024Z</time>
      </trkpt>
      <trkpt lat="43.73125" lon="1.40155">
        <ele>173.602537</ele>
        <time>2022-05-21T16:05:51.036Z</time>
      </trkpt>
      <trkpt lat="43.73114" lon="1.40159">
        <ele>173.570272</ele>
        <time>2022-05-21T16:05:53.004Z</time>
      </trkpt>
      <trkpt lat="43.73102" lon="1.40164">
        <ele>173.537484</ele>
        <time>2022-05-21T16:05:54.996Z</time>
      </trkpt>
      <trkpt lat="43.7309" lon="1.40169">
        <ele>173.50475</ele>
        <time>2022-05-21T16:05:56.997Z</time>
      </trkpt>
      <trkpt lat="43.73079" lon="1.40173">
        <ele>173.472112</ele>
        <time>2022-05-21T16:05:59.013Z</time>
      </trkpt>
      <trkpt lat="43.73067" lon="1.40177">
        <ele>173.439055</ele>
        <time>2022-05-21T16:06:01.004Z</time>
      </trkpt>
      <trkpt lat="43.73056" lon="1.40182">
        <ele>173.406213</ele>
        <time>2022-05-21T16:06:03.017Z</time>
      </trkpt>
      <trkpt lat="43.73044" lon="1.40187">
        <ele>173.374001</ele>
        <time>2022-05-21T16:06:05.017Z</time>
      </trkpt>
      <trkpt lat="43.73033" lon="1.40191">
        <ele>173.370418</ele>
        <time>2022-05-21T16:06:07.007Z</time>
      </trkpt>
      <trkpt lat="43.73021" lon="1.40195">
        <ele>173.36949</ele>
        <time>2022-05-21T16:06:09.005Z</time>
      </trkpt>
      <trkpt lat="43.7301" lon="1.402">
        <ele>173.368556</ele>
        <time>2022-05-21T16:06:11.007Z</time>
      </trkpt>
      <trkpt lat="43.72998" lon="1.40204">
        <ele>173.367599</ele>
        <time>2022-05-21T16:06:13.037Z</time>
      </trkpt>
      <trkpt lat="43.72986" lon="1.40209">
        <ele>173.366639</ele>
        <time>2022-05-21T16:06:15.027Z</time>
      </trkpt>
      <trkpt lat="43.72974" lon="1.40214">
        <ele>173.36566</ele>
        <time>2022-05-21T16:06:17.001Z</time>
      </trkpt>
      <trkpt lat="43.72963" lon="1.40219">
        <ele>173.36471</ele>
        <time>2022-05-21T16:06:19.008Z</time>
      </trkpt>
      <trkpt lat="43.72951" lon="1.40225">
        <ele>173.363762</ele>
        <time>2022-05-21T16:06:21.015Z</time>
      </trkpt>
      <trkpt lat="43.7294" lon="1.40231">
        <ele>173.362819</ele>
        <time>2022-05-21T16:06:23.019Z</time>
      </trkpt>
      <trkpt lat="43.72929" lon="1.40238">
        <ele>173.361903</ele>
        <time>2022-05-21T16:06:25.011Z</time>
      </trkpt>
      <trkpt lat="43.72918" lon="1.40245">
        <ele>173.36097</ele>
        <time>2022-05-21T16:06:27.007Z</time>
      </trkpt>
      <trkpt lat="43.72908" lon="1.40254">
        <ele>173.360011</ele>
        <time>2022-05-21T16:06:29.005Z</time>
      </trkpt>
      <trkpt lat="43.72898" lon="1.40265">
        <ele>173.359039</ele>
        <time>2022-05-21T16:06:30.999Z</time>
      </trkpt>
      <trkpt lat="43.72889" lon="1.40276">
        <ele>173.3581</ele>
        <time>2022-05-21T16:06:32.999Z</time>
      </trkpt>
      <trkpt lat="43.7288" lon="1.40287">
        <ele>173.354869</ele>
        <time>2022-05-21T16:06:35.002Z</time>
      </trkpt>
      <trkpt lat="43.72872" lon="1.40299">
        <ele>173.322491</ele>
        <time>2022-05-21T16:06:37.011Z</time>
      </trkpt>
      <trkpt lat="43.72864" lon="1.40312">
        <ele>173.290091</ele>
        <time>2022-05-21T16:06:38.997Z</time>
      </trkpt>
      <trkpt lat="43.72857" lon="1.40326">
        <ele>173.256975</ele>
        <time>2022-05-21T16:06:41.040Z</time>
      </trkpt>
      <trkpt lat="43.72849" lon="1.40339">
        <ele>173.223695</ele>
        <time>2022-05-21T16:06:43.034Z</time>
      </trkpt>
      <trkpt lat="43.72841" lon="1.40353">
        <ele>173.190065</ele>
        <time>2022-05-21T16:06:45.020Z</time>
      </trkpt>
      <trkpt lat="43.72832" lon="1.40366">
        <ele>173.156185</ele>
        <time>2022-05-21T16:06:47.058Z</time>
      </trkpt>
      <trkpt lat="43.72824" lon="1.40379">
        <ele>173.122334</ele>
        <time>2022-05-21T16:06:49.015Z</time>
      </trkpt>
      <trkpt lat="43.72815" lon="1.40392">
        <ele>173.088616</ele>
        <time>2022-05-21T16:06:51.021Z</time>
      </trkpt>
      <trkpt lat="43.72806" lon="1.40403">
        <ele>173.055569</ele>
        <time>2022-05-21T16:06:53.014Z</time>
      </trkpt>
      <trkpt lat="43.72796" lon="1.40414">
        <ele>173.022831</ele>
        <time>2022-05-21T16:06:55.025Z</time>
      </trkpt>
      <trkpt lat="43.72786" lon="1.40423">
        <ele>172.990257</ele>
        <time>2022-05-21T16:06:57.003Z</time>
      </trkpt>
      <trkpt lat="43.72775" lon="1.4043">
        <ele>172.95733</ele>
        <time>2022-05-21T16:06:59.004Z</time>
      </trkpt>
      <trkpt lat="43.72764" lon="1.40436">
        <ele>172.925245</ele>
        <time>2022-05-21T16:07:01.016Z</time>
      </trkpt>
      <trkpt lat="43.72752" lon="1.40441">
        <ele>172.893227</ele>
        <time>2022-05-21T16:07:03.020Z</time>
      </trkpt>
      <trkpt lat="43.72741" lon="1.40446">
        <ele>172.881136</ele>
        <time>2022-05-21T16:07:05.025Z</time>
      </trkpt>
      <trkpt lat="43.72729" lon="1.4045">
        <ele>172.887588</ele>
        <time>2022-05-21T16:07:07.020Z</time>
      </trkpt>
      <trkpt lat="43.72717" lon="1.40454">
        <ele>172.894054</ele>
        <time>2022-05-21T16:07:09.030Z</time>
      </trkpt>
      <trkpt lat="43.72706" lon="1.40458">
        <ele>172.900459</ele>
        <time>2022-05-21T16:07:11.031Z</time>
      </trkpt>
      <trkpt lat="43.72694" lon="1.40462">
        <ele>172.906901</ele>
        <time>2022-05-21T16:07:13.024Z</time>
      </trkpt>
      <trkpt lat="43.72682" lon="1.40466">
        <ele>172.913463</ele>
        <time>2022-05-21T16:07:15.049Z</time>
      </trkpt>
      <trkpt lat="43.7267" lon="1.4047">
        <ele>172.92006</ele>
        <time>2022-05-21T16:07:17.016Z</time>
      </trkpt>
      <trkpt lat="43.72659" lon="1.40476">
        <ele>172.926599</ele>
        <time>2022-05-21T16:07:19.017Z</time>
      </trkpt>
      <trkpt lat="43.72648" lon="1.40484">
        <ele>172.933223</ele>
        <time>2022-05-21T16:07:21.027Z</time>
      </trkpt>
      <trkpt lat="43.72638" lon="1.40493">
        <ele>172.939732</ele>
        <time>2022-05-21T16:07:23.017Z</time>
      </trkpt>
      <trkpt lat="43.72627" lon="1.40501">
        <ele>172.946282</ele>
        <time>2022-05-21T16:07:25.010Z</time>
      </trkpt>
      <trkpt lat="43.72617" lon="1.40511">
        <ele>172.952821</ele>
        <time>2022-05-21T16:07:27.044Z</time>
      </trkpt>
      <trkpt lat="43.72607" lon="1.4052">
        <ele>172.959384</ele>
        <time>2022-05-21T16:07:29.041Z</time>
      </trkpt>
      <trkpt lat="43.72597" lon="1.40529">
        <ele>172.965926</ele>
        <time>2022-05-21T16:07:31.050Z</time>
      </trkpt>
      <trkpt lat="43.72587" lon="1.40539">
        <ele>172.972445</ele>
        <time>2022-05-21T16:07:33.026Z</time>
      </trkpt>
      <trkpt lat="43.72577" lon="1.40549">
        <ele>172.996253</ele>
        <time>2022-05-21T16:07:35.003Z</time>
      </trkpt>
      <trkpt lat="43.72567" lon="1.40556">
        <ele>173.027954</ele>
        <time>2022-05-21T16:07:37.020Z</time>
      </trkpt>
      <trkpt lat="43.72555" lon="1.40561">
        <ele>173.059778</ele>
        <time>2022-05-21T16:07:39.023Z</time>
      </trkpt>
      <trkpt lat="43.72543" lon="1.40565">
        <ele>173.091777</ele>
        <time>2022-05-21T16:07:41.014Z</time>
      </trkpt>
      <trkpt lat="43.72531" lon="1.40567">
        <ele>173.123409</ele>
        <time>2022-05-21T16:07:43.029Z</time>
      </trkpt>
      <trkpt lat="43.7252" lon="1.4057">
        <ele>173.154953</ele>
        <time>2022-05-21T16:07:45.014Z</time>
      </trkpt>
      <trkpt lat="43.72508" lon="1.40572">
        <ele>173.186657</ele>
        <time>2022-05-21T16:07:47.018Z</time>
      </trkpt>
      <trkpt lat="43.72496" lon="1.40574">
        <ele>173.21786</ele>
        <time>2022-05-21T16:07:49.029Z</time>
      </trkpt>
      <trkpt lat="43.72484" lon="1.40577">
        <ele>173.24926</ele>
        <time>2022-05-21T16:07:51.016Z</time>
      </trkpt>
      <trkpt lat="43.72473" lon="1.4058">
        <ele>173.280403</ele>
        <time>2022-05-21T16:07:53.031Z</time>
      </trkpt>
      <trkpt lat="43.72461" lon="1.40582">
        <ele>173.312024</ele>
        <time>2022-05-21T16:07:55.008Z</time>
      </trkpt>
      <trkpt lat="43.72449" lon="1.40584">
        <ele>173.343489</ele>
        <time>2022-05-21T16:07:57.002Z</time>
      </trkpt>
      <trkpt lat="43.72437" lon="1.40587">
        <ele>173.375255</ele>
        <time>2022-05-21T16:07:59.015Z</time>
      </trkpt>
      <trkpt lat="43.72426" lon="1.4059">
        <ele>173.406951</ele>
        <time>2022-05-21T16:08:00.997Z</time>
      </trkpt>
      <trkpt lat="43.72414" lon="1.40591">
        <ele>173.438507</ele>
        <time>2022-05-21T16:08:03.004Z</time>
      </trkpt>
      <trkpt lat="43.72402" lon="1.40592">
        <ele>173.527405</ele>
        <time>2022-05-21T16:08:05.005Z</time>
      </trkpt>
      <trkpt lat="43.7239" lon="1.40594">
        <ele>173.648017</ele>
        <time>2022-05-21T16:08:07.008Z</time>
      </trkpt>
      <trkpt lat="43.72378" lon="1.40597">
        <ele>173.768209</ele>
        <time>2022-05-21T16:08:09.000Z</time>
      </trkpt>
      <trkpt lat="43.72366" lon="1.40599">
        <ele>173.888295</ele>
        <time>2022-05-21T16:08:11.005Z</time>
      </trkpt>
      <trkpt lat="43.72354" lon="1.40602">
        <ele>174.009214</ele>
        <time>2022-05-21T16:08:13.021Z</time>
      </trkpt>
      <trkpt lat="43.72342" lon="1.40606">
        <ele>174.132141</ele>
        <time>2022-05-21T16:08:15.006Z</time>
      </trkpt>
      <trkpt lat="43.72331" lon="1.40611">
        <ele>174.251757</ele>
        <time>2022-05-21T16:08:17.027Z</time>
      </trkpt>
      <trkpt lat="43.7232" lon="1.40618">
        <ele>174.36944</ele>
        <time>2022-05-21T16:08:19.021Z</time>
      </trkpt>
      <trkpt lat="43.72308" lon="1.40624">
        <ele>174.48937</ele>
        <time>2022-05-21T16:08:21.018Z</time>
      </trkpt>
      <trkpt lat="43.72297" lon="1.4063">
        <ele>174.608528</ele>
        <time>2022-05-21T16:08:23.015Z</time>
      </trkpt>
      <trkpt lat="43.72287" lon="1.40637">
        <ele>174.727051</ele>
        <time>2022-05-21T16:08:25.031Z</time>
      </trkpt>
      <trkpt lat="43.72275" lon="1.40641">
        <ele>174.84582</ele>
        <time>2022-05-21T16:08:27.014Z</time>
      </trkpt>
      <trkpt lat="43.72263" lon="1.40643">
        <ele>174.966238</ele>
        <time>2022-05-21T16:08:29.034Z</time>
      </trkpt>
      <trkpt lat="43.72251" lon="1.40643">
        <ele>175.086067</ele>
        <time>2022-05-21T16:08:31.036Z</time>
      </trkpt>
      <trkpt lat="43.72239" lon="1.40641">
        <ele>175.207934</ele>
        <time>2022-05-21T16:08:33.018Z</time>
      </trkpt>
      <trkpt lat="43.72227" lon="1.40637">
        <ele>175.279609</ele>
        <time>2022-05-21T16:08:35.027Z</time>
      </trkpt>
      <trkpt lat="43.72215" lon="1.40634">
        <ele>175.329388</ele>
        <time>2022-05-21T16:08:37.013Z</time>
      </trkpt>
      <trkpt lat="43.72203" lon="1.40632">
        <ele>175.377949</ele>
        <time>2022-05-21T16:08:39.017Z</time>
      </trkpt>
      <trkpt lat="43.72192" lon="1.40633">
        <ele>175.425908</ele>
        <time>2022-05-21T16:08:41.014Z</time>
      </trkpt>
      <trkpt lat="43.7218" lon="1.40635">
        <ele>175.474257</ele>
        <time>2022-05-21T16:08:43.023Z</time>
      </trkpt>
      <trkpt lat="43.72168" lon="1.40638">
        <ele>175.522669</ele>
        <time>2022-05-21T16:08:44.993Z</time>
      </trkpt>
      <trkpt lat="43.72157" lon="1.40642">
        <ele>175.570537</ele>
        <time>2022-05-21T16:08:47.009Z</time>
      </trkpt>
      <trkpt lat="43.72145" lon="1.40646">
        <ele>175.619027</ele>
        <time>2022-05-21T16:08:49.016Z</time>
      </trkpt>
      <trkpt lat="43.72134" lon="1.40651">
        <ele>175.666654</ele>
        <time>2022-05-21T16:08:51.019Z</time>
      </trkpt>
      <trkpt lat="43.72123" lon="1.40655">
        <ele>175.714597</ele>
        <time>2022-05-21T16:08:53.026Z</time>
      </trkpt>
      <trkpt lat="43.72111" lon="1.40659">
        <ele>175.762072</ele>
        <time>2022-05-21T16:08:55.027Z</time>
      </trkpt>
      <trkpt lat="43.721" lon="1.40664">
        <ele>175.809604</ele>
        <time>2022-05-21T16:08:57.017Z</time>
      </trkpt>
      <trkpt lat="43.72089" lon="1.4067">
        <ele>175.85761</ele>
        <time>2022-05-21T16:08:59.039Z</time>
      </trkpt>
      <trkpt lat="43.72079" lon="1.40677">
        <ele>175.905105</ele>
        <time>2022-05-21T16:09:00.991Z</time>
      </trkpt>
      <trkpt lat="43.72068" lon="1.40683">
        <ele>175.951492</ele>
        <time>2022-05-21T16:09:03.015Z</time>
      </trkpt>
      <trkpt lat="43.72057" lon="1.40687">
        <ele>175.99301</ele>
        <time>2022-05-21T16:09:05.017Z</time>
      </trkpt>
      <trkpt lat="43.72046" lon="1.40689">
        <ele>176.028937</ele>
        <time>2022-05-21T16:09:07.017Z</time>
      </trkpt>
      <trkpt lat="43.72035" lon="1.4069">
        <ele>176.065368</ele>
        <time>2022-05-21T16:09:09.014Z</time>
      </trkpt>
      <trkpt lat="43.72023" lon="1.40687">
        <ele>176.102206</ele>
        <time>2022-05-21T16:09:11.013Z</time>
      </trkpt>
      <trkpt lat="43.72012" lon="1.40683">
        <ele>176.139835</ele>
        <time>2022-05-21T16:09:13.014Z</time>
      </trkpt>
      <trkpt lat="43.72001" lon="1.4068">
        <ele>176.176779</ele>
        <time>2022-05-21T16:09:15.012Z</time>
      </trkpt>
      <trkpt lat="43.7199" lon="1.40678">
        <ele>176.209573</ele>
        <time>2022-05-21T16:09:17.009Z</time>
      </trkpt>
      <trkpt lat="43.71977" lon="1.40679">
        <ele>176.253362</ele>
        <time>2022-05-21T16:09:20.023Z</time>
      </trkpt>
      <trkpt lat="43.71966" lon="1.40676">
        <ele>176.289493</ele>
        <time>2022-05-21T16:09:22.003Z</time>
      </trkpt>
      <trkpt lat="43.71954" lon="1.40673">
        <ele>176.32728</ele>
        <time>2022-05-21T16:09:24.018Z</time>
      </trkpt>
      <trkpt lat="43.71942" lon="1.40672">
        <ele>176.364715</ele>
        <time>2022-05-21T16:09:26.017Z</time>
      </trkpt>
      <trkpt lat="43.71931" lon="1.40668">
        <ele>176.402231</ele>
        <time>2022-05-21T16:09:28.021Z</time>
      </trkpt>
      <trkpt lat="43.7192" lon="1.40665">
        <ele>176.438049</ele>
        <time>2022-05-21T16:09:30.014Z</time>
      </trkpt>
      <trkpt lat="43.71909" lon="1.40662">
        <ele>176.473822</ele>
        <time>2022-05-21T16:09:32.015Z</time>
      </trkpt>
      <trkpt lat="43.71898" lon="1.4066">
        <ele>176.509082</ele>
        <time>2022-05-21T16:09:34.015Z</time>
      </trkpt>
      <trkpt lat="43.71887" lon="1.40658">
        <ele>176.544525</ele>
        <time>2022-05-21T16:09:36.028Z</time>
      </trkpt>
      <trkpt lat="43.71876" lon="1.40655">
        <ele>176.472807</ele>
        <time>2022-05-21T16:09:38.031Z</time>
      </trkpt>
      <trkpt lat="43.71865" lon="1.40653">
        <ele>176.37418</ele>
        <time>2022-05-21T16:09:40.024Z</time>
      </trkpt>
      <trkpt lat="43.71853" lon="1.40651">
        <ele>176.276506</ele>
        <time>2022-05-21T16:09:42.019Z</time>
      </trkpt>
      <trkpt lat="43.71843" lon="1.40648">
        <ele>176.180464</ele>
        <time>2022-05-21T16:09:44.030Z</time>
      </trkpt>
      <trkpt lat="43.71832" lon="1.40648">
        <ele>176.09158</ele>
        <time>2022-05-21T16:09:46.030Z</time>
      </trkpt>
      <trkpt lat="43.71824" lon="1.40656">
        <ele>176.003811</ele>
        <time>2022-05-21T16:09:48.025Z</time>
      </trkpt>
      <trkpt lat="43.71816" lon="1.40668">
        <ele>175.901048</ele>
        <time>2022-05-21T16:09:50.025Z</time>
      </trkpt>
      <trkpt lat="43.71805" lon="1.40676">
        <ele>175.790822</ele>
        <time>2022-05-21T16:09:52.008Z</time>
      </trkpt>
      <trkpt lat="43.71792" lon="1.40673">
        <ele>175.679946</ele>
        <time>2022-05-21T16:09:54.009Z</time>
      </trkpt>
      <trkpt lat="43.7178" lon="1.40677">
        <ele>175.569956</ele>
        <time>2022-05-21T16:09:56.028Z</time>
      </trkpt>
      <trkpt lat="43.71773" lon="1.4069">
        <ele>175.462805</ele>
        <time>2022-05-21T16:09:58.013Z</time>
      </trkpt>
      <trkpt lat="43.71769" lon="1.40707">
        <ele>175.355625</ele>
        <time>2022-05-21T16:10:00.012Z</time>
      </trkpt>
      <trkpt lat="43.71765" lon="1.40723">
        <ele>175.247565</ele>
        <time>2022-05-21T16:10:02.024Z</time>
      </trkpt>
      <trkpt lat="43.71761" lon="1.40739">
        <ele>175.140605</ele>
        <time>2022-05-21T16:10:04.018Z</time>
      </trkpt>
      <trkpt lat="43.71758" lon="1.40755">
        <ele>175.033799</ele>
        <time>2022-05-21T16:10:06.018Z</time>
      </trkpt>
      <trkpt lat="43.71754" lon="1.40771">
        <ele>175.030653</ele>
        <time>2022-05-21T16:10:08.004Z</time>
      </trkpt>
      <trkpt lat="43.71751" lon="1.40787">
        <ele>175.113939</ele>
        <time>2022-05-21T16:10:10.041Z</time>
      </trkpt>
      <trkpt lat="43.71746" lon="1.40802">
        <ele>175.196722</ele>
        <time>2022-05-21T16:10:12.026Z</time>
      </trkpt>
      <trkpt lat="43.71742" lon="1.40818">
        <ele>175.279464</ele>
        <time>2022-05-21T16:10:14.028Z</time>
      </trkpt>
      <trkpt lat="43.71738" lon="1.40833">
        <ele>175.361525</ele>
        <time>2022-05-21T16:10:16.054Z</time>
      </trkpt>
      <trkpt lat="43.71733" lon="1.40849">
        <ele>175.445712</ele>
        <time>2022-05-21T16:10:18.016Z</time>
      </trkpt>
      <trkpt lat="43.71729" lon="1.40864">
        <ele>175.530026</ele>
        <time>2022-05-21T16:10:20.032Z</time>
      </trkpt>
      <trkpt lat="43.71724" lon="1.4088">
        <ele>175.613246</ele>
        <time>2022-05-21T16:10:22.027Z</time>
      </trkpt>
      <trkpt lat="43.7172" lon="1.40895">
        <ele>175.697433</ele>
        <time>2022-05-21T16:10:24.023Z</time>
      </trkpt>
      <trkpt lat="43.71715" lon="1.4091">
        <ele>175.780934</ele>
        <time>2022-05-21T16:10:26.031Z</time>
      </trkpt>
      <trkpt lat="43.7171" lon="1.40925">
        <ele>175.863363</ele>
        <time>2022-05-21T16:10:28.013Z</time>
      </trkpt>
      <trkpt lat="43.71705" lon="1.40939">
        <ele>175.942925</ele>
        <time>2022-05-21T16:10:30.039Z</time>
      </trkpt>
      <trkpt lat="43.71701" lon="1.40954">
        <ele>176.02245</ele>
        <time>2022-05-21T16:10:32.030Z</time>
      </trkpt>
      <trkpt lat="43.71693" lon="1.40966">
        <ele>176.102075</ele>
        <time>2022-05-21T16:10:34.019Z</time>
      </trkpt>
      <trkpt lat="43.71684" lon="1.40976">
        <ele>176.183608</ele>
        <time>2022-05-21T16:10:36.016Z</time>
      </trkpt>
      <trkpt lat="43.71674" lon="1.40985">
        <ele>176.269478</ele>
        <time>2022-05-21T16:10:38.046Z</time>
      </trkpt>
      <trkpt lat="43.71665" lon="1.40995">
        <ele>176.360267</ele>
        <time>2022-05-21T16:10:40.016Z</time>
      </trkpt>
      <trkpt lat="43.71655" lon="1.41002">
        <ele>176.447567</ele>
        <time>2022-05-21T16:10:42.018Z</time>
      </trkpt>
      <trkpt lat="43.71644" lon="1.41007">
        <ele>176.536703</ele>
        <time>2022-05-21T16:10:44.031Z</time>
      </trkpt>
      <trkpt lat="43.71633" lon="1.41011">
        <ele>176.626584</ele>
        <time>2022-05-21T16:10:46.042Z</time>
      </trkpt>
      <trkpt lat="43.71621" lon="1.41017">
        <ele>176.722427</ele>
        <time>2022-05-21T16:10:48.025Z</time>
      </trkpt>
      <trkpt lat="43.7161" lon="1.41023">
        <ele>176.813176</ele>
        <time>2022-05-21T16:10:49.999Z</time>
      </trkpt>
      <trkpt lat="43.71599" lon="1.41026">
        <ele>176.905202</ele>
        <time>2022-05-21T16:10:52.007Z</time>
      </trkpt>
      <trkpt lat="43.71587" lon="1.41028">
        <ele>176.997882</ele>
        <time>2022-05-21T16:10:54.019Z</time>
      </trkpt>
      <trkpt lat="43.71575" lon="1.41029">
        <ele>177.088038</ele>
        <time>2022-05-21T16:10:56.012Z</time>
      </trkpt>
      <trkpt lat="43.71564" lon="1.41029">
        <ele>177.176738</ele>
        <time>2022-05-21T16:10:58.013Z</time>
      </trkpt>
      <trkpt lat="43.71552" lon="1.41031">
        <ele>177.267905</ele>
        <time>2022-05-21T16:11:00.005Z</time>
      </trkpt>
      <trkpt lat="43.71541" lon="1.41031">
        <ele>177.357332</ele>
        <time>2022-05-21T16:11:02.006Z</time>
      </trkpt>
      <trkpt lat="43.71529" lon="1.41032">
        <ele>177.448312</ele>
        <time>2022-05-21T16:11:04.015Z</time>
      </trkpt>
      <trkpt lat="43.71517" lon="1.41033">
        <ele>177.537788</ele>
        <time>2022-05-21T16:11:06.019Z</time>
      </trkpt>
      <trkpt lat="43.71506" lon="1.41034">
        <ele>177.62814</ele>
        <time>2022-05-21T16:11:08.010Z</time>
      </trkpt>
      <trkpt lat="43.71494" lon="1.41034">
        <ele>177.562595</ele>
        <time>2022-05-21T16:11:10.029Z</time>
      </trkpt>
      <trkpt lat="43.71482" lon="1.41035">
        <ele>177.487307</ele>
        <time>2022-05-21T16:11:12.005Z</time>
      </trkpt>
      <trkpt lat="43.71471" lon="1.41035">
        <ele>177.412615</ele>
        <time>2022-05-21T16:11:14.007Z</time>
      </trkpt>
      <trkpt lat="43.71459" lon="1.41035">
        <ele>177.339267</ele>
        <time>2022-05-21T16:11:16.029Z</time>
      </trkpt>
      <trkpt lat="43.71448" lon="1.41035">
        <ele>177.265909</ele>
        <time>2022-05-21T16:11:18.018Z</time>
      </trkpt>
      <trkpt lat="43.71436" lon="1.41034">
        <ele>177.191264</ele>
        <time>2022-05-21T16:11:20.010Z</time>
      </trkpt>
      <trkpt lat="43.71425" lon="1.41034">
        <ele>177.117263</ele>
        <time>2022-05-21T16:11:22.016Z</time>
      </trkpt>
      <trkpt lat="43.71413" lon="1.41033">
        <ele>177.041928</ele>
        <time>2022-05-21T16:11:24.025Z</time>
      </trkpt>
      <trkpt lat="43.71402" lon="1.41032">
        <ele>176.967162</ele>
        <time>2022-05-21T16:11:26.039Z</time>
      </trkpt>
      <trkpt lat="43.7139" lon="1.41031">
        <ele>176.891782</ele>
        <time>2022-05-21T16:11:28.022Z</time>
      </trkpt>
      <trkpt lat="43.71378" lon="1.41031">
        <ele>176.815874</ele>
        <time>2022-05-21T16:11:30.026Z</time>
      </trkpt>
      <trkpt lat="43.71366" lon="1.41034">
        <ele>176.738445</ele>
        <time>2022-05-21T16:11:32.028Z</time>
      </trkpt>
      <trkpt lat="43.71354" lon="1.41036">
        <ele>176.66038</ele>
        <time>2022-05-21T16:11:34.027Z</time>
      </trkpt>
      <trkpt lat="43.71342" lon="1.41038">
        <ele>176.58135</ele>
        <time>2022-05-21T16:11:36.035Z</time>
      </trkpt>
      <trkpt lat="43.7133" lon="1.4104">
        <ele>176.504875</ele>
        <time>2022-05-21T16:11:38.018Z</time>
      </trkpt>
      <trkpt lat="43.71319" lon="1.41043">
        <ele>176.483905</ele>
        <time>2022-05-21T16:11:40.020Z</time>
      </trkpt>
      <trkpt lat="43.71307" lon="1.41043">
        <ele>176.495507</ele>
        <time>2022-05-21T16:11:42.025Z</time>
      </trkpt>
      <trkpt lat="43.71296" lon="1.41041">
        <ele>176.507075</ele>
        <time>2022-05-21T16:11:44.034Z</time>
      </trkpt>
      <trkpt lat="43.71285" lon="1.41039">
        <ele>176.518244</ele>
        <time>2022-05-21T16:11:46.018Z</time>
      </trkpt>
      <trkpt lat="43.71274" lon="1.41038">
        <ele>176.529639</ele>
        <time>2022-05-21T16:11:48.019Z</time>
      </trkpt>
      <trkpt lat="43.71262" lon="1.41038">
        <ele>176.541327</ele>
        <time>2022-05-21T16:11:50.013Z</time>
      </trkpt>
      <trkpt lat="43.71251" lon="1.41039">
        <ele>176.553048</ele>
        <time>2022-05-21T16:11:52.026Z</time>
      </trkpt>
      <trkpt lat="43.71239" lon="1.41041">
        <ele>176.564794</ele>
        <time>2022-05-21T16:11:54.026Z</time>
      </trkpt>
      <trkpt lat="43.71227" lon="1.41043">
        <ele>176.576648</ele>
        <time>2022-05-21T16:11:56.016Z</time>
      </trkpt>
      <trkpt lat="43.71216" lon="1.41044">
        <ele>176.588464</ele>
        <time>2022-05-21T16:11:58.028Z</time>
      </trkpt>
      <trkpt lat="43.71204" lon="1.41046">
        <ele>176.599734</ele>
        <time>2022-05-21T16:12:00.020Z</time>
      </trkpt>
      <trkpt lat="43.71193" lon="1.41046">
        <ele>176.610922</ele>
        <time>2022-05-21T16:12:02.021Z</time>
      </trkpt>
      <trkpt lat="43.71182" lon="1.41046">
        <ele>176.622006</ele>
        <time>2022-05-21T16:12:04.020Z</time>
      </trkpt>
      <trkpt lat="43.71171" lon="1.41044">
        <ele>176.633459</ele>
        <time>2022-05-21T16:12:06.024Z</time>
      </trkpt>
      <trkpt lat="43.71159" lon="1.41042">
        <ele>176.645329</ele>
        <time>2022-05-21T16:12:08.034Z</time>
      </trkpt>
      <trkpt lat="43.71147" lon="1.41041">
        <ele>176.657484</ele>
        <time>2022-05-21T16:12:10.025Z</time>
      </trkpt>
      <trkpt lat="43.71136" lon="1.4104">
        <ele>176.659834</ele>
        <time>2022-05-21T16:12:12.031Z</time>
      </trkpt>
      <trkpt lat="43.71124" lon="1.4104">
        <ele>176.661714</ele>
        <time>2022-05-21T16:12:14.020Z</time>
      </trkpt>
      <trkpt lat="43.71112" lon="1.4104">
        <ele>176.663579</ele>
        <time>2022-05-21T16:12:16.011Z</time>
      </trkpt>
      <trkpt lat="43.71101" lon="1.4104">
        <ele>176.66546</ele>
        <time>2022-05-21T16:12:18.010Z</time>
      </trkpt>
      <trkpt lat="43.71089" lon="1.4104">
        <ele>176.667325</ele>
        <time>2022-05-21T16:12:20.032Z</time>
      </trkpt>
      <trkpt lat="43.71078" lon="1.41041">
        <ele>176.669164</ele>
        <time>2022-05-21T16:12:22.016Z</time>
      </trkpt>
      <trkpt lat="43.71066" lon="1.41043">
        <ele>176.671035</ele>
        <time>2022-05-21T16:12:24.009Z</time>
      </trkpt>
      <trkpt lat="43.71055" lon="1.41044">
        <ele>176.672873</ele>
        <time>2022-05-21T16:12:26.023Z</time>
      </trkpt>
      <trkpt lat="43.71043" lon="1.41045">
        <ele>176.674727</ele>
        <time>2022-05-21T16:12:28.012Z</time>
      </trkpt>
      <trkpt lat="43.71032" lon="1.41046">
        <ele>176.676581</ele>
        <time>2022-05-21T16:12:30.039Z</time>
      </trkpt>
      <trkpt lat="43.7102" lon="1.41048">
        <ele>176.678423</ele>
        <time>2022-05-21T16:12:32.031Z</time>
      </trkpt>
      <trkpt lat="43.71009" lon="1.41049">
        <ele>176.680279</ele>
        <time>2022-05-21T16:12:34.017Z</time>
      </trkpt>
      <trkpt lat="43.70997" lon="1.41051">
        <ele>176.682166</ele>
        <time>2022-05-21T16:12:36.045Z</time>
      </trkpt>
      <trkpt lat="43.70985" lon="1.41053">
        <ele>176.684042</ele>
        <time>2022-05-21T16:12:38.019Z</time>
      </trkpt>
      <trkpt lat="43.70974" lon="1.41055">
        <ele>176.685942</ele>
        <time>2022-05-21T16:12:40.011Z</time>
      </trkpt>
      <trkpt lat="43.70962" lon="1.41057">
        <ele>176.687719</ele>
        <time>2022-05-21T16:12:42.014Z</time>
      </trkpt>
      <trkpt lat="43.7095" lon="1.4106">
        <ele>176.689289</ele>
        <time>2022-05-21T16:12:44.022Z</time>
      </trkpt>
      <trkpt lat="43.70938" lon="1.41063">
        <ele>176.690831</ele>
        <time>2022-05-21T16:12:46.012Z</time>
      </trkpt>
      <trkpt lat="43.70927" lon="1.41065">
        <ele>176.692324</ele>
        <time>2022-05-21T16:12:48.037Z</time>
      </trkpt>
      <trkpt lat="43.70916" lon="1.41066">
        <ele>176.693784</ele>
        <time>2022-05-21T16:12:50.021Z</time>
      </trkpt>
      <trkpt lat="43.70905" lon="1.41068">
        <ele>176.695296</ele>
        <time>2022-05-21T16:12:52.037Z</time>
      </trkpt>
      <trkpt lat="43.70894" lon="1.4107">
        <ele>176.696812</ele>
        <time>2022-05-21T16:12:54.026Z</time>
      </trkpt>
      <trkpt lat="43.70882" lon="1.4107">
        <ele>176.698319</ele>
        <time>2022-05-21T16:12:56.024Z</time>
      </trkpt>
      <trkpt lat="43.70871" lon="1.41069">
        <ele>176.699842</ele>
        <time>2022-05-21T16:12:58.030Z</time>
      </trkpt>
      <trkpt lat="43.70859" lon="1.41067">
        <ele>176.701338</ele>
        <time>2022-05-21T16:13:00.040Z</time>
      </trkpt>
      <trkpt lat="43.70848" lon="1.41064">
        <ele>176.702878</ele>
        <time>2022-05-21T16:13:02.014Z</time>
      </trkpt>
      <trkpt lat="43.70837" lon="1.41061">
        <ele>176.704392</ele>
        <time>2022-05-21T16:13:04.013Z</time>
      </trkpt>
      <trkpt lat="43.70825" lon="1.41061">
        <ele>176.7059</ele>
        <time>2022-05-21T16:13:06.016Z</time>
      </trkpt>
      <trkpt lat="43.70814" lon="1.41061">
        <ele>176.707421</ele>
        <time>2022-05-21T16:13:08.030Z</time>
      </trkpt>
      <trkpt lat="43.70802" lon="1.41062">
        <ele>176.708934</ele>
        <time>2022-05-21T16:13:10.024Z</time>
      </trkpt>
      <trkpt lat="43.70791" lon="1.41064">
        <ele>176.710482</ele>
        <time>2022-05-21T16:13:12.022Z</time>
      </trkpt>
      <trkpt lat="43.70779" lon="1.41067">
        <ele>176.709503</ele>
        <time>2022-05-21T16:13:14.036Z</time>
      </trkpt>
      <trkpt lat="43.70768" lon="1.4107">
        <ele>176.7081</ele>
        <time>2022-05-21T16:13:16.014Z</time>
      </trkpt>
      <trkpt lat="43.70756" lon="1.41072">
        <ele>176.706686</ele>
        <time>2022-05-21T16:13:18.006Z</time>
      </trkpt>
      <trkpt lat="43.70744" lon="1.41073">
        <ele>176.705311</ele>
        <time>2022-05-21T16:13:20.013Z</time>
      </trkpt>
      <trkpt lat="43.70733" lon="1.41074">
        <ele>176.703901</ele>
        <time>2022-05-21T16:13:22.032Z</time>
      </trkpt>
      <trkpt lat="43.7072" lon="1.41075">
        <ele>176.702443</ele>
        <time>2022-05-21T16:13:24.010Z</time>
      </trkpt>
      <trkpt lat="43.70708" lon="1.41075">
        <ele>176.701011</ele>
        <time>2022-05-21T16:13:26.016Z</time>
      </trkpt>
      <trkpt lat="43.70697" lon="1.41075">
        <ele>176.699651</ele>
        <time>2022-05-21T16:13:28.010Z</time>
      </trkpt>
      <trkpt lat="43.70686" lon="1.41075">
        <ele>176.698303</ele>
        <time>2022-05-21T16:13:30.032Z</time>
      </trkpt>
      <trkpt lat="43.70674" lon="1.41075">
        <ele>176.696931</ele>
        <time>2022-05-21T16:13:32.027Z</time>
      </trkpt>
      <trkpt lat="43.70663" lon="1.41075">
        <ele>176.695558</ele>
        <time>2022-05-21T16:13:34.003Z</time>
      </trkpt>
      <trkpt lat="43.70651" lon="1.41072">
        <ele>176.694183</ele>
        <time>2022-05-21T16:13:36.034Z</time>
      </trkpt>
      <trkpt lat="43.7064" lon="1.4107">
        <ele>176.692775</ele>
        <time>2022-05-21T16:13:38.035Z</time>
      </trkpt>
      <trkpt lat="43.70628" lon="1.41069">
        <ele>176.691433</ele>
        <time>2022-05-21T16:13:40.019Z</time>
      </trkpt>
      <trkpt lat="43.70617" lon="1.41069">
        <ele>176.690073</ele>
        <time>2022-05-21T16:13:42.031Z</time>
      </trkpt>
      <trkpt lat="43.70606" lon="1.41071">
        <ele>176.716029</ele>
        <time>2022-05-21T16:13:44.018Z</time>
      </trkpt>
      <trkpt lat="43.70594" lon="1.41072">
        <ele>176.79371</ele>
        <time>2022-05-21T16:13:46.021Z</time>
      </trkpt>
      <trkpt lat="43.70583" lon="1.41073">
        <ele>176.871156</ele>
        <time>2022-05-21T16:13:48.001Z</time>
      </trkpt>
      <trkpt lat="43.70571" lon="1.41074">
        <ele>176.950156</ele>
        <time>2022-05-21T16:13:50.014Z</time>
      </trkpt>
      <trkpt lat="43.70559" lon="1.41076">
        <ele>177.027316</ele>
        <time>2022-05-21T16:13:52.036Z</time>
      </trkpt>
      <trkpt lat="43.70548" lon="1.41078">
        <ele>177.104641</ele>
        <time>2022-05-21T16:13:54.022Z</time>
      </trkpt>
      <trkpt lat="43.70536" lon="1.4108">
        <ele>177.18039</ele>
        <time>2022-05-21T16:13:56.023Z</time>
      </trkpt>
      <trkpt lat="43.70525" lon="1.41082">
        <ele>177.256666</ele>
        <time>2022-05-21T16:13:58.031Z</time>
      </trkpt>
      <trkpt lat="43.70513" lon="1.41084">
        <ele>177.334323</ele>
        <time>2022-05-21T16:14:00.022Z</time>
      </trkpt>
      <trkpt lat="43.70502" lon="1.41087">
        <ele>177.412427</ele>
        <time>2022-05-21T16:14:02.038Z</time>
      </trkpt>
      <trkpt lat="43.70489" lon="1.41088">
        <ele>177.493929</ele>
        <time>2022-05-21T16:14:04.040Z</time>
      </trkpt>
      <trkpt lat="43.70477" lon="1.41091">
        <ele>177.5759</ele>
        <time>2022-05-21T16:14:06.019Z</time>
      </trkpt>
      <trkpt lat="43.70466" lon="1.41093">
        <ele>177.652353</ele>
        <time>2022-05-21T16:14:08.020Z</time>
      </trkpt>
      <trkpt lat="43.70455" lon="1.41095">
        <ele>177.725085</ele>
        <time>2022-05-21T16:14:10.037Z</time>
      </trkpt>
      <trkpt lat="43.70444" lon="1.41098">
        <ele>177.79972</ele>
        <time>2022-05-21T16:14:12.011Z</time>
      </trkpt>
      <trkpt lat="43.70433" lon="1.41101">
        <ele>177.874491</ele>
        <time>2022-05-21T16:14:14.015Z</time>
      </trkpt>
      <trkpt lat="43.70422" lon="1.41105">
        <ele>177.87503</ele>
        <time>2022-05-21T16:14:16.025Z</time>
      </trkpt>
      <trkpt lat="43.70411" lon="1.41109">
        <ele>177.870838</ele>
        <time>2022-05-21T16:14:18.032Z</time>
      </trkpt>
      <trkpt lat="43.70399" lon="1.41114">
        <ele>177.866506</ele>
        <time>2022-05-21T16:14:20.001Z</time>
      </trkpt>
      <trkpt lat="43.70389" lon="1.4112">
        <ele>177.862201</ele>
        <time>2022-05-21T16:14:22.018Z</time>
      </trkpt>
      <trkpt lat="43.70378" lon="1.41126">
        <ele>177.857963</ele>
        <time>2022-05-21T16:14:24.026Z</time>
      </trkpt>
      <trkpt lat="43.70368" lon="1.41133">
        <ele>177.853644</ele>
        <time>2022-05-21T16:14:26.013Z</time>
      </trkpt>
      <trkpt lat="43.70357" lon="1.4114">
        <ele>177.849325</ele>
        <time>2022-05-21T16:14:28.020Z</time>
      </trkpt>
      <trkpt lat="43.70347" lon="1.41148">
        <ele>177.845068</ele>
        <time>2022-05-21T16:14:30.013Z</time>
      </trkpt>
      <trkpt lat="43.70337" lon="1.41156">
        <ele>177.840758</ele>
        <time>2022-05-21T16:14:32.022Z</time>
      </trkpt>
      <trkpt lat="43.70327" lon="1.41165">
        <ele>177.83634</ele>
        <time>2022-05-21T16:14:34.016Z</time>
      </trkpt>
      <trkpt lat="43.70317" lon="1.41175">
        <ele>177.831953</ele>
        <time>2022-05-21T16:14:36.021Z</time>
      </trkpt>
      <trkpt lat="43.70308" lon="1.41184">
        <ele>177.827627</ele>
        <time>2022-05-21T16:14:38.024Z</time>
      </trkpt>
      <trkpt lat="43.70299" lon="1.41195">
        <ele>177.823397</ele>
        <time>2022-05-21T16:14:40.021Z</time>
      </trkpt>
      <trkpt lat="43.70291" lon="1.41206">
        <ele>177.819124</ele>
        <time>2022-05-21T16:14:42.009Z</time>
      </trkpt>
      <trkpt lat="43.70283" lon="1.41217">
        <ele>177.814777</ele>
        <time>2022-05-21T16:14:44.003Z</time>
      </trkpt>
      <trkpt lat="43.70275" lon="1.41229">
        <ele>177.822496</ele>
        <time>2022-05-21T16:14:46.014Z</time>
      </trkpt>
      <trkpt lat="43.70266" lon="1.4124">
        <ele>177.844213</ele>
        <time>2022-05-21T16:14:48.023Z</time>
      </trkpt>
      <trkpt lat="43.70258" lon="1.41252">
        <ele>177.866133</ele>
        <time>2022-05-21T16:14:50.015Z</time>
      </trkpt>
      <trkpt lat="43.7025" lon="1.41263">
        <ele>177.888014</ele>
        <time>2022-05-21T16:14:52.021Z</time>
      </trkpt>
      <trkpt lat="43.70241" lon="1.41275">
        <ele>177.909746</ele>
        <time>2022-05-21T16:14:54.015Z</time>
      </trkpt>
      <trkpt lat="43.70233" lon="1.41286">
        <ele>177.931747</ele>
        <time>2022-05-21T16:14:56.018Z</time>
      </trkpt>
      <trkpt lat="43.70224" lon="1.41297">
        <ele>177.953841</ele>
        <time>2022-05-21T16:14:58.023Z</time>
      </trkpt>
      <trkpt lat="43.70215" lon="1.41308">
        <ele>177.975705</ele>
        <time>2022-05-21T16:15:00.018Z</time>
      </trkpt>
      <trkpt lat="43.70207" lon="1.41319">
        <ele>177.997295</ele>
        <time>2022-05-21T16:15:02.016Z</time>
      </trkpt>
      <trkpt lat="43.70198" lon="1.41329">
        <ele>178.019171</ele>
        <time>2022-05-21T16:15:04.011Z</time>
      </trkpt>
      <trkpt lat="43.70189" lon="1.4134">
        <ele>178.041047</ele>
        <time>2022-05-21T16:15:06.037Z</time>
      </trkpt>
      <trkpt lat="43.70181" lon="1.41351">
        <ele>178.06282</ele>
        <time>2022-05-21T16:15:08.029Z</time>
      </trkpt>
      <trkpt lat="43.70172" lon="1.41362">
        <ele>178.084327</ele>
        <time>2022-05-21T16:15:10.038Z</time>
      </trkpt>
      <trkpt lat="43.70163" lon="1.41371">
        <ele>178.105515</ele>
        <time>2022-05-21T16:15:12.043Z</time>
      </trkpt>
      <trkpt lat="43.70154" lon="1.41381">
        <ele>178.12667</ele>
        <time>2022-05-21T16:15:14.009Z</time>
      </trkpt>
      <trkpt lat="43.70144" lon="1.4139">
        <ele>178.148846</ele>
        <time>2022-05-21T16:15:16.020Z</time>
      </trkpt>
      <trkpt lat="43.70135" lon="1.41399">
        <ele>178.189585</ele>
        <time>2022-05-21T16:15:18.013Z</time>
      </trkpt>
      <trkpt lat="43.70125" lon="1.41409">
        <ele>178.230062</ele>
        <time>2022-05-21T16:15:20.030Z</time>
      </trkpt>
      <trkpt lat="43.70117" lon="1.4142">
        <ele>178.270157</ele>
        <time>2022-05-21T16:15:22.014Z</time>
      </trkpt>
      <trkpt lat="43.70109" lon="1.41432">
        <ele>178.311177</ele>
        <time>2022-05-21T16:15:24.022Z</time>
      </trkpt>
      <trkpt lat="43.70101" lon="1.41444">
        <ele>178.351837</ele>
        <time>2022-05-21T16:15:26.017Z</time>
      </trkpt>
      <trkpt lat="43.70092" lon="1.41455">
        <ele>178.391435</ele>
        <time>2022-05-21T16:15:28.016Z</time>
      </trkpt>
      <trkpt lat="43.70084" lon="1.41467">
        <ele>178.432579</ele>
        <time>2022-05-21T16:15:30.045Z</time>
      </trkpt>
      <trkpt lat="43.70077" lon="1.41477">
        <ele>178.469108</ele>
        <time>2022-05-21T16:15:32.020Z</time>
      </trkpt>
      <trkpt lat="43.70067" lon="1.41488">
        <ele>178.511604</ele>
        <time>2022-05-21T16:15:35.016Z</time>
      </trkpt>
      <trkpt lat="43.7006" lon="1.41496">
        <ele>178.544292</ele>
        <time>2022-05-21T16:15:36.994Z</time>
      </trkpt>
      <trkpt lat="43.70051" lon="1.41506">
        <ele>178.583442</ele>
        <time>2022-05-21T16:15:39.032Z</time>
      </trkpt>
      <trkpt lat="43.70042" lon="1.41517">
        <ele>178.623917</ele>
        <time>2022-05-21T16:15:41.029Z</time>
      </trkpt>
      <trkpt lat="43.70033" lon="1.41527">
        <ele>178.664186</ele>
        <time>2022-05-21T16:15:43.015Z</time>
      </trkpt>
      <trkpt lat="43.70023" lon="1.41535">
        <ele>178.703509</ele>
        <time>2022-05-21T16:15:45.027Z</time>
      </trkpt>
      <trkpt lat="43.70014" lon="1.41545">
        <ele>178.743314</ele>
        <time>2022-05-21T16:15:47.005Z</time>
      </trkpt>
      <trkpt lat="43.70006" lon="1.41556">
        <ele>178.772558</ele>
        <time>2022-05-21T16:15:49.032Z</time>
      </trkpt>
      <trkpt lat="43.69998" lon="1.41567">
        <ele>178.784025</ele>
        <time>2022-05-21T16:15:51.007Z</time>
      </trkpt>
      <trkpt lat="43.6999" lon="1.41577">
        <ele>178.79526</ele>
        <time>2022-05-21T16:15:53.025Z</time>
      </trkpt>
      <trkpt lat="43.69982" lon="1.41589">
        <ele>178.806603</ele>
        <time>2022-05-21T16:15:55.015Z</time>
      </trkpt>
      <trkpt lat="43.69975" lon="1.416">
        <ele>178.818079</ele>
        <time>2022-05-21T16:15:57.030Z</time>
      </trkpt>
      <trkpt lat="43.69967" lon="1.41611">
        <ele>178.829891</ele>
        <time>2022-05-21T16:15:59.020Z</time>
      </trkpt>
      <trkpt lat="43.69958" lon="1.41622">
        <ele>178.841927</ele>
        <time>2022-05-21T16:16:01.014Z</time>
      </trkpt>
      <trkpt lat="43.69949" lon="1.41633">
        <ele>178.853824</ele>
        <time>2022-05-21T16:16:03.009Z</time>
      </trkpt>
      <trkpt lat="43.6994" lon="1.41642">
        <ele>178.8656</ele>
        <time>2022-05-21T16:16:05.023Z</time>
      </trkpt>
      <trkpt lat="43.69931" lon="1.41653">
        <ele>178.877594</ele>
        <time>2022-05-21T16:16:07.044Z</time>
      </trkpt>
      <trkpt lat="43.69922" lon="1.41662">
        <ele>178.889371</ele>
        <time>2022-05-21T16:16:09.009Z</time>
      </trkpt>
      <trkpt lat="43.69912" lon="1.41672">
        <ele>178.901435</ele>
        <time>2022-05-21T16:16:11.037Z</time>
      </trkpt>
      <trkpt lat="43.69903" lon="1.41682">
        <ele>178.91359</ele>
        <time>2022-05-21T16:16:13.022Z</time>
      </trkpt>
      <trkpt lat="43.69893" lon="1.41692">
        <ele>178.925699</ele>
        <time>2022-05-21T16:16:15.012Z</time>
      </trkpt>
      <trkpt lat="43.69884" lon="1.41703">
        <ele>178.937831</ele>
        <time>2022-05-21T16:16:17.025Z</time>
      </trkpt>
      <trkpt lat="43.69875" lon="1.41713">
        <ele>178.949824</ele>
        <time>2022-05-21T16:16:19.025Z</time>
      </trkpt>
      <trkpt lat="43.69867" lon="1.41724">
        <ele>178.950948</ele>
        <time>2022-05-21T16:16:21.019Z</time>
      </trkpt>
      <trkpt lat="43.69858" lon="1.41736">
        <ele>178.949828</ele>
        <time>2022-05-21T16:16:23.026Z</time>
      </trkpt>
      <trkpt lat="43.6985" lon="1.41747">
        <ele>178.948705</ele>
        <time>2022-05-21T16:16:25.016Z</time>
      </trkpt>
      <trkpt lat="43.69841" lon="1.41758">
        <ele>178.947597</ele>
        <time>2022-05-21T16:16:26.995Z</time>
      </trkpt>
      <trkpt lat="43.69833" lon="1.41769">
        <ele>178.946486</ele>
        <time>2022-05-21T16:16:29.021Z</time>
      </trkpt>
      <trkpt lat="43.69824" lon="1.4178">
        <ele>178.945367</ele>
        <time>2022-05-21T16:16:31.010Z</time>
      </trkpt>
      <trkpt lat="43.69815" lon="1.41791">
        <ele>178.944235</ele>
        <time>2022-05-21T16:16:33.010Z</time>
      </trkpt>
      <trkpt lat="43.69806" lon="1.41802">
        <ele>178.943095</ele>
        <time>2022-05-21T16:16:35.030Z</time>
      </trkpt>
      <trkpt lat="43.69797" lon="1.41813">
        <ele>178.941966</ele>
        <time>2022-05-21T16:16:37.031Z</time>
      </trkpt>
      <trkpt lat="43.69788" lon="1.41824">
        <ele>178.940834</ele>
        <time>2022-05-21T16:16:39.045Z</time>
      </trkpt>
      <trkpt lat="43.69779" lon="1.41835">
        <ele>178.939693</ele>
        <time>2022-05-21T16:16:41.026Z</time>
      </trkpt>
      <trkpt lat="43.6977" lon="1.41846">
        <ele>178.938554</ele>
        <time>2022-05-21T16:16:43.030Z</time>
      </trkpt>
      <trkpt lat="43.69761" lon="1.41856">
        <ele>178.937431</ele>
        <time>2022-05-21T16:16:45.048Z</time>
      </trkpt>
      <trkpt lat="43.69752" lon="1.41866">
        <ele>178.936309</ele>
        <time>2022-05-21T16:16:47.026Z</time>
      </trkpt>
      <trkpt lat="43.69742" lon="1.41876">
        <ele>178.935194</ele>
        <time>2022-05-21T16:16:49.028Z</time>
      </trkpt>
      <trkpt lat="43.69733" lon="1.41886">
        <ele>178.920304</ele>
        <time>2022-05-21T16:16:51.025Z</time>
      </trkpt>
      <trkpt lat="43.69724" lon="1.41897">
        <ele>178.897742</ele>
        <time>2022-05-21T16:16:53.015Z</time>
      </trkpt>
      <trkpt lat="43.69715" lon="1.41907">
        <ele>178.875474</ele>
        <time>2022-05-21T16:16:55.012Z</time>
      </trkpt>
      <trkpt lat="43.69706" lon="1.41917">
        <ele>178.853472</ele>
        <time>2022-05-21T16:16:57.010Z</time>
      </trkpt>
      <trkpt lat="43.69698" lon="1.41927">
        <ele>178.83203</ele>
        <time>2022-05-21T16:16:59.013Z</time>
      </trkpt>
      <trkpt lat="43.69689" lon="1.41937">
        <ele>178.810027</ele>
        <time>2022-05-21T16:17:01.046Z</time>
      </trkpt>
      <trkpt lat="43.6968" lon="1.41947">
        <ele>178.787639</ele>
        <time>2022-05-21T16:17:03.009Z</time>
      </trkpt>
      <trkpt lat="43.69671" lon="1.41957">
        <ele>178.765372</ele>
        <time>2022-05-21T16:17:05.017Z</time>
      </trkpt>
      <trkpt lat="43.69662" lon="1.41967">
        <ele>178.743162</ele>
        <time>2022-05-21T16:17:07.018Z</time>
      </trkpt>
      <trkpt lat="43.69653" lon="1.41978">
        <ele>178.720951</ele>
        <time>2022-05-21T16:17:09.014Z</time>
      </trkpt>
      <trkpt lat="43.69644" lon="1.41988">
        <ele>178.698796</ele>
        <time>2022-05-21T16:17:11.036Z</time>
      </trkpt>
      <trkpt lat="43.69636" lon="1.41999">
        <ele>178.676599</ele>
        <time>2022-05-21T16:17:13.020Z</time>
      </trkpt>
      <trkpt lat="43.69627" lon="1.4201">
        <ele>178.654168</ele>
        <time>2022-05-21T16:17:15.037Z</time>
      </trkpt>
      <trkpt lat="43.69619" lon="1.42021">
        <ele>178.631267</ele>
        <time>2022-05-21T16:17:17.013Z</time>
      </trkpt>
      <trkpt lat="43.6961" lon="1.42033">
        <ele>178.607897</ele>
        <time>2022-05-21T16:17:19.026Z</time>
      </trkpt>
      <trkpt lat="43.69601" lon="1.42045">
        <ele>178.595841</ele>
        <time>2022-05-21T16:17:21.021Z</time>
      </trkpt>
      <trkpt lat="43.69593" lon="1.42057">
        <ele>178.624108</ele>
        <time>2022-05-21T16:17:23.017Z</time>
      </trkpt>
      <trkpt lat="43.69586" lon="1.4207">
        <ele>178.6517</ele>
        <time>2022-05-21T16:17:25.005Z</time>
      </trkpt>
      <trkpt lat="43.69578" lon="1.42081">
        <ele>178.679253</ele>
        <time>2022-05-21T16:17:27.013Z</time>
      </trkpt>
      <trkpt lat="43.69569" lon="1.42092">
        <ele>178.706729</ele>
        <time>2022-05-21T16:17:29.016Z</time>
      </trkpt>
      <trkpt lat="43.6956" lon="1.42102">
        <ele>178.734383</ele>
        <time>2022-05-21T16:17:31.047Z</time>
      </trkpt>
      <trkpt lat="43.69551" lon="1.42112">
        <ele>178.761849</ele>
        <time>2022-05-21T16:17:33.014Z</time>
      </trkpt>
      <trkpt lat="43.69542" lon="1.42122">
        <ele>178.789058</ele>
        <time>2022-05-21T16:17:35.012Z</time>
      </trkpt>
      <trkpt lat="43.69533" lon="1.42132">
        <ele>178.816232</ele>
        <time>2022-05-21T16:17:37.043Z</time>
      </trkpt>
      <trkpt lat="43.69525" lon="1.42143">
        <ele>178.843551</ele>
        <time>2022-05-21T16:17:39.030Z</time>
      </trkpt>
      <trkpt lat="43.69516" lon="1.42153">
        <ele>178.871318</ele>
        <time>2022-05-21T16:17:41.026Z</time>
      </trkpt>
      <trkpt lat="43.69507" lon="1.42164">
        <ele>178.898556</ele>
        <time>2022-05-21T16:17:43.027Z</time>
      </trkpt>
      <trkpt lat="43.695" lon="1.42176">
        <ele>178.925475</ele>
        <time>2022-05-21T16:17:45.018Z</time>
      </trkpt>
      <trkpt lat="43.69493" lon="1.42188">
        <ele>178.951761</ele>
        <time>2022-05-21T16:17:47.019Z</time>
      </trkpt>
      <trkpt lat="43.69486" lon="1.42199">
        <ele>178.977598</ele>
        <time>2022-05-21T16:17:49.018Z</time>
      </trkpt>
      <trkpt lat="43.69477" lon="1.42209">
        <ele>179.003788</ele>
        <time>2022-05-21T16:17:51.019Z</time>
      </trkpt>
      <trkpt lat="43.69468" lon="1.4222">
        <ele>179.048565</ele>
        <time>2022-05-21T16:17:53.015Z</time>
      </trkpt>
      <trkpt lat="43.69459" lon="1.42232">
        <ele>179.106715</ele>
        <time>2022-05-21T16:17:55.018Z</time>
      </trkpt>
      <trkpt lat="43.69453" lon="1.42247">
        <ele>179.167008</ele>
        <time>2022-05-21T16:17:57.019Z</time>
      </trkpt>
      <trkpt lat="43.69444" lon="1.42259">
        <ele>179.224978</ele>
        <time>2022-05-21T16:17:59.037Z</time>
      </trkpt>
      <trkpt lat="43.69436" lon="1.42271">
        <ele>179.28272</ele>
        <time>2022-05-21T16:18:01.020Z</time>
      </trkpt>
      <trkpt lat="43.69428" lon="1.42283">
        <ele>179.340112</ele>
        <time>2022-05-21T16:18:03.011Z</time>
      </trkpt>
      <trkpt lat="43.6942" lon="1.42296">
        <ele>179.397731</ele>
        <time>2022-05-21T16:18:05.041Z</time>
      </trkpt>
      <trkpt lat="43.69412" lon="1.42308">
        <ele>179.45561</ele>
        <time>2022-05-21T16:18:07.016Z</time>
      </trkpt>
      <trkpt lat="43.69403" lon="1.42321">
        <ele>179.513171</ele>
        <time>2022-05-21T16:18:09.049Z</time>
      </trkpt>
      <trkpt lat="43.69395" lon="1.42332">
        <ele>179.571322</ele>
        <time>2022-05-21T16:18:11.017Z</time>
      </trkpt>
      <trkpt lat="43.69386" lon="1.42345">
        <ele>179.62987</ele>
        <time>2022-05-21T16:18:13.032Z</time>
      </trkpt>
      <trkpt lat="43.69377" lon="1.42357">
        <ele>179.688664</ele>
        <time>2022-05-21T16:18:15.017Z</time>
      </trkpt>
      <trkpt lat="43.69369" lon="1.4237">
        <ele>179.745972</ele>
        <time>2022-05-21T16:18:17.002Z</time>
      </trkpt>
      <trkpt lat="43.69362" lon="1.42383">
        <ele>179.803891</ele>
        <time>2022-05-21T16:18:19.008Z</time>
      </trkpt>
      <trkpt lat="43.69356" lon="1.42397">
        <ele>179.86046</ele>
        <time>2022-05-21T16:18:21.002Z</time>
      </trkpt>
      <trkpt lat="43.69349" lon="1.42411">
        <ele>179.92859</ele>
        <time>2022-05-21T16:18:23.035Z</time>
      </trkpt>
      <trkpt lat="43.69342" lon="1.42424">
        <ele>179.998039</ele>
        <time>2022-05-21T16:18:25.015Z</time>
      </trkpt>
      <trkpt lat="43.69335" lon="1.42438">
        <ele>180.068555</ele>
        <time>2022-05-21T16:18:27.007Z</time>
      </trkpt>
      <trkpt lat="43.69329" lon="1.42452">
        <ele>180.136591</ele>
        <time>2022-05-21T16:18:29.025Z</time>
      </trkpt>
      <trkpt lat="43.69323" lon="1.42466">
        <ele>180.206675</ele>
        <time>2022-05-21T16:18:31.025Z</time>
      </trkpt>
      <trkpt lat="43.69317" lon="1.4248">
        <ele>180.274647</ele>
        <time>2022-05-21T16:18:33.050Z</time>
      </trkpt>
      <trkpt lat="43.6931" lon="1.42494">
        <ele>180.344777</ele>
        <time>2022-05-21T16:18:35.020Z</time>
      </trkpt>
      <trkpt lat="43.69303" lon="1.42506">
        <ele>180.414093</ele>
        <time>2022-05-21T16:18:37.025Z</time>
      </trkpt>
      <trkpt lat="43.69295" lon="1.42519">
        <ele>180.484431</ele>
        <time>2022-05-21T16:18:39.020Z</time>
      </trkpt>
      <trkpt lat="43.69285" lon="1.42528">
        <ele>180.554782</ele>
        <time>2022-05-21T16:18:41.015Z</time>
      </trkpt>
      <trkpt lat="43.69274" lon="1.42537">
        <ele>180.626314</ele>
        <time>2022-05-21T16:18:43.020Z</time>
      </trkpt>
      <trkpt lat="43.69264" lon="1.42545">
        <ele>180.696772</ele>
        <time>2022-05-21T16:18:45.000Z</time>
      </trkpt>
      <trkpt lat="43.69252" lon="1.42553">
        <ele>180.772943</ele>
        <time>2022-05-21T16:18:47.006Z</time>
      </trkpt>
      <trkpt lat="43.69241" lon="1.42561">
        <ele>180.847053</ele>
        <time>2022-05-21T16:18:49.029Z</time>
      </trkpt>
      <trkpt lat="43.6923" lon="1.42569">
        <ele>180.919805</ele>
        <time>2022-05-21T16:18:51.020Z</time>
      </trkpt>
      <trkpt lat="43.69219" lon="1.42577">
        <ele>181.002208</ele>
        <time>2022-05-21T16:18:53.016Z</time>
      </trkpt>
      <trkpt lat="43.69209" lon="1.42584">
        <ele>181.081367</ele>
        <time>2022-05-21T16:18:55.051Z</time>
      </trkpt>
      <trkpt lat="43.69198" lon="1.42588">
        <ele>181.159584</ele>
        <time>2022-05-21T16:18:57.007Z</time>
      </trkpt>
      <trkpt lat="43.69186" lon="1.42591">
        <ele>181.240018</ele>
        <time>2022-05-21T16:18:59.008Z</time>
      </trkpt>
      <trkpt lat="43.69174" lon="1.42593">
        <ele>181.32127</ele>
        <time>2022-05-21T16:19:01.008Z</time>
      </trkpt>
      <trkpt lat="43.69163" lon="1.42595">
        <ele>181.396662</ele>
        <time>2022-05-21T16:19:03.035Z</time>
      </trkpt>
      <trkpt lat="43.69152" lon="1.42598">
        <ele>181.47145</ele>
        <time>2022-05-21T16:19:05.013Z</time>
      </trkpt>
      <trkpt lat="43.69142" lon="1.42599">
        <ele>181.541216</ele>
        <time>2022-05-21T16:19:07.020Z</time>
      </trkpt>
      <trkpt lat="43.69131" lon="1.426">
        <ele>181.614283</ele>
        <time>2022-05-21T16:19:09.003Z</time>
      </trkpt>
      <trkpt lat="43.6912" lon="1.42603">
        <ele>181.695017</ele>
        <time>2022-05-21T16:19:11.024Z</time>
      </trkpt>
      <trkpt lat="43.69109" lon="1.42608">
        <ele>181.76948</ele>
        <time>2022-05-21T16:19:13.020Z</time>
      </trkpt>
      <trkpt lat="43.691" lon="1.42617">
        <ele>181.844777</ele>
        <time>2022-05-21T16:19:15.018Z</time>
      </trkpt>
      <trkpt lat="43.69091" lon="1.42626">
        <ele>181.919797</ele>
        <time>2022-05-21T16:19:16.999Z</time>
      </trkpt>
      <trkpt lat="43.69082" lon="1.42635">
        <ele>181.995971</ele>
        <time>2022-05-21T16:19:19.014Z</time>
      </trkpt>
      <trkpt lat="43.69073" lon="1.42646">
        <ele>182.080651</ele>
        <time>2022-05-21T16:19:21.016Z</time>
      </trkpt>
      <trkpt lat="43.69062" lon="1.42651">
        <ele>182.145493</ele>
        <time>2022-05-21T16:19:22.993Z</time>
      </trkpt>
      <trkpt lat="43.69052" lon="1.42654">
        <ele>182.148691</ele>
        <time>2022-05-21T16:19:25.027Z</time>
      </trkpt>
      <trkpt lat="43.6904" lon="1.42656">
        <ele>182.152217</ele>
        <time>2022-05-21T16:19:26.998Z</time>
      </trkpt>
      <trkpt lat="43.69028" lon="1.42657">
        <ele>182.156007</ele>
        <time>2022-05-21T16:19:29.014Z</time>
      </trkpt>
      <trkpt lat="43.69017" lon="1.42659">
        <ele>182.159468</ele>
        <time>2022-05-21T16:19:31.010Z</time>
      </trkpt>
      <trkpt lat="43.69004" lon="1.42662">
        <ele>182.163265</ele>
        <time>2022-05-21T16:19:33.033Z</time>
      </trkpt>
      <trkpt lat="43.68993" lon="1.42663">
        <ele>182.166852</ele>
        <time>2022-05-21T16:19:35.036Z</time>
      </trkpt>
      <trkpt lat="43.68981" lon="1.42666">
        <ele>182.170301</ele>
        <time>2022-05-21T16:19:37.028Z</time>
      </trkpt>
      <trkpt lat="43.6897" lon="1.42669">
        <ele>182.173775</ele>
        <time>2022-05-21T16:19:39.026Z</time>
      </trkpt>
      <trkpt lat="43.68959" lon="1.42675">
        <ele>182.177329</ele>
        <time>2022-05-21T16:19:41.021Z</time>
      </trkpt>
      <trkpt lat="43.68949" lon="1.42682">
        <ele>182.180769</ele>
        <time>2022-05-21T16:19:43.019Z</time>
      </trkpt>
      <trkpt lat="43.6894" lon="1.4269">
        <ele>182.184176</ele>
        <time>2022-05-21T16:19:45.020Z</time>
      </trkpt>
      <trkpt lat="43.6893" lon="1.42698">
        <ele>182.187621</ele>
        <time>2022-05-21T16:19:47.017Z</time>
      </trkpt>
      <trkpt lat="43.6892" lon="1.42705">
        <ele>182.191023</ele>
        <time>2022-05-21T16:19:49.022Z</time>
      </trkpt>
      <trkpt lat="43.6891" lon="1.42712">
        <ele>182.194455</ele>
        <time>2022-05-21T16:19:51.015Z</time>
      </trkpt>
      <trkpt lat="43.689" lon="1.42719">
        <ele>182.197964</ele>
        <time>2022-05-21T16:19:53.034Z</time>
      </trkpt>
      <trkpt lat="43.68889" lon="1.42726">
        <ele>182.171982</ele>
        <time>2022-05-21T16:19:55.054Z</time>
      </trkpt>
      <trkpt lat="43.68879" lon="1.42732">
        <ele>182.115463</ele>
        <time>2022-05-21T16:19:57.033Z</time>
      </trkpt>
      <trkpt lat="43.68868" lon="1.42735">
        <ele>182.059999</ele>
        <time>2022-05-21T16:19:59.008Z</time>
      </trkpt>
      <trkpt lat="43.68857" lon="1.42732">
        <ele>182.004952</ele>
        <time>2022-05-21T16:20:01.019Z</time>
      </trkpt>
      <trkpt lat="43.68847" lon="1.42725">
        <ele>181.946747</ele>
        <time>2022-05-21T16:20:03.014Z</time>
      </trkpt>
      <trkpt lat="43.68836" lon="1.42719">
        <ele>181.888331</ele>
        <time>2022-05-21T16:20:05.027Z</time>
      </trkpt>
      <trkpt lat="43.68825" lon="1.42713">
        <ele>181.831034</ele>
        <time>2022-05-21T16:20:07.016Z</time>
      </trkpt>
      <trkpt lat="43.68815" lon="1.42706">
        <ele>181.772862</ele>
        <time>2022-05-21T16:20:09.025Z</time>
      </trkpt>
      <trkpt lat="43.68805" lon="1.42699">
        <ele>181.715745</ele>
        <time>2022-05-21T16:20:11.031Z</time>
      </trkpt>
      <trkpt lat="43.68795" lon="1.42692">
        <ele>181.662525</ele>
        <time>2022-05-21T16:20:13.044Z</time>
      </trkpt>
      <trkpt lat="43.68797" lon="1.42678">
        <ele>181.609236</ele>
        <time>2022-05-21T16:20:16.029Z</time>
      </trkpt>
      <trkpt lat="43.68806" lon="1.42673">
        <ele>181.560035</ele>
        <time>2022-05-21T16:20:18.036Z</time>
      </trkpt>
      <trkpt lat="43.68815" lon="1.42669">
        <ele>181.511097</ele>
        <time>2022-05-21T16:20:20.028Z</time>
      </trkpt>
      <trkpt lat="43.68825" lon="1.42665">
        <ele>181.460582</ele>
        <time>2022-05-21T16:20:22.021Z</time>
      </trkpt>
      <trkpt lat="43.68831" lon="1.42654">
        <ele>181.410557</ele>
        <time>2022-05-21T16:20:25.040Z</time>
      </trkpt>
      <trkpt lat="43.68831" lon="1.42636">
        <ele>181.345592</ele>
        <time>2022-05-21T16:20:28.009Z</time>
      </trkpt>
      <trkpt lat="43.68829" lon="1.42621">
        <ele>181.304128</ele>
        <time>2022-05-21T16:20:30.021Z</time>
      </trkpt>
      <trkpt lat="43.68827" lon="1.42607">
        <ele>181.317675</ele>
        <time>2022-05-21T16:20:32.017Z</time>
      </trkpt>
      <trkpt lat="43.68821" lon="1.42594">
        <ele>181.33109</ele>
        <time>2022-05-21T16:20:34.016Z</time>
      </trkpt>
      <trkpt lat="43.68814" lon="1.42581">
        <ele>181.344771</ele>
        <time>2022-05-21T16:20:36.013Z</time>
      </trkpt>
      <trkpt lat="43.68806" lon="1.42571">
        <ele>181.358579</ele>
        <time>2022-05-21T16:20:38.008Z</time>
      </trkpt>
      <trkpt lat="43.68795" lon="1.42564">
        <ele>181.37268</ele>
        <time>2022-05-21T16:20:40.010Z</time>
      </trkpt>
      <trkpt lat="43.68784" lon="1.42562">
        <ele>181.386696</ele>
        <time>2022-05-21T16:20:42.017Z</time>
      </trkpt>
      <trkpt lat="43.68773" lon="1.42561">
        <ele>181.400669</ele>
        <time>2022-05-21T16:20:44.001Z</time>
      </trkpt>
      <trkpt lat="43.68761" lon="1.42559">
        <ele>181.414946</ele>
        <time>2022-05-21T16:20:46.016Z</time>
      </trkpt>
      <trkpt lat="43.6875" lon="1.42558">
        <ele>181.429035</ele>
        <time>2022-05-21T16:20:48.020Z</time>
      </trkpt>
      <trkpt lat="43.68738" lon="1.42558">
        <ele>181.442969</ele>
        <time>2022-05-21T16:20:50.038Z</time>
      </trkpt>
      <trkpt lat="43.68727" lon="1.42562">
        <ele>181.457293</ele>
        <time>2022-05-21T16:20:52.025Z</time>
      </trkpt>
      <trkpt lat="43.68716" lon="1.4257">
        <ele>181.471838</ele>
        <time>2022-05-21T16:20:54.013Z</time>
      </trkpt>
      <trkpt lat="43.68707" lon="1.42579">
        <ele>181.485863</ele>
        <time>2022-05-21T16:20:56.016Z</time>
      </trkpt>
      <trkpt lat="43.68695" lon="1.42586">
        <ele>181.501262</ele>
        <time>2022-05-21T16:20:58.033Z</time>
      </trkpt>
      <trkpt lat="43.68684" lon="1.42591">
        <ele>181.516255</ele>
        <time>2022-05-21T16:21:00.033Z</time>
      </trkpt>
      <trkpt lat="43.68673" lon="1.42597">
        <ele>181.530903</ele>
        <time>2022-05-21T16:21:02.031Z</time>
      </trkpt>
      <trkpt lat="43.68664" lon="1.42607">
        <ele>181.545754</ele>
        <time>2022-05-21T16:21:04.014Z</time>
      </trkpt>
      <trkpt lat="43.68656" lon="1.42618">
        <ele>181.560154</ele>
        <time>2022-05-21T16:21:06.013Z</time>
      </trkpt>
      <trkpt lat="43.68648" lon="1.42629">
        <ele>181.574596</ele>
        <time>2022-05-21T16:21:08.006Z</time>
      </trkpt>
      <trkpt lat="43.68639" lon="1.4264">
        <ele>181.589728</ele>
        <time>2022-05-21T16:21:10.020Z</time>
      </trkpt>
      <trkpt lat="43.6863" lon="1.42651">
        <ele>181.60492</ele>
        <time>2022-05-21T16:21:12.030Z</time>
      </trkpt>
      <trkpt lat="43.6862" lon="1.42661">
        <ele>181.620116</ele>
        <time>2022-05-21T16:21:14.026Z</time>
      </trkpt>
      <trkpt lat="43.68611" lon="1.42672">
        <ele>181.635455</ele>
        <time>2022-05-21T16:21:16.004Z</time>
      </trkpt>
      <trkpt lat="43.68602" lon="1.42683">
        <ele>181.650899</ele>
        <time>2022-05-21T16:21:17.996Z</time>
      </trkpt>
      <trkpt lat="43.68593" lon="1.42694">
        <ele>181.666034</ele>
        <time>2022-05-21T16:21:20.013Z</time>
      </trkpt>
      <trkpt lat="43.68585" lon="1.42706">
        <ele>181.681078</ele>
        <time>2022-05-21T16:21:22.015Z</time>
      </trkpt>
      <trkpt lat="43.68576" lon="1.42717">
        <ele>181.696022</ele>
        <time>2022-05-21T16:21:24.022Z</time>
      </trkpt>
      <trkpt lat="43.68568" lon="1.42727">
        <ele>181.710308</ele>
        <time>2022-05-21T16:21:26.011Z</time>
      </trkpt>
      <trkpt lat="43.68559" lon="1.42738">
        <ele>181.725162</ele>
        <time>2022-05-21T16:21:28.003Z</time>
      </trkpt>
      <trkpt lat="43.6855" lon="1.42749">
        <ele>181.740389</ele>
        <time>2022-05-21T16:21:30.002Z</time>
      </trkpt>
      <trkpt lat="43.68542" lon="1.42759">
        <ele>181.745202</ele>
        <time>2022-05-21T16:21:32.007Z</time>
      </trkpt>
      <trkpt lat="43.68533" lon="1.42769">
        <ele>181.725128</ele>
        <time>2022-05-21T16:21:34.016Z</time>
      </trkpt>
      <trkpt lat="43.68523" lon="1.42779">
        <ele>181.704742</ele>
        <time>2022-05-21T16:21:36.007Z</time>
      </trkpt>
      <trkpt lat="43.68514" lon="1.42789">
        <ele>181.68434</ele>
        <time>2022-05-21T16:21:38.006Z</time>
      </trkpt>
      <trkpt lat="43.68505" lon="1.42798">
        <ele>181.664188</ele>
        <time>2022-05-21T16:21:40.025Z</time>
      </trkpt>
      <trkpt lat="43.68496" lon="1.42809">
        <ele>181.644301</ele>
        <time>2022-05-21T16:21:42.025Z</time>
      </trkpt>
      <trkpt lat="43.68488" lon="1.42819">
        <ele>181.624389</ele>
        <time>2022-05-21T16:21:44.019Z</time>
      </trkpt>
      <trkpt lat="43.68478" lon="1.42828">
        <ele>181.604287</ele>
        <time>2022-05-21T16:21:46.026Z</time>
      </trkpt>
      <trkpt lat="43.68468" lon="1.42835">
        <ele>181.584008</ele>
        <time>2022-05-21T16:21:48.016Z</time>
      </trkpt>
      <trkpt lat="43.68457" lon="1.42843">
        <ele>181.563349</ele>
        <time>2022-05-21T16:21:50.013Z</time>
      </trkpt>
      <trkpt lat="43.68448" lon="1.42852">
        <ele>181.542982</ele>
        <time>2022-05-21T16:21:52.019Z</time>
      </trkpt>
      <trkpt lat="43.68439" lon="1.42864">
        <ele>181.522299</ele>
        <time>2022-05-21T16:21:54.022Z</time>
      </trkpt>
      <trkpt lat="43.6843" lon="1.42874">
        <ele>181.501635</ele>
        <time>2022-05-21T16:21:56.023Z</time>
      </trkpt>
      <trkpt lat="43.68421" lon="1.42884">
        <ele>181.481266</ele>
        <time>2022-05-21T16:21:58.017Z</time>
      </trkpt>
      <trkpt lat="43.68412" lon="1.42895">
        <ele>181.460835</ele>
        <time>2022-05-21T16:22:00.022Z</time>
      </trkpt>
      <trkpt lat="43.68403" lon="1.42905">
        <ele>181.440785</ele>
        <time>2022-05-21T16:22:02.025Z</time>
      </trkpt>
      <trkpt lat="43.68395" lon="1.42916">
        <ele>181.521349</ele>
        <time>2022-05-21T16:22:04.007Z</time>
      </trkpt>
      <trkpt lat="43.68386" lon="1.42926">
        <ele>181.624446</ele>
        <time>2022-05-21T16:22:06.005Z</time>
      </trkpt>
      <trkpt lat="43.68377" lon="1.42937">
        <ele>181.729055</ele>
        <time>2022-05-21T16:22:08.001Z</time>
      </trkpt>
      <trkpt lat="43.68368" lon="1.42947">
        <ele>181.831062</ele>
        <time>2022-05-21T16:22:10.008Z</time>
      </trkpt>
      <trkpt lat="43.68359" lon="1.42957">
        <ele>181.934164</ele>
        <time>2022-05-21T16:22:12.026Z</time>
      </trkpt>
      <trkpt lat="43.6835" lon="1.42967">
        <ele>182.036592</ele>
        <time>2022-05-21T16:22:14.002Z</time>
      </trkpt>
      <trkpt lat="43.68341" lon="1.42977">
        <ele>182.137907</ele>
        <time>2022-05-21T16:22:16.004Z</time>
      </trkpt>
      <trkpt lat="43.68332" lon="1.42987">
        <ele>182.23866</ele>
        <time>2022-05-21T16:22:18.003Z</time>
      </trkpt>
      <trkpt lat="43.68324" lon="1.42997">
        <ele>182.34105</ele>
        <time>2022-05-21T16:22:20.010Z</time>
      </trkpt>
      <trkpt lat="43.68314" lon="1.43007">
        <ele>182.442105</ele>
        <time>2022-05-21T16:22:22.022Z</time>
      </trkpt>
      <trkpt lat="43.68306" lon="1.43018">
        <ele>182.543442</ele>
        <time>2022-05-21T16:22:23.989Z</time>
      </trkpt>
      <trkpt lat="43.68297" lon="1.43027">
        <ele>182.644357</ele>
        <time>2022-05-21T16:22:25.987Z</time>
      </trkpt>
      <trkpt lat="43.68289" lon="1.43034">
        <ele>182.727582</ele>
        <time>2022-05-21T16:22:28.017Z</time>
      </trkpt>
      <trkpt lat="43.68282" lon="1.43047">
        <ele>182.83291</ele>
        <time>2022-05-21T16:22:30.018Z</time>
      </trkpt>
      <trkpt lat="43.68273" lon="1.43057">
        <ele>182.936536</ele>
        <time>2022-05-21T16:22:32.016Z</time>
      </trkpt>
      <trkpt lat="43.68264" lon="1.43066">
        <ele>183.032696</ele>
        <time>2022-05-21T16:22:34.006Z</time>
      </trkpt>
      <trkpt lat="43.68257" lon="1.43077">
        <ele>183.034519</ele>
        <time>2022-05-21T16:22:36.005Z</time>
      </trkpt>
      <trkpt lat="43.6825" lon="1.43091">
        <ele>183.036638</ele>
        <time>2022-05-21T16:22:37.985Z</time>
      </trkpt>
      <trkpt lat="43.68241" lon="1.43104">
        <ele>183.038872</ele>
        <time>2022-05-21T16:22:40.034Z</time>
      </trkpt>
      <trkpt lat="43.68232" lon="1.43116">
        <ele>183.04111</ele>
        <time>2022-05-21T16:22:41.999Z</time>
      </trkpt>
      <trkpt lat="43.68222" lon="1.43127">
        <ele>183.043178</ele>
        <time>2022-05-21T16:22:44.007Z</time>
      </trkpt>
      <trkpt lat="43.68214" lon="1.43137">
        <ele>183.045201</ele>
        <time>2022-05-21T16:22:46.009Z</time>
      </trkpt>
      <trkpt lat="43.68205" lon="1.43148">
        <ele>183.047249</ele>
        <time>2022-05-21T16:22:48.010Z</time>
      </trkpt>
      <trkpt lat="43.68196" lon="1.43159">
        <ele>183.049296</ele>
        <time>2022-05-21T16:22:50.006Z</time>
      </trkpt>
      <trkpt lat="43.68187" lon="1.43171">
        <ele>183.051467</ele>
        <time>2022-05-21T16:22:52.017Z</time>
      </trkpt>
      <trkpt lat="43.68178" lon="1.43183">
        <ele>183.053616</ele>
        <time>2022-05-21T16:22:54.008Z</time>
      </trkpt>
      <trkpt lat="43.68169" lon="1.43194">
        <ele>183.055676</ele>
        <time>2022-05-21T16:22:56.027Z</time>
      </trkpt>
      <trkpt lat="43.68161" lon="1.43205">
        <ele>183.057643</ele>
        <time>2022-05-21T16:22:58.011Z</time>
      </trkpt>
      <trkpt lat="43.68153" lon="1.43216">
        <ele>183.059597</ele>
        <time>2022-05-21T16:23:00.018Z</time>
      </trkpt>
      <trkpt lat="43.68144" lon="1.43227">
        <ele>183.061691</ele>
        <time>2022-05-21T16:23:01.998Z</time>
      </trkpt>
      <trkpt lat="43.68135" lon="1.43238">
        <ele>183.063826</ele>
        <time>2022-05-21T16:23:04.006Z</time>
      </trkpt>
      <trkpt lat="43.68125" lon="1.43247">
        <ele>183.092807</ele>
        <time>2022-05-21T16:23:06.018Z</time>
      </trkpt>
      <trkpt lat="43.68117" lon="1.43258">
        <ele>183.121716</ele>
        <time>2022-05-21T16:23:08.036Z</time>
      </trkpt>
      <trkpt lat="43.68108" lon="1.43269">
        <ele>183.151741</ele>
        <time>2022-05-21T16:23:10.017Z</time>
      </trkpt>
      <trkpt lat="43.68101" lon="1.43281">
        <ele>183.179541</ele>
        <time>2022-05-21T16:23:12.006Z</time>
      </trkpt>
      <trkpt lat="43.68094" lon="1.43293">
        <ele>183.207425</ele>
        <time>2022-05-21T16:23:14.006Z</time>
      </trkpt>
      <trkpt lat="43.68086" lon="1.43304">
        <ele>183.235371</ele>
        <time>2022-05-21T16:23:16.002Z</time>
      </trkpt>
      <trkpt lat="43.68079" lon="1.43317">
        <ele>183.264899</ele>
        <time>2022-05-21T16:23:18.005Z</time>
      </trkpt>
      <trkpt lat="43.68071" lon="1.4333">
        <ele>183.2949</ele>
        <time>2022-05-21T16:23:20.008Z</time>
      </trkpt>
      <trkpt lat="43.68064" lon="1.43341">
        <ele>183.323149</ele>
        <time>2022-05-21T16:23:22.020Z</time>
      </trkpt>
      <trkpt lat="43.68058" lon="1.43353">
        <ele>183.348871</ele>
        <time>2022-05-21T16:23:24.020Z</time>
      </trkpt>
      <trkpt lat="43.68057" lon="1.43366">
        <ele>183.37253</ele>
        <time>2022-05-21T16:23:26.018Z</time>
      </trkpt>
      <trkpt lat="43.6806" lon="1.43379">
        <ele>183.39814</ele>
        <time>2022-05-21T16:23:28.021Z</time>
      </trkpt>
      <trkpt lat="43.68056" lon="1.43391">
        <ele>183.42217</ele>
        <time>2022-05-21T16:23:31.001Z</time>
      </trkpt>
      <trkpt lat="43.68044" lon="1.43396">
        <ele>183.453279</ele>
        <time>2022-05-21T16:23:34.999Z</time>
      </trkpt>
      <trkpt lat="43.68034" lon="1.43405">
        <ele>183.483116</ele>
        <time>2022-05-21T16:23:37.998Z</time>
      </trkpt>
      <trkpt lat="43.68026" lon="1.43415">
        <ele>183.509241</ele>
        <time>2022-05-21T16:23:40.008Z</time>
      </trkpt>
      <trkpt lat="43.68017" lon="1.43421">
        <ele>183.470223</ele>
        <time>2022-05-21T16:23:42.001Z</time>
      </trkpt>
      <trkpt lat="43.68008" lon="1.4343">
        <ele>183.408488</ele>
        <time>2022-05-21T16:23:44.010Z</time>
      </trkpt>
      <trkpt lat="43.68001" lon="1.43441">
        <ele>183.350825</ele>
        <time>2022-05-21T16:23:46.003Z</time>
      </trkpt>
      <trkpt lat="43.67994" lon="1.43455">
        <ele>183.280918</ele>
        <time>2022-05-21T16:23:48.006Z</time>
      </trkpt>
      <trkpt lat="43.67985" lon="1.43466">
        <ele>183.214255</ele>
        <time>2022-05-21T16:23:49.995Z</time>
      </trkpt>
      <trkpt lat="43.67977" lon="1.43478">
        <ele>183.149332</ele>
        <time>2022-05-21T16:23:52.022Z</time>
      </trkpt>
      <trkpt lat="43.67968" lon="1.43489">
        <ele>183.082489</ele>
        <time>2022-05-21T16:23:54.012Z</time>
      </trkpt>
      <trkpt lat="43.6796" lon="1.435">
        <ele>183.017849</ele>
        <time>2022-05-21T16:23:56.023Z</time>
      </trkpt>
      <trkpt lat="43.67951" lon="1.43511">
        <ele>182.953321</ele>
        <time>2022-05-21T16:23:58.035Z</time>
      </trkpt>
      <trkpt lat="43.67943" lon="1.43523">
        <ele>182.886562</ele>
        <time>2022-05-21T16:24:00.031Z</time>
      </trkpt>
      <trkpt lat="43.67936" lon="1.43536">
        <ele>182.820734</ele>
        <time>2022-05-21T16:24:02.039Z</time>
      </trkpt>
      <trkpt lat="43.67929" lon="1.43548">
        <ele>182.757325</ele>
        <time>2022-05-21T16:24:04.022Z</time>
      </trkpt>
      <trkpt lat="43.67921" lon="1.4356">
        <ele>182.693389</ele>
        <time>2022-05-21T16:24:06.025Z</time>
      </trkpt>
      <trkpt lat="43.67914" lon="1.43572">
        <ele>182.630891</ele>
        <time>2022-05-21T16:24:08.018Z</time>
      </trkpt>
      <trkpt lat="43.67906" lon="1.43584">
        <ele>182.566706</ele>
        <time>2022-05-21T16:24:10.014Z</time>
      </trkpt>
      <trkpt lat="43.67898" lon="1.43596">
        <ele>182.512482</ele>
        <time>2022-05-21T16:24:12.012Z</time>
      </trkpt>
      <trkpt lat="43.6789" lon="1.43608">
        <ele>182.51375</ele>
        <time>2022-05-21T16:24:14.016Z</time>
      </trkpt>
      <trkpt lat="43.67881" lon="1.43616">
        <ele>182.514965</ele>
        <time>2022-05-21T16:24:16.021Z</time>
      </trkpt>
      <trkpt lat="43.67871" lon="1.43623">
        <ele>182.516158</ele>
        <time>2022-05-21T16:24:18.026Z</time>
      </trkpt>
      <trkpt lat="43.67863" lon="1.43634">
        <ele>182.517329</ele>
        <time>2022-05-21T16:24:19.998Z</time>
      </trkpt>
      <trkpt lat="43.67855" lon="1.43644">
        <ele>182.518517</ele>
        <time>2022-05-21T16:24:21.992Z</time>
      </trkpt>
      <trkpt lat="43.67847" lon="1.43655">
        <ele>182.519709</ele>
        <time>2022-05-21T16:24:24.021Z</time>
      </trkpt>
      <trkpt lat="43.67839" lon="1.43666">
        <ele>182.520962</ele>
        <time>2022-05-21T16:24:26.024Z</time>
      </trkpt>
      <trkpt lat="43.6783" lon="1.43677">
        <ele>182.522223</ele>
        <time>2022-05-21T16:24:28.026Z</time>
      </trkpt>
      <trkpt lat="43.67822" lon="1.43688">
        <ele>182.523464</ele>
        <time>2022-05-21T16:24:30.009Z</time>
      </trkpt>
      <trkpt lat="43.67813" lon="1.43699">
        <ele>182.5247</ele>
        <time>2022-05-21T16:24:32.015Z</time>
      </trkpt>
      <trkpt lat="43.67805" lon="1.4371">
        <ele>182.525967</ele>
        <time>2022-05-21T16:24:34.028Z</time>
      </trkpt>
      <trkpt lat="43.67796" lon="1.43721">
        <ele>182.527234</ele>
        <time>2022-05-21T16:24:36.005Z</time>
      </trkpt>
      <trkpt lat="43.67788" lon="1.43732">
        <ele>182.528458</ele>
        <time>2022-05-21T16:24:38.013Z</time>
      </trkpt>
      <trkpt lat="43.67779" lon="1.43743">
        <ele>182.529675</ele>
        <time>2022-05-21T16:24:40.028Z</time>
      </trkpt>
      <trkpt lat="43.6777" lon="1.43752">
        <ele>182.530897</ele>
        <time>2022-05-21T16:24:42.010Z</time>
      </trkpt>
      <trkpt lat="43.67761" lon="1.43761">
        <ele>182.584785</ele>
        <time>2022-05-21T16:24:43.991Z</time>
      </trkpt>
      <trkpt lat="43.67751" lon="1.43769">
        <ele>182.721463</ele>
        <time>2022-05-21T16:24:46.002Z</time>
      </trkpt>
      <trkpt lat="43.67741" lon="1.43775">
        <ele>182.856111</ele>
        <time>2022-05-21T16:24:48.008Z</time>
      </trkpt>
      <trkpt lat="43.6773" lon="1.43782">
        <ele>182.995767</ele>
        <time>2022-05-21T16:24:50.003Z</time>
      </trkpt>
      <trkpt lat="43.6772" lon="1.43789">
        <ele>183.133987</ele>
        <time>2022-05-21T16:24:52.014Z</time>
      </trkpt>
      <trkpt lat="43.6771" lon="1.43798">
        <ele>183.268827</ele>
        <time>2022-05-21T16:24:54.009Z</time>
      </trkpt>
      <trkpt lat="43.677" lon="1.43807">
        <ele>183.413188</ele>
        <time>2022-05-21T16:24:57.014Z</time>
      </trkpt>
      <trkpt lat="43.67691" lon="1.43815">
        <ele>183.539455</ele>
        <time>2022-05-21T16:25:00.017Z</time>
      </trkpt>
      <trkpt lat="43.67681" lon="1.43825">
        <ele>183.679748</ele>
        <time>2022-05-21T16:25:03.014Z</time>
      </trkpt>
      <trkpt lat="43.67673" lon="1.43831">
        <ele>183.794301</ele>
        <time>2022-05-21T16:25:05.014Z</time>
      </trkpt>
      <trkpt lat="43.67663" lon="1.43838">
        <ele>183.921052</ele>
        <time>2022-05-21T16:25:07.017Z</time>
      </trkpt>
      <trkpt lat="43.67653" lon="1.43847">
        <ele>184.065594</ele>
        <time>2022-05-21T16:25:10.013Z</time>
      </trkpt>
      <trkpt lat="43.67643" lon="1.43857">
        <ele>184.21064</ele>
        <time>2022-05-21T16:25:14.008Z</time>
      </trkpt>
      <trkpt lat="43.67634" lon="1.43863">
        <ele>184.33024</ele>
        <time>2022-05-21T16:25:15.995Z</time>
      </trkpt>
      <trkpt lat="43.67624" lon="1.4387">
        <ele>184.459856</ele>
        <time>2022-05-21T16:25:18.010Z</time>
      </trkpt>
      <trkpt lat="43.67616" lon="1.43878">
        <ele>184.573312</ele>
        <time>2022-05-21T16:25:20.013Z</time>
      </trkpt>
      <trkpt lat="43.67607" lon="1.43883">
        <ele>184.638065</ele>
        <time>2022-05-21T16:25:23.008Z</time>
      </trkpt>
      <trkpt lat="43.67595" lon="1.43889">
        <ele>184.579739</ele>
        <time>2022-05-21T16:25:26.018Z</time>
      </trkpt>
      <trkpt lat="43.67586" lon="1.439">
        <ele>184.522954</ele>
        <time>2022-05-21T16:25:29.018Z</time>
      </trkpt>
      <trkpt lat="43.67578" lon="1.43915">
        <ele>184.46242</ele>
        <time>2022-05-21T16:25:32.006Z</time>
      </trkpt>
      <trkpt lat="43.6757" lon="1.43927">
        <ele>184.407559</ele>
        <time>2022-05-21T16:25:34.017Z</time>
      </trkpt>
      <trkpt lat="43.67563" lon="1.4394">
        <ele>184.352429</ele>
        <time>2022-05-21T16:25:36.010Z</time>
      </trkpt>
      <trkpt lat="43.67557" lon="1.43954">
        <ele>184.298848</ele>
        <time>2022-05-21T16:25:38.032Z</time>
      </trkpt>
      <trkpt lat="43.6755" lon="1.43968">
        <ele>184.242481</ele>
        <time>2022-05-21T16:25:40.000Z</time>
      </trkpt>
      <trkpt lat="43.67545" lon="1.43982">
        <ele>184.190114</ele>
        <time>2022-05-21T16:25:42.004Z</time>
      </trkpt>
      <trkpt lat="43.67539" lon="1.43993">
        <ele>184.144031</ele>
        <time>2022-05-21T16:25:44.009Z</time>
      </trkpt>
      <trkpt lat="43.67534" lon="1.44008">
        <ele>184.090231</ele>
        <time>2022-05-21T16:25:46.009Z</time>
      </trkpt>
      <trkpt lat="43.6753" lon="1.44022">
        <ele>184.03958</ele>
        <time>2022-05-21T16:25:47.996Z</time>
      </trkpt>
      <trkpt lat="43.67526" lon="1.44036">
        <ele>183.987993</ele>
        <time>2022-05-21T16:25:50.023Z</time>
      </trkpt>
      <trkpt lat="43.6752" lon="1.4405">
        <ele>183.934864</ele>
        <time>2022-05-21T16:25:52.020Z</time>
      </trkpt>
      <trkpt lat="43.67515" lon="1.44064">
        <ele>183.882287</ele>
        <time>2022-05-21T16:25:54.018Z</time>
      </trkpt>
      <trkpt lat="43.6751" lon="1.44078">
        <ele>183.830812</ele>
        <time>2022-05-21T16:25:56.021Z</time>
      </trkpt>
      <trkpt lat="43.67505" lon="1.44092">
        <ele>183.879438</ele>
        <time>2022-05-21T16:25:58.012Z</time>
      </trkpt>
      <trkpt lat="43.67501" lon="1.44106">
        <ele>183.946803</ele>
        <time>2022-05-21T16:26:00.010Z</time>
      </trkpt>
      <trkpt lat="43.67496" lon="1.44121">
        <ele>184.017311</ele>
        <time>2022-05-21T16:26:02.024Z</time>
      </trkpt>
      <trkpt lat="43.67492" lon="1.44136">
        <ele>184.087742</ele>
        <time>2022-05-21T16:26:04.016Z</time>
      </trkpt>
      <trkpt lat="43.67487" lon="1.44152">
        <ele>184.158519</ele>
        <time>2022-05-21T16:26:06.012Z</time>
      </trkpt>
      <trkpt lat="43.67483" lon="1.44167">
        <ele>184.229079</ele>
        <time>2022-05-21T16:26:08.017Z</time>
      </trkpt>
      <trkpt lat="43.67479" lon="1.44182">
        <ele>184.298608</ele>
        <time>2022-05-21T16:26:10.008Z</time>
      </trkpt>
      <trkpt lat="43.67475" lon="1.44197">
        <ele>184.366768</ele>
        <time>2022-05-21T16:26:12.022Z</time>
      </trkpt>
      <trkpt lat="43.67472" lon="1.44212">
        <ele>184.433828</ele>
        <time>2022-05-21T16:26:14.000Z</time>
      </trkpt>
      <trkpt lat="43.67469" lon="1.44227">
        <ele>184.501253</ele>
        <time>2022-05-21T16:26:16.011Z</time>
      </trkpt>
      <trkpt lat="43.67467" lon="1.44242">
        <ele>184.567699</ele>
        <time>2022-05-21T16:26:17.994Z</time>
      </trkpt>
      <trkpt lat="43.67464" lon="1.44257">
        <ele>184.635012</ele>
        <time>2022-05-21T16:26:20.004Z</time>
      </trkpt>
      <trkpt lat="43.67461" lon="1.44273">
        <ele>184.702293</ele>
        <time>2022-05-21T16:26:22.024Z</time>
      </trkpt>
      <trkpt lat="43.67459" lon="1.44288">
        <ele>184.770022</ele>
        <time>2022-05-21T16:26:24.017Z</time>
      </trkpt>
      <trkpt lat="43.67458" lon="1.44304">
        <ele>184.837524</ele>
        <time>2022-05-21T16:26:26.011Z</time>
      </trkpt>
      <trkpt lat="43.67457" lon="1.44319">
        <ele>184.899698</ele>
        <time>2022-05-21T16:26:28.007Z</time>
      </trkpt>
      <trkpt lat="43.67456" lon="1.44335">
        <ele>184.939827</ele>
        <time>2022-05-21T16:26:30.026Z</time>
      </trkpt>
      <trkpt lat="43.67454" lon="1.44351">
        <ele>184.980031</ele>
        <time>2022-05-21T16:26:32.031Z</time>
      </trkpt>
      <trkpt lat="43.67453" lon="1.44366">
        <ele>185.020638</ele>
        <time>2022-05-21T16:26:34.023Z</time>
      </trkpt>
      <trkpt lat="43.67452" lon="1.44383">
        <ele>185.062236</ele>
        <time>2022-05-21T16:26:36.020Z</time>
      </trkpt>
      <trkpt lat="43.67452" lon="1.44399">
        <ele>185.103554</ele>
        <time>2022-05-21T16:26:38.016Z</time>
      </trkpt>
      <trkpt lat="43.67451" lon="1.44415">
        <ele>185.145662</ele>
        <time>2022-05-21T16:26:40.025Z</time>
      </trkpt>
      <trkpt lat="43.6745" lon="1.44431">
        <ele>185.187704</ele>
        <time>2022-05-21T16:26:42.026Z</time>
      </trkpt>
      <trkpt lat="43.67449" lon="1.44448">
        <ele>185.229303</ele>
        <time>2022-05-21T16:26:44.024Z</time>
      </trkpt>
      <trkpt lat="43.67449" lon="1.44464">
        <ele>185.270833</ele>
        <time>2022-05-21T16:26:46.012Z</time>
      </trkpt>
      <trkpt lat="43.67448" lon="1.4448">
        <ele>185.312364</ele>
        <time>2022-05-21T16:26:48.023Z</time>
      </trkpt>
      <trkpt lat="43.67448" lon="1.44496">
        <ele>185.35412</ele>
        <time>2022-05-21T16:26:50.016Z</time>
      </trkpt>
      <trkpt lat="43.67447" lon="1.44513">
        <ele>185.39589</ele>
        <time>2022-05-21T16:26:52.013Z</time>
      </trkpt>
      <trkpt lat="43.67446" lon="1.44529">
        <ele>185.43744</ele>
        <time>2022-05-21T16:26:54.030Z</time>
      </trkpt>
      <trkpt lat="43.67446" lon="1.44545">
        <ele>185.479294</ele>
        <time>2022-05-21T16:26:56.011Z</time>
      </trkpt>
      <trkpt lat="43.67445" lon="1.44561">
        <ele>185.520552</ele>
        <time>2022-05-21T16:26:58.017Z</time>
      </trkpt>
      <trkpt lat="43.67444" lon="1.44578">
        <ele>185.57737</ele>
        <time>2022-05-21T16:27:00.021Z</time>
      </trkpt>
      <trkpt lat="43.67443" lon="1.44594">
        <ele>185.6374</ele>
        <time>2022-05-21T16:27:02.011Z</time>
      </trkpt>
      <trkpt lat="43.67441" lon="1.44609">
        <ele>185.695674</ele>
        <time>2022-05-21T16:27:04.050Z</time>
      </trkpt>
      <trkpt lat="43.6744" lon="1.44623">
        <ele>185.748437</ele>
        <time>2022-05-21T16:27:06.015Z</time>
      </trkpt>
      <trkpt lat="43.67438" lon="1.44639">
        <ele>185.807536</ele>
        <time>2022-05-21T16:27:09.033Z</time>
      </trkpt>
      <trkpt lat="43.67439" lon="1.4467">
        <ele>185.923073</ele>
        <time>2022-05-21T16:27:45.013Z</time>
      </trkpt>
      <trkpt lat="43.6744" lon="1.44687">
        <ele>185.987909</ele>
        <time>2022-05-21T16:27:49.012Z</time>
      </trkpt>
      <trkpt lat="43.67442" lon="1.44704">
        <ele>186.051562</ele>
        <time>2022-05-21T16:27:52.006Z</time>
      </trkpt>
      <trkpt lat="43.67442" lon="1.4472">
        <ele>186.110991</ele>
        <time>2022-05-21T16:27:55.027Z</time>
      </trkpt>
      <trkpt lat="43.67444" lon="1.44734">
        <ele>186.16081</ele>
        <time>2022-05-21T16:27:59.022Z</time>
      </trkpt>
      <trkpt lat="43.67446" lon="1.44747">
        <ele>186.211373</ele>
        <time>2022-05-21T16:28:05.011Z</time>
      </trkpt>
      <trkpt lat="43.67447" lon="1.44761">
        <ele>186.263466</ele>
        <time>2022-05-21T16:28:10.013Z</time>
      </trkpt>
      <trkpt lat="43.67449" lon="1.44774">
        <ele>186.312599</ele>
        <time>2022-05-21T16:28:13.014Z</time>
      </trkpt>
      <trkpt lat="43.67451" lon="1.4479">
        <ele>186.37552</ele>
        <time>2022-05-21T16:28:16.012Z</time>
      </trkpt>
      <trkpt lat="43.67452" lon="1.44803">
        <ele>186.421911</ele>
        <time>2022-05-21T16:28:17.994Z</time>
      </trkpt>
      <trkpt lat="43.67454" lon="1.44816">
        <ele>186.449225</ele>
        <time>2022-05-21T16:28:20.028Z</time>
      </trkpt>
      <trkpt lat="43.67456" lon="1.4483">
        <ele>186.441327</ele>
        <time>2022-05-21T16:28:22.023Z</time>
      </trkpt>
      <trkpt lat="43.67457" lon="1.44844">
        <ele>186.433265</ele>
        <time>2022-05-21T16:28:24.017Z</time>
      </trkpt>
      <trkpt lat="43.6746" lon="1.44859">
        <ele>186.424963</ele>
        <time>2022-05-21T16:28:26.012Z</time>
      </trkpt>
      <trkpt lat="43.67463" lon="1.44873">
        <ele>186.41671</ele>
        <time>2022-05-21T16:28:28.019Z</time>
      </trkpt>
      <trkpt lat="43.67467" lon="1.44887">
        <ele>186.408487</ele>
        <time>2022-05-21T16:28:30.009Z</time>
      </trkpt>
      <trkpt lat="43.67471" lon="1.44901">
        <ele>186.400237</ele>
        <time>2022-05-21T16:28:32.027Z</time>
      </trkpt>
      <trkpt lat="43.67474" lon="1.44915">
        <ele>186.392015</ele>
        <time>2022-05-21T16:28:34.030Z</time>
      </trkpt>
      <trkpt lat="43.67478" lon="1.44929">
        <ele>186.383765</ele>
        <time>2022-05-21T16:28:36.019Z</time>
      </trkpt>
      <trkpt lat="43.67482" lon="1.44943">
        <ele>186.375463</ele>
        <time>2022-05-21T16:28:38.016Z</time>
      </trkpt>
      <trkpt lat="43.67486" lon="1.44957">
        <ele>186.367076</ele>
        <time>2022-05-21T16:28:40.017Z</time>
      </trkpt>
      <trkpt lat="43.6749" lon="1.44971">
        <ele>186.358587</ele>
        <time>2022-05-21T16:28:42.000Z</time>
      </trkpt>
      <trkpt lat="43.67495" lon="1.44985">
        <ele>186.350061</ele>
        <time>2022-05-21T16:28:44.016Z</time>
      </trkpt>
      <trkpt lat="43.67501" lon="1.44998">
        <ele>186.341679</ele>
        <time>2022-05-21T16:28:46.014Z</time>
      </trkpt>
      <trkpt lat="43.67501" lon="1.45011">
        <ele>186.334319</ele>
        <time>2022-05-21T16:28:48.025Z</time>
      </trkpt>
      <trkpt lat="43.67492" lon="1.45019">
        <ele>186.32641</ele>
        <time>2022-05-21T16:28:50.015Z</time>
      </trkpt>
      <trkpt lat="43.67482" lon="1.45026">
        <ele>186.31769</ele>
        <time>2022-05-21T16:28:52.021Z</time>
      </trkpt>
      <trkpt lat="43.67472" lon="1.45033">
        <ele>186.323294</ele>
        <time>2022-05-21T16:28:54.007Z</time>
      </trkpt>
      <trkpt lat="43.67463" lon="1.4504">
        <ele>186.336312</ele>
        <time>2022-05-21T16:28:56.022Z</time>
      </trkpt>
      <trkpt lat="43.67455" lon="1.4505">
        <ele>186.348972</ele>
        <time>2022-05-21T16:28:58.061Z</time>
      </trkpt>
      <trkpt lat="43.67451" lon="1.45064">
        <ele>186.362388</ele>
        <time>2022-05-21T16:29:00.002Z</time>
      </trkpt>
      <trkpt lat="43.67448" lon="1.45079">
        <ele>186.37623</ele>
        <time>2022-05-21T16:29:02.022Z</time>
      </trkpt>
      <trkpt lat="43.67446" lon="1.45093">
        <ele>186.389376</ele>
        <time>2022-05-21T16:29:04.015Z</time>
      </trkpt>
      <trkpt lat="43.67444" lon="1.45107">
        <ele>186.401563</ele>
        <time>2022-05-21T16:29:06.013Z</time>
      </trkpt>
      <trkpt lat="43.67446" lon="1.45119">
        <ele>186.41304</ele>
        <time>2022-05-21T16:29:08.005Z</time>
      </trkpt>
      <trkpt lat="43.67451" lon="1.4513">
        <ele>186.424273</ele>
        <time>2022-05-21T16:29:10.006Z</time>
      </trkpt>
      <trkpt lat="43.67456" lon="1.45142">
        <ele>186.436431</ele>
        <time>2022-05-21T16:29:12.013Z</time>
      </trkpt>
      <trkpt lat="43.67461" lon="1.45154">
        <ele>186.448715</ele>
        <time>2022-05-21T16:29:14.024Z</time>
      </trkpt>
      <trkpt lat="43.67465" lon="1.45168">
        <ele>186.462345</ele>
        <time>2022-05-21T16:29:16.032Z</time>
      </trkpt>
      <trkpt lat="43.6747" lon="1.45182">
        <ele>186.47622</ele>
        <time>2022-05-21T16:29:18.006Z</time>
      </trkpt>
      <trkpt lat="43.67475" lon="1.45196">
        <ele>186.490307</ele>
        <time>2022-05-21T16:29:20.012Z</time>
      </trkpt>
      <trkpt lat="43.6748" lon="1.4521">
        <ele>186.504369</ele>
        <time>2022-05-21T16:29:22.005Z</time>
      </trkpt>
      <trkpt lat="43.67486" lon="1.45222">
        <ele>186.51752</ele>
        <time>2022-05-21T16:29:24.006Z</time>
      </trkpt>
      <trkpt lat="43.67484" lon="1.45236">
        <ele>186.529336</ele>
        <time>2022-05-21T16:29:26.008Z</time>
      </trkpt>
      <trkpt lat="43.67475" lon="1.45242">
        <ele>186.548676</ele>
        <time>2022-05-21T16:29:28.003Z</time>
      </trkpt>
      <trkpt lat="43.67466" lon="1.4525">
        <ele>186.577962</ele>
        <time>2022-05-21T16:29:30.006Z</time>
      </trkpt>
      <trkpt lat="43.67455" lon="1.45256">
        <ele>186.607064</ele>
        <time>2022-05-21T16:29:32.008Z</time>
      </trkpt>
      <trkpt lat="43.67445" lon="1.4526">
        <ele>186.636218</ele>
        <time>2022-05-21T16:29:34.007Z</time>
      </trkpt>
      <trkpt lat="43.67434" lon="1.45264">
        <ele>186.666279</ele>
        <time>2022-05-21T16:29:35.998Z</time>
      </trkpt>
      <trkpt lat="43.67424" lon="1.4527">
        <ele>186.696012</ele>
        <time>2022-05-21T16:29:38.038Z</time>
      </trkpt>
      <trkpt lat="43.67413" lon="1.45277">
        <ele>186.726948</ele>
        <time>2022-05-21T16:29:40.027Z</time>
      </trkpt>
      <trkpt lat="43.67403" lon="1.45284">
        <ele>186.757332</ele>
        <time>2022-05-21T16:29:42.018Z</time>
      </trkpt>
      <trkpt lat="43.67392" lon="1.45291">
        <ele>186.788514</ele>
        <time>2022-05-21T16:29:44.010Z</time>
      </trkpt>
      <trkpt lat="43.67381" lon="1.45298">
        <ele>186.820172</ele>
        <time>2022-05-21T16:29:46.014Z</time>
      </trkpt>
      <trkpt lat="43.6737" lon="1.45304">
        <ele>186.851205</ele>
        <time>2022-05-21T16:29:48.019Z</time>
      </trkpt>
      <trkpt lat="43.67359" lon="1.45304">
        <ele>186.881659</ele>
        <time>2022-05-21T16:29:50.009Z</time>
      </trkpt>
      <trkpt lat="43.67347" lon="1.45301">
        <ele>186.912677</ele>
        <time>2022-05-21T16:29:52.014Z</time>
      </trkpt>
      <trkpt lat="43.67336" lon="1.45298">
        <ele>186.943955</ele>
        <time>2022-05-21T16:29:54.018Z</time>
      </trkpt>
      <trkpt lat="43.67324" lon="1.45296">
        <ele>186.974353</ele>
        <time>2022-05-21T16:29:56.031Z</time>
      </trkpt>
      <trkpt lat="43.67313" lon="1.45296">
        <ele>187.004269</ele>
        <time>2022-05-21T16:29:58.011Z</time>
      </trkpt>
      <trkpt lat="43.67302" lon="1.45301">
        <ele>187.018383</ele>
        <time>2022-05-21T16:30:00.008Z</time>
      </trkpt>
      <trkpt lat="43.67293" lon="1.45306">
        <ele>187.025684</ele>
        <time>2022-05-21T16:30:02.016Z</time>
      </trkpt>
      <trkpt lat="43.67283" lon="1.45311">
        <ele>187.032471</ele>
        <time>2022-05-21T16:30:04.037Z</time>
      </trkpt>
      <trkpt lat="43.67271" lon="1.45314">
        <ele>187.041427</ele>
        <time>2022-05-21T16:30:07.014Z</time>
      </trkpt>
      <trkpt lat="43.67262" lon="1.45304">
        <ele>187.049203</ele>
        <time>2022-05-21T16:30:10.012Z</time>
      </trkpt>
      <trkpt lat="43.67258" lon="1.4529">
        <ele>187.056635</ele>
        <time>2022-05-21T16:30:12.004Z</time>
      </trkpt>
      <trkpt lat="43.67254" lon="1.45276">
        <ele>187.064494</ele>
        <time>2022-05-21T16:30:14.007Z</time>
      </trkpt>
      <trkpt lat="43.6725" lon="1.45261">
        <ele>187.072306</ele>
        <time>2022-05-21T16:30:16.033Z</time>
      </trkpt>
      <trkpt lat="43.67245" lon="1.45247">
        <ele>187.080518</ele>
        <time>2022-05-21T16:30:18.018Z</time>
      </trkpt>
      <trkpt lat="43.67238" lon="1.45234">
        <ele>187.088365</ele>
        <time>2022-05-21T16:30:20.020Z</time>
      </trkpt>
      <trkpt lat="43.67232" lon="1.4522">
        <ele>187.09646</ele>
        <time>2022-05-21T16:30:22.022Z</time>
      </trkpt>
      <trkpt lat="43.67229" lon="1.45204">
        <ele>187.104828</ele>
        <time>2022-05-21T16:30:24.019Z</time>
      </trkpt>
      <trkpt lat="43.67225" lon="1.45188">
        <ele>187.113114</ele>
        <time>2022-05-21T16:30:26.018Z</time>
      </trkpt>
      <trkpt lat="43.67222" lon="1.45173">
        <ele>187.12101</ele>
        <time>2022-05-21T16:30:28.006Z</time>
      </trkpt>
      <trkpt lat="43.67219" lon="1.4516">
        <ele>187.127893</ele>
        <time>2022-05-21T16:30:29.994Z</time>
      </trkpt>
      <trkpt lat="43.67216" lon="1.45143">
        <ele>187.136792</ele>
        <time>2022-05-21T16:30:33.022Z</time>
      </trkpt>
      <trkpt lat="43.67213" lon="1.45127">
        <ele>187.030796</ele>
        <time>2022-05-21T16:30:36.019Z</time>
      </trkpt>
      <trkpt lat="43.67204" lon="1.45117">
        <ele>186.920788</ele>
        <time>2022-05-21T16:30:39.020Z</time>
      </trkpt>
      <trkpt lat="43.67191" lon="1.45122">
        <ele>186.777793</ele>
        <time>2022-05-21T16:30:42.032Z</time>
      </trkpt>
      <trkpt lat="43.67181" lon="1.4513">
        <ele>186.664016</ele>
        <time>2022-05-21T16:30:43.993Z</time>
      </trkpt>
      <trkpt lat="43.67171" lon="1.45138">
        <ele>186.545462</ele>
        <time>2022-05-21T16:30:46.014Z</time>
      </trkpt>
      <trkpt lat="43.67159" lon="1.45142">
        <ele>186.426942</ele>
        <time>2022-05-21T16:30:47.998Z</time>
      </trkpt>
      <trkpt lat="43.67149" lon="1.45135">
        <ele>186.30749</ele>
        <time>2022-05-21T16:30:50.007Z</time>
      </trkpt>
      <trkpt lat="43.67137" lon="1.45129">
        <ele>186.18506</ele>
        <time>2022-05-21T16:30:52.010Z</time>
      </trkpt>
      <trkpt lat="43.67126" lon="1.45136">
        <ele>186.062397</ele>
        <time>2022-05-21T16:30:54.010Z</time>
      </trkpt>
      <trkpt lat="43.67116" lon="1.45144">
        <ele>185.941368</ele>
        <time>2022-05-21T16:30:56.013Z</time>
      </trkpt>
      <trkpt lat="43.67106" lon="1.45152">
        <ele>185.826357</ele>
        <time>2022-05-21T16:30:57.999Z</time>
      </trkpt>
      <trkpt lat="43.67097" lon="1.45157">
        <ele>185.733539</ele>
        <time>2022-05-21T16:30:59.997Z</time>
      </trkpt>
      <trkpt lat="43.67087" lon="1.4516">
        <ele>185.629266</ele>
        <time>2022-05-21T16:31:02.999Z</time>
      </trkpt>
      <trkpt lat="43.67074" lon="1.45159">
        <ele>185.496895</ele>
        <time>2022-05-21T16:31:06.001Z</time>
      </trkpt>
      <trkpt lat="43.67068" lon="1.45146">
        <ele>185.382213</ele>
        <time>2022-05-21T16:31:08.006Z</time>
      </trkpt>
      <trkpt lat="43.67058" lon="1.45139">
        <ele>185.315796</ele>
        <time>2022-05-21T16:31:09.998Z</time>
      </trkpt>
      <trkpt lat="43.67048" lon="1.45146">
        <ele>185.294874</ele>
        <time>2022-05-21T16:31:12.006Z</time>
      </trkpt>
      <trkpt lat="43.67037" lon="1.45153">
        <ele>185.273018</ele>
        <time>2022-05-21T16:31:14.001Z</time>
      </trkpt>
      <trkpt lat="43.67026" lon="1.45159">
        <ele>185.251245</ele>
        <time>2022-05-21T16:31:16.008Z</time>
      </trkpt>
      <trkpt lat="43.67015" lon="1.45158">
        <ele>185.230201</ele>
        <time>2022-05-21T16:31:18.005Z</time>
      </trkpt>
      <trkpt lat="43.67009" lon="1.45145">
        <ele>185.209979</ele>
        <time>2022-05-21T16:31:19.995Z</time>
      </trkpt>
      <trkpt lat="43.67004" lon="1.45129">
        <ele>185.188079</ele>
        <time>2022-05-21T16:31:22.014Z</time>
      </trkpt>
      <trkpt lat="43.66998" lon="1.45115">
        <ele>185.166156</ele>
        <time>2022-05-21T16:31:24.019Z</time>
      </trkpt>
      <trkpt lat="43.6699" lon="1.45101">
        <ele>185.143076</ele>
        <time>2022-05-21T16:31:26.010Z</time>
      </trkpt>
      <trkpt lat="43.66983" lon="1.45087">
        <ele>185.120107</ele>
        <time>2022-05-21T16:31:28.011Z</time>
      </trkpt>
      <trkpt lat="43.66976" lon="1.45073">
        <ele>185.097346</ele>
        <time>2022-05-21T16:31:30.024Z</time>
      </trkpt>
      <trkpt lat="43.66969" lon="1.45059">
        <ele>185.07523</ele>
        <time>2022-05-21T16:31:32.015Z</time>
      </trkpt>
      <trkpt lat="43.66962" lon="1.45047">
        <ele>185.054291</ele>
        <time>2022-05-21T16:31:34.028Z</time>
      </trkpt>
      <trkpt lat="43.66955" lon="1.45033">
        <ele>185.032467</ele>
        <time>2022-05-21T16:31:36.023Z</time>
      </trkpt>
      <trkpt lat="43.6695" lon="1.45018">
        <ele>185.010504</ele>
        <time>2022-05-21T16:31:38.019Z</time>
      </trkpt>
      <trkpt lat="43.66944" lon="1.45003">
        <ele>184.97688</ele>
        <time>2022-05-21T16:31:40.017Z</time>
      </trkpt>
      <trkpt lat="43.66939" lon="1.44989">
        <ele>184.924636</ele>
        <time>2022-05-21T16:31:42.040Z</time>
      </trkpt>
      <trkpt lat="43.66934" lon="1.44974">
        <ele>184.872197</ele>
        <time>2022-05-21T16:31:44.002Z</time>
      </trkpt>
      <trkpt lat="43.66928" lon="1.4496">
        <ele>184.819206</ele>
        <time>2022-05-21T16:31:46.014Z</time>
      </trkpt>
      <trkpt lat="43.6692" lon="1.44948">
        <ele>184.766012</ele>
        <time>2022-05-21T16:31:48.012Z</time>
      </trkpt>
      <trkpt lat="43.6691" lon="1.4494">
        <ele>184.713064</ele>
        <time>2022-05-21T16:31:49.995Z</time>
      </trkpt>
      <trkpt lat="43.66898" lon="1.44936">
        <ele>184.659958</ele>
        <time>2022-05-21T16:31:52.008Z</time>
      </trkpt>
      <trkpt lat="43.66886" lon="1.44933">
        <ele>184.60651</ele>
        <time>2022-05-21T16:31:54.021Z</time>
      </trkpt>
      <trkpt lat="43.66874" lon="1.44931">
        <ele>184.553865</ele>
        <time>2022-05-21T16:31:56.019Z</time>
      </trkpt>
      <trkpt lat="43.66863" lon="1.44927">
        <ele>184.500734</ele>
        <time>2022-05-21T16:31:58.003Z</time>
      </trkpt>
      <trkpt lat="43.66851" lon="1.44925">
        <ele>184.447013</ele>
        <time>2022-05-21T16:32:00.009Z</time>
      </trkpt>
      <trkpt lat="43.66839" lon="1.44922">
        <ele>184.394172</ele>
        <time>2022-05-21T16:32:02.011Z</time>
      </trkpt>
      <trkpt lat="43.66827" lon="1.44918">
        <ele>184.340322</ele>
        <time>2022-05-21T16:32:04.020Z</time>
      </trkpt>
      <trkpt lat="43.66816" lon="1.44913">
        <ele>184.288882</ele>
        <time>2022-05-21T16:32:06.012Z</time>
      </trkpt>
      <trkpt lat="43.66806" lon="1.44909">
        <ele>184.238539</ele>
        <time>2022-05-21T16:32:08.014Z</time>
      </trkpt>
      <trkpt lat="43.66795" lon="1.44903">
        <ele>184.198434</ele>
        <time>2022-05-21T16:32:10.008Z</time>
      </trkpt>
      <trkpt lat="43.66784" lon="1.44896">
        <ele>184.213283</ele>
        <time>2022-05-21T16:32:12.016Z</time>
      </trkpt>
      <trkpt lat="43.66774" lon="1.44887">
        <ele>184.228498</ele>
        <time>2022-05-21T16:32:14.019Z</time>
      </trkpt>
      <trkpt lat="43.66764" lon="1.44878">
        <ele>184.243712</ele>
        <time>2022-05-21T16:32:16.012Z</time>
      </trkpt>
      <trkpt lat="43.66757" lon="1.44864">
        <ele>184.259051</ele>
        <time>2022-05-21T16:32:18.016Z</time>
      </trkpt>
      <trkpt lat="43.66754" lon="1.44848">
        <ele>184.274327</ele>
        <time>2022-05-21T16:32:20.021Z</time>
      </trkpt>
      <trkpt lat="43.66752" lon="1.44832">
        <ele>184.289573</ele>
        <time>2022-05-21T16:32:22.022Z</time>
      </trkpt>
      <trkpt lat="43.66743" lon="1.44821">
        <ele>184.30434</ele>
        <time>2022-05-21T16:32:24.015Z</time>
      </trkpt>
      <trkpt lat="43.66731" lon="1.44818">
        <ele>184.319216</ele>
        <time>2022-05-21T16:32:26.019Z</time>
      </trkpt>
      <trkpt lat="43.66721" lon="1.44824">
        <ele>184.33406</ele>
        <time>2022-05-21T16:32:28.014Z</time>
      </trkpt>
      <trkpt lat="43.6671" lon="1.44834">
        <ele>184.349795</ele>
        <time>2022-05-21T16:32:30.018Z</time>
      </trkpt>
      <trkpt lat="43.667" lon="1.44843">
        <ele>184.365313</ele>
        <time>2022-05-21T16:32:32.013Z</time>
      </trkpt>
      <trkpt lat="43.6669" lon="1.4485">
        <ele>184.379699</ele>
        <time>2022-05-21T16:32:34.029Z</time>
      </trkpt>
      <trkpt lat="43.66679" lon="1.44855">
        <ele>184.394288</ele>
        <time>2022-05-21T16:32:36.007Z</time>
      </trkpt>
      <trkpt lat="43.66667" lon="1.44858">
        <ele>184.410264</ele>
        <time>2022-05-21T16:32:38.003Z</time>
      </trkpt>
      <trkpt lat="43.66655" lon="1.44859">
        <ele>184.433455</ele>
        <time>2022-05-21T16:32:40.011Z</time>
      </trkpt>
      <trkpt lat="43.66643" lon="1.44857">
        <ele>184.575155</ele>
        <time>2022-05-21T16:32:42.005Z</time>
      </trkpt>
      <trkpt lat="43.66632" lon="1.44853">
        <ele>184.716888</ele>
        <time>2022-05-21T16:32:44.016Z</time>
      </trkpt>
      <trkpt lat="43.66622" lon="1.44843">
        <ele>184.869101</ele>
        <time>2022-05-21T16:32:46.011Z</time>
      </trkpt>
      <trkpt lat="43.66613" lon="1.44831">
        <ele>185.022436</ele>
        <time>2022-05-21T16:32:48.011Z</time>
      </trkpt>
      <trkpt lat="43.66605" lon="1.44818">
        <ele>185.171896</ele>
        <time>2022-05-21T16:32:50.020Z</time>
      </trkpt>
      <trkpt lat="43.66598" lon="1.44804">
        <ele>185.320409</ele>
        <time>2022-05-21T16:32:52.005Z</time>
      </trkpt>
      <trkpt lat="43.6659" lon="1.44791">
        <ele>185.466864</ele>
        <time>2022-05-21T16:32:54.023Z</time>
      </trkpt>
      <trkpt lat="43.66582" lon="1.44779">
        <ele>185.614194</ele>
        <time>2022-05-21T16:32:56.009Z</time>
      </trkpt>
      <trkpt lat="43.66575" lon="1.44766">
        <ele>185.760649</ele>
        <time>2022-05-21T16:32:58.008Z</time>
      </trkpt>
      <trkpt lat="43.66567" lon="1.44754">
        <ele>185.900067</ele>
        <time>2022-05-21T16:33:00.015Z</time>
      </trkpt>
      <trkpt lat="43.66558" lon="1.44744">
        <ele>186.039818</ele>
        <time>2022-05-21T16:33:01.999Z</time>
      </trkpt>
      <trkpt lat="43.6655" lon="1.44733">
        <ele>186.175894</ele>
        <time>2022-05-21T16:33:03.999Z</time>
      </trkpt>
      <trkpt lat="43.66541" lon="1.44725">
        <ele>186.303105</ele>
        <time>2022-05-21T16:33:06.008Z</time>
      </trkpt>
      <trkpt lat="43.66532" lon="1.4472">
        <ele>186.426498</ele>
        <time>2022-05-21T16:33:08.001Z</time>
      </trkpt>
      <trkpt lat="43.66523" lon="1.44716">
        <ele>186.54082</ele>
        <time>2022-05-21T16:33:10.014Z</time>
      </trkpt>
      <trkpt lat="43.66513" lon="1.44708">
        <ele>186.611705</ele>
        <time>2022-05-21T16:33:13.004Z</time>
      </trkpt>
      <trkpt lat="43.66506" lon="1.44719">
        <ele>186.60888</ele>
        <time>2022-05-21T16:33:18.005Z</time>
      </trkpt>
      <trkpt lat="43.665" lon="1.44736">
        <ele>186.605309</ele>
        <time>2022-05-21T16:33:21.000Z</time>
      </trkpt>
      <trkpt lat="43.66496" lon="1.44749">
        <ele>186.602686</ele>
        <time>2022-05-21T16:33:23.008Z</time>
      </trkpt>
      <trkpt lat="43.6649" lon="1.44762">
        <ele>186.59988</ele>
        <time>2022-05-21T16:33:25.016Z</time>
      </trkpt>
      <trkpt lat="43.66485" lon="1.44775">
        <ele>186.596966</ele>
        <time>2022-05-21T16:33:27.005Z</time>
      </trkpt>
      <trkpt lat="43.66479" lon="1.44789">
        <ele>186.59401</ele>
        <time>2022-05-21T16:33:29.007Z</time>
      </trkpt>
      <trkpt lat="43.66473" lon="1.44802">
        <ele>186.591036</ele>
        <time>2022-05-21T16:33:31.025Z</time>
      </trkpt>
      <trkpt lat="43.66466" lon="1.44816">
        <ele>186.587989</ele>
        <time>2022-05-21T16:33:33.013Z</time>
      </trkpt>
      <trkpt lat="43.66461" lon="1.44831">
        <ele>186.58484</ele>
        <time>2022-05-21T16:33:35.017Z</time>
      </trkpt>
      <trkpt lat="43.66455" lon="1.44846">
        <ele>186.58171</ele>
        <time>2022-05-21T16:33:37.013Z</time>
      </trkpt>
      <trkpt lat="43.66451" lon="1.44861">
        <ele>186.578592</ele>
        <time>2022-05-21T16:33:39.008Z</time>
      </trkpt>
      <trkpt lat="43.66448" lon="1.44878">
        <ele>186.575438</ele>
        <time>2022-05-21T16:33:41.005Z</time>
      </trkpt>
      <trkpt lat="43.66443" lon="1.44894">
        <ele>186.572187</ele>
        <time>2022-05-21T16:33:43.001Z</time>
      </trkpt>
      <trkpt lat="43.66437" lon="1.44908">
        <ele>186.569074</ele>
        <time>2022-05-21T16:33:45.010Z</time>
      </trkpt>
      <trkpt lat="43.66431" lon="1.44922">
        <ele>186.571035</ele>
        <time>2022-05-21T16:33:47.015Z</time>
      </trkpt>
      <trkpt lat="43.66427" lon="1.44937">
        <ele>186.601685</ele>
        <time>2022-05-21T16:33:49.011Z</time>
      </trkpt>
      <trkpt lat="43.66423" lon="1.44952">
        <ele>186.632637</ele>
        <time>2022-05-21T16:33:50.997Z</time>
      </trkpt>
      <trkpt lat="43.66418" lon="1.44966">
        <ele>186.664023</ele>
        <time>2022-05-21T16:33:53.032Z</time>
      </trkpt>
      <trkpt lat="43.66413" lon="1.44981">
        <ele>186.694929</ele>
        <time>2022-05-21T16:33:55.015Z</time>
      </trkpt>
      <trkpt lat="43.66409" lon="1.44997">
        <ele>186.726194</ele>
        <time>2022-05-21T16:33:57.003Z</time>
      </trkpt>
      <trkpt lat="43.66403" lon="1.4501">
        <ele>186.757514</ele>
        <time>2022-05-21T16:33:59.011Z</time>
      </trkpt>
      <trkpt lat="43.66398" lon="1.45025">
        <ele>186.788155</ele>
        <time>2022-05-21T16:34:01.019Z</time>
      </trkpt>
      <trkpt lat="43.66394" lon="1.45039">
        <ele>186.817794</ele>
        <time>2022-05-21T16:34:02.998Z</time>
      </trkpt>
      <trkpt lat="43.6639" lon="1.45054">
        <ele>186.849238</ele>
        <time>2022-05-21T16:34:05.025Z</time>
      </trkpt>
      <trkpt lat="43.66387" lon="1.4507">
        <ele>186.879936</ele>
        <time>2022-05-21T16:34:07.006Z</time>
      </trkpt>
      <trkpt lat="43.66383" lon="1.45085">
        <ele>186.910303</ele>
        <time>2022-05-21T16:34:09.023Z</time>
      </trkpt>
      <trkpt lat="43.66378" lon="1.45099">
        <ele>186.940838</ele>
        <time>2022-05-21T16:34:11.016Z</time>
      </trkpt>
      <trkpt lat="43.6637" lon="1.45111">
        <ele>186.971706</ele>
        <time>2022-05-21T16:34:13.005Z</time>
      </trkpt>
      <trkpt lat="43.66362" lon="1.45123">
        <ele>187.002871</ele>
        <time>2022-05-21T16:34:15.007Z</time>
      </trkpt>
      <trkpt lat="43.66357" lon="1.45137">
        <ele>187.033275</ele>
        <time>2022-05-21T16:34:17.017Z</time>
      </trkpt>
      <trkpt lat="43.66359" lon="1.45151">
        <ele>187.057859</ele>
        <time>2022-05-21T16:34:18.999Z</time>
      </trkpt>
      <trkpt lat="43.66355" lon="1.45169">
        <ele>187.088003</ele>
        <time>2022-05-21T16:34:22.007Z</time>
      </trkpt>
      <trkpt lat="43.66359" lon="1.45182">
        <ele>187.112319</ele>
        <time>2022-05-21T16:34:24.000Z</time>
      </trkpt>
      <trkpt lat="43.66356" lon="1.45195">
        <ele>187.134308</ele>
        <time>2022-05-21T16:34:26.008Z</time>
      </trkpt>
      <trkpt lat="43.66351" lon="1.45208">
        <ele>187.159287</ele>
        <time>2022-05-21T16:34:28.010Z</time>
      </trkpt>
      <trkpt lat="43.66344" lon="1.45221">
        <ele>187.185927</ele>
        <time>2022-05-21T16:34:30.000Z</time>
      </trkpt>
      <trkpt lat="43.66336" lon="1.45234">
        <ele>187.214575</ele>
        <time>2022-05-21T16:34:33.021Z</time>
      </trkpt>
      <trkpt lat="43.66326" lon="1.45245">
        <ele>187.242774</ele>
        <time>2022-05-21T16:34:36.012Z</time>
      </trkpt>
      <trkpt lat="43.66316" lon="1.45256">
        <ele>187.271962</ele>
        <time>2022-05-21T16:34:38.010Z</time>
      </trkpt>
      <trkpt lat="43.66308" lon="1.45272">
        <ele>187.304632</ele>
        <time>2022-05-21T16:34:40.029Z</time>
      </trkpt>
      <trkpt lat="43.66298" lon="1.45283">
        <ele>187.332669</ele>
        <time>2022-05-21T16:34:42.003Z</time>
      </trkpt>
      <trkpt lat="43.6629" lon="1.45293">
        <ele>187.357816</ele>
        <time>2022-05-21T16:34:44.008Z</time>
      </trkpt>
      <trkpt lat="43.66287" lon="1.45307">
        <ele>187.382499</ele>
        <time>2022-05-21T16:34:46.012Z</time>
      </trkpt>
      <trkpt lat="43.66281" lon="1.45321">
        <ele>187.409583</ele>
        <time>2022-05-21T16:34:48.012Z</time>
      </trkpt>
      <trkpt lat="43.66275" lon="1.45332">
        <ele>187.431807</ele>
        <time>2022-05-21T16:34:49.988Z</time>
      </trkpt>
      <trkpt lat="43.66271" lon="1.45346">
        <ele>187.455136</ele>
        <time>2022-05-21T16:34:53.010Z</time>
      </trkpt>
      <trkpt lat="43.66274" lon="1.4536">
        <ele>187.457611</ele>
        <time>2022-05-21T16:34:56.998Z</time>
      </trkpt>
      <trkpt lat="43.66279" lon="1.45372">
        <ele>187.459999</ele>
        <time>2022-05-21T16:34:59.006Z</time>
      </trkpt>
      <trkpt lat="43.66277" lon="1.45387">
        <ele>187.462663</ele>
        <time>2022-05-21T16:35:01.020Z</time>
      </trkpt>
      <trkpt lat="43.66272" lon="1.45403">
        <ele>187.465486</ele>
        <time>2022-05-21T16:35:03.027Z</time>
      </trkpt>
      <trkpt lat="43.66268" lon="1.45418">
        <ele>187.468271</ele>
        <time>2022-05-21T16:35:05.007Z</time>
      </trkpt>
      <trkpt lat="43.66263" lon="1.45433">
        <ele>187.471025</ele>
        <time>2022-05-21T16:35:07.016Z</time>
      </trkpt>
      <trkpt lat="43.6626" lon="1.45448">
        <ele>187.473702</ele>
        <time>2022-05-21T16:35:09.039Z</time>
      </trkpt>
      <trkpt lat="43.66257" lon="1.45463">
        <ele>187.476344</ele>
        <time>2022-05-21T16:35:11.029Z</time>
      </trkpt>
      <trkpt lat="43.66252" lon="1.45477">
        <ele>187.479024</ele>
        <time>2022-05-21T16:35:13.008Z</time>
      </trkpt>
      <trkpt lat="43.66247" lon="1.45492">
        <ele>187.481748</ele>
        <time>2022-05-21T16:35:15.017Z</time>
      </trkpt>
      <trkpt lat="43.66243" lon="1.45507">
        <ele>187.484446</ele>
        <time>2022-05-21T16:35:17.027Z</time>
      </trkpt>
      <trkpt lat="43.66239" lon="1.45522">
        <ele>187.487214</ele>
        <time>2022-05-21T16:35:19.024Z</time>
      </trkpt>
      <trkpt lat="43.66234" lon="1.45538">
        <ele>187.490191</ele>
        <time>2022-05-21T16:35:21.000Z</time>
      </trkpt>
      <trkpt lat="43.66229" lon="1.45553">
        <ele>187.492902</ele>
        <time>2022-05-21T16:35:23.011Z</time>
      </trkpt>
      <trkpt lat="43.66225" lon="1.45568">
        <ele>187.495682</ele>
        <time>2022-05-21T16:35:24.994Z</time>
      </trkpt>
      <trkpt lat="43.6622" lon="1.45583">
        <ele>187.492684</ele>
        <time>2022-05-21T16:35:27.013Z</time>
      </trkpt>
      <trkpt lat="43.66215" lon="1.45597">
        <ele>187.482867</ele>
        <time>2022-05-21T16:35:28.999Z</time>
      </trkpt>
      <trkpt lat="43.66212" lon="1.45613">
        <ele>187.473076</ele>
        <time>2022-05-21T16:35:30.998Z</time>
      </trkpt>
      <trkpt lat="43.66206" lon="1.45627">
        <ele>187.463426</ele>
        <time>2022-05-21T16:35:33.039Z</time>
      </trkpt>
      <trkpt lat="43.66195" lon="1.45632">
        <ele>187.454055</ele>
        <time>2022-05-21T16:35:35.009Z</time>
      </trkpt>
      <trkpt lat="43.66185" lon="1.45625">
        <ele>187.444433</ele>
        <time>2022-05-21T16:35:37.012Z</time>
      </trkpt>
      <trkpt lat="43.66177" lon="1.45613">
        <ele>187.434348</ele>
        <time>2022-05-21T16:35:39.025Z</time>
      </trkpt>
      <trkpt lat="43.66169" lon="1.45602">
        <ele>187.424641</ele>
        <time>2022-05-21T16:35:40.996Z</time>
      </trkpt>
      <trkpt lat="43.66162" lon="1.45592">
        <ele>187.416142</ele>
        <time>2022-05-21T16:35:43.026Z</time>
      </trkpt>
      <trkpt lat="43.66152" lon="1.45581">
        <ele>187.40616</ele>
        <time>2022-05-21T16:35:46.043Z</time>
      </trkpt>
      <trkpt lat="43.66144" lon="1.45574">
        <ele>187.397982</ele>
        <time>2022-05-21T16:35:48.004Z</time>
      </trkpt>
      <trkpt lat="43.66135" lon="1.45566">
        <ele>187.389118</ele>
        <time>2022-05-21T16:35:50.026Z</time>
      </trkpt>
      <trkpt lat="43.66126" lon="1.45556">
        <ele>187.379186</ele>
        <time>2022-05-21T16:35:52.019Z</time>
      </trkpt>
      <trkpt lat="43.66116" lon="1.45549">
        <ele>187.36991</ele>
        <time>2022-05-21T16:35:54.013Z</time>
      </trkpt>
      <trkpt lat="43.66107" lon="1.45542">
        <ele>187.361177</ele>
        <time>2022-05-21T16:35:56.013Z</time>
      </trkpt>
      <trkpt lat="43.66097" lon="1.45536">
        <ele>187.351912</ele>
        <time>2022-05-21T16:35:58.023Z</time>
      </trkpt>
      <trkpt lat="43.66086" lon="1.45531">
        <ele>187.402209</ele>
        <time>2022-05-21T16:36:00.000Z</time>
      </trkpt>
      <trkpt lat="43.66075" lon="1.45533">
        <ele>187.523989</ele>
        <time>2022-05-21T16:36:02.002Z</time>
      </trkpt>
      <trkpt lat="43.66064" lon="1.45533">
        <ele>187.639116</ele>
        <time>2022-05-21T16:36:03.991Z</time>
      </trkpt>
      <trkpt lat="43.66054" lon="1.45527">
        <ele>187.759834</ele>
        <time>2022-05-21T16:36:06.001Z</time>
      </trkpt>
      <trkpt lat="43.66044" lon="1.4552">
        <ele>187.887834</ele>
        <time>2022-05-21T16:36:08.005Z</time>
      </trkpt>
      <trkpt lat="43.66034" lon="1.45513">
        <ele>188.015918</ele>
        <time>2022-05-21T16:36:10.010Z</time>
      </trkpt>
      <trkpt lat="43.66024" lon="1.45504">
        <ele>188.142019</ele>
        <time>2022-05-21T16:36:11.997Z</time>
      </trkpt>
      <trkpt lat="43.66016" lon="1.45495">
        <ele>188.260115</ele>
        <time>2022-05-21T16:36:14.017Z</time>
      </trkpt>
      <trkpt lat="43.66007" lon="1.45488">
        <ele>188.372735</ele>
        <time>2022-05-21T16:36:16.015Z</time>
      </trkpt>
      <trkpt lat="43.65998" lon="1.45482">
        <ele>188.484668</ele>
        <time>2022-05-21T16:36:18.016Z</time>
      </trkpt>
      <trkpt lat="43.65988" lon="1.45479">
        <ele>188.593669</ele>
        <time>2022-05-21T16:36:20.014Z</time>
      </trkpt>
      <trkpt lat="43.65979" lon="1.45476">
        <ele>188.699908</ele>
        <time>2022-05-21T16:36:22.013Z</time>
      </trkpt>
      <trkpt lat="43.65972" lon="1.45466">
        <ele>188.814212</ele>
        <time>2022-05-21T16:36:24.014Z</time>
      </trkpt>
      <trkpt lat="43.65963" lon="1.45456">
        <ele>188.937037</ele>
        <time>2022-05-21T16:36:26.028Z</time>
      </trkpt>
      <trkpt lat="43.65952" lon="1.45451">
        <ele>189.06228</ele>
        <time>2022-05-21T16:36:28.011Z</time>
      </trkpt>
      <trkpt lat="43.65941" lon="1.45457">
        <ele>189.196701</ele>
        <time>2022-05-21T16:36:30.005Z</time>
      </trkpt>
      <trkpt lat="43.65932" lon="1.45467">
        <ele>189.326922</ele>
        <time>2022-05-21T16:36:32.001Z</time>
      </trkpt>
      <trkpt lat="43.65922" lon="1.45474">
        <ele>189.294308</ele>
        <time>2022-05-21T16:36:34.001Z</time>
      </trkpt>
      <trkpt lat="43.6591" lon="1.45476">
        <ele>189.247312</ele>
        <time>2022-05-21T16:36:36.011Z</time>
      </trkpt>
      <trkpt lat="43.65899" lon="1.45475">
        <ele>189.20087</ele>
        <time>2022-05-21T16:36:38.023Z</time>
      </trkpt>
      <trkpt lat="43.65888" lon="1.45471">
        <ele>189.155944</ele>
        <time>2022-05-21T16:36:40.005Z</time>
      </trkpt>
      <trkpt lat="43.65876" lon="1.45473">
        <ele>189.110406</ele>
        <time>2022-05-21T16:36:42.019Z</time>
      </trkpt>
      <trkpt lat="43.65865" lon="1.45475">
        <ele>189.062772</ele>
        <time>2022-05-21T16:36:44.027Z</time>
      </trkpt>
      <trkpt lat="43.65853" lon="1.45478">
        <ele>189.016777</ele>
        <time>2022-05-21T16:36:46.022Z</time>
      </trkpt>
      <trkpt lat="43.65842" lon="1.45482">
        <ele>188.969833</ele>
        <time>2022-05-21T16:36:48.004Z</time>
      </trkpt>
      <trkpt lat="43.65831" lon="1.45485">
        <ele>188.924387</ele>
        <time>2022-05-21T16:36:50.020Z</time>
      </trkpt>
      <trkpt lat="43.6582" lon="1.45489">
        <ele>188.87959</ele>
        <time>2022-05-21T16:36:52.018Z</time>
      </trkpt>
      <trkpt lat="43.65809" lon="1.45493">
        <ele>188.834196</ele>
        <time>2022-05-21T16:36:54.016Z</time>
      </trkpt>
      <trkpt lat="43.65798" lon="1.45493">
        <ele>188.790226</ele>
        <time>2022-05-21T16:36:56.005Z</time>
      </trkpt>
      <trkpt lat="43.65787" lon="1.45489">
        <ele>188.743873</ele>
        <time>2022-05-21T16:36:57.988Z</time>
      </trkpt>
      <trkpt lat="43.65775" lon="1.45486">
        <ele>188.695413</ele>
        <time>2022-05-21T16:37:00.004Z</time>
      </trkpt>
      <trkpt lat="43.65763" lon="1.45483">
        <ele>188.647506</ele>
        <time>2022-05-21T16:37:02.002Z</time>
      </trkpt>
      <trkpt lat="43.65751" lon="1.45481">
        <ele>188.58592</ele>
        <time>2022-05-21T16:37:04.010Z</time>
      </trkpt>
      <trkpt lat="43.65739" lon="1.45478">
        <ele>188.500897</ele>
        <time>2022-05-21T16:37:06.015Z</time>
      </trkpt>
      <trkpt lat="43.65727" lon="1.45474">
        <ele>188.414319</ele>
        <time>2022-05-21T16:37:08.002Z</time>
      </trkpt>
      <trkpt lat="43.65715" lon="1.45469">
        <ele>188.328631</ele>
        <time>2022-05-21T16:37:10.008Z</time>
      </trkpt>
      <trkpt lat="43.65703" lon="1.45464">
        <ele>188.242059</ele>
        <time>2022-05-21T16:37:12.017Z</time>
      </trkpt>
      <trkpt lat="43.65691" lon="1.45459">
        <ele>188.154819</ele>
        <time>2022-05-21T16:37:14.025Z</time>
      </trkpt>
      <trkpt lat="43.65679" lon="1.45455">
        <ele>188.066782</ele>
        <time>2022-05-21T16:37:16.019Z</time>
      </trkpt>
      <trkpt lat="43.65667" lon="1.4545">
        <ele>187.979542</ele>
        <time>2022-05-21T16:37:18.006Z</time>
      </trkpt>
      <trkpt lat="43.65655" lon="1.45446">
        <ele>187.895002</ele>
        <time>2022-05-21T16:37:20.010Z</time>
      </trkpt>
      <trkpt lat="43.65644" lon="1.45441">
        <ele>187.810432</ele>
        <time>2022-05-21T16:37:22.026Z</time>
      </trkpt>
      <trkpt lat="43.65632" lon="1.45435">
        <ele>187.725251</ele>
        <time>2022-05-21T16:37:24.017Z</time>
      </trkpt>
      <trkpt lat="43.65621" lon="1.4543">
        <ele>187.640571</ele>
        <time>2022-05-21T16:37:26.000Z</time>
      </trkpt>
      <trkpt lat="43.65609" lon="1.45425">
        <ele>187.558511</ele>
        <time>2022-05-21T16:37:28.009Z</time>
      </trkpt>
      <trkpt lat="43.65598" lon="1.45421">
        <ele>187.476794</ele>
        <time>2022-05-21T16:37:30.021Z</time>
      </trkpt>
      <trkpt lat="43.65587" lon="1.45417">
        <ele>187.395339</ele>
        <time>2022-05-21T16:37:32.007Z</time>
      </trkpt>
      <trkpt lat="43.65576" lon="1.45413">
        <ele>187.367641</ele>
        <time>2022-05-21T16:37:34.003Z</time>
      </trkpt>
      <trkpt lat="43.65564" lon="1.45409">
        <ele>187.374219</ele>
        <time>2022-05-21T16:37:36.018Z</time>
      </trkpt>
      <trkpt lat="43.65553" lon="1.45405">
        <ele>187.380854</ele>
        <time>2022-05-21T16:37:38.027Z</time>
      </trkpt>
      <trkpt lat="43.65541" lon="1.45401">
        <ele>187.387544</ele>
        <time>2022-05-21T16:37:39.985Z</time>
      </trkpt>
      <trkpt lat="43.6553" lon="1.45397">
        <ele>187.394308</ele>
        <time>2022-05-21T16:37:42.020Z</time>
      </trkpt>
      <trkpt lat="43.65518" lon="1.45392">
        <ele>187.400974</ele>
        <time>2022-05-21T16:37:44.028Z</time>
      </trkpt>
      <trkpt lat="43.65507" lon="1.45388">
        <ele>187.407749</ele>
        <time>2022-05-21T16:37:46.023Z</time>
      </trkpt>
      <trkpt lat="43.65495" lon="1.45384">
        <ele>187.414513</ele>
        <time>2022-05-21T16:37:48.005Z</time>
      </trkpt>
      <trkpt lat="43.65484" lon="1.4538">
        <ele>187.421179</ele>
        <time>2022-05-21T16:37:50.005Z</time>
      </trkpt>
      <trkpt lat="43.65473" lon="1.45374">
        <ele>187.42783</ele>
        <time>2022-05-21T16:37:52.014Z</time>
      </trkpt>
      <trkpt lat="43.65462" lon="1.4537">
        <ele>187.434355</ele>
        <time>2022-05-21T16:37:54.010Z</time>
      </trkpt>
      <trkpt lat="43.65451" lon="1.45366">
        <ele>187.440761</ele>
        <time>2022-05-21T16:37:56.022Z</time>
      </trkpt>
      <trkpt lat="43.65441" lon="1.45364">
        <ele>187.446589</ele>
        <time>2022-05-21T16:37:58.012Z</time>
      </trkpt>
      <trkpt lat="43.65438" lon="1.45346">
        <ele>187.453835</ele>
        <time>2022-05-21T16:38:01.012Z</time>
      </trkpt>
      <trkpt lat="43.65446" lon="1.45335">
        <ele>187.460298</ele>
        <time>2022-05-21T16:38:03.007Z</time>
      </trkpt>
      <trkpt lat="43.65454" lon="1.45323">
        <ele>187.464948</ele>
        <time>2022-05-21T16:38:05.010Z</time>
      </trkpt>
      <trkpt lat="43.65463" lon="1.45312">
        <ele>187.46381</ele>
        <time>2022-05-21T16:38:07.019Z</time>
      </trkpt>
      <trkpt lat="43.65472" lon="1.453">
        <ele>187.462673</ele>
        <time>2022-05-21T16:38:09.013Z</time>
      </trkpt>
      <trkpt lat="43.65481" lon="1.4529">
        <ele>187.461511</ele>
        <time>2022-05-21T16:38:11.022Z</time>
      </trkpt>
      <trkpt lat="43.6549" lon="1.45278">
        <ele>187.460332</ele>
        <time>2022-05-21T16:38:13.007Z</time>
      </trkpt>
      <trkpt lat="43.65498" lon="1.45265">
        <ele>187.459133</ele>
        <time>2022-05-21T16:38:15.029Z</time>
      </trkpt>
      <trkpt lat="43.65508" lon="1.45254">
        <ele>187.457932</ele>
        <time>2022-05-21T16:38:17.011Z</time>
      </trkpt>
      <trkpt lat="43.65518" lon="1.45244">
        <ele>187.456761</ele>
        <time>2022-05-21T16:38:19.019Z</time>
      </trkpt>
      <trkpt lat="43.65527" lon="1.45233">
        <ele>187.45559</ele>
        <time>2022-05-21T16:38:21.043Z</time>
      </trkpt>
      <trkpt lat="43.65537" lon="1.45222">
        <ele>187.454428</ele>
        <time>2022-05-21T16:38:23.006Z</time>
      </trkpt>
      <trkpt lat="43.65547" lon="1.45212">
        <ele>187.45326</ele>
        <time>2022-05-21T16:38:25.006Z</time>
      </trkpt>
      <trkpt lat="43.65556" lon="1.45201">
        <ele>187.452124</ele>
        <time>2022-05-21T16:38:27.013Z</time>
      </trkpt>
      <trkpt lat="43.65565" lon="1.45191">
        <ele>187.450983</ele>
        <time>2022-05-21T16:38:29.003Z</time>
      </trkpt>
      <trkpt lat="43.65575" lon="1.45181">
        <ele>187.449841</ele>
        <time>2022-05-21T16:38:31.019Z</time>
      </trkpt>
      <trkpt lat="43.65583" lon="1.45169">
        <ele>187.44871</ele>
        <time>2022-05-21T16:38:33.006Z</time>
      </trkpt>
      <trkpt lat="43.65592" lon="1.45159">
        <ele>187.478278</ele>
        <time>2022-05-21T16:38:35.008Z</time>
      </trkpt>
      <trkpt lat="43.656" lon="1.45146">
        <ele>187.538432</ele>
        <time>2022-05-21T16:38:36.993Z</time>
      </trkpt>
      <trkpt lat="43.65601" lon="1.4513">
        <ele>187.599334</ele>
        <time>2022-05-21T16:38:39.005Z</time>
      </trkpt>
      <trkpt lat="43.65597" lon="1.45115">
        <ele>187.658727</ele>
        <time>2022-05-21T16:38:41.000Z</time>
      </trkpt>
      <trkpt lat="43.65589" lon="1.45103">
        <ele>187.716696</ele>
        <time>2022-05-21T16:38:43.001Z</time>
      </trkpt>
      <trkpt lat="43.65581" lon="1.45092">
        <ele>187.775783</ele>
        <time>2022-05-21T16:38:45.001Z</time>
      </trkpt>
      <trkpt lat="43.65572" lon="1.4508">
        <ele>187.835031</ele>
        <time>2022-05-21T16:38:47.012Z</time>
      </trkpt>
      <trkpt lat="43.65566" lon="1.45071">
        <ele>187.883291</ele>
        <time>2022-05-21T16:38:49.002Z</time>
      </trkpt>
      <trkpt lat="43.65557" lon="1.45059">
        <ele>187.943327</ele>
        <time>2022-05-21T16:38:52.004Z</time>
      </trkpt>
      <trkpt lat="43.6555" lon="1.45049">
        <ele>187.994384</ele>
        <time>2022-05-21T16:38:54.004Z</time>
      </trkpt>
      <trkpt lat="43.65543" lon="1.45039">
        <ele>188.045178</ele>
        <time>2022-05-21T16:38:56.000Z</time>
      </trkpt>
      <trkpt lat="43.65536" lon="1.45029">
        <ele>188.097116</ele>
        <time>2022-05-21T16:38:58.000Z</time>
      </trkpt>
      <trkpt lat="43.6553" lon="1.4502">
        <ele>188.142838</ele>
        <time>2022-05-21T16:38:59.996Z</time>
      </trkpt>
      <trkpt lat="43.65523" lon="1.45012">
        <ele>188.188672</ele>
        <time>2022-05-21T16:39:01.998Z</time>
      </trkpt>
      <trkpt lat="43.65516" lon="1.45">
        <ele>188.245973</ele>
        <time>2022-05-21T16:39:04.016Z</time>
      </trkpt>
      <trkpt lat="43.65508" lon="1.44988">
        <ele>188.307616</ele>
        <time>2022-05-21T16:39:06.011Z</time>
      </trkpt>
      <trkpt lat="43.65499" lon="1.44976">
        <ele>188.362886</ele>
        <time>2022-05-21T16:39:07.998Z</time>
      </trkpt>
      <trkpt lat="43.65491" lon="1.44964">
        <ele>188.382257</ele>
        <time>2022-05-21T16:39:10.003Z</time>
      </trkpt>
      <trkpt lat="43.65483" lon="1.44951">
        <ele>188.401962</ele>
        <time>2022-05-21T16:39:12.014Z</time>
      </trkpt>
      <trkpt lat="43.65476" lon="1.44938">
        <ele>188.421494</ele>
        <time>2022-05-21T16:39:13.998Z</time>
      </trkpt>
      <trkpt lat="43.65475" lon="1.44921">
        <ele>188.441196</ele>
        <time>2022-05-21T16:39:15.991Z</time>
      </trkpt>
      <trkpt lat="43.6548" lon="1.44906">
        <ele>188.460136</ele>
        <time>2022-05-21T16:39:18.002Z</time>
      </trkpt>
      <trkpt lat="43.65487" lon="1.44892">
        <ele>188.480161</ele>
        <time>2022-05-21T16:39:19.993Z</time>
      </trkpt>
      <trkpt lat="43.65494" lon="1.44878">
        <ele>188.499983</ele>
        <time>2022-05-21T16:39:22.002Z</time>
      </trkpt>
      <trkpt lat="43.65501" lon="1.44864">
        <ele>188.520182</ele>
        <time>2022-05-21T16:39:23.994Z</time>
      </trkpt>
      <trkpt lat="43.65506" lon="1.44849">
        <ele>188.539652</ele>
        <time>2022-05-21T16:39:26.009Z</time>
      </trkpt>
      <trkpt lat="43.65511" lon="1.44834">
        <ele>188.559103</ele>
        <time>2022-05-21T16:39:27.991Z</time>
      </trkpt>
      <trkpt lat="43.65517" lon="1.4482">
        <ele>188.578245</ele>
        <time>2022-05-21T16:39:30.018Z</time>
      </trkpt>
      <trkpt lat="43.65526" lon="1.44808">
        <ele>188.598545</ele>
        <time>2022-05-21T16:39:32.016Z</time>
      </trkpt>
      <trkpt lat="43.65535" lon="1.44796">
        <ele>188.618687</ele>
        <time>2022-05-21T16:39:34.011Z</time>
      </trkpt>
      <trkpt lat="43.65543" lon="1.44782">
        <ele>188.63926</ele>
        <time>2022-05-21T16:39:36.019Z</time>
      </trkpt>
      <trkpt lat="43.6555" lon="1.44767">
        <ele>188.651277</ele>
        <time>2022-05-21T16:39:38.024Z</time>
      </trkpt>
      <trkpt lat="43.65558" lon="1.44756">
        <ele>188.651277</ele>
        <time>2022-05-21T16:39:40.017Z</time>
      </trkpt>
      <trkpt lat="43.65566" lon="1.44743">
        <ele>188.651277</ele>
        <time>2022-05-21T16:39:42.005Z</time>
      </trkpt>
      <trkpt lat="43.65573" lon="1.44729">
        <ele>188.651277</ele>
        <time>2022-05-21T16:39:44.021Z</time>
      </trkpt>
      <trkpt lat="43.65581" lon="1.44716">
        <ele>188.651277</ele>
        <time>2022-05-21T16:39:46.011Z</time>
      </trkpt>
      <trkpt lat="43.65588" lon="1.44703">
        <ele>188.651277</ele>
        <time>2022-05-21T16:39:48.010Z</time>
      </trkpt>
      <trkpt lat="43.65595" lon="1.44689">
        <ele>188.651277</ele>
        <time>2022-05-21T16:39:50.008Z</time>
      </trkpt>
      <trkpt lat="43.65601" lon="1.44676">
        <ele>188.651277</ele>
        <time>2022-05-21T16:39:52.012Z</time>
      </trkpt>
      <trkpt lat="43.65604" lon="1.44661">
        <ele>188.651277</ele>
        <time>2022-05-21T16:39:54.997Z</time>
      </trkpt>
      <trkpt lat="43.65605" lon="1.44648">
        <ele>188.651277</ele>
        <time>2022-05-21T16:39:58.001Z</time>
      </trkpt>
      <trkpt lat="43.65598" lon="1.44639">
        <ele>188.651277</ele>
        <time>2022-05-21T16:40:01.995Z</time>
      </trkpt>
      <trkpt lat="43.65588" lon="1.44635">
        <ele>188.651277</ele>
        <time>2022-05-21T16:40:04.997Z</time>
      </trkpt>
      <trkpt lat="43.65578" lon="1.44629">
        <ele>188.651277</ele>
        <time>2022-05-21T16:40:08.004Z</time>
      </trkpt>
      <trkpt lat="43.65568" lon="1.44625">
        <ele>188.651277</ele>
        <time>2022-05-21T16:40:11.006Z</time>
      </trkpt>
      <trkpt lat="43.6556" lon="1.44618">
        <ele>188.651277</ele>
        <time>2022-05-21T16:40:15.017Z</time>
      </trkpt>
      <trkpt lat="43.65566" lon="1.44591">
        <ele>188.651277</ele>
        <time>2022-05-21T16:40:49.020Z</time>
      </trkpt>
      <trkpt lat="43.65572" lon="1.44581">
        <ele>188.651277</ele>
        <time>2022-05-21T16:40:54.004Z</time>
      </trkpt>
      <trkpt lat="43.65576" lon="1.4458">
        <ele>188.651277</ele>
        <time>2022-05-21T16:41:52.229Z</time>
      </trkpt>
    </trkseg>
  </trk>
</gpx>